<?xml version='1.0' encoding='UTF-8'?><gpx version="1.1" creator="JPX - https://github.com/jenetics/jpx" xmlns="http://www.topografix.com/GPX/1/1"><trk><trkseg><trkpt lat="45.8632233" lon="8.6825317"><ele>264.0</ele><time>2026-05-03T06:44:16.836Z</time></trkpt><trkpt lat="45.8631583" lon="8.6825567"><ele>264.0</ele><time>2026-05-03T06:46:02.836Z</time></trkpt><trkpt lat="45.863105" lon="8.6826417"><ele>264.0</ele><time>2026-05-03T06:46:04.836Z</time></trkpt><trkpt lat="45.8631467" lon="8.682725"><ele>264.0</ele><time>2026-05-03T06:46:06.836Z</time></trkpt><trkpt lat="45.8632" lon="8.682775"><ele>264.0</ele><time>2026-05-03T06:46:07.836Z</time></trkpt><trkpt lat="45.8632533" lon="8.6828233"><ele>264.0</ele><time>2026-05-03T06:46:08.836Z</time></trkpt><trkpt lat="45.8633567" lon="8.68292"><ele>264.0</ele><time>2026-05-03T06:46:10.836Z</time></trkpt><trkpt lat="45.8634133" lon="8.6829733"><ele>264.0</ele><time>2026-05-03T06:46:11.836Z</time></trkpt><trkpt lat="45.8634833" lon="8.6830367"><ele>264.0</ele><time>2026-05-03T06:46:12.835Z</time></trkpt><trkpt lat="45.8635617" lon="8.6831083"><ele>264.0</ele><time>2026-05-03T06:46:13.835Z</time></trkpt><trkpt lat="45.86365" lon="8.6831733"><ele>264.0</ele><time>2026-05-03T06:46:14.835Z</time></trkpt><trkpt lat="45.8637417" lon="8.6832333"><ele>264.0</ele><time>2026-05-03T06:46:15.836Z</time></trkpt><trkpt lat="45.8638333" lon="8.6832983"><ele>265.4</ele><time>2026-05-03T06:46:16.836Z</time></trkpt><trkpt lat="45.8639217" lon="8.68337"><ele>266.79999999999995</ele><time>2026-05-03T06:46:17.835Z</time></trkpt><trkpt lat="45.8640067" lon="8.6834533"><ele>268.20000000000005</ele><time>2026-05-03T06:46:18.836Z</time></trkpt><trkpt lat="45.8640983" lon="8.6835433"><ele>269.6</ele><time>2026-05-03T06:46:19.836Z</time></trkpt><trkpt lat="45.8641867" lon="8.6836317"><ele>271.0</ele><time>2026-05-03T06:46:20.836Z</time></trkpt><trkpt lat="45.8642833" lon="8.6837067"><ele>272.6</ele><time>2026-05-03T06:46:21.835Z</time></trkpt><trkpt lat="45.8643817" lon="8.6837367"><ele>274.20000000000005</ele><time>2026-05-03T06:46:22.836Z</time></trkpt><trkpt lat="45.8644717" lon="8.68372"><ele>275.79999999999995</ele><time>2026-05-03T06:46:23.836Z</time></trkpt><trkpt lat="45.86456" lon="8.6836567"><ele>277.4</ele><time>2026-05-03T06:46:24.836Z</time></trkpt><trkpt lat="45.8646383" lon="8.6835617"><ele>279.0</ele><time>2026-05-03T06:46:25.835Z</time></trkpt><trkpt lat="45.8647167" lon="8.6834683"><ele>279.0</ele><time>2026-05-03T06:46:26.836Z</time></trkpt><trkpt lat="45.86481" lon="8.6834167"><ele>279.0</ele><time>2026-05-03T06:46:27.835Z</time></trkpt><trkpt lat="45.8649133" lon="8.68339"><ele>279.0</ele><time>2026-05-03T06:46:28.836Z</time></trkpt><trkpt lat="45.8650183" lon="8.6833783"><ele>279.0</ele><time>2026-05-03T06:46:29.836Z</time></trkpt><trkpt lat="45.8651183" lon="8.6833583"><ele>279.0</ele><time>2026-05-03T06:46:30.836Z</time></trkpt><trkpt lat="45.8652083" lon="8.6833533"><ele>279.5</ele><time>2026-05-03T06:46:31.835Z</time></trkpt><trkpt lat="45.8652833" lon="8.6833683"><ele>280.0</ele><time>2026-05-03T06:46:32.836Z</time></trkpt><trkpt lat="45.8653483" lon="8.6834067"><ele>280.5</ele><time>2026-05-03T06:46:33.835Z</time></trkpt><trkpt lat="45.865415" lon="8.6835467"><ele>281.0</ele><time>2026-05-03T06:46:35.836Z</time></trkpt><trkpt lat="45.8654067" lon="8.683655"><ele>281.5</ele><time>2026-05-03T06:46:36.835Z</time></trkpt><trkpt lat="45.8653783" lon="8.68378"><ele>282.0</ele><time>2026-05-03T06:46:37.836Z</time></trkpt><trkpt lat="45.8653333" lon="8.6839033"><ele>283.0</ele><time>2026-05-03T06:46:38.836Z</time></trkpt><trkpt lat="45.8653017" lon="8.6840233"><ele>284.0</ele><time>2026-05-03T06:46:39.835Z</time></trkpt><trkpt lat="45.8652967" lon="8.6841333"><ele>285.0</ele><time>2026-05-03T06:46:40.836Z</time></trkpt><trkpt lat="45.8653233" lon="8.6842283"><ele>286.0</ele><time>2026-05-03T06:46:41.836Z</time></trkpt><trkpt lat="45.8653917" lon="8.6843133"><ele>287.0</ele><time>2026-05-03T06:46:42.835Z</time></trkpt><trkpt lat="45.8654533" lon="8.6844117"><ele>288.0</ele><time>2026-05-03T06:46:43.836Z</time></trkpt><trkpt lat="45.865505" lon="8.6845283"><ele>288.8</ele><time>2026-05-03T06:46:44.836Z</time></trkpt><trkpt lat="45.8655383" lon="8.684665"><ele>289.6</ele><time>2026-05-03T06:46:45.836Z</time></trkpt><trkpt lat="45.8655667" lon="8.6848167"><ele>290.4</ele><time>2026-05-03T06:46:46.835Z</time></trkpt><trkpt lat="45.865585" lon="8.6849733"><ele>291.2</ele><time>2026-05-03T06:46:47.836Z</time></trkpt><trkpt lat="45.8656" lon="8.6851183"><ele>292.0</ele><time>2026-05-03T06:46:48.835Z</time></trkpt><trkpt lat="45.8656167" lon="8.6852433"><ele>293.2</ele><time>2026-05-03T06:46:49.836Z</time></trkpt><trkpt lat="45.865635" lon="8.6853433"><ele>294.4</ele><time>2026-05-03T06:46:50.836Z</time></trkpt><trkpt lat="45.865655" lon="8.6854867"><ele>295.6</ele><time>2026-05-03T06:46:52.836Z</time></trkpt><trkpt lat="45.86569" lon="8.68558"><ele>296.8</ele><time>2026-05-03T06:46:55.836Z</time></trkpt><trkpt lat="45.8658067" lon="8.6855133"><ele>298.0</ele><time>2026-05-03T06:46:57.835Z</time></trkpt><trkpt lat="45.8658883" lon="8.6854317"><ele>297.5</ele><time>2026-05-03T06:46:58.836Z</time></trkpt><trkpt lat="45.865985" lon="8.6853333"><ele>297.0</ele><time>2026-05-03T06:46:59.836Z</time></trkpt><trkpt lat="45.8660933" lon="8.6852217"><ele>296.5</ele><time>2026-05-03T06:47:00.836Z</time></trkpt><trkpt lat="45.8662017" lon="8.6851233"><ele>296.0</ele><time>2026-05-03T06:47:01.836Z</time></trkpt><trkpt lat="45.8663067" lon="8.6850267"><ele>296.0</ele><time>2026-05-03T06:47:02.835Z</time></trkpt><trkpt lat="45.866405" lon="8.6849367"><ele>296.0</ele><time>2026-05-03T06:47:03.836Z</time></trkpt><trkpt lat="45.8664983" lon="8.6848483"><ele>296.0</ele><time>2026-05-03T06:47:04.836Z</time></trkpt><trkpt lat="45.866605" lon="8.6847617"><ele>296.0</ele><time>2026-05-03T06:47:05.835Z</time></trkpt><trkpt lat="45.8667267" lon="8.68471"><ele>297.25</ele><time>2026-05-03T06:47:06.836Z</time></trkpt><trkpt lat="45.8668467" lon="8.6846367"><ele>298.5</ele><time>2026-05-03T06:47:07.836Z</time></trkpt><trkpt lat="45.8669567" lon="8.68457"><ele>299.75</ele><time>2026-05-03T06:47:08.835Z</time></trkpt><trkpt lat="45.86706" lon="8.6844983"><ele>301.0</ele><time>2026-05-03T06:47:09.836Z</time></trkpt><trkpt lat="45.86715" lon="8.684435"><ele>301.0</ele><time>2026-05-03T06:47:10.836Z</time></trkpt><trkpt lat="45.86724" lon="8.6843817"><ele>301.0</ele><time>2026-05-03T06:47:11.836Z</time></trkpt><trkpt lat="45.8673233" lon="8.6843617"><ele>301.0</ele><time>2026-05-03T06:47:12.836Z</time></trkpt><trkpt lat="45.867405" lon="8.6843633"><ele>301.0</ele><time>2026-05-03T06:47:13.836Z</time></trkpt><trkpt lat="45.867485" lon="8.6844"><ele>301.0</ele><time>2026-05-03T06:47:14.835Z</time></trkpt><trkpt lat="45.8675633" lon="8.684465"><ele>301.0</ele><time>2026-05-03T06:47:15.835Z</time></trkpt><trkpt lat="45.8676333" lon="8.68456"><ele>303.0</ele><time>2026-05-03T06:47:16.836Z</time></trkpt><trkpt lat="45.8676867" lon="8.6846783"><ele>305.0</ele><time>2026-05-03T06:47:17.836Z</time></trkpt><trkpt lat="45.8677333" lon="8.6848117"><ele>307.0</ele><time>2026-05-03T06:47:18.836Z</time></trkpt><trkpt lat="45.8677667" lon="8.6849133"><ele>309.0</ele><time>2026-05-03T06:47:19.836Z</time></trkpt><trkpt lat="45.8678117" lon="8.6849767"><ele>311.0</ele><time>2026-05-03T06:47:20.835Z</time></trkpt><trkpt lat="45.867895" lon="8.68499"><ele>313.0</ele><time>2026-05-03T06:47:21.836Z</time></trkpt><trkpt lat="45.8680033" lon="8.6849767"><ele>313.0</ele><time>2026-05-03T06:47:22.836Z</time></trkpt><trkpt lat="45.8681217" lon="8.68496"><ele>313.0</ele><time>2026-05-03T06:47:23.836Z</time></trkpt><trkpt lat="45.8682383" lon="8.684935"><ele>313.0</ele><time>2026-05-03T06:47:24.836Z</time></trkpt><trkpt lat="45.868365" lon="8.6849167"><ele>313.0</ele><time>2026-05-03T06:47:25.836Z</time></trkpt><trkpt lat="45.8685017" lon="8.68491"><ele>314.6</ele><time>2026-05-03T06:47:26.836Z</time></trkpt><trkpt lat="45.8686283" lon="8.6848967"><ele>316.20000000000005</ele><time>2026-05-03T06:47:27.836Z</time></trkpt><trkpt lat="45.8687333" lon="8.68488"><ele>317.8</ele><time>2026-05-03T06:47:28.836Z</time></trkpt><trkpt lat="45.8688217" lon="8.6848417"><ele>319.40000000000003</ele><time>2026-05-03T06:47:29.836Z</time></trkpt><trkpt lat="45.8689067" lon="8.684785"><ele>321.0</ele><time>2026-05-03T06:47:30.836Z</time></trkpt><trkpt lat="45.8689917" lon="8.6847117"><ele>321.0</ele><time>2026-05-03T06:47:31.836Z</time></trkpt><trkpt lat="45.869085" lon="8.68464"><ele>321.0</ele><time>2026-05-03T06:47:32.836Z</time></trkpt><trkpt lat="45.8691817" lon="8.68457"><ele>321.0</ele><time>2026-05-03T06:47:33.836Z</time></trkpt><trkpt lat="45.8692683" lon="8.6844983"><ele>321.0</ele><time>2026-05-03T06:47:34.836Z</time></trkpt><trkpt lat="45.86934" lon="8.6844333"><ele>321.0</ele><time>2026-05-03T06:47:35.836Z</time></trkpt><trkpt lat="45.8694067" lon="8.68436"><ele>319.57142857142856</ele><time>2026-05-03T06:47:36.835Z</time></trkpt><trkpt lat="45.8694567" lon="8.6842767"><ele>318.1428571428571</ele><time>2026-05-03T06:47:37.835Z</time></trkpt><trkpt lat="45.8695133" lon="8.684205"><ele>316.71428571428567</ele><time>2026-05-03T06:47:38.836Z</time></trkpt><trkpt lat="45.8695717" lon="8.68415"><ele>315.2857142857143</ele><time>2026-05-03T06:47:39.836Z</time></trkpt><trkpt lat="45.8696433" lon="8.6841033"><ele>313.8571428571429</ele><time>2026-05-03T06:47:40.836Z</time></trkpt><trkpt lat="45.8697083" lon="8.684065"><ele>312.4285714285714</ele><time>2026-05-03T06:47:41.836Z</time></trkpt><trkpt lat="45.8697717" lon="8.684025"><ele>311.0</ele><time>2026-05-03T06:47:42.836Z</time></trkpt><trkpt lat="45.8698317" lon="8.6839833"><ele>311.0</ele><time>2026-05-03T06:47:43.835Z</time></trkpt><trkpt lat="45.86989" lon="8.68393"><ele>311.0</ele><time>2026-05-03T06:47:44.836Z</time></trkpt><trkpt lat="45.8699617" lon="8.6838783"><ele>311.0</ele><time>2026-05-03T06:47:45.835Z</time></trkpt><trkpt lat="45.8700367" lon="8.6838317"><ele>311.0</ele><time>2026-05-03T06:47:46.836Z</time></trkpt><trkpt lat="45.870125" lon="8.6838133"><ele>311.0</ele><time>2026-05-03T06:47:47.836Z</time></trkpt><trkpt lat="45.870205" lon="8.6837983"><ele>311.0</ele><time>2026-05-03T06:47:48.836Z</time></trkpt><trkpt lat="45.8702833" lon="8.6837817"><ele>310.5</ele><time>2026-05-03T06:47:49.836Z</time></trkpt><trkpt lat="45.8703583" lon="8.68376"><ele>310.0</ele><time>2026-05-03T06:47:50.836Z</time></trkpt><trkpt lat="45.8704217" lon="8.6837267"><ele>309.5</ele><time>2026-05-03T06:47:51.836Z</time></trkpt><trkpt lat="45.870515" lon="8.6836767"><ele>309.0</ele><time>2026-05-03T06:47:53.836Z</time></trkpt><trkpt lat="45.8706117" lon="8.6836383"><ele>308.5</ele><time>2026-05-03T06:47:55.836Z</time></trkpt><trkpt lat="45.8706733" lon="8.6836033"><ele>308.0</ele><time>2026-05-03T06:47:56.836Z</time></trkpt><trkpt lat="45.8707333" lon="8.683565"><ele>308.0</ele><time>2026-05-03T06:47:57.835Z</time></trkpt><trkpt lat="45.8708417" lon="8.6834883"><ele>308.0</ele><time>2026-05-03T06:47:59.836Z</time></trkpt><trkpt lat="45.8709" lon="8.6834533"><ele>308.0</ele><time>2026-05-03T06:48:00.835Z</time></trkpt><trkpt lat="45.8709583" lon="8.6833967"><ele>308.0</ele><time>2026-05-03T06:48:01.835Z</time></trkpt><trkpt lat="45.8710183" lon="8.683335"><ele>308.0</ele><time>2026-05-03T06:48:02.835Z</time></trkpt><trkpt lat="45.8710783" lon="8.6832767"><ele>308.0</ele><time>2026-05-03T06:48:03.836Z</time></trkpt><trkpt lat="45.87114" lon="8.683225"><ele>309.6666666666667</ele><time>2026-05-03T06:48:04.836Z</time></trkpt><trkpt lat="45.871215" lon="8.6831633"><ele>311.33333333333337</ele><time>2026-05-03T06:48:05.836Z</time></trkpt><trkpt lat="45.8713" lon="8.6830933"><ele>313.0</ele><time>2026-05-03T06:48:06.836Z</time></trkpt><trkpt lat="45.87138" lon="8.6830233"><ele>314.6666666666667</ele><time>2026-05-03T06:48:07.836Z</time></trkpt><trkpt lat="45.87145" lon="8.68296"><ele>316.3333333333333</ele><time>2026-05-03T06:48:08.836Z</time></trkpt><trkpt lat="45.8715117" lon="8.6829083"><ele>318.0</ele><time>2026-05-03T06:48:09.836Z</time></trkpt><trkpt lat="45.871575" lon="8.6828617"><ele>318.0</ele><time>2026-05-03T06:48:10.836Z</time></trkpt><trkpt lat="45.871645" lon="8.6828133"><ele>318.0</ele><time>2026-05-03T06:48:11.836Z</time></trkpt><trkpt lat="45.87172" lon="8.682765"><ele>318.0</ele><time>2026-05-03T06:48:12.836Z</time></trkpt><trkpt lat="45.8718033" lon="8.6827217"><ele>318.0</ele><time>2026-05-03T06:48:13.836Z</time></trkpt><trkpt lat="45.871885" lon="8.6826883"><ele>318.0</ele><time>2026-05-03T06:48:14.836Z</time></trkpt><trkpt lat="45.87196" lon="8.68265"><ele>318.0</ele><time>2026-05-03T06:48:15.835Z</time></trkpt><trkpt lat="45.8720267" lon="8.6826083"><ele>317.8333333333333</ele><time>2026-05-03T06:48:16.835Z</time></trkpt><trkpt lat="45.87209" lon="8.6825533"><ele>317.6666666666667</ele><time>2026-05-03T06:48:17.836Z</time></trkpt><trkpt lat="45.8721583" lon="8.682505"><ele>317.5</ele><time>2026-05-03T06:48:18.836Z</time></trkpt><trkpt lat="45.8722767" lon="8.6824283"><ele>317.33333333333337</ele><time>2026-05-03T06:48:20.836Z</time></trkpt><trkpt lat="45.8723483" lon="8.6823917"><ele>317.1666666666667</ele><time>2026-05-03T06:48:21.836Z</time></trkpt><trkpt lat="45.8724267" lon="8.682345"><ele>317.0</ele><time>2026-05-03T06:48:22.836Z</time></trkpt><trkpt lat="45.872505" lon="8.6822883"><ele>317.0</ele><time>2026-05-03T06:48:23.836Z</time></trkpt><trkpt lat="45.8725783" lon="8.682235"><ele>317.0</ele><time>2026-05-03T06:48:24.836Z</time></trkpt><trkpt lat="45.8726517" lon="8.6822067"><ele>317.0</ele><time>2026-05-03T06:48:25.836Z</time></trkpt><trkpt lat="45.8727267" lon="8.6821983"><ele>317.0</ele><time>2026-05-03T06:48:26.835Z</time></trkpt><trkpt lat="45.8728017" lon="8.6822"><ele>317.0</ele><time>2026-05-03T06:48:27.836Z</time></trkpt><trkpt lat="45.8728667" lon="8.6822233"><ele>317.0</ele><time>2026-05-03T06:48:28.836Z</time></trkpt><trkpt lat="45.8729683" lon="8.682235"><ele>318.4</ele><time>2026-05-03T06:48:30.835Z</time></trkpt><trkpt lat="45.873075" lon="8.68217"><ele>319.79999999999995</ele><time>2026-05-03T06:48:32.836Z</time></trkpt><trkpt lat="45.87314" lon="8.68211"><ele>321.2</ele><time>2026-05-03T06:48:33.836Z</time></trkpt><trkpt lat="45.8732033" lon="8.6820617"><ele>322.59999999999997</ele><time>2026-05-03T06:48:34.836Z</time></trkpt><trkpt lat="45.8732867" lon="8.6820233"><ele>324.0</ele><time>2026-05-03T06:48:35.836Z</time></trkpt><trkpt lat="45.8733933" lon="8.6820033"><ele>323.75</ele><time>2026-05-03T06:48:36.836Z</time></trkpt><trkpt lat="45.87351" lon="8.6820033"><ele>323.5</ele><time>2026-05-03T06:48:37.835Z</time></trkpt><trkpt lat="45.87363" lon="8.6820267"><ele>323.25</ele><time>2026-05-03T06:48:38.836Z</time></trkpt><trkpt lat="45.8737583" lon="8.6820567"><ele>323.0</ele><time>2026-05-03T06:48:39.836Z</time></trkpt><trkpt lat="45.8738717" lon="8.6820783"><ele>323.0</ele><time>2026-05-03T06:48:40.835Z</time></trkpt><trkpt lat="45.8739633" lon="8.6820967"><ele>323.0</ele><time>2026-05-03T06:48:41.835Z</time></trkpt><trkpt lat="45.8740333" lon="8.6821083"><ele>323.0</ele><time>2026-05-03T06:48:42.836Z</time></trkpt><trkpt lat="45.87413" lon="8.68215"><ele>323.0</ele><time>2026-05-03T06:48:44.836Z</time></trkpt><trkpt lat="45.8742" lon="8.6822217"><ele>323.0</ele><time>2026-05-03T06:48:46.835Z</time></trkpt><trkpt lat="45.8742067" lon="8.68243"><ele>323.0</ele><time>2026-05-03T06:48:48.836Z</time></trkpt><trkpt lat="45.8742133" lon="8.682555"><ele>323.0</ele><time>2026-05-03T06:48:49.835Z</time></trkpt><trkpt lat="45.8742267" lon="8.6826817"><ele>323.0</ele><time>2026-05-03T06:48:50.836Z</time></trkpt><trkpt lat="45.87426" lon="8.6827817"><ele>323.0</ele><time>2026-05-03T06:48:51.835Z</time></trkpt><trkpt lat="45.87432" lon="8.6828783"><ele>323.0</ele><time>2026-05-03T06:48:52.836Z</time></trkpt><trkpt lat="45.8743817" lon="8.6829867"><ele>323.0</ele><time>2026-05-03T06:48:53.835Z</time></trkpt><trkpt lat="45.8744267" lon="8.6830883"><ele>324.1666666666667</ele><time>2026-05-03T06:48:54.835Z</time></trkpt><trkpt lat="45.8744533" lon="8.6831967"><ele>325.33333333333337</ele><time>2026-05-03T06:48:55.836Z</time></trkpt><trkpt lat="45.874455" lon="8.68332"><ele>326.5</ele><time>2026-05-03T06:48:56.836Z</time></trkpt><trkpt lat="45.874435" lon="8.6834267"><ele>327.6666666666667</ele><time>2026-05-03T06:48:57.835Z</time></trkpt><trkpt lat="45.874365" lon="8.6835417"><ele>328.8333333333333</ele><time>2026-05-03T06:48:59.835Z</time></trkpt><trkpt lat="45.8742717" lon="8.683585"><ele>330.0</ele><time>2026-05-03T06:49:01.836Z</time></trkpt><trkpt lat="45.874195" lon="8.6836917"><ele>331.0</ele><time>2026-05-03T06:49:03.836Z</time></trkpt><trkpt lat="45.8741583" lon="8.6838033"><ele>332.0</ele><time>2026-05-03T06:49:05.835Z</time></trkpt><trkpt lat="45.8741883" lon="8.6839267"><ele>333.0</ele><time>2026-05-03T06:50:35.836Z</time></trkpt><trkpt lat="45.874285" lon="8.684025"><ele>334.0</ele><time>2026-05-03T06:50:37.836Z</time></trkpt><trkpt lat="45.8743467" lon="8.684085"><ele>335.0</ele><time>2026-05-03T06:50:38.836Z</time></trkpt><trkpt lat="45.8744167" lon="8.6841467"><ele>335.2</ele><time>2026-05-03T06:50:39.836Z</time></trkpt><trkpt lat="45.8745" lon="8.68422"><ele>335.4</ele><time>2026-05-03T06:50:40.835Z</time></trkpt><trkpt lat="45.87458" lon="8.6842867"><ele>335.6</ele><time>2026-05-03T06:50:41.836Z</time></trkpt><trkpt lat="45.87466" lon="8.6843683"><ele>335.8</ele><time>2026-05-03T06:50:42.836Z</time></trkpt><trkpt lat="45.874765" lon="8.6844667"><ele>336.0</ele><time>2026-05-03T06:50:43.836Z</time></trkpt><trkpt lat="45.874855" lon="8.6845417"><ele>337.0</ele><time>2026-05-03T06:50:44.836Z</time></trkpt><trkpt lat="45.8749483" lon="8.6846117"><ele>338.0</ele><time>2026-05-03T06:50:45.836Z</time></trkpt><trkpt lat="45.8750433" lon="8.684665"><ele>339.0</ele><time>2026-05-03T06:50:46.836Z</time></trkpt><trkpt lat="45.8751317" lon="8.6847067"><ele>340.0</ele><time>2026-05-03T06:50:47.836Z</time></trkpt><trkpt lat="45.8752367" lon="8.684755"><ele>341.0</ele><time>2026-05-03T06:50:48.836Z</time></trkpt><trkpt lat="45.8753683" lon="8.6848183"><ele>341.0</ele><time>2026-05-03T06:50:49.835Z</time></trkpt><trkpt lat="45.875485" lon="8.6848783"><ele>341.0</ele><time>2026-05-03T06:50:50.836Z</time></trkpt><trkpt lat="45.8756" lon="8.6849383"><ele>341.0</ele><time>2026-05-03T06:50:51.836Z</time></trkpt><trkpt lat="45.8757017" lon="8.68499"><ele>341.0</ele><time>2026-05-03T06:50:52.836Z</time></trkpt><trkpt lat="45.8757817" lon="8.6850467"><ele>341.0</ele><time>2026-05-03T06:50:53.836Z</time></trkpt><trkpt lat="45.8758617" lon="8.68513"><ele>341.0</ele><time>2026-05-03T06:50:54.835Z</time></trkpt><trkpt lat="45.875935" lon="8.685225"><ele>341.0</ele><time>2026-05-03T06:50:55.836Z</time></trkpt><trkpt lat="45.8760233" lon="8.6853517"><ele>341.0</ele><time>2026-05-03T06:50:56.835Z</time></trkpt><trkpt lat="45.8761033" lon="8.6854783"><ele>341.0</ele><time>2026-05-03T06:50:57.836Z</time></trkpt><trkpt lat="45.8761833" lon="8.6855867"><ele>340.6</ele><time>2026-05-03T06:50:58.836Z</time></trkpt><trkpt lat="45.8762483" lon="8.6856883"><ele>340.20000000000005</ele><time>2026-05-03T06:50:59.836Z</time></trkpt><trkpt lat="45.8763133" lon="8.685795"><ele>339.79999999999995</ele><time>2026-05-03T06:51:00.836Z</time></trkpt><trkpt lat="45.87637" lon="8.6858817"><ele>339.4</ele><time>2026-05-03T06:51:01.836Z</time></trkpt><trkpt lat="45.8764367" lon="8.68599"><ele>339.0</ele><time>2026-05-03T06:51:02.835Z</time></trkpt><trkpt lat="45.8764817" lon="8.686085"><ele>340.8333333333333</ele><time>2026-05-03T06:51:03.836Z</time></trkpt><trkpt lat="45.8765267" lon="8.6861833"><ele>342.6666666666667</ele><time>2026-05-03T06:51:04.836Z</time></trkpt><trkpt lat="45.8765667" lon="8.6862717"><ele>344.5</ele><time>2026-05-03T06:51:05.836Z</time></trkpt><trkpt lat="45.8766017" lon="8.68635"><ele>346.33333333333337</ele><time>2026-05-03T06:51:06.835Z</time></trkpt><trkpt lat="45.8766617" lon="8.686475"><ele>348.1666666666667</ele><time>2026-05-03T06:51:08.836Z</time></trkpt><trkpt lat="45.8767367" lon="8.6865717"><ele>350.0</ele><time>2026-05-03T06:51:10.835Z</time></trkpt><trkpt lat="45.8767883" lon="8.6866267"><ele>347.33333333333337</ele><time>2026-05-03T06:51:12.836Z</time></trkpt><trkpt lat="45.8767983" lon="8.6867217"><ele>344.6666666666667</ele><time>2026-05-03T06:51:16.836Z</time></trkpt><trkpt lat="45.8768417" lon="8.6868333"><ele>342.0</ele><time>2026-05-03T06:51:18.836Z</time></trkpt><trkpt lat="45.876875" lon="8.686925"><ele>339.3333333333333</ele><time>2026-05-03T06:51:20.836Z</time></trkpt><trkpt lat="45.87693" lon="8.68703"><ele>336.66666666666663</ele><time>2026-05-03T06:51:23.836Z</time></trkpt><trkpt lat="45.8769967" lon="8.6870817"><ele>334.0</ele><time>2026-05-03T06:51:26.836Z</time></trkpt><trkpt lat="45.8770517" lon="8.6871517"><ele>334.0</ele><time>2026-05-03T06:51:30.836Z</time></trkpt><trkpt lat="45.87709" lon="8.6872733"><ele>334.0</ele><time>2026-05-03T06:51:32.835Z</time></trkpt><trkpt lat="45.87714" lon="8.6874083"><ele>334.0</ele><time>2026-05-03T06:51:33.836Z</time></trkpt><trkpt lat="45.8772117" lon="8.687535"><ele>334.0</ele><time>2026-05-03T06:51:34.836Z</time></trkpt><trkpt lat="45.8772683" lon="8.687655"><ele>334.0</ele><time>2026-05-03T06:51:35.836Z</time></trkpt><trkpt lat="45.8773867" lon="8.6878433"><ele>332.2</ele><time>2026-05-03T06:51:36.836Z</time></trkpt><trkpt lat="45.8774483" lon="8.6879633"><ele>330.4</ele><time>2026-05-03T06:51:37.836Z</time></trkpt><trkpt lat="45.8775017" lon="8.6880617"><ele>328.6</ele><time>2026-05-03T06:51:38.835Z</time></trkpt><trkpt lat="45.8775667" lon="8.6881617"><ele>326.8</ele><time>2026-05-03T06:51:39.836Z</time></trkpt><trkpt lat="45.877645" lon="8.688275"><ele>325.0</ele><time>2026-05-03T06:51:40.835Z</time></trkpt><trkpt lat="45.8777117" lon="8.688385"><ele>325.0</ele><time>2026-05-03T06:51:41.836Z</time></trkpt><trkpt lat="45.8777617" lon="8.6885"><ele>325.0</ele><time>2026-05-03T06:51:42.836Z</time></trkpt><trkpt lat="45.8778117" lon="8.6886167"><ele>325.0</ele><time>2026-05-03T06:51:43.835Z</time></trkpt><trkpt lat="45.8778517" lon="8.68872"><ele>325.0</ele><time>2026-05-03T06:51:44.836Z</time></trkpt><trkpt lat="45.8778833" lon="8.6888167"><ele>325.0</ele><time>2026-05-03T06:51:45.835Z</time></trkpt><trkpt lat="45.877935" lon="8.6889233"><ele>325.0</ele><time>2026-05-03T06:51:46.835Z</time></trkpt><trkpt lat="45.8780067" lon="8.6890617"><ele>326.4</ele><time>2026-05-03T06:51:47.836Z</time></trkpt><trkpt lat="45.878085" lon="8.6891917"><ele>327.8</ele><time>2026-05-03T06:51:48.836Z</time></trkpt><trkpt lat="45.8781533" lon="8.68931"><ele>329.20000000000005</ele><time>2026-05-03T06:51:49.836Z</time></trkpt><trkpt lat="45.87821" lon="8.6894233"><ele>330.6</ele><time>2026-05-03T06:51:50.836Z</time></trkpt><trkpt lat="45.8782533" lon="8.689535"><ele>332.0</ele><time>2026-05-03T06:51:51.835Z</time></trkpt><trkpt lat="45.878295" lon="8.6896417"><ele>332.0</ele><time>2026-05-03T06:51:52.835Z</time></trkpt><trkpt lat="45.8783383" lon="8.6897417"><ele>332.0</ele><time>2026-05-03T06:51:53.836Z</time></trkpt><trkpt lat="45.8783633" lon="8.6898383"><ele>332.0</ele><time>2026-05-03T06:51:54.836Z</time></trkpt><trkpt lat="45.8783967" lon="8.6899267"><ele>332.0</ele><time>2026-05-03T06:51:55.836Z</time></trkpt><trkpt lat="45.878425" lon="8.6900133"><ele>332.0</ele><time>2026-05-03T06:51:56.836Z</time></trkpt><trkpt lat="45.87846" lon="8.6901083"><ele>332.0</ele><time>2026-05-03T06:51:57.835Z</time></trkpt><trkpt lat="45.8784983" lon="8.6901933"><ele>332.0</ele><time>2026-05-03T06:51:58.836Z</time></trkpt><trkpt lat="45.8785917" lon="8.6903217"><ele>332.0</ele><time>2026-05-03T06:51:59.835Z</time></trkpt><trkpt lat="45.8786733" lon="8.6904233"><ele>332.0</ele><time>2026-05-03T06:52:00.835Z</time></trkpt><trkpt lat="45.87877" lon="8.69052"><ele>332.0</ele><time>2026-05-03T06:52:01.836Z</time></trkpt><trkpt lat="45.87885" lon="8.6906183"><ele>332.0</ele><time>2026-05-03T06:52:02.836Z</time></trkpt><trkpt lat="45.8789267" lon="8.690715"><ele>332.0</ele><time>2026-05-03T06:52:03.836Z</time></trkpt><trkpt lat="45.8789983" lon="8.690815"><ele>332.0</ele><time>2026-05-03T06:52:04.836Z</time></trkpt><trkpt lat="45.8790583" lon="8.6909217"><ele>332.0</ele><time>2026-05-03T06:52:05.836Z</time></trkpt><trkpt lat="45.879115" lon="8.691045"><ele>332.0</ele><time>2026-05-03T06:52:06.836Z</time></trkpt><trkpt lat="45.8791783" lon="8.6912033"><ele>332.0</ele><time>2026-05-03T06:52:07.836Z</time></trkpt><trkpt lat="45.879235" lon="8.6913367"><ele>332.0</ele><time>2026-05-03T06:52:08.835Z</time></trkpt><trkpt lat="45.8792833" lon="8.69145"><ele>331.6666666666667</ele><time>2026-05-03T06:52:09.836Z</time></trkpt><trkpt lat="45.8793233" lon="8.69155"><ele>331.33333333333337</ele><time>2026-05-03T06:52:10.836Z</time></trkpt><trkpt lat="45.8793733" lon="8.69164"><ele>331.0</ele><time>2026-05-03T06:52:11.836Z</time></trkpt><trkpt lat="45.8794317" lon="8.6917317"><ele>330.6666666666667</ele><time>2026-05-03T06:52:12.836Z</time></trkpt><trkpt lat="45.8794833" lon="8.691825"><ele>330.3333333333333</ele><time>2026-05-03T06:52:13.836Z</time></trkpt><trkpt lat="45.8795333" lon="8.6919117"><ele>330.0</ele><time>2026-05-03T06:52:14.836Z</time></trkpt><trkpt lat="45.8795867" lon="8.692035"><ele>330.6666666666667</ele><time>2026-05-03T06:52:16.836Z</time></trkpt><trkpt lat="45.8796533" lon="8.6921667"><ele>331.3333333333333</ele><time>2026-05-03T06:52:30.836Z</time></trkpt><trkpt lat="45.879595" lon="8.6922283"><ele>332.0</ele><time>2026-05-03T06:52:35.836Z</time></trkpt><trkpt lat="45.879535" lon="8.6921983"><ele>332.66666666666663</ele><time>2026-05-03T06:52:38.835Z</time></trkpt><trkpt lat="45.8794767" lon="8.6921333"><ele>333.3333333333333</ele><time>2026-05-03T06:52:40.836Z</time></trkpt><trkpt lat="45.8794033" lon="8.6920667"><ele>334.0</ele><time>2026-05-03T06:52:42.836Z</time></trkpt><trkpt lat="45.8793083" lon="8.692005"><ele>335.0</ele><time>2026-05-03T06:52:44.836Z</time></trkpt><trkpt lat="45.8792283" lon="8.6919533"><ele>336.0</ele><time>2026-05-03T06:52:46.836Z</time></trkpt><trkpt lat="45.87916" lon="8.691905"><ele>337.0</ele><time>2026-05-03T06:52:48.836Z</time></trkpt><trkpt lat="45.8791083" lon="8.6918517"><ele>338.0</ele><time>2026-05-03T06:52:50.836Z</time></trkpt><trkpt lat="45.87905" lon="8.69181"><ele>339.0</ele><time>2026-05-03T06:52:52.836Z</time></trkpt><trkpt lat="45.878975" lon="8.6917517"><ele>340.0</ele><time>2026-05-03T06:52:54.836Z</time></trkpt><trkpt lat="45.8788933" lon="8.6916683"><ele>340.0</ele><time>2026-05-03T06:52:56.836Z</time></trkpt><trkpt lat="45.8788333" lon="8.6916117"><ele>340.0</ele><time>2026-05-03T06:52:57.835Z</time></trkpt><trkpt lat="45.8787533" lon="8.691545"><ele>340.0</ele><time>2026-05-03T06:52:58.836Z</time></trkpt><trkpt lat="45.87867" lon="8.6914783"><ele>340.0</ele><time>2026-05-03T06:52:59.836Z</time></trkpt><trkpt lat="45.8786" lon="8.6914183"><ele>340.0</ele><time>2026-05-03T06:53:00.835Z</time></trkpt><trkpt lat="45.8785433" lon="8.6913617"><ele>340.0</ele><time>2026-05-03T06:53:01.836Z</time></trkpt><trkpt lat="45.878455" lon="8.6912683"><ele>342.2</ele><time>2026-05-03T06:53:03.836Z</time></trkpt><trkpt lat="45.87837" lon="8.6911733"><ele>344.4</ele><time>2026-05-03T06:53:05.836Z</time></trkpt><trkpt lat="45.878265" lon="8.6910833"><ele>346.6</ele><time>2026-05-03T06:53:07.836Z</time></trkpt><trkpt lat="45.87816" lon="8.691015"><ele>348.8</ele><time>2026-05-03T06:53:09.836Z</time></trkpt><trkpt lat="45.8780917" lon="8.6909517"><ele>351.0</ele><time>2026-05-03T06:53:11.835Z</time></trkpt><trkpt lat="45.8780367" lon="8.6908783"><ele>351.0</ele><time>2026-05-03T06:53:13.835Z</time></trkpt><trkpt lat="45.877985" lon="8.690755"><ele>351.0</ele><time>2026-05-03T06:53:15.836Z</time></trkpt><trkpt lat="45.8779317" lon="8.6906233"><ele>351.0</ele><time>2026-05-03T06:53:17.836Z</time></trkpt><trkpt lat="45.8778583" lon="8.6904683"><ele>351.0</ele><time>2026-05-03T06:53:19.836Z</time></trkpt><trkpt lat="45.8778067" lon="8.6903833"><ele>351.0</ele><time>2026-05-03T06:53:20.836Z</time></trkpt><trkpt lat="45.8777533" lon="8.6902917"><ele>349.0</ele><time>2026-05-03T06:53:21.835Z</time></trkpt><trkpt lat="45.8777033" lon="8.6902067"><ele>347.0</ele><time>2026-05-03T06:53:22.836Z</time></trkpt><trkpt lat="45.8776433" lon="8.690115"><ele>345.0</ele><time>2026-05-03T06:53:23.836Z</time></trkpt><trkpt lat="45.877595" lon="8.6900367"><ele>343.0</ele><time>2026-05-03T06:53:24.836Z</time></trkpt><trkpt lat="45.8775383" lon="8.6899317"><ele>341.0</ele><time>2026-05-03T06:53:26.836Z</time></trkpt><trkpt lat="45.8774983" lon="8.6898317"><ele>339.0</ele><time>2026-05-03T06:53:28.836Z</time></trkpt><trkpt lat="45.877465" lon="8.689745"><ele>342.3333333333333</ele><time>2026-05-03T06:53:30.836Z</time></trkpt><trkpt lat="45.8773983" lon="8.6896283"><ele>345.6666666666667</ele><time>2026-05-03T06:53:32.835Z</time></trkpt><trkpt lat="45.8773483" lon="8.6895717"><ele>349.0</ele><time>2026-05-03T06:53:33.836Z</time></trkpt><trkpt lat="45.8772717" lon="8.6894833"><ele>352.33333333333337</ele><time>2026-05-03T06:53:35.836Z</time></trkpt><trkpt lat="45.8772083" lon="8.6894117"><ele>355.6666666666667</ele><time>2026-05-03T06:53:37.836Z</time></trkpt><trkpt lat="45.8771833" lon="8.68952"><ele>359.0</ele><time>2026-05-03T06:53:45.836Z</time></trkpt><trkpt lat="45.8771983" lon="8.6896183"><ele>361.79999999999995</ele><time>2026-05-03T06:53:47.836Z</time></trkpt><trkpt lat="45.8772083" lon="8.68974"><ele>364.59999999999997</ele><time>2026-05-03T06:53:49.836Z</time></trkpt><trkpt lat="45.87722" lon="8.6899017"><ele>367.4</ele><time>2026-05-03T06:53:51.836Z</time></trkpt><trkpt lat="45.87721" lon="8.69001"><ele>370.2</ele><time>2026-05-03T06:53:53.836Z</time></trkpt><trkpt lat="45.8771983" lon="8.6902267"><ele>373.0</ele><time>2026-05-03T06:54:16.836Z</time></trkpt><trkpt lat="45.8772133" lon="8.690355"><ele>375.2</ele><time>2026-05-03T06:54:19.835Z</time></trkpt><trkpt lat="45.87724" lon="8.6904883"><ele>377.4</ele><time>2026-05-03T06:54:21.836Z</time></trkpt><trkpt lat="45.877275" lon="8.6906583"><ele>379.59999999999997</ele><time>2026-05-03T06:54:23.836Z</time></trkpt><trkpt lat="45.8772883" lon="8.690845"><ele>381.79999999999995</ele><time>2026-05-03T06:54:25.836Z</time></trkpt><trkpt lat="45.8772867" lon="8.6909683"><ele>384.0</ele><time>2026-05-03T06:54:26.836Z</time></trkpt><trkpt lat="45.87728" lon="8.69109"><ele>385.5</ele><time>2026-05-03T06:54:27.836Z</time></trkpt><trkpt lat="45.8772567" lon="8.691205"><ele>387.0</ele><time>2026-05-03T06:54:28.836Z</time></trkpt><trkpt lat="45.87722" lon="8.6912933"><ele>388.5</ele><time>2026-05-03T06:54:29.836Z</time></trkpt><trkpt lat="45.8771583" lon="8.691375"><ele>390.0</ele><time>2026-05-03T06:54:30.836Z</time></trkpt><trkpt lat="45.8770983" lon="8.69144"><ele>391.5</ele><time>2026-05-03T06:54:31.836Z</time></trkpt><trkpt lat="45.87703" lon="8.69154"><ele>393.0</ele><time>2026-05-03T06:54:33.836Z</time></trkpt><trkpt lat="45.8770317" lon="8.6916583"><ele>393.0</ele><time>2026-05-03T06:54:36.836Z</time></trkpt><trkpt lat="45.8770917" lon="8.691755"><ele>393.0</ele><time>2026-05-03T06:54:39.835Z</time></trkpt><trkpt lat="45.8771467" lon="8.6918133"><ele>393.0</ele><time>2026-05-03T06:54:42.835Z</time></trkpt><trkpt lat="45.8772333" lon="8.6919183"><ele>393.0</ele><time>2026-05-03T06:55:29.836Z</time></trkpt><trkpt lat="45.8772733" lon="8.69201"><ele>393.0</ele><time>2026-05-03T06:55:32.836Z</time></trkpt><trkpt lat="45.8773283" lon="8.6921517"><ele>393.5</ele><time>2026-05-03T06:55:34.835Z</time></trkpt><trkpt lat="45.87736" lon="8.69223"><ele>394.0</ele><time>2026-05-03T06:55:35.835Z</time></trkpt><trkpt lat="45.8774033" lon="8.6923267"><ele>394.5</ele><time>2026-05-03T06:55:36.836Z</time></trkpt><trkpt lat="45.8774433" lon="8.6924233"><ele>395.0</ele><time>2026-05-03T06:55:37.835Z</time></trkpt><trkpt lat="45.8774817" lon="8.692525"><ele>395.5</ele><time>2026-05-03T06:55:38.836Z</time></trkpt><trkpt lat="45.877525" lon="8.6926317"><ele>396.0</ele><time>2026-05-03T06:55:39.836Z</time></trkpt><trkpt lat="45.8775667" lon="8.69274"><ele>395.1666666666667</ele><time>2026-05-03T06:55:40.835Z</time></trkpt><trkpt lat="45.8776283" lon="8.69286"><ele>394.33333333333337</ele><time>2026-05-03T06:55:41.835Z</time></trkpt><trkpt lat="45.87767" lon="8.6929617"><ele>393.5</ele><time>2026-05-03T06:55:42.836Z</time></trkpt><trkpt lat="45.8777133" lon="8.6930617"><ele>392.6666666666667</ele><time>2026-05-03T06:55:43.836Z</time></trkpt><trkpt lat="45.87775" lon="8.6931467"><ele>391.83333333333337</ele><time>2026-05-03T06:55:44.836Z</time></trkpt><trkpt lat="45.8777867" lon="8.69323"><ele>391.0</ele><time>2026-05-03T06:55:45.835Z</time></trkpt><trkpt lat="45.8778267" lon="8.6933133"><ele>391.00000000000006</ele><time>2026-05-03T06:55:46.836Z</time></trkpt><trkpt lat="45.877895" lon="8.6934417"><ele>391.0</ele><time>2026-05-03T06:55:48.835Z</time></trkpt><trkpt lat="45.87794" lon="8.69351"><ele>391.0</ele><time>2026-05-03T06:55:49.836Z</time></trkpt><trkpt lat="45.87798" lon="8.69358"><ele>391.0</ele><time>2026-05-03T06:55:50.836Z</time></trkpt><trkpt lat="45.878015" lon="8.6936633"><ele>391.00000000000006</ele><time>2026-05-03T06:55:51.836Z</time></trkpt><trkpt lat="45.8780617" lon="8.693765"><ele>391.0</ele><time>2026-05-03T06:55:52.836Z</time></trkpt><trkpt lat="45.8780983" lon="8.6938667"><ele>391.20000000000005</ele><time>2026-05-03T06:55:53.836Z</time></trkpt><trkpt lat="45.8781233" lon="8.6939683"><ele>391.40000000000003</ele><time>2026-05-03T06:55:54.835Z</time></trkpt><trkpt lat="45.878155" lon="8.6940567"><ele>391.6</ele><time>2026-05-03T06:55:55.835Z</time></trkpt><trkpt lat="45.8782083" lon="8.6942267"><ele>391.8</ele><time>2026-05-03T06:55:57.836Z</time></trkpt><trkpt lat="45.8782633" lon="8.6943783"><ele>392.0</ele><time>2026-05-03T06:55:59.835Z</time></trkpt><trkpt lat="45.8783083" lon="8.6944733"><ele>392.0</ele><time>2026-05-03T06:56:01.836Z</time></trkpt><trkpt lat="45.8783567" lon="8.69455"><ele>392.0</ele><time>2026-05-03T06:56:04.836Z</time></trkpt><trkpt lat="45.8784733" lon="8.6947283"><ele>392.0</ele><time>2026-05-03T06:56:17.836Z</time></trkpt><trkpt lat="45.87851" lon="8.6948083"><ele>392.0</ele><time>2026-05-03T06:56:19.836Z</time></trkpt><trkpt lat="45.87859" lon="8.6949433"><ele>392.0</ele><time>2026-05-03T06:56:21.835Z</time></trkpt><trkpt lat="45.8786383" lon="8.695035"><ele>392.25</ele><time>2026-05-03T06:56:22.836Z</time></trkpt><trkpt lat="45.878705" lon="8.695135"><ele>392.5</ele><time>2026-05-03T06:56:23.836Z</time></trkpt><trkpt lat="45.8787767" lon="8.6952483"><ele>392.75</ele><time>2026-05-03T06:56:24.836Z</time></trkpt><trkpt lat="45.87887" lon="8.6953933"><ele>393.0</ele><time>2026-05-03T06:56:25.835Z</time></trkpt><trkpt lat="45.878955" lon="8.6955017"><ele>393.0</ele><time>2026-05-03T06:56:26.835Z</time></trkpt><trkpt lat="45.8790233" lon="8.6956067"><ele>393.0</ele><time>2026-05-03T06:56:27.836Z</time></trkpt><trkpt lat="45.8790733" lon="8.6957033"><ele>393.0</ele><time>2026-05-03T06:56:28.836Z</time></trkpt><trkpt lat="45.8791233" lon="8.695805"><ele>393.0</ele><time>2026-05-03T06:56:29.836Z</time></trkpt><trkpt lat="45.879165" lon="8.6959133"><ele>393.0</ele><time>2026-05-03T06:56:30.836Z</time></trkpt><trkpt lat="45.8792083" lon="8.6960567"><ele>392.6666666666667</ele><time>2026-05-03T06:56:31.836Z</time></trkpt><trkpt lat="45.8792417" lon="8.6961867"><ele>392.33333333333337</ele><time>2026-05-03T06:56:32.836Z</time></trkpt><trkpt lat="45.8792617" lon="8.6963083"><ele>392.0</ele><time>2026-05-03T06:56:33.835Z</time></trkpt><trkpt lat="45.879275" lon="8.696415"><ele>391.6666666666667</ele><time>2026-05-03T06:56:34.836Z</time></trkpt><trkpt lat="45.8792917" lon="8.69652"><ele>391.33333333333337</ele><time>2026-05-03T06:56:35.836Z</time></trkpt><trkpt lat="45.8793067" lon="8.6966433"><ele>391.0</ele><time>2026-05-03T06:56:36.836Z</time></trkpt><trkpt lat="45.87932" lon="8.69675"><ele>388.83333333333337</ele><time>2026-05-03T06:56:37.836Z</time></trkpt><trkpt lat="45.8793317" lon="8.6968667"><ele>386.6666666666667</ele><time>2026-05-03T06:56:38.836Z</time></trkpt><trkpt lat="45.8793417" lon="8.6969983"><ele>384.5</ele><time>2026-05-03T06:56:39.836Z</time></trkpt><trkpt lat="45.8793517" lon="8.6971217"><ele>382.33333333333337</ele><time>2026-05-03T06:56:40.836Z</time></trkpt><trkpt lat="45.8793667" lon="8.6972383"><ele>380.1666666666667</ele><time>2026-05-03T06:56:41.836Z</time></trkpt><trkpt lat="45.8793783" lon="8.6973367"><ele>378.0</ele><time>2026-05-03T06:56:42.836Z</time></trkpt><trkpt lat="45.8793633" lon="8.6974917"><ele>378.0</ele><time>2026-05-03T06:56:44.836Z</time></trkpt><trkpt lat="45.8793617" lon="8.6975983"><ele>378.0</ele><time>2026-05-03T06:56:47.836Z</time></trkpt><trkpt lat="45.8794367" lon="8.697595"><ele>378.0</ele><time>2026-05-03T06:56:49.836Z</time></trkpt><trkpt lat="45.8795267" lon="8.6976067"><ele>378.0</ele><time>2026-05-03T06:56:51.836Z</time></trkpt><trkpt lat="45.87962" lon="8.697645"><ele>378.0</ele><time>2026-05-03T06:56:53.835Z</time></trkpt><trkpt lat="45.8797267" lon="8.6976867"><ele>378.0</ele><time>2026-05-03T06:56:55.836Z</time></trkpt><trkpt lat="45.87982" lon="8.6977317"><ele>378.59999999999997</ele><time>2026-05-03T06:56:57.836Z</time></trkpt><trkpt lat="45.87989" lon="8.6977767"><ele>379.2</ele><time>2026-05-03T06:56:59.836Z</time></trkpt><trkpt lat="45.8799483" lon="8.6978883"><ele>379.8</ele><time>2026-05-03T06:57:01.835Z</time></trkpt><trkpt lat="45.88" lon="8.6980283"><ele>380.4</ele><time>2026-05-03T06:57:03.836Z</time></trkpt><trkpt lat="45.880065" lon="8.6981733"><ele>381.0</ele><time>2026-05-03T06:57:05.836Z</time></trkpt><trkpt lat="45.88013" lon="8.6983217"><ele>377.1666666666667</ele><time>2026-05-03T06:57:07.836Z</time></trkpt><trkpt lat="45.880185" lon="8.698485"><ele>373.3333333333333</ele><time>2026-05-03T06:57:09.835Z</time></trkpt><trkpt lat="45.8802083" lon="8.69857"><ele>369.5</ele><time>2026-05-03T06:57:10.836Z</time></trkpt><trkpt lat="45.8802283" lon="8.69866"><ele>365.66666666666663</ele><time>2026-05-03T06:57:11.835Z</time></trkpt><trkpt lat="45.880245" lon="8.69875"><ele>361.8333333333333</ele><time>2026-05-03T06:57:12.836Z</time></trkpt><trkpt lat="45.880255" lon="8.6988533"><ele>358.0</ele><time>2026-05-03T06:57:13.836Z</time></trkpt><trkpt lat="45.8802583" lon="8.698955"><ele>358.0</ele><time>2026-05-03T06:57:14.836Z</time></trkpt><trkpt lat="45.880265" lon="8.6990533"><ele>358.0</ele><time>2026-05-03T06:57:15.835Z</time></trkpt><trkpt lat="45.8802683" lon="8.699145"><ele>358.0</ele><time>2026-05-03T06:57:16.836Z</time></trkpt><trkpt lat="45.880295" lon="8.6993117"><ele>358.0</ele><time>2026-05-03T06:57:18.836Z</time></trkpt><trkpt lat="45.8803133" lon="8.6994017"><ele>358.0</ele><time>2026-05-03T06:57:19.836Z</time></trkpt><trkpt lat="45.88034" lon="8.699565"><ele>358.0</ele><time>2026-05-03T06:57:21.836Z</time></trkpt><trkpt lat="45.8803917" lon="8.6997183"><ele>358.59999999999997</ele><time>2026-05-03T06:57:23.836Z</time></trkpt><trkpt lat="45.8804517" lon="8.6998867"><ele>359.2</ele><time>2026-05-03T06:57:25.835Z</time></trkpt><trkpt lat="45.88049" lon="8.7000017"><ele>359.8</ele><time>2026-05-03T06:57:26.835Z</time></trkpt><trkpt lat="45.8805533" lon="8.7001517"><ele>360.4</ele><time>2026-05-03T06:57:28.836Z</time></trkpt><trkpt lat="45.8806067" lon="8.70021"><ele>361.0</ele><time>2026-05-03T06:57:29.836Z</time></trkpt><trkpt lat="45.880715" lon="8.7002917"><ele>360.5</ele><time>2026-05-03T06:57:31.836Z</time></trkpt><trkpt lat="45.8807833" lon="8.7003167"><ele>360.0</ele><time>2026-05-03T06:57:32.835Z</time></trkpt><trkpt lat="45.88085" lon="8.7003467"><ele>359.5</ele><time>2026-05-03T06:57:33.836Z</time></trkpt><trkpt lat="45.8809283" lon="8.7003783"><ele>359.0</ele><time>2026-05-03T06:57:34.836Z</time></trkpt><trkpt lat="45.88102" lon="8.7004183"><ele>358.5</ele><time>2026-05-03T06:57:35.836Z</time></trkpt><trkpt lat="45.8811233" lon="8.7004317"><ele>358.0</ele><time>2026-05-03T06:57:36.835Z</time></trkpt><trkpt lat="45.8812167" lon="8.7004533"><ele>358.0</ele><time>2026-05-03T06:57:37.836Z</time></trkpt><trkpt lat="45.8813233" lon="8.70047"><ele>358.0</ele><time>2026-05-03T06:57:38.836Z</time></trkpt><trkpt lat="45.881425" lon="8.7005117"><ele>358.0</ele><time>2026-05-03T06:57:39.836Z</time></trkpt><trkpt lat="45.8815367" lon="8.70059"><ele>358.0</ele><time>2026-05-03T06:57:40.836Z</time></trkpt><trkpt lat="45.8816533" lon="8.7007133"><ele>358.0</ele><time>2026-05-03T06:57:41.836Z</time></trkpt><trkpt lat="45.881785" lon="8.700855"><ele>358.0</ele><time>2026-05-03T06:57:42.836Z</time></trkpt><trkpt lat="45.8819" lon="8.701"><ele>358.0</ele><time>2026-05-03T06:57:43.836Z</time></trkpt><trkpt lat="45.8819917" lon="8.7011167"><ele>358.0</ele><time>2026-05-03T06:57:44.835Z</time></trkpt><trkpt lat="45.88208" lon="8.7012083"><ele>358.0</ele><time>2026-05-03T06:57:45.836Z</time></trkpt><trkpt lat="45.8821617" lon="8.701295"><ele>358.0</ele><time>2026-05-03T06:57:46.835Z</time></trkpt><trkpt lat="45.882235" lon="8.7013667"><ele>358.0</ele><time>2026-05-03T06:57:47.836Z</time></trkpt><trkpt lat="45.8823" lon="8.7014217"><ele>358.0</ele><time>2026-05-03T06:57:48.836Z</time></trkpt><trkpt lat="45.8823533" lon="8.7014783"><ele>358.0</ele><time>2026-05-03T06:57:49.836Z</time></trkpt><trkpt lat="45.8824133" lon="8.7015783"><ele>358.0</ele><time>2026-05-03T06:57:51.836Z</time></trkpt><trkpt lat="45.8824667" lon="8.701665"><ele>358.0</ele><time>2026-05-03T06:57:54.836Z</time></trkpt><trkpt lat="45.8825267" lon="8.70176"><ele>358.0</ele><time>2026-05-03T06:57:56.835Z</time></trkpt><trkpt lat="45.88262" lon="8.7018967"><ele>358.0</ele><time>2026-05-03T06:57:58.836Z</time></trkpt><trkpt lat="45.88268" lon="8.7019817"><ele>358.0</ele><time>2026-05-03T06:57:59.835Z</time></trkpt><trkpt lat="45.8827417" lon="8.70207"><ele>358.0</ele><time>2026-05-03T06:58:00.836Z</time></trkpt><trkpt lat="45.8828067" lon="8.702165"><ele>358.0</ele><time>2026-05-03T06:58:01.836Z</time></trkpt><trkpt lat="45.88288" lon="8.7022567"><ele>358.0</ele><time>2026-05-03T06:58:02.836Z</time></trkpt><trkpt lat="45.8829617" lon="8.7023467"><ele>358.0</ele><time>2026-05-03T06:58:03.836Z</time></trkpt><trkpt lat="45.8830367" lon="8.7024283"><ele>358.0</ele><time>2026-05-03T06:58:04.836Z</time></trkpt><trkpt lat="45.88311" lon="8.702515"><ele>358.0</ele><time>2026-05-03T06:58:05.836Z</time></trkpt><trkpt lat="45.8831867" lon="8.7026033"><ele>358.0</ele><time>2026-05-03T06:58:06.836Z</time></trkpt><trkpt lat="45.8832667" lon="8.70269"><ele>358.0</ele><time>2026-05-03T06:58:07.836Z</time></trkpt><trkpt lat="45.8833383" lon="8.7027917"><ele>358.0</ele><time>2026-05-03T06:58:08.835Z</time></trkpt><trkpt lat="45.8833967" lon="8.7028983"><ele>358.0</ele><time>2026-05-03T06:58:09.836Z</time></trkpt><trkpt lat="45.8834467" lon="8.7030083"><ele>358.0</ele><time>2026-05-03T06:58:10.836Z</time></trkpt><trkpt lat="45.883495" lon="8.7031017"><ele>358.79999999999995</ele><time>2026-05-03T06:58:11.836Z</time></trkpt><trkpt lat="45.8835567" lon="8.7031667"><ele>359.6</ele><time>2026-05-03T06:58:12.836Z</time></trkpt><trkpt lat="45.88364" lon="8.70321"><ele>360.4</ele><time>2026-05-03T06:58:13.835Z</time></trkpt><trkpt lat="45.88374" lon="8.7032367"><ele>361.20000000000005</ele><time>2026-05-03T06:58:14.836Z</time></trkpt><trkpt lat="45.8838617" lon="8.703235"><ele>362.0</ele><time>2026-05-03T06:58:15.836Z</time></trkpt><trkpt lat="45.8839783" lon="8.7032433"><ele>362.0</ele><time>2026-05-03T06:58:16.836Z</time></trkpt><trkpt lat="45.8840883" lon="8.70327"><ele>362.0</ele><time>2026-05-03T06:58:17.836Z</time></trkpt><trkpt lat="45.8841983" lon="8.70332"><ele>362.0</ele><time>2026-05-03T06:58:18.835Z</time></trkpt><trkpt lat="45.88431" lon="8.7033917"><ele>362.0</ele><time>2026-05-03T06:58:19.836Z</time></trkpt><trkpt lat="45.8844183" lon="8.70348"><ele>363.0</ele><time>2026-05-03T06:58:20.836Z</time></trkpt><trkpt lat="45.8845133" lon="8.7035817"><ele>364.0</ele><time>2026-05-03T06:58:21.836Z</time></trkpt><trkpt lat="45.8846083" lon="8.7036867"><ele>365.0</ele><time>2026-05-03T06:58:22.836Z</time></trkpt><trkpt lat="45.8847083" lon="8.703775"><ele>366.0</ele><time>2026-05-03T06:58:23.836Z</time></trkpt><trkpt lat="45.8848083" lon="8.703865"><ele>366.0</ele><time>2026-05-03T06:58:24.836Z</time></trkpt><trkpt lat="45.8849083" lon="8.7039533"><ele>366.0</ele><time>2026-05-03T06:58:25.835Z</time></trkpt><trkpt lat="45.8849983" lon="8.7040333"><ele>366.0</ele><time>2026-05-03T06:58:26.836Z</time></trkpt><trkpt lat="45.8850833" lon="8.70411"><ele>366.0</ele><time>2026-05-03T06:58:27.836Z</time></trkpt><trkpt lat="45.88515" lon="8.7041667"><ele>366.0</ele><time>2026-05-03T06:58:28.836Z</time></trkpt><trkpt lat="45.885215" lon="8.7042133"><ele>366.3333333333333</ele><time>2026-05-03T06:58:29.836Z</time></trkpt><trkpt lat="45.8853383" lon="8.70419"><ele>366.6666666666667</ele><time>2026-05-03T06:58:31.836Z</time></trkpt><trkpt lat="45.8853967" lon="8.7041517"><ele>367.0</ele><time>2026-05-03T06:58:32.836Z</time></trkpt><trkpt lat="45.8854967" lon="8.7041133"><ele>367.33333333333337</ele><time>2026-05-03T06:58:34.836Z</time></trkpt><trkpt lat="45.8855767" lon="8.704155"><ele>367.6666666666667</ele><time>2026-05-03T06:58:36.836Z</time></trkpt><trkpt lat="45.8856133" lon="8.7042333"><ele>368.0</ele><time>2026-05-03T06:58:37.835Z</time></trkpt><trkpt lat="45.8856633" lon="8.704345"><ele>368.5</ele><time>2026-05-03T06:58:38.836Z</time></trkpt><trkpt lat="45.885725" lon="8.7044767"><ele>369.0</ele><time>2026-05-03T06:58:39.835Z</time></trkpt><trkpt lat="45.88579" lon="8.7046217"><ele>369.5</ele><time>2026-05-03T06:58:40.836Z</time></trkpt><trkpt lat="45.88585" lon="8.7047767"><ele>370.0</ele><time>2026-05-03T06:58:41.836Z</time></trkpt><trkpt lat="45.8859067" lon="8.7049433"><ele>369.75</ele><time>2026-05-03T06:58:42.835Z</time></trkpt><trkpt lat="45.88596" lon="8.70512"><ele>369.5</ele><time>2026-05-03T06:58:43.836Z</time></trkpt><trkpt lat="45.8860183" lon="8.705315"><ele>369.25</ele><time>2026-05-03T06:58:44.836Z</time></trkpt><trkpt lat="45.8860833" lon="8.70549"><ele>369.0</ele><time>2026-05-03T06:58:45.836Z</time></trkpt><trkpt lat="45.8861383" lon="8.7056383"><ele>369.0</ele><time>2026-05-03T06:58:46.836Z</time></trkpt><trkpt lat="45.8862017" lon="8.70578"><ele>369.0</ele><time>2026-05-03T06:58:47.836Z</time></trkpt><trkpt lat="45.8862383" lon="8.7058983"><ele>369.0</ele><time>2026-05-03T06:58:48.836Z</time></trkpt><trkpt lat="45.8862817" lon="8.70599"><ele>369.0</ele><time>2026-05-03T06:58:49.836Z</time></trkpt><trkpt lat="45.88633" lon="8.7060533"><ele>369.0</ele><time>2026-05-03T06:58:50.835Z</time></trkpt><trkpt lat="45.8864467" lon="8.7060317"><ele>369.0</ele><time>2026-05-03T06:58:52.836Z</time></trkpt><trkpt lat="45.8865283" lon="8.70594"><ele>369.0</ele><time>2026-05-03T06:58:53.835Z</time></trkpt><trkpt lat="45.8866083" lon="8.7058433"><ele>369.0</ele><time>2026-05-03T06:58:54.836Z</time></trkpt><trkpt lat="45.8866817" lon="8.7057533"><ele>369.0</ele><time>2026-05-03T06:58:55.836Z</time></trkpt><trkpt lat="45.88674" lon="8.705655"><ele>369.0</ele><time>2026-05-03T06:58:56.835Z</time></trkpt><trkpt lat="45.8867767" lon="8.705545"><ele>369.0</ele><time>2026-05-03T06:58:57.836Z</time></trkpt><trkpt lat="45.8867867" lon="8.7054233"><ele>369.0</ele><time>2026-05-03T06:58:58.836Z</time></trkpt><trkpt lat="45.8867767" lon="8.7053183"><ele>369.0</ele><time>2026-05-03T06:58:59.835Z</time></trkpt><trkpt lat="45.8867817" lon="8.70522"><ele>369.0</ele><time>2026-05-03T06:59:00.835Z</time></trkpt><trkpt lat="45.8868133" lon="8.70513"><ele>369.0</ele><time>2026-05-03T06:59:01.835Z</time></trkpt><trkpt lat="45.8868833" lon="8.7050517"><ele>369.0</ele><time>2026-05-03T06:59:02.836Z</time></trkpt><trkpt lat="45.8869783" lon="8.7049733"><ele>369.0</ele><time>2026-05-03T06:59:03.835Z</time></trkpt><trkpt lat="45.8870767" lon="8.70489"><ele>369.0</ele><time>2026-05-03T06:59:04.836Z</time></trkpt><trkpt lat="45.887165" lon="8.7048"><ele>369.0</ele><time>2026-05-03T06:59:05.836Z</time></trkpt><trkpt lat="45.887245" lon="8.7047183"><ele>369.0</ele><time>2026-05-03T06:59:06.836Z</time></trkpt><trkpt lat="45.88732" lon="8.7046417"><ele>369.0</ele><time>2026-05-03T06:59:07.836Z</time></trkpt><trkpt lat="45.88739" lon="8.70457"><ele>369.0</ele><time>2026-05-03T06:59:08.835Z</time></trkpt><trkpt lat="45.8874617" lon="8.70452"><ele>369.0</ele><time>2026-05-03T06:59:09.836Z</time></trkpt><trkpt lat="45.8875733" lon="8.7045117"><ele>369.0</ele><time>2026-05-03T06:59:11.836Z</time></trkpt><trkpt lat="45.8876767" lon="8.7044367"><ele>369.0</ele><time>2026-05-03T06:59:13.836Z</time></trkpt><trkpt lat="45.88774" lon="8.7043517"><ele>369.0</ele><time>2026-05-03T06:59:14.836Z</time></trkpt><trkpt lat="45.8878167" lon="8.7042533"><ele>368.2</ele><time>2026-05-03T06:59:15.836Z</time></trkpt><trkpt lat="45.8879" lon="8.7041483"><ele>367.4</ele><time>2026-05-03T06:59:16.836Z</time></trkpt><trkpt lat="45.88797" lon="8.7040567"><ele>366.6</ele><time>2026-05-03T06:59:17.836Z</time></trkpt><trkpt lat="45.88803" lon="8.7039483"><ele>365.8</ele><time>2026-05-03T06:59:18.836Z</time></trkpt><trkpt lat="45.888085" lon="8.703855"><ele>365.0</ele><time>2026-05-03T06:59:19.836Z</time></trkpt><trkpt lat="45.888135" lon="8.7037733"><ele>365.0</ele><time>2026-05-03T06:59:20.836Z</time></trkpt><trkpt lat="45.88816" lon="8.7036717"><ele>365.0</ele><time>2026-05-03T06:59:21.835Z</time></trkpt><trkpt lat="45.8881683" lon="8.7035533"><ele>365.0</ele><time>2026-05-03T06:59:22.835Z</time></trkpt><trkpt lat="45.8881767" lon="8.703435"><ele>365.0</ele><time>2026-05-03T06:59:23.835Z</time></trkpt><trkpt lat="45.888175" lon="8.7033067"><ele>365.0</ele><time>2026-05-03T06:59:24.836Z</time></trkpt><trkpt lat="45.8881617" lon="8.7031833"><ele>365.0</ele><time>2026-05-03T06:59:25.836Z</time></trkpt><trkpt lat="45.8881533" lon="8.703065"><ele>364.5</ele><time>2026-05-03T06:59:26.836Z</time></trkpt><trkpt lat="45.8881433" lon="8.7029517"><ele>364.0</ele><time>2026-05-03T06:59:27.836Z</time></trkpt><trkpt lat="45.88815" lon="8.702835"><ele>363.5</ele><time>2026-05-03T06:59:28.836Z</time></trkpt><trkpt lat="45.8881783" lon="8.7027233"><ele>363.0</ele><time>2026-05-03T06:59:29.836Z</time></trkpt><trkpt lat="45.8882267" lon="8.70263"><ele>362.5</ele><time>2026-05-03T06:59:30.835Z</time></trkpt><trkpt lat="45.8882833" lon="8.7025533"><ele>362.0</ele><time>2026-05-03T06:59:31.836Z</time></trkpt><trkpt lat="45.8883533" lon="8.7024833"><ele>361.6666666666667</ele><time>2026-05-03T06:59:32.836Z</time></trkpt><trkpt lat="45.8884267" lon="8.7024117"><ele>361.33333333333337</ele><time>2026-05-03T06:59:33.836Z</time></trkpt><trkpt lat="45.8884983" lon="8.70233"><ele>361.0</ele><time>2026-05-03T06:59:34.836Z</time></trkpt><trkpt lat="45.888565" lon="8.7022333"><ele>360.6666666666667</ele><time>2026-05-03T06:59:35.836Z</time></trkpt><trkpt lat="45.88863" lon="8.70214"><ele>360.3333333333333</ele><time>2026-05-03T06:59:36.836Z</time></trkpt><trkpt lat="45.8886883" lon="8.7020567"><ele>360.0</ele><time>2026-05-03T06:59:37.835Z</time></trkpt><trkpt lat="45.8887567" lon="8.7019883"><ele>360.0</ele><time>2026-05-03T06:59:38.835Z</time></trkpt><trkpt lat="45.88883" lon="8.7019233"><ele>360.0</ele><time>2026-05-03T06:59:39.836Z</time></trkpt><trkpt lat="45.888905" lon="8.7018717"><ele>360.0</ele><time>2026-05-03T06:59:40.836Z</time></trkpt><trkpt lat="45.8889683" lon="8.7018267"><ele>360.0</ele><time>2026-05-03T06:59:41.835Z</time></trkpt><trkpt lat="45.8890267" lon="8.7017733"><ele>360.0</ele><time>2026-05-03T06:59:42.836Z</time></trkpt><trkpt lat="45.8890817" lon="8.70171"><ele>360.0</ele><time>2026-05-03T06:59:43.836Z</time></trkpt><trkpt lat="45.889165" lon="8.7015917"><ele>357.8</ele><time>2026-05-03T06:59:45.836Z</time></trkpt><trkpt lat="45.8892" lon="8.7015067"><ele>355.6</ele><time>2026-05-03T06:59:46.836Z</time></trkpt><trkpt lat="45.8892617" lon="8.7013983"><ele>353.4</ele><time>2026-05-03T06:59:48.836Z</time></trkpt><trkpt lat="45.8893633" lon="8.70133"><ele>351.2</ele><time>2026-05-03T06:59:50.836Z</time></trkpt><trkpt lat="45.88948" lon="8.7013083"><ele>349.0</ele><time>2026-05-03T06:59:52.835Z</time></trkpt><trkpt lat="45.8895883" lon="8.7013233"><ele>348.2</ele><time>2026-05-03T06:59:54.835Z</time></trkpt><trkpt lat="45.889715" lon="8.701345"><ele>347.4</ele><time>2026-05-03T06:59:56.836Z</time></trkpt><trkpt lat="45.8897933" lon="8.7013433"><ele>346.6</ele><time>2026-05-03T06:59:57.836Z</time></trkpt><trkpt lat="45.8898767" lon="8.70133"><ele>345.8</ele><time>2026-05-03T06:59:58.836Z</time></trkpt><trkpt lat="45.8899733" lon="8.7012983"><ele>345.0</ele><time>2026-05-03T06:59:59.836Z</time></trkpt><trkpt lat="45.8900633" lon="8.7012583"><ele>344.0</ele><time>2026-05-03T07:00:00.836Z</time></trkpt><trkpt lat="45.8901467" lon="8.7012217"><ele>343.0</ele><time>2026-05-03T07:00:01.836Z</time></trkpt><trkpt lat="45.8902183" lon="8.701185"><ele>342.0</ele><time>2026-05-03T07:00:02.836Z</time></trkpt><trkpt lat="45.8902933" lon="8.7011"><ele>341.0</ele><time>2026-05-03T07:00:04.836Z</time></trkpt><trkpt lat="45.8903633" lon="8.70104"><ele>340.0</ele><time>2026-05-03T07:00:07.835Z</time></trkpt><trkpt lat="45.89044" lon="8.700985"><ele>339.0</ele><time>2026-05-03T07:00:10.835Z</time></trkpt><trkpt lat="45.890525" lon="8.7009733"><ele>339.0</ele><time>2026-05-03T07:00:12.835Z</time></trkpt><trkpt lat="45.8906233" lon="8.7010167"><ele>339.0</ele><time>2026-05-03T07:00:14.836Z</time></trkpt><trkpt lat="45.890695" lon="8.7011483"><ele>339.0</ele><time>2026-05-03T07:00:16.836Z</time></trkpt><trkpt lat="45.8907367" lon="8.7012517"><ele>339.0</ele><time>2026-05-03T07:00:17.836Z</time></trkpt><trkpt lat="45.8907867" lon="8.7014067"><ele>339.0</ele><time>2026-05-03T07:00:18.836Z</time></trkpt><trkpt lat="45.8908117" lon="8.701535"><ele>339.0</ele><time>2026-05-03T07:00:19.836Z</time></trkpt><trkpt lat="45.890835" lon="8.7016367"><ele>339.0</ele><time>2026-05-03T07:00:20.836Z</time></trkpt><trkpt lat="45.8908867" lon="8.7018067"><ele>339.0</ele><time>2026-05-03T07:00:22.836Z</time></trkpt><trkpt lat="45.89093" lon="8.7018883"><ele>339.0</ele><time>2026-05-03T07:00:23.836Z</time></trkpt><trkpt lat="45.8909817" lon="8.70198"><ele>339.0</ele><time>2026-05-03T07:00:24.836Z</time></trkpt><trkpt lat="45.891025" lon="8.7020867"><ele>339.0</ele><time>2026-05-03T07:00:25.835Z</time></trkpt><trkpt lat="45.8910567" lon="8.7021867"><ele>338.5</ele><time>2026-05-03T07:00:26.835Z</time></trkpt><trkpt lat="45.891085" lon="8.7022817"><ele>338.0</ele><time>2026-05-03T07:00:27.835Z</time></trkpt><trkpt lat="45.8911083" lon="8.70238"><ele>337.5</ele><time>2026-05-03T07:00:28.836Z</time></trkpt><trkpt lat="45.8911383" lon="8.7024833"><ele>337.0</ele><time>2026-05-03T07:00:29.836Z</time></trkpt><trkpt lat="45.8911533" lon="8.7025817"><ele>336.5</ele><time>2026-05-03T07:00:30.836Z</time></trkpt><trkpt lat="45.8911783" lon="8.7027533"><ele>336.0</ele><time>2026-05-03T07:00:32.836Z</time></trkpt><trkpt lat="45.8912083" lon="8.7029017"><ele>336.0</ele><time>2026-05-03T07:00:34.835Z</time></trkpt><trkpt lat="45.8912367" lon="8.7029883"><ele>336.0</ele><time>2026-05-03T07:00:35.836Z</time></trkpt><trkpt lat="45.89128" lon="8.7030867"><ele>336.0</ele><time>2026-05-03T07:00:36.836Z</time></trkpt><trkpt lat="45.8913133" lon="8.7031833"><ele>336.0</ele><time>2026-05-03T07:00:37.836Z</time></trkpt><trkpt lat="45.8913433" lon="8.7032967"><ele>336.0</ele><time>2026-05-03T07:00:38.835Z</time></trkpt><trkpt lat="45.891385" lon="8.70344"><ele>336.0</ele><time>2026-05-03T07:00:39.836Z</time></trkpt><trkpt lat="45.89143" lon="8.7035783"><ele>337.4</ele><time>2026-05-03T07:00:40.835Z</time></trkpt><trkpt lat="45.8914817" lon="8.7037183"><ele>338.8</ele><time>2026-05-03T07:00:41.836Z</time></trkpt><trkpt lat="45.8915117" lon="8.70384"><ele>340.2</ele><time>2026-05-03T07:00:42.836Z</time></trkpt><trkpt lat="45.89153" lon="8.703965"><ele>341.59999999999997</ele><time>2026-05-03T07:00:43.836Z</time></trkpt><trkpt lat="45.8915633" lon="8.7040933"><ele>343.0</ele><time>2026-05-03T07:00:44.836Z</time></trkpt><trkpt lat="45.89161" lon="8.704235"><ele>343.0</ele><time>2026-05-03T07:00:45.836Z</time></trkpt><trkpt lat="45.8916467" lon="8.70438"><ele>343.0</ele><time>2026-05-03T07:00:46.836Z</time></trkpt><trkpt lat="45.8916767" lon="8.7045367"><ele>343.0</ele><time>2026-05-03T07:00:47.836Z</time></trkpt><trkpt lat="45.8916983" lon="8.70468"><ele>343.0</ele><time>2026-05-03T07:00:48.836Z</time></trkpt><trkpt lat="45.8917133" lon="8.7048117"><ele>343.0</ele><time>2026-05-03T07:00:49.836Z</time></trkpt><trkpt lat="45.89173" lon="8.7049317"><ele>341.0</ele><time>2026-05-03T07:00:50.835Z</time></trkpt><trkpt lat="45.89175" lon="8.7050483"><ele>339.0</ele><time>2026-05-03T07:00:51.836Z</time></trkpt><trkpt lat="45.89178" lon="8.7051833"><ele>337.0</ele><time>2026-05-03T07:00:52.835Z</time></trkpt><trkpt lat="45.891805" lon="8.7053233"><ele>335.0</ele><time>2026-05-03T07:00:53.836Z</time></trkpt><trkpt lat="45.891835" lon="8.7054467"><ele>333.0</ele><time>2026-05-03T07:00:54.836Z</time></trkpt><trkpt lat="45.891865" lon="8.7055633"><ele>333.0</ele><time>2026-05-03T07:00:55.835Z</time></trkpt><trkpt lat="45.891895" lon="8.705675"><ele>333.0</ele><time>2026-05-03T07:00:56.836Z</time></trkpt><trkpt lat="45.8919167" lon="8.7057867"><ele>333.0</ele><time>2026-05-03T07:00:57.835Z</time></trkpt><trkpt lat="45.89194" lon="8.70589"><ele>333.0</ele><time>2026-05-03T07:00:58.835Z</time></trkpt><trkpt lat="45.89196" lon="8.7060017"><ele>333.0</ele><time>2026-05-03T07:00:59.836Z</time></trkpt><trkpt lat="45.8919783" lon="8.7061017"><ele>333.0</ele><time>2026-05-03T07:01:00.836Z</time></trkpt><trkpt lat="45.8920117" lon="8.7062083"><ele>334.8333333333333</ele><time>2026-05-03T07:01:01.836Z</time></trkpt><trkpt lat="45.8920417" lon="8.7063067"><ele>336.6666666666667</ele><time>2026-05-03T07:01:02.836Z</time></trkpt><trkpt lat="45.8920717" lon="8.706395"><ele>338.5</ele><time>2026-05-03T07:01:03.836Z</time></trkpt><trkpt lat="45.8921417" lon="8.706515"><ele>340.33333333333337</ele><time>2026-05-03T07:01:05.836Z</time></trkpt><trkpt lat="45.8922417" lon="8.7066033"><ele>342.1666666666667</ele><time>2026-05-03T07:01:07.836Z</time></trkpt><trkpt lat="45.8923067" lon="8.706655"><ele>344.0</ele><time>2026-05-03T07:01:08.836Z</time></trkpt><trkpt lat="45.89236" lon="8.706725"><ele>344.0</ele><time>2026-05-03T07:01:09.836Z</time></trkpt><trkpt lat="45.8924267" lon="8.7068083"><ele>344.0</ele><time>2026-05-03T07:01:10.836Z</time></trkpt><trkpt lat="45.892485" lon="8.7069117"><ele>344.0</ele><time>2026-05-03T07:01:11.835Z</time></trkpt><trkpt lat="45.89255" lon="8.7070133"><ele>344.0</ele><time>2026-05-03T07:01:12.836Z</time></trkpt><trkpt lat="45.8926283" lon="8.7071233"><ele>344.0</ele><time>2026-05-03T07:01:13.836Z</time></trkpt><trkpt lat="45.8927233" lon="8.70722"><ele>343.6666666666667</ele><time>2026-05-03T07:01:14.836Z</time></trkpt><trkpt lat="45.892815" lon="8.707325"><ele>343.33333333333337</ele><time>2026-05-03T07:01:15.836Z</time></trkpt><trkpt lat="45.89289" lon="8.707395"><ele>343.0</ele><time>2026-05-03T07:01:16.836Z</time></trkpt><trkpt lat="45.8929483" lon="8.7074483"><ele>342.6666666666667</ele><time>2026-05-03T07:01:17.835Z</time></trkpt><trkpt lat="45.89304" lon="8.7074633"><ele>342.3333333333333</ele><time>2026-05-03T07:01:19.836Z</time></trkpt><trkpt lat="45.89312" lon="8.7074633"><ele>342.0</ele><time>2026-05-03T07:01:24.836Z</time></trkpt><trkpt lat="45.8931983" lon="8.7075167"><ele>342.0</ele><time>2026-05-03T07:01:28.836Z</time></trkpt><trkpt lat="45.89323" lon="8.7076233"><ele>342.0</ele><time>2026-05-03T07:01:31.836Z</time></trkpt><trkpt lat="45.8933" lon="8.7075733"><ele>342.0</ele><time>2026-05-03T07:01:37.836Z</time></trkpt><trkpt lat="45.893345" lon="8.7074467"><ele>342.0</ele><time>2026-05-03T07:01:40.836Z</time></trkpt><trkpt lat="45.8933817" lon="8.7073383"><ele>342.0</ele><time>2026-05-03T07:01:42.836Z</time></trkpt><trkpt lat="45.89342" lon="8.70722"><ele>342.0</ele><time>2026-05-03T07:01:44.836Z</time></trkpt><trkpt lat="45.8934583" lon="8.7071"><ele>338.2857142857143</ele><time>2026-05-03T07:01:46.836Z</time></trkpt><trkpt lat="45.8934883" lon="8.706985"><ele>334.57142857142856</ele><time>2026-05-03T07:01:48.836Z</time></trkpt><trkpt lat="45.8935183" lon="8.7068867"><ele>330.8571428571429</ele><time>2026-05-03T07:01:50.836Z</time></trkpt><trkpt lat="45.89355" lon="8.7067917"><ele>327.1428571428571</ele><time>2026-05-03T07:01:52.836Z</time></trkpt><trkpt lat="45.89358" lon="8.70669"><ele>323.42857142857144</ele><time>2026-05-03T07:01:54.836Z</time></trkpt><trkpt lat="45.8936467" lon="8.7066733"><ele>319.7142857142857</ele><time>2026-05-03T07:02:00.836Z</time></trkpt><trkpt lat="45.893685" lon="8.7067517"><ele>316.0</ele><time>2026-05-03T07:02:02.836Z</time></trkpt><trkpt lat="45.8937167" lon="8.70684"><ele>315.66666666666663</ele><time>2026-05-03T07:02:04.836Z</time></trkpt><trkpt lat="45.893745" lon="8.70693"><ele>315.3333333333333</ele><time>2026-05-03T07:02:06.836Z</time></trkpt><trkpt lat="45.89379" lon="8.70703"><ele>315.0</ele><time>2026-05-03T07:02:09.836Z</time></trkpt><trkpt lat="45.8938667" lon="8.7070233"><ele>314.6666666666667</ele><time>2026-05-03T07:02:11.836Z</time></trkpt><trkpt lat="45.8939517" lon="8.7070217"><ele>314.33333333333337</ele><time>2026-05-03T07:02:13.836Z</time></trkpt><trkpt lat="45.894035" lon="8.70708"><ele>314.0</ele><time>2026-05-03T07:02:15.836Z</time></trkpt><trkpt lat="45.8940917" lon="8.7071983"><ele>314.0</ele><time>2026-05-03T07:02:17.836Z</time></trkpt><trkpt lat="45.8941083" lon="8.7072867"><ele>314.0</ele><time>2026-05-03T07:02:18.836Z</time></trkpt><trkpt lat="45.8941067" lon="8.7074267"><ele>314.0</ele><time>2026-05-03T07:02:19.835Z</time></trkpt><trkpt lat="45.894095" lon="8.7076017"><ele>314.0</ele><time>2026-05-03T07:02:20.836Z</time></trkpt><trkpt lat="45.89408" lon="8.7078133"><ele>314.0</ele><time>2026-05-03T07:02:21.836Z</time></trkpt><trkpt lat="45.8940633" lon="8.7080317"><ele>313.33333333333337</ele><time>2026-05-03T07:02:22.836Z</time></trkpt><trkpt lat="45.8940517" lon="8.7082583"><ele>312.6666666666667</ele><time>2026-05-03T07:02:23.836Z</time></trkpt><trkpt lat="45.8940417" lon="8.7084833"><ele>312.0</ele><time>2026-05-03T07:02:24.835Z</time></trkpt><trkpt lat="45.894035" lon="8.7086917"><ele>311.75</ele><time>2026-05-03T07:02:25.836Z</time></trkpt><trkpt lat="45.89403" lon="8.7088833"><ele>311.5</ele><time>2026-05-03T07:02:26.836Z</time></trkpt><trkpt lat="45.894025" lon="8.7090567"><ele>311.25</ele><time>2026-05-03T07:02:27.836Z</time></trkpt><trkpt lat="45.8940167" lon="8.7092083"><ele>311.0</ele><time>2026-05-03T07:02:28.835Z</time></trkpt><trkpt lat="45.894005" lon="8.7093417"><ele>310.6666666666667</ele><time>2026-05-03T07:02:29.836Z</time></trkpt><trkpt lat="45.8939883" lon="8.7094717"><ele>310.33333333333337</ele><time>2026-05-03T07:02:30.836Z</time></trkpt><trkpt lat="45.8939733" lon="8.70958"><ele>310.0</ele><time>2026-05-03T07:02:31.836Z</time></trkpt><trkpt lat="45.8939617" lon="8.70972"><ele>309.6666666666667</ele><time>2026-05-03T07:02:33.836Z</time></trkpt><trkpt lat="45.893985" lon="8.7098167"><ele>309.3333333333333</ele><time>2026-05-03T07:02:36.836Z</time></trkpt><trkpt lat="45.894015" lon="8.7099033"><ele>309.0</ele><time>2026-05-03T07:02:39.836Z</time></trkpt><trkpt lat="45.8940717" lon="8.7099783"><ele>309.0</ele><time>2026-05-03T07:02:43.835Z</time></trkpt><trkpt lat="45.89414" lon="8.709915"><ele>309.0</ele><time>2026-05-03T07:02:46.836Z</time></trkpt><trkpt lat="45.894205" lon="8.70981"><ele>309.0</ele><time>2026-05-03T07:02:48.836Z</time></trkpt><trkpt lat="45.8942467" lon="8.7097133"><ele>309.0</ele><time>2026-05-03T07:02:50.836Z</time></trkpt><trkpt lat="45.8942967" lon="8.7096317"><ele>309.0</ele><time>2026-05-03T07:02:53.836Z</time></trkpt><trkpt lat="45.8943767" lon="8.7095617"><ele>309.0</ele><time>2026-05-03T07:02:56.836Z</time></trkpt><trkpt lat="45.89446" lon="8.70955"><ele>305.3333333333333</ele><time>2026-05-03T07:02:59.836Z</time></trkpt><trkpt lat="45.8945233" lon="8.70955"><ele>301.6666666666667</ele><time>2026-05-03T07:03:01.836Z</time></trkpt><trkpt lat="45.894585" lon="8.7095717"><ele>298.0</ele><time>2026-05-03T07:03:03.835Z</time></trkpt><trkpt lat="45.89465" lon="8.70961"><ele>294.33333333333337</ele><time>2026-05-03T07:03:06.836Z</time></trkpt><trkpt lat="45.8946833" lon="8.7097"><ele>290.6666666666667</ele><time>2026-05-03T07:03:08.836Z</time></trkpt><trkpt lat="45.8947183" lon="8.7098783"><ele>287.0</ele><time>2026-05-03T07:03:10.835Z</time></trkpt><trkpt lat="45.8947333" lon="8.709985"><ele>287.0</ele><time>2026-05-03T07:03:11.835Z</time></trkpt><trkpt lat="45.894745" lon="8.7100917"><ele>287.0</ele><time>2026-05-03T07:03:12.836Z</time></trkpt><trkpt lat="45.8947617" lon="8.7101867"><ele>287.0</ele><time>2026-05-03T07:03:13.836Z</time></trkpt><trkpt lat="45.8947967" lon="8.7102667"><ele>287.0</ele><time>2026-05-03T07:03:14.836Z</time></trkpt><trkpt lat="45.894845" lon="8.7103417"><ele>287.0</ele><time>2026-05-03T07:03:15.836Z</time></trkpt><trkpt lat="45.8948833" lon="8.7104267"><ele>287.0</ele><time>2026-05-03T07:03:16.836Z</time></trkpt><trkpt lat="45.89492" lon="8.7105017"><ele>287.0</ele><time>2026-05-03T07:03:17.836Z</time></trkpt><trkpt lat="45.894955" lon="8.7105883"><ele>286.6</ele><time>2026-05-03T07:03:19.835Z</time></trkpt><trkpt lat="45.89504" lon="8.710705"><ele>286.2</ele><time>2026-05-03T07:09:13.835Z</time></trkpt><trkpt lat="45.8950917" lon="8.7107683"><ele>285.8</ele><time>2026-05-03T07:09:14.835Z</time></trkpt><trkpt lat="45.8951583" lon="8.7108633"><ele>285.4</ele><time>2026-05-03T07:09:15.836Z</time></trkpt><trkpt lat="45.8952217" lon="8.7109783"><ele>285.0</ele><time>2026-05-03T07:09:16.836Z</time></trkpt><trkpt lat="45.89527" lon="8.7111017"><ele>283.6</ele><time>2026-05-03T07:09:17.836Z</time></trkpt><trkpt lat="45.8953067" lon="8.711215"><ele>282.2</ele><time>2026-05-03T07:09:18.836Z</time></trkpt><trkpt lat="45.8953267" lon="8.7113333"><ele>280.8</ele><time>2026-05-03T07:09:19.836Z</time></trkpt><trkpt lat="45.8953267" lon="8.711465"><ele>279.4</ele><time>2026-05-03T07:09:20.836Z</time></trkpt><trkpt lat="45.89531" lon="8.711605"><ele>278.0</ele><time>2026-05-03T07:09:21.836Z</time></trkpt><trkpt lat="45.89528" lon="8.7117517"><ele>278.0</ele><time>2026-05-03T07:09:22.836Z</time></trkpt><trkpt lat="45.895245" lon="8.7118717"><ele>278.0</ele><time>2026-05-03T07:09:23.836Z</time></trkpt><trkpt lat="45.8952017" lon="8.712005"><ele>278.0</ele><time>2026-05-03T07:09:24.836Z</time></trkpt><trkpt lat="45.895145" lon="8.7121383"><ele>278.0</ele><time>2026-05-03T07:09:25.836Z</time></trkpt><trkpt lat="45.8950767" lon="8.712275"><ele>278.0</ele><time>2026-05-03T07:09:26.836Z</time></trkpt><trkpt lat="45.8950167" lon="8.712405"><ele>278.8</ele><time>2026-05-03T07:09:27.836Z</time></trkpt><trkpt lat="45.894955" lon="8.7125367"><ele>279.6</ele><time>2026-05-03T07:09:28.836Z</time></trkpt><trkpt lat="45.8948933" lon="8.7126667"><ele>280.4</ele><time>2026-05-03T07:09:29.836Z</time></trkpt><trkpt lat="45.8948367" lon="8.7128083"><ele>281.2</ele><time>2026-05-03T07:09:30.835Z</time></trkpt><trkpt lat="45.89479" lon="8.7129467"><ele>282.0</ele><time>2026-05-03T07:09:31.836Z</time></trkpt><trkpt lat="45.8947433" lon="8.7130817"><ele>282.0</ele><time>2026-05-03T07:09:32.836Z</time></trkpt><trkpt lat="45.894695" lon="8.7132167"><ele>282.0</ele><time>2026-05-03T07:09:33.835Z</time></trkpt><trkpt lat="45.8946533" lon="8.713365"><ele>282.0</ele><time>2026-05-03T07:09:34.835Z</time></trkpt><trkpt lat="45.8946167" lon="8.713515"><ele>282.0</ele><time>2026-05-03T07:09:35.836Z</time></trkpt><trkpt lat="45.89459" lon="8.71366"><ele>282.0</ele><time>2026-05-03T07:09:36.836Z</time></trkpt><trkpt lat="45.894565" lon="8.7138033"><ele>281.8</ele><time>2026-05-03T07:09:37.836Z</time></trkpt><trkpt lat="45.89454" lon="8.713945"><ele>281.6</ele><time>2026-05-03T07:09:38.836Z</time></trkpt><trkpt lat="45.8945017" lon="8.7140767"><ele>281.40000000000003</ele><time>2026-05-03T07:09:39.836Z</time></trkpt><trkpt lat="45.894465" lon="8.7141967"><ele>281.2</ele><time>2026-05-03T07:09:40.836Z</time></trkpt><trkpt lat="45.8944317" lon="8.7142883"><ele>281.0</ele><time>2026-05-03T07:09:41.836Z</time></trkpt><trkpt lat="45.8943883" lon="8.7144283"><ele>281.40000000000003</ele><time>2026-05-03T07:09:43.836Z</time></trkpt><trkpt lat="45.8943233" lon="8.7146067"><ele>281.8</ele><time>2026-05-03T07:09:45.835Z</time></trkpt><trkpt lat="45.89428" lon="8.7147183"><ele>282.20000000000005</ele><time>2026-05-03T07:09:46.835Z</time></trkpt><trkpt lat="45.8942283" lon="8.7148333"><ele>282.6</ele><time>2026-05-03T07:09:47.836Z</time></trkpt><trkpt lat="45.8941767" lon="8.7149333"><ele>283.0</ele><time>2026-05-03T07:09:48.836Z</time></trkpt><trkpt lat="45.8941083" lon="8.7150417"><ele>283.2</ele><time>2026-05-03T07:09:49.836Z</time></trkpt><trkpt lat="45.8940367" lon="8.7151567"><ele>283.4</ele><time>2026-05-03T07:09:50.835Z</time></trkpt><trkpt lat="45.8939583" lon="8.7152817"><ele>283.59999999999997</ele><time>2026-05-03T07:09:51.835Z</time></trkpt><trkpt lat="45.8938867" lon="8.7153983"><ele>283.8</ele><time>2026-05-03T07:09:52.835Z</time></trkpt><trkpt lat="45.8938167" lon="8.715505"><ele>284.0</ele><time>2026-05-03T07:09:53.836Z</time></trkpt><trkpt lat="45.89376" lon="8.7155967"><ele>284.0</ele><time>2026-05-03T07:09:54.835Z</time></trkpt><trkpt lat="45.89372" lon="8.7156917"><ele>284.0</ele><time>2026-05-03T07:09:55.836Z</time></trkpt><trkpt lat="45.8936983" lon="8.7157883"><ele>284.0</ele><time>2026-05-03T07:09:56.836Z</time></trkpt><trkpt lat="45.8936867" lon="8.7159"><ele>284.0</ele><time>2026-05-03T07:09:57.836Z</time></trkpt><trkpt lat="45.8937" lon="8.716015"><ele>284.0</ele><time>2026-05-03T07:09:58.836Z</time></trkpt><trkpt lat="45.8937267" lon="8.7161583"><ele>284.0</ele><time>2026-05-03T07:09:59.835Z</time></trkpt><trkpt lat="45.8937383" lon="8.71633"><ele>282.75</ele><time>2026-05-03T07:10:00.836Z</time></trkpt><trkpt lat="45.8937333" lon="8.71652"><ele>281.5</ele><time>2026-05-03T07:10:01.836Z</time></trkpt><trkpt lat="45.89373" lon="8.7167167"><ele>280.25</ele><time>2026-05-03T07:10:02.836Z</time></trkpt><trkpt lat="45.8937317" lon="8.716905"><ele>279.0</ele><time>2026-05-03T07:10:03.836Z</time></trkpt><trkpt lat="45.8937383" lon="8.71708"><ele>278.6666666666667</ele><time>2026-05-03T07:10:04.836Z</time></trkpt><trkpt lat="45.8937517" lon="8.7172267"><ele>278.3333333333333</ele><time>2026-05-03T07:10:05.836Z</time></trkpt><trkpt lat="45.89377" lon="8.7173517"><ele>278.0</ele><time>2026-05-03T07:10:06.835Z</time></trkpt><trkpt lat="45.8937833" lon="8.7174567"><ele>277.66666666666663</ele><time>2026-05-03T07:10:07.835Z</time></trkpt><trkpt lat="45.8937983" lon="8.717555"><ele>277.3333333333333</ele><time>2026-05-03T07:10:08.836Z</time></trkpt><trkpt lat="45.8938183" lon="8.7176417"><ele>277.0</ele><time>2026-05-03T07:10:09.836Z</time></trkpt><trkpt lat="45.8938483" lon="8.7178083"><ele>276.4</ele><time>2026-05-03T07:10:11.836Z</time></trkpt><trkpt lat="45.8938617" lon="8.71791"><ele>275.79999999999995</ele><time>2026-05-03T07:10:12.836Z</time></trkpt><trkpt lat="45.89386" lon="8.7180617"><ele>275.2</ele><time>2026-05-03T07:10:13.836Z</time></trkpt><trkpt lat="45.8938517" lon="8.7182417"><ele>274.59999999999997</ele><time>2026-05-03T07:10:14.836Z</time></trkpt><trkpt lat="45.8938467" lon="8.7184417"><ele>274.0</ele><time>2026-05-03T07:10:15.836Z</time></trkpt><trkpt lat="45.893855" lon="8.7186383"><ele>273.25</ele><time>2026-05-03T07:10:16.835Z</time></trkpt><trkpt lat="45.8938683" lon="8.7188333"><ele>272.5</ele><time>2026-05-03T07:10:17.836Z</time></trkpt><trkpt lat="45.893885" lon="8.7190067"><ele>271.75</ele><time>2026-05-03T07:10:18.836Z</time></trkpt><trkpt lat="45.8938867" lon="8.7191617"><ele>271.0</ele><time>2026-05-03T07:10:19.836Z</time></trkpt><trkpt lat="45.8938817" lon="8.7193033"><ele>272.0</ele><time>2026-05-03T07:10:20.836Z</time></trkpt><trkpt lat="45.8938633" lon="8.71947"><ele>273.0</ele><time>2026-05-03T07:10:21.835Z</time></trkpt><trkpt lat="45.89384" lon="8.7196633"><ele>274.0</ele><time>2026-05-03T07:10:22.835Z</time></trkpt><trkpt lat="45.8938217" lon="8.7198417"><ele>275.0</ele><time>2026-05-03T07:10:23.836Z</time></trkpt><trkpt lat="45.89381" lon="8.72"><ele>275.0</ele><time>2026-05-03T07:10:24.836Z</time></trkpt><trkpt lat="45.8938017" lon="8.7201333"><ele>275.0</ele><time>2026-05-03T07:10:25.836Z</time></trkpt><trkpt lat="45.893805" lon="8.7202733"><ele>275.0</ele><time>2026-05-03T07:10:26.836Z</time></trkpt><trkpt lat="45.8938167" lon="8.7204183"><ele>275.0</ele><time>2026-05-03T07:10:27.835Z</time></trkpt><trkpt lat="45.8938217" lon="8.7205567"><ele>275.0</ele><time>2026-05-03T07:10:28.835Z</time></trkpt><trkpt lat="45.8938133" lon="8.7206967"><ele>276.0</ele><time>2026-05-03T07:10:29.836Z</time></trkpt><trkpt lat="45.893805" lon="8.7208617"><ele>277.0</ele><time>2026-05-03T07:10:30.836Z</time></trkpt><trkpt lat="45.8938017" lon="8.7210317"><ele>278.0</ele><time>2026-05-03T07:10:31.836Z</time></trkpt><trkpt lat="45.8938083" lon="8.7212017"><ele>279.0</ele><time>2026-05-03T07:10:32.835Z</time></trkpt><trkpt lat="45.8938217" lon="8.7213783"><ele>279.75</ele><time>2026-05-03T07:10:33.835Z</time></trkpt><trkpt lat="45.893825" lon="8.72156"><ele>280.5</ele><time>2026-05-03T07:10:34.836Z</time></trkpt><trkpt lat="45.8938333" lon="8.72173"><ele>281.25</ele><time>2026-05-03T07:10:35.835Z</time></trkpt><trkpt lat="45.89384" lon="8.7218933"><ele>282.0</ele><time>2026-05-03T07:10:36.836Z</time></trkpt><trkpt lat="45.8938517" lon="8.7220533"><ele>283.5</ele><time>2026-05-03T07:10:37.836Z</time></trkpt><trkpt lat="45.893855" lon="8.7222283"><ele>285.0</ele><time>2026-05-03T07:10:38.836Z</time></trkpt><trkpt lat="45.8938667" lon="8.7224017"><ele>286.5</ele><time>2026-05-03T07:10:39.836Z</time></trkpt><trkpt lat="45.8938783" lon="8.7225683"><ele>288.0</ele><time>2026-05-03T07:10:40.836Z</time></trkpt><trkpt lat="45.8938867" lon="8.7227333"><ele>288.0</ele><time>2026-05-03T07:10:41.835Z</time></trkpt><trkpt lat="45.8938883" lon="8.722895"><ele>288.0</ele><time>2026-05-03T07:10:42.836Z</time></trkpt><trkpt lat="45.8938883" lon="8.7230783"><ele>288.0</ele><time>2026-05-03T07:10:43.835Z</time></trkpt><trkpt lat="45.8939033" lon="8.7232667"><ele>288.0</ele><time>2026-05-03T07:10:44.836Z</time></trkpt><trkpt lat="45.8939217" lon="8.723445"><ele>289.0</ele><time>2026-05-03T07:10:45.836Z</time></trkpt><trkpt lat="45.893955" lon="8.7236483"><ele>290.0</ele><time>2026-05-03T07:10:46.836Z</time></trkpt><trkpt lat="45.8939917" lon="8.72386"><ele>291.0</ele><time>2026-05-03T07:10:47.836Z</time></trkpt><trkpt lat="45.89403" lon="8.7240483"><ele>292.0</ele><time>2026-05-03T07:10:48.835Z</time></trkpt><trkpt lat="45.89406" lon="8.724225"><ele>292.0</ele><time>2026-05-03T07:10:49.836Z</time></trkpt><trkpt lat="45.8940817" lon="8.7243733"><ele>292.0</ele><time>2026-05-03T07:10:50.836Z</time></trkpt><trkpt lat="45.8941017" lon="8.7244933"><ele>292.0</ele><time>2026-05-03T07:10:51.836Z</time></trkpt><trkpt lat="45.8941167" lon="8.7245917"><ele>292.0</ele><time>2026-05-03T07:10:52.835Z</time></trkpt><trkpt lat="45.894135" lon="8.7247617"><ele>292.0</ele><time>2026-05-03T07:10:54.836Z</time></trkpt><trkpt lat="45.89413" lon="8.7248633"><ele>293.3333333333333</ele><time>2026-05-03T07:10:55.835Z</time></trkpt><trkpt lat="45.8941417" lon="8.7249683"><ele>294.66666666666663</ele><time>2026-05-03T07:10:56.836Z</time></trkpt><trkpt lat="45.894155" lon="8.7250783"><ele>296.0</ele><time>2026-05-03T07:10:57.836Z</time></trkpt><trkpt lat="45.894165" lon="8.7252"><ele>297.3333333333333</ele><time>2026-05-03T07:10:58.836Z</time></trkpt><trkpt lat="45.8941733" lon="8.7253267"><ele>298.6666666666667</ele><time>2026-05-03T07:10:59.836Z</time></trkpt><trkpt lat="45.8941767" lon="8.7254417"><ele>300.0</ele><time>2026-05-03T07:11:00.835Z</time></trkpt><trkpt lat="45.89417" lon="8.7255483"><ele>301.1666666666667</ele><time>2026-05-03T07:11:01.836Z</time></trkpt><trkpt lat="45.89417" lon="8.725645"><ele>302.3333333333333</ele><time>2026-05-03T07:11:02.836Z</time></trkpt><trkpt lat="45.8941533" lon="8.7257733"><ele>303.5</ele><time>2026-05-03T07:11:04.835Z</time></trkpt><trkpt lat="45.8941333" lon="8.725895"><ele>304.66666666666663</ele><time>2026-05-03T07:11:07.836Z</time></trkpt><trkpt lat="45.8940783" lon="8.725995"><ele>305.8333333333333</ele><time>2026-05-03T07:11:10.836Z</time></trkpt><trkpt lat="45.894015" lon="8.7259467"><ele>307.0</ele><time>2026-05-03T07:11:13.836Z</time></trkpt><trkpt lat="45.893965" lon="8.725875"><ele>307.0</ele><time>2026-05-03T07:11:16.835Z</time></trkpt><trkpt lat="45.8939383" lon="8.7257883"><ele>307.0</ele><time>2026-05-03T07:11:20.836Z</time></trkpt><trkpt lat="45.8938883" lon="8.7256967"><ele>307.0</ele><time>2026-05-03T07:11:23.836Z</time></trkpt><trkpt lat="45.8938417" lon="8.7255783"><ele>307.0</ele><time>2026-05-03T07:11:25.836Z</time></trkpt><trkpt lat="45.8937717" lon="8.72545"><ele>307.0</ele><time>2026-05-03T07:11:27.836Z</time></trkpt><trkpt lat="45.893705" lon="8.72533"><ele>307.0</ele><time>2026-05-03T07:11:29.836Z</time></trkpt><trkpt lat="45.89365" lon="8.725235"><ele>307.0</ele><time>2026-05-03T07:11:31.836Z</time></trkpt><trkpt lat="45.8935783" lon="8.7252083"><ele>307.0</ele><time>2026-05-03T07:11:33.836Z</time></trkpt><trkpt lat="45.8935017" lon="8.7252617"><ele>307.0</ele><time>2026-05-03T07:11:36.836Z</time></trkpt><trkpt lat="45.8934867" lon="8.7253567"><ele>307.0</ele><time>2026-05-03T07:11:39.835Z</time></trkpt><trkpt lat="45.8934933" lon="8.72546"><ele>307.0</ele><time>2026-05-03T07:11:41.835Z</time></trkpt><trkpt lat="45.89349" lon="8.725575"><ele>307.0</ele><time>2026-05-03T07:11:43.836Z</time></trkpt><trkpt lat="45.8934733" lon="8.725695"><ele>307.0</ele><time>2026-05-03T07:11:46.836Z</time></trkpt><trkpt lat="45.893415" lon="8.7258583"><ele>307.0</ele><time>2026-05-03T07:11:57.836Z</time></trkpt><trkpt lat="45.8934183" lon="8.7259617"><ele>307.0</ele><time>2026-05-03T07:12:00.836Z</time></trkpt><trkpt lat="45.893405" lon="8.7260617"><ele>307.0</ele><time>2026-05-03T07:12:02.836Z</time></trkpt><trkpt lat="45.8933917" lon="8.7261583"><ele>307.0</ele><time>2026-05-03T07:12:04.836Z</time></trkpt><trkpt lat="45.89341" lon="8.7262983"><ele>315.0</ele><time>2026-05-03T07:12:06.836Z</time></trkpt><trkpt lat="45.893405" lon="8.7263983"><ele>323.0</ele><time>2026-05-03T07:12:08.836Z</time></trkpt><trkpt lat="45.89338" lon="8.726515"><ele>331.0</ele><time>2026-05-03T07:12:11.836Z</time></trkpt><trkpt lat="45.8933683" lon="8.7266533"><ele>339.0</ele><time>2026-05-03T07:12:14.835Z</time></trkpt><trkpt lat="45.8933491" lon="8.7268022"><ele>347.0</ele><time>2026-05-03T07:12:17.875Z</time></trkpt><trkpt lat="45.893352" lon="8.7269204"><ele>355.0</ele><time>2026-05-03T07:12:18.835Z</time></trkpt><trkpt lat="45.8933527" lon="8.7270259"><ele>356.16666666666663</ele><time>2026-05-03T07:12:19.836Z</time></trkpt><trkpt lat="45.8933483" lon="8.7271233"><ele>357.3333333333333</ele><time>2026-05-03T07:12:20.836Z</time></trkpt><trkpt lat="45.8933167" lon="8.7272817"><ele>358.5</ele><time>2026-05-03T07:12:23.836Z</time></trkpt><trkpt lat="45.8933033" lon="8.7273933"><ele>359.6666666666667</ele><time>2026-05-03T07:12:34.835Z</time></trkpt><trkpt lat="45.893355" lon="8.727445"><ele>360.83333333333337</ele><time>2026-05-03T07:12:37.836Z</time></trkpt><trkpt lat="45.89341" lon="8.7275117"><ele>362.0</ele><time>2026-05-03T07:12:41.836Z</time></trkpt><trkpt lat="45.8934533" lon="8.7275917"><ele>355.6</ele><time>2026-05-03T07:12:46.836Z</time></trkpt><trkpt lat="45.8935" lon="8.7276567"><ele>349.20000000000005</ele><time>2026-05-03T07:12:50.836Z</time></trkpt><trkpt lat="45.8935583" lon="8.72778"><ele>342.8</ele><time>2026-05-03T07:12:53.836Z</time></trkpt><trkpt lat="45.8936133" lon="8.7278983"><ele>336.4</ele><time>2026-05-03T07:12:55.836Z</time></trkpt><trkpt lat="45.89366" lon="8.7280217"><ele>330.0</ele><time>2026-05-03T07:12:57.836Z</time></trkpt><trkpt lat="45.8936883" lon="8.7281417"><ele>330.0</ele><time>2026-05-03T07:12:59.836Z</time></trkpt><trkpt lat="45.893715" lon="8.728255"><ele>330.0</ele><time>2026-05-03T07:13:00.836Z</time></trkpt><trkpt lat="45.8937467" lon="8.7283817"><ele>330.0</ele><time>2026-05-03T07:13:01.836Z</time></trkpt><trkpt lat="45.8937833" lon="8.7285383"><ele>330.0</ele><time>2026-05-03T07:13:02.836Z</time></trkpt><trkpt lat="45.89384" lon="8.7287217"><ele>330.0</ele><time>2026-05-03T07:13:03.835Z</time></trkpt><trkpt lat="45.89388" lon="8.7288783"><ele>331.6</ele><time>2026-05-03T07:13:04.835Z</time></trkpt><trkpt lat="45.8939" lon="8.7290317"><ele>333.2</ele><time>2026-05-03T07:13:05.836Z</time></trkpt><trkpt lat="45.893905" lon="8.72918"><ele>334.79999999999995</ele><time>2026-05-03T07:13:06.836Z</time></trkpt><trkpt lat="45.8939217" lon="8.7293167"><ele>336.4</ele><time>2026-05-03T07:13:07.836Z</time></trkpt><trkpt lat="45.89394" lon="8.7294467"><ele>338.0</ele><time>2026-05-03T07:13:08.836Z</time></trkpt><trkpt lat="45.8939483" lon="8.7295683"><ele>337.6666666666667</ele><time>2026-05-03T07:13:09.836Z</time></trkpt><trkpt lat="45.8939617" lon="8.7296917"><ele>337.33333333333337</ele><time>2026-05-03T07:13:10.836Z</time></trkpt><trkpt lat="45.893965" lon="8.7298083"><ele>337.0</ele><time>2026-05-03T07:13:11.836Z</time></trkpt><trkpt lat="45.8939683" lon="8.7299117"><ele>336.6666666666667</ele><time>2026-05-03T07:13:12.836Z</time></trkpt><trkpt lat="45.8939767" lon="8.7300067"><ele>336.3333333333333</ele><time>2026-05-03T07:13:13.835Z</time></trkpt><trkpt lat="45.89398" lon="8.7300983"><ele>336.0</ele><time>2026-05-03T07:13:14.836Z</time></trkpt><trkpt lat="45.8940117" lon="8.73028"><ele>336.0</ele><time>2026-05-03T07:13:16.836Z</time></trkpt><trkpt lat="45.8940383" lon="8.730365"><ele>336.0</ele><time>2026-05-03T07:13:17.836Z</time></trkpt><trkpt lat="45.894085" lon="8.73052"><ele>336.0</ele><time>2026-05-03T07:13:19.836Z</time></trkpt><trkpt lat="45.8941467" lon="8.7306467"><ele>336.0</ele><time>2026-05-03T07:13:21.835Z</time></trkpt><trkpt lat="45.8942117" lon="8.7307617"><ele>336.0</ele><time>2026-05-03T07:13:23.836Z</time></trkpt><trkpt lat="45.8942667" lon="8.7309067"><ele>330.0</ele><time>2026-05-03T07:13:25.836Z</time></trkpt><trkpt lat="45.8943" lon="8.7310083"><ele>324.0</ele><time>2026-05-03T07:13:26.835Z</time></trkpt><trkpt lat="45.89434" lon="8.7311567"><ele>318.0</ele><time>2026-05-03T07:13:27.836Z</time></trkpt><trkpt lat="45.89438" lon="8.7313283"><ele>312.0</ele><time>2026-05-03T07:13:28.836Z</time></trkpt><trkpt lat="45.89442" lon="8.731495"><ele>306.0</ele><time>2026-05-03T07:13:29.835Z</time></trkpt><trkpt lat="45.8944583" lon="8.7316533"><ele>305.8</ele><time>2026-05-03T07:13:30.836Z</time></trkpt><trkpt lat="45.8944833" lon="8.7317983"><ele>305.6</ele><time>2026-05-03T07:13:31.836Z</time></trkpt><trkpt lat="45.8945017" lon="8.7319567"><ele>305.4</ele><time>2026-05-03T07:13:32.835Z</time></trkpt><trkpt lat="45.8945233" lon="8.7321133"><ele>305.2</ele><time>2026-05-03T07:13:33.836Z</time></trkpt><trkpt lat="45.8945467" lon="8.7322467"><ele>305.0</ele><time>2026-05-03T07:13:34.836Z</time></trkpt><trkpt lat="45.8945667" lon="8.73237"><ele>305.0</ele><time>2026-05-03T07:13:35.836Z</time></trkpt><trkpt lat="45.8945933" lon="8.7324817"><ele>305.0</ele><time>2026-05-03T07:13:36.835Z</time></trkpt><trkpt lat="45.894615" lon="8.7325717"><ele>305.0</ele><time>2026-05-03T07:13:37.836Z</time></trkpt><trkpt lat="45.8946283" lon="8.732725"><ele>305.0</ele><time>2026-05-03T07:13:39.836Z</time></trkpt><trkpt lat="45.894615" lon="8.7328367"><ele>305.0</ele><time>2026-05-03T07:13:41.836Z</time></trkpt><trkpt lat="45.8946267" lon="8.7329833"><ele>305.0</ele><time>2026-05-03T07:13:54.836Z</time></trkpt><trkpt lat="45.8946467" lon="8.73307"><ele>305.5</ele><time>2026-05-03T07:13:56.836Z</time></trkpt><trkpt lat="45.89458" lon="8.733155"><ele>306.0</ele><time>2026-05-03T07:13:58.836Z</time></trkpt><trkpt lat="45.8945033" lon="8.733205"><ele>306.5</ele><time>2026-05-03T07:13:59.835Z</time></trkpt><trkpt lat="45.89442" lon="8.7332633"><ele>307.0</ele><time>2026-05-03T07:14:00.836Z</time></trkpt><trkpt lat="45.8943433" lon="8.7333117"><ele>307.5</ele><time>2026-05-03T07:14:01.836Z</time></trkpt><trkpt lat="45.8942783" lon="8.7333467"><ele>308.0</ele><time>2026-05-03T07:14:02.836Z</time></trkpt><trkpt lat="45.8942133" lon="8.7334333"><ele>309.75</ele><time>2026-05-03T07:14:04.836Z</time></trkpt><trkpt lat="45.89421" lon="8.733545"><ele>311.5</ele><time>2026-05-03T07:14:05.836Z</time></trkpt><trkpt lat="45.8942183" lon="8.7337117"><ele>313.25</ele><time>2026-05-03T07:14:06.836Z</time></trkpt><trkpt lat="45.8942267" lon="8.7339033"><ele>315.0</ele><time>2026-05-03T07:14:07.836Z</time></trkpt><trkpt lat="45.8942217" lon="8.734095"><ele>315.0</ele><time>2026-05-03T07:14:08.836Z</time></trkpt><trkpt lat="45.894225" lon="8.7342717"><ele>315.0</ele><time>2026-05-03T07:14:09.835Z</time></trkpt><trkpt lat="45.8942167" lon="8.734445"><ele>315.0</ele><time>2026-05-03T07:14:10.836Z</time></trkpt><trkpt lat="45.894215" lon="8.7346017"><ele>315.0</ele><time>2026-05-03T07:14:11.835Z</time></trkpt><trkpt lat="45.89422" lon="8.7347567"><ele>313.8</ele><time>2026-05-03T07:14:12.836Z</time></trkpt><trkpt lat="45.8942317" lon="8.734905"><ele>312.6</ele><time>2026-05-03T07:14:13.836Z</time></trkpt><trkpt lat="45.8942417" lon="8.7350333"><ele>311.4</ele><time>2026-05-03T07:14:14.836Z</time></trkpt><trkpt lat="45.8942483" lon="8.7351483"><ele>310.2</ele><time>2026-05-03T07:14:15.835Z</time></trkpt><trkpt lat="45.8942567" lon="8.73525"><ele>309.0</ele><time>2026-05-03T07:14:16.836Z</time></trkpt><trkpt lat="45.894255" lon="8.73541"><ele>309.0</ele><time>2026-05-03T07:14:18.836Z</time></trkpt><trkpt lat="45.894265" lon="8.7355967"><ele>309.0</ele><time>2026-05-03T07:14:20.836Z</time></trkpt><trkpt lat="45.8942917" lon="8.73573"><ele>309.0</ele><time>2026-05-03T07:14:21.835Z</time></trkpt><trkpt lat="45.89433" lon="8.7358783"><ele>309.0</ele><time>2026-05-03T07:14:22.836Z</time></trkpt><trkpt lat="45.8943633" lon="8.7360217"><ele>309.0</ele><time>2026-05-03T07:14:23.836Z</time></trkpt><trkpt lat="45.89439" lon="8.736145"><ele>310.1666666666667</ele><time>2026-05-03T07:14:24.835Z</time></trkpt><trkpt lat="45.8944083" lon="8.7362683"><ele>311.3333333333333</ele><time>2026-05-03T07:14:25.836Z</time></trkpt><trkpt lat="45.894425" lon="8.7363983"><ele>312.5</ele><time>2026-05-03T07:14:26.836Z</time></trkpt><trkpt lat="45.8944467" lon="8.7365167"><ele>313.66666666666663</ele><time>2026-05-03T07:14:27.836Z</time></trkpt><trkpt lat="45.894475" lon="8.73663"><ele>314.8333333333333</ele><time>2026-05-03T07:14:28.836Z</time></trkpt><trkpt lat="45.8945217" lon="8.7367533"><ele>316.0</ele><time>2026-05-03T07:14:30.835Z</time></trkpt><trkpt lat="45.8945833" lon="8.7367967"><ele>316.0</ele><time>2026-05-03T07:14:32.835Z</time></trkpt><trkpt lat="45.89468" lon="8.7367833"><ele>316.0</ele><time>2026-05-03T07:14:34.836Z</time></trkpt><trkpt lat="45.8947617" lon="8.73682"><ele>316.0</ele><time>2026-05-03T07:14:36.836Z</time></trkpt><trkpt lat="45.8948317" lon="8.7368683"><ele>316.0</ele><time>2026-05-03T07:14:38.836Z</time></trkpt><trkpt lat="45.89489" lon="8.736805"><ele>316.0</ele><time>2026-05-03T07:14:42.836Z</time></trkpt><trkpt lat="45.89493" lon="8.7367017"><ele>316.0</ele><time>2026-05-03T07:14:44.836Z</time></trkpt><trkpt lat="45.8949933" lon="8.73656"><ele>316.0</ele><time>2026-05-03T07:14:46.836Z</time></trkpt><trkpt lat="45.895065" lon="8.7364033"><ele>316.0</ele><time>2026-05-03T07:14:48.836Z</time></trkpt><trkpt lat="45.895155" lon="8.7362567"><ele>316.0</ele><time>2026-05-03T07:14:50.836Z</time></trkpt><trkpt lat="45.8952167" lon="8.73618"><ele>316.0</ele><time>2026-05-03T07:14:51.835Z</time></trkpt><trkpt lat="45.895295" lon="8.736085"><ele>313.40000000000003</ele><time>2026-05-03T07:14:52.836Z</time></trkpt><trkpt lat="45.8953733" lon="8.7359867"><ele>310.8</ele><time>2026-05-03T07:14:53.836Z</time></trkpt><trkpt lat="45.89545" lon="8.7358783"><ele>308.20000000000005</ele><time>2026-05-03T07:14:54.836Z</time></trkpt><trkpt lat="45.895525" lon="8.7357983"><ele>305.6</ele><time>2026-05-03T07:14:55.836Z</time></trkpt><trkpt lat="45.8955967" lon="8.73573"><ele>303.0</ele><time>2026-05-03T07:14:56.836Z</time></trkpt><trkpt lat="45.8957" lon="8.7356933"><ele>303.0</ele><time>2026-05-03T07:14:58.835Z</time></trkpt><trkpt lat="45.8957917" lon="8.73577"><ele>303.0</ele><time>2026-05-03T07:15:00.836Z</time></trkpt><trkpt lat="45.8958367" lon="8.735865"><ele>303.0</ele><time>2026-05-03T07:15:01.836Z</time></trkpt><trkpt lat="45.8959" lon="8.73597"><ele>303.0</ele><time>2026-05-03T07:15:02.836Z</time></trkpt><trkpt lat="45.8959433" lon="8.736095"><ele>303.0</ele><time>2026-05-03T07:15:03.836Z</time></trkpt><trkpt lat="45.896005" lon="8.7362533"><ele>302.5</ele><time>2026-05-03T07:15:04.836Z</time></trkpt><trkpt lat="45.896035" lon="8.7363517"><ele>302.0</ele><time>2026-05-03T07:15:05.836Z</time></trkpt><trkpt lat="45.8960733" lon="8.7364583"><ele>301.5</ele><time>2026-05-03T07:15:07.835Z</time></trkpt><trkpt lat="45.8961267" lon="8.7365783"><ele>301.0</ele><time>2026-05-03T07:15:09.836Z</time></trkpt><trkpt lat="45.896115" lon="8.7366733"><ele>300.5</ele><time>2026-05-03T07:15:10.836Z</time></trkpt><trkpt lat="45.896085" lon="8.7368017"><ele>300.0</ele><time>2026-05-03T07:15:12.835Z</time></trkpt><trkpt lat="45.8960817" lon="8.7369633"><ele>301.8</ele><time>2026-05-03T07:15:14.836Z</time></trkpt><trkpt lat="45.8961217" lon="8.73709"><ele>303.6</ele><time>2026-05-03T07:15:15.836Z</time></trkpt><trkpt lat="45.8961833" lon="8.7372317"><ele>305.4</ele><time>2026-05-03T07:15:16.836Z</time></trkpt><trkpt lat="45.8962233" lon="8.7373667"><ele>307.2</ele><time>2026-05-03T07:15:17.836Z</time></trkpt><trkpt lat="45.8962617" lon="8.737515"><ele>309.0</ele><time>2026-05-03T07:15:18.836Z</time></trkpt><trkpt lat="45.89629" lon="8.7376883"><ele>310.6666666666667</ele><time>2026-05-03T07:15:19.835Z</time></trkpt><trkpt lat="45.8962983" lon="8.737825"><ele>312.3333333333333</ele><time>2026-05-03T07:15:20.836Z</time></trkpt><trkpt lat="45.8963117" lon="8.7379483"><ele>314.0</ele><time>2026-05-03T07:15:21.835Z</time></trkpt><trkpt lat="45.896335" lon="8.7380767"><ele>315.66666666666663</ele><time>2026-05-03T07:15:22.836Z</time></trkpt><trkpt lat="45.89634" lon="8.73817"><ele>317.3333333333333</ele><time>2026-05-03T07:15:23.835Z</time></trkpt><trkpt lat="45.8963117" lon="8.7382983"><ele>319.0</ele><time>2026-05-03T07:15:25.836Z</time></trkpt><trkpt lat="45.8962633" lon="8.7383883"><ele>319.0</ele><time>2026-05-03T07:15:28.836Z</time></trkpt><trkpt lat="45.8962767" lon="8.7382767"><ele>319.0</ele><time>2026-05-03T07:16:32.834Z</time></trkpt><trkpt lat="45.8963117" lon="8.73811"><ele>319.0</ele><time>2026-05-03T07:16:35.835Z</time></trkpt><trkpt lat="45.8963083" lon="8.738"><ele>319.0</ele><time>2026-05-03T07:16:36.835Z</time></trkpt><trkpt lat="45.8962933" lon="8.7378867"><ele>319.0</ele><time>2026-05-03T07:16:37.835Z</time></trkpt><trkpt lat="45.8962767" lon="8.737775"><ele>319.0</ele><time>2026-05-03T07:16:38.835Z</time></trkpt><trkpt lat="45.8962633" lon="8.7376733"><ele>317.3333333333333</ele><time>2026-05-03T07:16:39.835Z</time></trkpt><trkpt lat="45.89625" lon="8.73757"><ele>315.66666666666663</ele><time>2026-05-03T07:16:40.835Z</time></trkpt><trkpt lat="45.8962433" lon="8.7374717"><ele>314.0</ele><time>2026-05-03T07:16:41.835Z</time></trkpt><trkpt lat="45.89624" lon="8.7373783"><ele>312.3333333333333</ele><time>2026-05-03T07:16:42.834Z</time></trkpt><trkpt lat="45.896205" lon="8.73721"><ele>310.6666666666667</ele><time>2026-05-03T07:16:44.834Z</time></trkpt><trkpt lat="45.8961683" lon="8.7371183"><ele>309.0</ele><time>2026-05-03T07:16:45.835Z</time></trkpt><trkpt lat="45.896125" lon="8.73703"><ele>309.0</ele><time>2026-05-03T07:16:46.834Z</time></trkpt><trkpt lat="45.8960967" lon="8.7369483"><ele>309.0</ele><time>2026-05-03T07:16:47.835Z</time></trkpt><trkpt lat="45.8960733" lon="8.7368333"><ele>309.0</ele><time>2026-05-03T07:16:49.835Z</time></trkpt><trkpt lat="45.8961333" lon="8.73673"><ele>309.0</ele><time>2026-05-03T07:16:51.835Z</time></trkpt><trkpt lat="45.8961717" lon="8.7366267"><ele>309.0</ele><time>2026-05-03T07:16:53.835Z</time></trkpt><trkpt lat="45.8960917" lon="8.73658"><ele>309.0</ele><time>2026-05-03T07:16:57.835Z</time></trkpt><trkpt lat="45.8960033" lon="8.73645"><ele>308.4</ele><time>2026-05-03T07:16:59.834Z</time></trkpt><trkpt lat="45.8959567" lon="8.7362983"><ele>307.79999999999995</ele><time>2026-05-03T07:17:00.835Z</time></trkpt><trkpt lat="45.89591" lon="8.7361583"><ele>307.20000000000005</ele><time>2026-05-03T07:17:01.835Z</time></trkpt><trkpt lat="45.8958633" lon="8.736025"><ele>306.6</ele><time>2026-05-03T07:17:02.835Z</time></trkpt><trkpt lat="45.8958267" lon="8.7359283"><ele>306.0</ele><time>2026-05-03T07:17:03.834Z</time></trkpt><trkpt lat="45.8957483" lon="8.7358817"><ele>306.0</ele><time>2026-05-03T07:17:05.835Z</time></trkpt><trkpt lat="45.8956717" lon="8.7359083"><ele>306.0</ele><time>2026-05-03T07:17:06.834Z</time></trkpt><trkpt lat="45.895575" lon="8.7359517"><ele>306.0</ele><time>2026-05-03T07:17:07.834Z</time></trkpt><trkpt lat="45.895465" lon="8.7360117"><ele>306.0</ele><time>2026-05-03T07:17:08.834Z</time></trkpt><trkpt lat="45.895365" lon="8.7360767"><ele>306.0</ele><time>2026-05-03T07:17:09.835Z</time></trkpt><trkpt lat="45.8952733" lon="8.7361583"><ele>306.0</ele><time>2026-05-03T07:17:10.835Z</time></trkpt><trkpt lat="45.89519" lon="8.736265"><ele>306.0</ele><time>2026-05-03T07:17:11.834Z</time></trkpt><trkpt lat="45.8951083" lon="8.736365"><ele>306.0</ele><time>2026-05-03T07:17:12.835Z</time></trkpt><trkpt lat="45.8950533" lon="8.73649"><ele>306.0</ele><time>2026-05-03T07:17:13.835Z</time></trkpt><trkpt lat="45.894995" lon="8.7366033"><ele>306.0</ele><time>2026-05-03T07:17:14.834Z</time></trkpt><trkpt lat="45.8949467" lon="8.7367083"><ele>307.6666666666667</ele><time>2026-05-03T07:17:15.835Z</time></trkpt><trkpt lat="45.8949233" lon="8.7368017"><ele>309.3333333333333</ele><time>2026-05-03T07:17:16.835Z</time></trkpt><trkpt lat="45.8948817" lon="8.7369033"><ele>311.0</ele><time>2026-05-03T07:17:18.835Z</time></trkpt><trkpt lat="45.894815" lon="8.7369067"><ele>312.66666666666663</ele><time>2026-05-03T07:17:20.834Z</time></trkpt><trkpt lat="45.8947" lon="8.7368283"><ele>314.3333333333333</ele><time>2026-05-03T07:17:22.835Z</time></trkpt><trkpt lat="45.8946283" lon="8.7367883"><ele>316.0</ele><time>2026-05-03T07:17:23.835Z</time></trkpt><trkpt lat="45.8945667" lon="8.7367633"><ele>316.0</ele><time>2026-05-03T07:17:24.835Z</time></trkpt><trkpt lat="45.8944617" lon="8.7367117"><ele>316.0</ele><time>2026-05-03T07:17:26.835Z</time></trkpt><trkpt lat="45.894415" lon="8.73662"><ele>316.0</ele><time>2026-05-03T07:17:27.835Z</time></trkpt><trkpt lat="45.8943467" lon="8.7365933"><ele>316.0</ele><time>2026-05-03T07:17:28.835Z</time></trkpt><trkpt lat="45.8942883" lon="8.73655"><ele>316.0</ele><time>2026-05-03T07:17:29.834Z</time></trkpt><trkpt lat="45.8941933" lon="8.736465"><ele>316.0</ele><time>2026-05-03T07:17:31.834Z</time></trkpt><trkpt lat="45.8941367" lon="8.7364117"><ele>320.0</ele><time>2026-05-03T07:17:32.834Z</time></trkpt><trkpt lat="45.89409" lon="8.73635"><ele>324.0</ele><time>2026-05-03T07:17:33.834Z</time></trkpt><trkpt lat="45.8940117" lon="8.7362183"><ele>328.0</ele><time>2026-05-03T07:17:35.835Z</time></trkpt><trkpt lat="45.8939617" lon="8.7361283"><ele>332.0</ele><time>2026-05-03T07:17:37.834Z</time></trkpt><trkpt lat="45.8939283" lon="8.7360467"><ele>336.0</ele><time>2026-05-03T07:17:39.835Z</time></trkpt><trkpt lat="45.8938867" lon="8.735945"><ele>340.0</ele><time>2026-05-03T07:17:41.834Z</time></trkpt><trkpt lat="45.8938583" lon="8.7358483"><ele>340.0</ele><time>2026-05-03T07:17:43.835Z</time></trkpt><trkpt lat="45.8938117" lon="8.7357317"><ele>340.0</ele><time>2026-05-03T07:17:45.835Z</time></trkpt><trkpt lat="45.893775" lon="8.735645"><ele>340.0</ele><time>2026-05-03T07:17:46.834Z</time></trkpt><trkpt lat="45.8937467" lon="8.73556"><ele>340.0</ele><time>2026-05-03T07:17:47.834Z</time></trkpt><trkpt lat="45.8936967" lon="8.73546"><ele>340.0</ele><time>2026-05-03T07:17:49.835Z</time></trkpt><trkpt lat="45.8936733" lon="8.7355633"><ele>340.0</ele><time>2026-05-03T07:17:52.834Z</time></trkpt><trkpt lat="45.893695" lon="8.7356683"><ele>340.0</ele><time>2026-05-03T07:17:55.835Z</time></trkpt><trkpt lat="45.8937467" lon="8.73578"><ele>340.0</ele><time>2026-05-03T07:18:06.835Z</time></trkpt><trkpt lat="45.8937467" lon="8.7358733"><ele>340.0</ele><time>2026-05-03T07:18:08.835Z</time></trkpt><trkpt lat="45.8937217" lon="8.7359817"><ele>340.0</ele><time>2026-05-03T07:18:11.834Z</time></trkpt><trkpt lat="45.893685" lon="8.7360617"><ele>340.0</ele><time>2026-05-03T07:18:14.834Z</time></trkpt><trkpt lat="45.89359" lon="8.7360017"><ele>340.0</ele><time>2026-05-03T07:18:17.835Z</time></trkpt><trkpt lat="45.8935167" lon="8.735935"><ele>340.0</ele><time>2026-05-03T07:18:19.835Z</time></trkpt><trkpt lat="45.8934383" lon="8.735835"><ele>340.0</ele><time>2026-05-03T07:18:21.834Z</time></trkpt><trkpt lat="45.89337" lon="8.7357433"><ele>340.0</ele><time>2026-05-03T07:18:23.835Z</time></trkpt><trkpt lat="45.8933017" lon="8.73571"><ele>340.0</ele><time>2026-05-03T07:18:25.834Z</time></trkpt><trkpt lat="45.893235" lon="8.73571"><ele>340.0</ele><time>2026-05-03T07:18:27.834Z</time></trkpt><trkpt lat="45.893175" lon="8.735675"><ele>340.0</ele><time>2026-05-03T07:18:31.834Z</time></trkpt><trkpt lat="45.89314" lon="8.7355583"><ele>344.3333333333333</ele><time>2026-05-03T07:18:34.835Z</time></trkpt><trkpt lat="45.8931067" lon="8.73546"><ele>348.66666666666663</ele><time>2026-05-03T07:18:36.835Z</time></trkpt><trkpt lat="45.8930633" lon="8.7353817"><ele>353.0</ele><time>2026-05-03T07:18:38.835Z</time></trkpt><trkpt lat="45.892985" lon="8.73533"><ele>357.3333333333333</ele><time>2026-05-03T07:18:40.834Z</time></trkpt><trkpt lat="45.8928967" lon="8.7352517"><ele>361.6666666666667</ele><time>2026-05-03T07:18:42.835Z</time></trkpt><trkpt lat="45.8928467" lon="8.7351883"><ele>366.0</ele><time>2026-05-03T07:18:43.835Z</time></trkpt><trkpt lat="45.8927933" lon="8.735125"><ele>366.0</ele><time>2026-05-03T07:18:44.835Z</time></trkpt><trkpt lat="45.8927433" lon="8.73506"><ele>366.0</ele><time>2026-05-03T07:18:45.835Z</time></trkpt><trkpt lat="45.8926783" lon="8.7350017"><ele>366.0</ele><time>2026-05-03T07:18:46.835Z</time></trkpt><trkpt lat="45.8926117" lon="8.734955"><ele>366.0</ele><time>2026-05-03T07:18:47.834Z</time></trkpt><trkpt lat="45.8925483" lon="8.7349117"><ele>366.0</ele><time>2026-05-03T07:18:48.835Z</time></trkpt><trkpt lat="45.89248" lon="8.7348767"><ele>366.0</ele><time>2026-05-03T07:18:49.835Z</time></trkpt><trkpt lat="45.8924133" lon="8.7348417"><ele>366.0</ele><time>2026-05-03T07:18:50.835Z</time></trkpt><trkpt lat="45.8923417" lon="8.73482"><ele>370.6</ele><time>2026-05-03T07:18:51.835Z</time></trkpt><trkpt lat="45.89227" lon="8.73481"><ele>375.20000000000005</ele><time>2026-05-03T07:18:52.834Z</time></trkpt><trkpt lat="45.8922067" lon="8.73482"><ele>379.79999999999995</ele><time>2026-05-03T07:18:53.834Z</time></trkpt><trkpt lat="45.8921083" lon="8.7348667"><ele>384.4</ele><time>2026-05-03T07:18:55.834Z</time></trkpt><trkpt lat="45.89203" lon="8.7349717"><ele>389.0</ele><time>2026-05-03T07:18:57.834Z</time></trkpt><trkpt lat="45.89197" lon="8.7350983"><ele>388.99999999999994</ele><time>2026-05-03T07:18:59.835Z</time></trkpt><trkpt lat="45.8919067" lon="8.735175"><ele>389.0</ele><time>2026-05-03T07:19:01.834Z</time></trkpt><trkpt lat="45.891815" lon="8.7351983"><ele>389.0</ele><time>2026-05-03T07:19:03.835Z</time></trkpt><trkpt lat="45.8917483" lon="8.7351683"><ele>389.0</ele><time>2026-05-03T07:19:04.835Z</time></trkpt><trkpt lat="45.8916833" lon="8.7351033"><ele>388.99999999999994</ele><time>2026-05-03T07:19:05.834Z</time></trkpt><trkpt lat="45.8916283" lon="8.7350283"><ele>389.0</ele><time>2026-05-03T07:19:06.835Z</time></trkpt><trkpt lat="45.891575" lon="8.73495"><ele>391.66666666666663</ele><time>2026-05-03T07:19:07.835Z</time></trkpt><trkpt lat="45.891525" lon="8.7348783"><ele>394.3333333333333</ele><time>2026-05-03T07:19:08.835Z</time></trkpt><trkpt lat="45.8914633" lon="8.734815"><ele>397.0</ele><time>2026-05-03T07:19:09.835Z</time></trkpt><trkpt lat="45.8913933" lon="8.7347583"><ele>399.66666666666663</ele><time>2026-05-03T07:19:10.835Z</time></trkpt><trkpt lat="45.8913333" lon="8.7347017"><ele>402.3333333333333</ele><time>2026-05-03T07:19:11.835Z</time></trkpt><trkpt lat="45.89128" lon="8.734645"><ele>405.0</ele><time>2026-05-03T07:19:12.835Z</time></trkpt><trkpt lat="45.8912017" lon="8.7345133"><ele>405.0</ele><time>2026-05-03T07:19:14.834Z</time></trkpt><trkpt lat="45.891175" lon="8.7344117"><ele>405.0</ele><time>2026-05-03T07:19:15.835Z</time></trkpt><trkpt lat="45.8911467" lon="8.7343083"><ele>405.0</ele><time>2026-05-03T07:19:16.834Z</time></trkpt><trkpt lat="45.8911267" lon="8.7342"><ele>405.0</ele><time>2026-05-03T07:19:17.835Z</time></trkpt><trkpt lat="45.8911033" lon="8.7340967"><ele>405.0</ele><time>2026-05-03T07:19:18.835Z</time></trkpt><trkpt lat="45.8910733" lon="8.733995"><ele>405.0</ele><time>2026-05-03T07:19:19.835Z</time></trkpt><trkpt lat="45.8910467" lon="8.7338983"><ele>405.71428571428567</ele><time>2026-05-03T07:19:20.834Z</time></trkpt><trkpt lat="45.8910233" lon="8.7338033"><ele>406.42857142857144</ele><time>2026-05-03T07:19:21.834Z</time></trkpt><trkpt lat="45.8909983" lon="8.7337"><ele>407.1428571428571</ele><time>2026-05-03T07:19:22.834Z</time></trkpt><trkpt lat="45.8909717" lon="8.733615"><ele>407.85714285714283</ele><time>2026-05-03T07:19:23.835Z</time></trkpt><trkpt lat="45.8909383" lon="8.7335183"><ele>408.57142857142856</ele><time>2026-05-03T07:19:24.835Z</time></trkpt><trkpt lat="45.8908967" lon="8.7334133"><ele>409.2857142857143</ele><time>2026-05-03T07:19:25.834Z</time></trkpt><trkpt lat="45.8908617" lon="8.7333167"><ele>410.0</ele><time>2026-05-03T07:19:26.835Z</time></trkpt><trkpt lat="45.8908217" lon="8.73318"><ele>409.99999999999994</ele><time>2026-05-03T07:19:28.835Z</time></trkpt><trkpt lat="45.8907383" lon="8.7331817"><ele>410.0</ele><time>2026-05-03T07:19:34.835Z</time></trkpt><trkpt lat="45.890675" lon="8.7331717"><ele>410.0</ele><time>2026-05-03T07:19:37.835Z</time></trkpt><trkpt lat="45.8906017" lon="8.7331567"><ele>410.0</ele><time>2026-05-03T07:19:39.835Z</time></trkpt><trkpt lat="45.890525" lon="8.7331567"><ele>409.99999999999994</ele><time>2026-05-03T07:19:41.834Z</time></trkpt><trkpt lat="45.890425" lon="8.7331567"><ele>410.0</ele><time>2026-05-03T07:19:43.835Z</time></trkpt><trkpt lat="45.8903533" lon="8.733145"><ele>409.99999999999994</ele><time>2026-05-03T07:19:44.835Z</time></trkpt><trkpt lat="45.890285" lon="8.73318"><ele>410.0</ele><time>2026-05-03T07:19:46.834Z</time></trkpt><trkpt lat="45.8902233" lon="8.7332267"><ele>410.0</ele><time>2026-05-03T07:19:48.835Z</time></trkpt><trkpt lat="45.8901583" lon="8.7332883"><ele>410.0</ele><time>2026-05-03T07:19:50.835Z</time></trkpt><trkpt lat="45.89009" lon="8.7333367"><ele>409.99999999999994</ele><time>2026-05-03T07:19:53.834Z</time></trkpt><trkpt lat="45.889975" lon="8.73343"><ele>410.0</ele><time>2026-05-03T07:20:20.835Z</time></trkpt><trkpt lat="45.8898767" lon="8.7334433"><ele>411.66666666666663</ele><time>2026-05-03T07:20:26.835Z</time></trkpt><trkpt lat="45.8898233" lon="8.7334967"><ele>413.3333333333333</ele><time>2026-05-03T07:20:28.834Z</time></trkpt><trkpt lat="45.8897967" lon="8.7336"><ele>415.0</ele><time>2026-05-03T07:20:30.834Z</time></trkpt><trkpt lat="45.889785" lon="8.7337267"><ele>416.66666666666663</ele><time>2026-05-03T07:20:32.835Z</time></trkpt><trkpt lat="45.8897833" lon="8.7338717"><ele>418.3333333333333</ele><time>2026-05-03T07:20:34.835Z</time></trkpt><trkpt lat="45.8897883" lon="8.733975"><ele>420.0</ele><time>2026-05-03T07:20:37.834Z</time></trkpt><trkpt lat="45.8897733" lon="8.734115"><ele>422.0</ele><time>2026-05-03T07:21:16.834Z</time></trkpt><trkpt lat="45.8897867" lon="8.734245"><ele>424.0</ele><time>2026-05-03T07:22:17.835Z</time></trkpt><trkpt lat="45.8897917" lon="8.7343383"><ele>426.0</ele><time>2026-05-03T07:22:20.835Z</time></trkpt><trkpt lat="45.8897933" lon="8.7344383"><ele>428.0</ele><time>2026-05-03T07:22:28.834Z</time></trkpt><trkpt lat="45.8898167" lon="8.7345317"><ele>430.0</ele><time>2026-05-03T07:23:41.835Z</time></trkpt><trkpt lat="45.8897967" lon="8.73463"><ele>432.0</ele><time>2026-05-03T07:23:48.835Z</time></trkpt><trkpt lat="45.8897533" lon="8.7347017"><ele>434.0</ele><time>2026-05-03T07:23:53.834Z</time></trkpt><trkpt lat="45.8897517" lon="8.7347967"><ele>435.14285714285717</ele><time>2026-05-03T07:23:57.834Z</time></trkpt><trkpt lat="45.8897517" lon="8.734905"><ele>436.2857142857143</ele><time>2026-05-03T07:24:01.835Z</time></trkpt><trkpt lat="45.889765" lon="8.7350017"><ele>437.42857142857144</ele><time>2026-05-03T07:24:06.834Z</time></trkpt><trkpt lat="45.889705" lon="8.73506"><ele>438.57142857142856</ele><time>2026-05-03T07:24:10.834Z</time></trkpt><trkpt lat="45.889665" lon="8.7351417"><ele>439.7142857142857</ele><time>2026-05-03T07:24:13.835Z</time></trkpt><trkpt lat="45.8896217" lon="8.7352083"><ele>440.8571428571429</ele><time>2026-05-03T07:24:16.835Z</time></trkpt><trkpt lat="45.8895583" lon="8.73527"><ele>442.0</ele><time>2026-05-03T07:24:22.834Z</time></trkpt><trkpt lat="45.8895033" lon="8.7353217"><ele>443.42857142857144</ele><time>2026-05-03T07:24:29.834Z</time></trkpt><trkpt lat="45.8894817" lon="8.7354233"><ele>444.8571428571429</ele><time>2026-05-03T07:24:37.835Z</time></trkpt><trkpt lat="45.8894567" lon="8.7355217"><ele>446.28571428571433</ele><time>2026-05-03T07:24:40.835Z</time></trkpt><trkpt lat="45.8894217" lon="8.7355983"><ele>447.7142857142857</ele><time>2026-05-03T07:24:42.834Z</time></trkpt><trkpt lat="45.8893817" lon="8.7357167"><ele>449.1428571428571</ele><time>2026-05-03T07:24:45.835Z</time></trkpt><trkpt lat="45.8893467" lon="8.7357967"><ele>450.5714285714286</ele><time>2026-05-03T07:24:48.835Z</time></trkpt><trkpt lat="45.8893167" lon="8.7358983"><ele>452.0</ele><time>2026-05-03T07:24:52.835Z</time></trkpt><trkpt lat="45.8892783" lon="8.73597"><ele>453.49999999999994</ele><time>2026-05-03T07:24:59.835Z</time></trkpt><trkpt lat="45.8893167" lon="8.736135"><ele>455.0</ele><time>2026-05-03T07:25:30.835Z</time></trkpt><trkpt lat="45.8892867" lon="8.736225"><ele>456.5</ele><time>2026-05-03T07:25:33.835Z</time></trkpt><trkpt lat="45.8892883" lon="8.73632"><ele>458.0</ele><time>2026-05-03T07:25:37.835Z</time></trkpt><trkpt lat="45.8892883" lon="8.7364117"><ele>459.49999999999994</ele><time>2026-05-03T07:25:39.835Z</time></trkpt><trkpt lat="45.8892583" lon="8.736535"><ele>461.0</ele><time>2026-05-03T07:25:42.835Z</time></trkpt><trkpt lat="45.889245" lon="8.7366467"><ele>464.66666666666663</ele><time>2026-05-03T07:25:46.835Z</time></trkpt><trkpt lat="45.889245" lon="8.736745"><ele>468.3333333333333</ele><time>2026-05-03T07:25:51.835Z</time></trkpt><trkpt lat="45.8892267" lon="8.7368533"><ele>472.0</ele><time>2026-05-03T07:25:55.835Z</time></trkpt><trkpt lat="45.889185" lon="8.736955"><ele>475.66666666666663</ele><time>2026-05-03T07:26:01.835Z</time></trkpt><trkpt lat="45.8891167" lon="8.7370167"><ele>479.3333333333333</ele><time>2026-05-03T07:26:05.835Z</time></trkpt><trkpt lat="45.8890617" lon="8.7370867"><ele>483.0</ele><time>2026-05-03T07:26:09.834Z</time></trkpt><trkpt lat="45.88902" lon="8.7372517"><ele>485.1428571428571</ele><time>2026-05-03T07:26:52.835Z</time></trkpt><trkpt lat="45.888985" lon="8.7373367"><ele>487.2857142857143</ele><time>2026-05-03T07:26:59.835Z</time></trkpt><trkpt lat="45.88894" lon="8.73741"><ele>489.42857142857144</ele><time>2026-05-03T07:27:03.835Z</time></trkpt><trkpt lat="45.8888933" lon="8.7374967"><ele>491.57142857142856</ele><time>2026-05-03T07:27:08.835Z</time></trkpt><trkpt lat="45.8888333" lon="8.737555"><ele>493.71428571428567</ele><time>2026-05-03T07:27:12.835Z</time></trkpt><trkpt lat="45.888805" lon="8.73764"><ele>495.85714285714283</ele><time>2026-05-03T07:27:15.835Z</time></trkpt><trkpt lat="45.8888117" lon="8.73774"><ele>498.0</ele><time>2026-05-03T07:27:23.834Z</time></trkpt><trkpt lat="45.8887683" lon="8.7378267"><ele>500.6666666666667</ele><time>2026-05-03T07:27:46.835Z</time></trkpt><trkpt lat="45.8887283" lon="8.73792"><ele>503.33333333333337</ele><time>2026-05-03T07:27:51.834Z</time></trkpt><trkpt lat="45.8887033" lon="8.7380167"><ele>506.0</ele><time>2026-05-03T07:27:53.835Z</time></trkpt><trkpt lat="45.8886683" lon="8.73812"><ele>508.6666666666667</ele><time>2026-05-03T07:27:55.835Z</time></trkpt><trkpt lat="45.88864" lon="8.73823"><ele>511.33333333333337</ele><time>2026-05-03T07:27:57.835Z</time></trkpt><trkpt lat="45.8886667" lon="8.7383533"><ele>514.0</ele><time>2026-05-03T07:28:00.834Z</time></trkpt><trkpt lat="45.8887283" lon="8.738455"><ele>514.0</ele><time>2026-05-03T07:28:03.834Z</time></trkpt><trkpt lat="45.8887867" lon="8.7385"><ele>514.0</ele><time>2026-05-03T07:28:05.834Z</time></trkpt><trkpt lat="45.888865" lon="8.7385683"><ele>514.0</ele><time>2026-05-03T07:28:08.834Z</time></trkpt><trkpt lat="45.888935" lon="8.738665"><ele>514.0</ele><time>2026-05-03T07:28:11.835Z</time></trkpt><trkpt lat="45.8889783" lon="8.7387767"><ele>514.0</ele><time>2026-05-03T07:28:13.835Z</time></trkpt><trkpt lat="45.889" lon="8.7388617"><ele>514.0</ele><time>2026-05-03T07:28:15.835Z</time></trkpt><trkpt lat="45.8890517" lon="8.7389517"><ele>514.0</ele><time>2026-05-03T07:28:18.835Z</time></trkpt><trkpt lat="45.8891033" lon="8.7390517"><ele>514.0</ele><time>2026-05-03T07:28:21.834Z</time></trkpt><trkpt lat="45.8891667" lon="8.7391233"><ele>514.0</ele><time>2026-05-03T07:28:24.834Z</time></trkpt><trkpt lat="45.8892333" lon="8.73919"><ele>514.0</ele><time>2026-05-03T07:28:27.834Z</time></trkpt><trkpt lat="45.889285" lon="8.7392817"><ele>514.0</ele><time>2026-05-03T07:28:28.835Z</time></trkpt><trkpt lat="45.8893383" lon="8.7393483"><ele>514.0</ele><time>2026-05-03T07:28:30.835Z</time></trkpt><trkpt lat="45.8894033" lon="8.7394183"><ele>517.2857142857142</ele><time>2026-05-03T07:28:32.835Z</time></trkpt><trkpt lat="45.8894617" lon="8.7394767"><ele>520.5714285714286</ele><time>2026-05-03T07:28:34.835Z</time></trkpt><trkpt lat="45.8895283" lon="8.739555"><ele>523.8571428571429</ele><time>2026-05-03T07:28:37.834Z</time></trkpt><trkpt lat="45.889585" lon="8.739605"><ele>527.1428571428571</ele><time>2026-05-03T07:28:39.834Z</time></trkpt><trkpt lat="45.88965" lon="8.7396583"><ele>530.4285714285714</ele><time>2026-05-03T07:28:41.835Z</time></trkpt><trkpt lat="45.8897083" lon="8.7397017"><ele>533.7142857142857</ele><time>2026-05-03T07:28:43.835Z</time></trkpt><trkpt lat="45.8897717" lon="8.7397383"><ele>537.0</ele><time>2026-05-03T07:28:45.835Z</time></trkpt><trkpt lat="45.8898467" lon="8.73976"><ele>537.0</ele><time>2026-05-03T07:28:47.835Z</time></trkpt><trkpt lat="45.88992" lon="8.73978"><ele>537.0</ele><time>2026-05-03T07:28:49.835Z</time></trkpt><trkpt lat="45.8899883" lon="8.7398067"><ele>537.0</ele><time>2026-05-03T07:28:51.835Z</time></trkpt><trkpt lat="45.8900617" lon="8.739855"><ele>537.0</ele><time>2026-05-03T07:28:54.835Z</time></trkpt><trkpt lat="45.8901317" lon="8.7399083"><ele>537.0</ele><time>2026-05-03T07:28:57.834Z</time></trkpt><trkpt lat="45.8901933" lon="8.7399517"><ele>537.0</ele><time>2026-05-03T07:28:59.834Z</time></trkpt><trkpt lat="45.8902583" lon="8.74001"><ele>534.8333333333334</ele><time>2026-05-03T07:29:01.834Z</time></trkpt><trkpt lat="45.890315" lon="8.740065"><ele>532.6666666666666</ele><time>2026-05-03T07:29:03.835Z</time></trkpt><trkpt lat="45.89037" lon="8.740135"><ele>530.5</ele><time>2026-05-03T07:29:05.834Z</time></trkpt><trkpt lat="45.8904433" lon="8.7402183"><ele>528.3333333333333</ele><time>2026-05-03T07:29:08.835Z</time></trkpt><trkpt lat="45.89051" lon="8.74031"><ele>526.1666666666666</ele><time>2026-05-03T07:29:10.835Z</time></trkpt><trkpt lat="45.8905817" lon="8.7404417"><ele>524.0</ele><time>2026-05-03T07:29:12.835Z</time></trkpt><trkpt lat="45.8906283" lon="8.7405367"><ele>524.0</ele><time>2026-05-03T07:29:14.835Z</time></trkpt><trkpt lat="45.8906883" lon="8.740645"><ele>524.0</ele><time>2026-05-03T07:29:16.835Z</time></trkpt><trkpt lat="45.8907417" lon="8.7407667"><ele>524.0</ele><time>2026-05-03T07:29:18.835Z</time></trkpt><trkpt lat="45.8908033" lon="8.740885"><ele>524.0</ele><time>2026-05-03T07:29:20.835Z</time></trkpt><trkpt lat="45.890845" lon="8.7409967"><ele>524.0</ele><time>2026-05-03T07:29:22.835Z</time></trkpt><trkpt lat="45.8908867" lon="8.7410917"><ele>525.0</ele><time>2026-05-03T07:29:24.835Z</time></trkpt><trkpt lat="45.8909233" lon="8.741175"><ele>526.0</ele><time>2026-05-03T07:29:26.835Z</time></trkpt><trkpt lat="45.8909483" lon="8.7412617"><ele>527.0</ele><time>2026-05-03T07:29:28.835Z</time></trkpt><trkpt lat="45.89098" lon="8.7413633"><ele>528.0</ele><time>2026-05-03T07:29:30.835Z</time></trkpt><trkpt lat="45.891005" lon="8.7414883"><ele>529.0</ele><time>2026-05-03T07:29:32.834Z</time></trkpt><trkpt lat="45.8910217" lon="8.7415983"><ele>530.0</ele><time>2026-05-03T07:29:34.834Z</time></trkpt><trkpt lat="45.8910483" lon="8.7417367"><ele>528.6666666666666</ele><time>2026-05-03T07:29:36.835Z</time></trkpt><trkpt lat="45.8910817" lon="8.741855"><ele>527.3333333333333</ele><time>2026-05-03T07:29:38.834Z</time></trkpt><trkpt lat="45.8911067" lon="8.741965"><ele>526.0</ele><time>2026-05-03T07:29:40.834Z</time></trkpt><trkpt lat="45.8911267" lon="8.7420883"><ele>524.6666666666666</ele><time>2026-05-03T07:29:42.835Z</time></trkpt><trkpt lat="45.8911467" lon="8.742205"><ele>523.3333333333334</ele><time>2026-05-03T07:29:44.835Z</time></trkpt><trkpt lat="45.8911733" lon="8.7423233"><ele>522.0</ele><time>2026-05-03T07:29:46.834Z</time></trkpt><trkpt lat="45.891185" lon="8.742425"><ele>522.0</ele><time>2026-05-03T07:29:48.835Z</time></trkpt><trkpt lat="45.8912017" lon="8.7425717"><ele>522.0</ele><time>2026-05-03T07:29:50.835Z</time></trkpt><trkpt lat="45.891205" lon="8.7426933"><ele>522.0</ele><time>2026-05-03T07:29:52.835Z</time></trkpt><trkpt lat="45.8912" lon="8.7427917"><ele>522.0</ele><time>2026-05-03T07:29:54.834Z</time></trkpt><trkpt lat="45.891215" lon="8.7428867"><ele>522.0</ele><time>2026-05-03T07:29:56.835Z</time></trkpt><trkpt lat="45.89124" lon="8.7429983"><ele>522.0</ele><time>2026-05-03T07:29:58.834Z</time></trkpt><trkpt lat="45.891255" lon="8.74311"><ele>525.0</ele><time>2026-05-03T07:30:00.835Z</time></trkpt><trkpt lat="45.8912783" lon="8.7432183"><ele>528.0</ele><time>2026-05-03T07:30:02.835Z</time></trkpt><trkpt lat="45.89133" lon="8.7433083"><ele>531.0</ele><time>2026-05-03T07:30:04.835Z</time></trkpt><trkpt lat="45.891395" lon="8.7434033"><ele>534.0</ele><time>2026-05-03T07:30:06.835Z</time></trkpt><trkpt lat="45.8914533" lon="8.7434717"><ele>537.0</ele><time>2026-05-03T07:30:08.835Z</time></trkpt><trkpt lat="45.8915283" lon="8.7434817"><ele>540.0</ele><time>2026-05-03T07:31:55.835Z</time></trkpt><trkpt lat="45.891585" lon="8.7435517"><ele>541.5</ele><time>2026-05-03T07:31:59.835Z</time></trkpt><trkpt lat="45.8916383" lon="8.7436267"><ele>543.0</ele><time>2026-05-03T07:32:04.835Z</time></trkpt><trkpt lat="45.8916733" lon="8.743705"><ele>544.5</ele><time>2026-05-03T07:32:08.835Z</time></trkpt><trkpt lat="45.891715" lon="8.7438067"><ele>546.0</ele><time>2026-05-03T07:32:11.835Z</time></trkpt><trkpt lat="45.89176" lon="8.7439083"><ele>547.5</ele><time>2026-05-03T07:32:14.835Z</time></trkpt><trkpt lat="45.8917883" lon="8.7440267"><ele>549.0</ele><time>2026-05-03T07:32:17.834Z</time></trkpt><trkpt lat="45.891805" lon="8.74413"><ele>549.0</ele><time>2026-05-03T07:32:19.835Z</time></trkpt><trkpt lat="45.8918167" lon="8.744255"><ele>549.0</ele><time>2026-05-03T07:32:21.835Z</time></trkpt><trkpt lat="45.891835" lon="8.7443733"><ele>549.0</ele><time>2026-05-03T07:32:23.835Z</time></trkpt><trkpt lat="45.891855" lon="8.744505"><ele>549.0</ele><time>2026-05-03T07:32:26.835Z</time></trkpt><trkpt lat="45.8918283" lon="8.7446233"><ele>549.0</ele><time>2026-05-03T07:32:28.835Z</time></trkpt><trkpt lat="45.8918117" lon="8.7447433"><ele>549.0</ele><time>2026-05-03T07:32:31.834Z</time></trkpt><trkpt lat="45.8918367" lon="8.7448533"><ele>551.0</ele><time>2026-05-03T07:32:34.835Z</time></trkpt><trkpt lat="45.8918783" lon="8.7449233"><ele>553.0</ele><time>2026-05-03T07:32:36.834Z</time></trkpt><trkpt lat="45.891935" lon="8.745"><ele>555.0</ele><time>2026-05-03T07:32:40.835Z</time></trkpt><trkpt lat="45.891985" lon="8.7450683"><ele>557.0</ele><time>2026-05-03T07:32:46.834Z</time></trkpt><trkpt lat="45.892005" lon="8.7451567"><ele>559.0</ele><time>2026-05-03T07:32:52.835Z</time></trkpt><trkpt lat="45.892025" lon="8.7452967"><ele>561.0</ele><time>2026-05-03T07:33:50.835Z</time></trkpt><trkpt lat="45.8919967" lon="8.7453833"><ele>563.0</ele><time>2026-05-03T07:33:55.835Z</time></trkpt><trkpt lat="45.8920533" lon="8.7454483"><ele>564.3333333333333</ele><time>2026-05-03T07:33:58.835Z</time></trkpt><trkpt lat="45.8921067" lon="8.74553"><ele>565.6666666666666</ele><time>2026-05-03T07:34:01.835Z</time></trkpt><trkpt lat="45.8921767" lon="8.7456283"><ele>567.0</ele><time>2026-05-03T07:34:04.835Z</time></trkpt><trkpt lat="45.8922383" lon="8.7456883"><ele>568.3333333333334</ele><time>2026-05-03T07:34:06.834Z</time></trkpt><trkpt lat="45.8923183" lon="8.7457433"><ele>569.6666666666667</ele><time>2026-05-03T07:34:09.835Z</time></trkpt><trkpt lat="45.8923817" lon="8.7457883"><ele>571.0</ele><time>2026-05-03T07:34:11.834Z</time></trkpt><trkpt lat="45.8924467" lon="8.745835"><ele>571.0</ele><time>2026-05-03T07:34:13.835Z</time></trkpt><trkpt lat="45.89252" lon="8.745905"><ele>571.0</ele><time>2026-05-03T07:34:15.835Z</time></trkpt><trkpt lat="45.892595" lon="8.746015"><ele>571.0</ele><time>2026-05-03T07:34:17.835Z</time></trkpt><trkpt lat="45.89267" lon="8.7461317"><ele>571.0</ele><time>2026-05-03T07:34:19.835Z</time></trkpt><trkpt lat="45.8927067" lon="8.7462217"><ele>571.0</ele><time>2026-05-03T07:34:21.835Z</time></trkpt><trkpt lat="45.89274" lon="8.74633"><ele>570.6666666666667</ele><time>2026-05-03T07:34:23.835Z</time></trkpt><trkpt lat="45.8928067" lon="8.7464117"><ele>570.3333333333334</ele><time>2026-05-03T07:34:25.835Z</time></trkpt><trkpt lat="45.8928667" lon="8.74652"><ele>570.0</ele><time>2026-05-03T07:34:27.835Z</time></trkpt><trkpt lat="45.8929183" lon="8.7466033"><ele>569.6666666666666</ele><time>2026-05-03T07:34:29.835Z</time></trkpt><trkpt lat="45.89296" lon="8.746695"><ele>569.3333333333333</ele><time>2026-05-03T07:34:31.835Z</time></trkpt><trkpt lat="45.892995" lon="8.7467933"><ele>569.0</ele><time>2026-05-03T07:34:33.835Z</time></trkpt><trkpt lat="45.8930267" lon="8.746875"><ele>571.0</ele><time>2026-05-03T07:34:35.835Z</time></trkpt><trkpt lat="45.8930517" lon="8.7469667"><ele>573.0</ele><time>2026-05-03T07:34:41.835Z</time></trkpt><trkpt lat="45.8930933" lon="8.7470633"><ele>575.0</ele><time>2026-05-03T07:34:46.834Z</time></trkpt><trkpt lat="45.89314" lon="8.7472"><ele>577.0</ele><time>2026-05-03T07:34:49.835Z</time></trkpt><trkpt lat="45.8931733" lon="8.747295"><ele>579.0</ele><time>2026-05-03T07:34:51.835Z</time></trkpt><trkpt lat="45.893195" lon="8.7473833"><ele>581.0</ele><time>2026-05-03T07:34:53.834Z</time></trkpt><trkpt lat="45.8932117" lon="8.7474867"><ele>581.0</ele><time>2026-05-03T07:34:58.834Z</time></trkpt><trkpt lat="45.8932133" lon="8.7475933"><ele>581.0</ele><time>2026-05-03T07:35:05.835Z</time></trkpt><trkpt lat="45.8932217" lon="8.7476967"><ele>581.0</ele><time>2026-05-03T07:35:08.835Z</time></trkpt><trkpt lat="45.8932233" lon="8.7477883"><ele>581.0</ele><time>2026-05-03T07:35:10.834Z</time></trkpt><trkpt lat="45.89323" lon="8.7479033"><ele>581.0</ele><time>2026-05-03T07:35:12.835Z</time></trkpt><trkpt lat="45.8932467" lon="8.7480317"><ele>581.0</ele><time>2026-05-03T07:35:14.834Z</time></trkpt><trkpt lat="45.893265" lon="8.748165"><ele>582.2</ele><time>2026-05-03T07:35:16.835Z</time></trkpt><trkpt lat="45.8932933" lon="8.748315"><ele>583.4000000000001</ele><time>2026-05-03T07:35:18.835Z</time></trkpt><trkpt lat="45.893335" lon="8.7484517"><ele>584.6</ele><time>2026-05-03T07:35:20.835Z</time></trkpt><trkpt lat="45.8933733" lon="8.7485767"><ele>585.8000000000001</ele><time>2026-05-03T07:35:22.835Z</time></trkpt><trkpt lat="45.8934217" lon="8.7486717"><ele>587.0</ele><time>2026-05-03T07:35:24.835Z</time></trkpt><trkpt lat="45.8934783" lon="8.7487633"><ele>584.5</ele><time>2026-05-03T07:35:26.835Z</time></trkpt><trkpt lat="45.89352" lon="8.7488583"><ele>582.0</ele><time>2026-05-03T07:35:28.834Z</time></trkpt><trkpt lat="45.8935533" lon="8.748965"><ele>579.5</ele><time>2026-05-03T07:35:30.835Z</time></trkpt><trkpt lat="45.8935833" lon="8.7490617"><ele>577.0</ele><time>2026-05-03T07:35:32.835Z</time></trkpt><trkpt lat="45.8936017" lon="8.7491783"><ele>574.5</ele><time>2026-05-03T07:35:34.835Z</time></trkpt><trkpt lat="45.8936383" lon="8.74927"><ele>572.0</ele><time>2026-05-03T07:35:36.835Z</time></trkpt><trkpt lat="45.893695" lon="8.7493733"><ele>574.6666666666666</ele><time>2026-05-03T07:35:38.835Z</time></trkpt><trkpt lat="45.8937467" lon="8.749475"><ele>577.3333333333333</ele><time>2026-05-03T07:35:40.835Z</time></trkpt><trkpt lat="45.893795" lon="8.7495883"><ele>580.0</ele><time>2026-05-03T07:35:41.834Z</time></trkpt><trkpt lat="45.8938283" lon="8.7497017"><ele>582.6666666666666</ele><time>2026-05-03T07:35:43.835Z</time></trkpt><trkpt lat="45.89386" lon="8.7497833"><ele>585.3333333333334</ele><time>2026-05-03T07:35:44.835Z</time></trkpt><trkpt lat="45.8938917" lon="8.7499"><ele>588.0</ele><time>2026-05-03T07:35:46.835Z</time></trkpt><trkpt lat="45.8939217" lon="8.7500033"><ele>588.0</ele><time>2026-05-03T07:35:48.834Z</time></trkpt><trkpt lat="45.893945" lon="8.7501167"><ele>588.0</ele><time>2026-05-03T07:35:50.835Z</time></trkpt><trkpt lat="45.8939767" lon="8.7502267"><ele>588.0</ele><time>2026-05-03T07:35:52.834Z</time></trkpt><trkpt lat="45.894015" lon="8.7503383"><ele>588.0</ele><time>2026-05-03T07:35:54.834Z</time></trkpt><trkpt lat="45.8940583" lon="8.750425"><ele>588.0</ele><time>2026-05-03T07:35:56.835Z</time></trkpt><trkpt lat="45.8941" lon="8.750505"><ele>588.0</ele><time>2026-05-03T07:35:58.835Z</time></trkpt><trkpt lat="45.8941533" lon="8.7505883"><ele>587.0</ele><time>2026-05-03T07:36:02.835Z</time></trkpt><trkpt lat="45.8942117" lon="8.750665"><ele>586.0</ele><time>2026-05-03T07:36:05.835Z</time></trkpt><trkpt lat="45.8942717" lon="8.750765"><ele>585.0</ele><time>2026-05-03T07:36:08.835Z</time></trkpt><trkpt lat="45.8943233" lon="8.7508433"><ele>584.0</ele><time>2026-05-03T07:36:10.834Z</time></trkpt><trkpt lat="45.894375" lon="8.7509783"><ele>583.0</ele><time>2026-05-03T07:36:11.835Z</time></trkpt><trkpt lat="45.89441" lon="8.7510783"><ele>582.0</ele><time>2026-05-03T07:36:14.835Z</time></trkpt><trkpt lat="45.8944583" lon="8.7511967"><ele>582.0</ele><time>2026-05-03T07:36:17.835Z</time></trkpt><trkpt lat="45.8944983" lon="8.7512983"><ele>582.0</ele><time>2026-05-03T07:36:20.834Z</time></trkpt><trkpt lat="45.89452" lon="8.75139"><ele>582.0</ele><time>2026-05-03T07:36:24.835Z</time></trkpt><trkpt lat="45.8945617" lon="8.75149"><ele>582.0</ele><time>2026-05-03T07:36:29.835Z</time></trkpt><trkpt lat="45.8945917" lon="8.7515717"><ele>582.0</ele><time>2026-05-03T07:36:32.835Z</time></trkpt><trkpt lat="45.8946667" lon="8.751685"><ele>582.0</ele><time>2026-05-03T07:41:00.835Z</time></trkpt><trkpt lat="45.89473" lon="8.7517717"><ele>582.0</ele><time>2026-05-03T07:41:04.835Z</time></trkpt><trkpt lat="45.894775" lon="8.7518617"><ele>582.0</ele><time>2026-05-03T07:41:07.834Z</time></trkpt><trkpt lat="45.89483" lon="8.7519633"><ele>582.0</ele><time>2026-05-03T07:41:11.835Z</time></trkpt><trkpt lat="45.8948533" lon="8.752085"><ele>582.0</ele><time>2026-05-03T07:41:14.835Z</time></trkpt><trkpt lat="45.8948767" lon="8.7521933"><ele>582.0</ele><time>2026-05-03T07:41:17.835Z</time></trkpt><trkpt lat="45.8948833" lon="8.7522917"><ele>582.0</ele><time>2026-05-03T07:41:19.835Z</time></trkpt><trkpt lat="45.89488" lon="8.7523867"><ele>582.2</ele><time>2026-05-03T07:41:21.834Z</time></trkpt><trkpt lat="45.894875" lon="8.7524867"><ele>582.4000000000001</ele><time>2026-05-03T07:41:23.835Z</time></trkpt><trkpt lat="45.89488" lon="8.7526233"><ele>582.5999999999999</ele><time>2026-05-03T07:41:25.835Z</time></trkpt><trkpt lat="45.89489" lon="8.7527783"><ele>582.8</ele><time>2026-05-03T07:41:27.834Z</time></trkpt><trkpt lat="45.8948933" lon="8.7529233"><ele>583.0</ele><time>2026-05-03T07:41:29.835Z</time></trkpt><trkpt lat="45.8948783" lon="8.7530767"><ele>583.1666666666667</ele><time>2026-05-03T07:41:31.835Z</time></trkpt><trkpt lat="45.8948633" lon="8.7532"><ele>583.3333333333334</ele><time>2026-05-03T07:41:32.834Z</time></trkpt><trkpt lat="45.8948433" lon="8.7532983"><ele>583.5</ele><time>2026-05-03T07:41:33.835Z</time></trkpt><trkpt lat="45.89481" lon="8.7534317"><ele>583.6666666666666</ele><time>2026-05-03T07:41:35.835Z</time></trkpt><trkpt lat="45.89479" lon="8.7535417"><ele>583.8333333333333</ele><time>2026-05-03T07:41:37.835Z</time></trkpt><trkpt lat="45.8948233" lon="8.7536367"><ele>584.0</ele><time>2026-05-03T07:41:39.835Z</time></trkpt><trkpt lat="45.8948717" lon="8.7537433"><ele>584.5</ele><time>2026-05-03T07:41:41.835Z</time></trkpt><trkpt lat="45.8949483" lon="8.753855"><ele>585.0</ele><time>2026-05-03T07:41:43.835Z</time></trkpt><trkpt lat="45.89499" lon="8.7539283"><ele>585.5</ele><time>2026-05-03T07:41:44.835Z</time></trkpt><trkpt lat="45.8950333" lon="8.75401"><ele>586.0</ele><time>2026-05-03T07:41:45.834Z</time></trkpt><trkpt lat="45.8950833" lon="8.7541"><ele>586.5</ele><time>2026-05-03T07:41:46.835Z</time></trkpt><trkpt lat="45.8951283" lon="8.7541933"><ele>587.0</ele><time>2026-05-03T07:41:47.835Z</time></trkpt><trkpt lat="45.89517" lon="8.7542717"><ele>585.8000000000001</ele><time>2026-05-03T07:41:48.835Z</time></trkpt><trkpt lat="45.8952117" lon="8.7543617"><ele>584.6</ele><time>2026-05-03T07:41:49.835Z</time></trkpt><trkpt lat="45.8952483" lon="8.754445"><ele>583.4000000000001</ele><time>2026-05-03T07:41:50.835Z</time></trkpt><trkpt lat="45.8953117" lon="8.7545883"><ele>582.2</ele><time>2026-05-03T07:41:52.835Z</time></trkpt><trkpt lat="45.89537" lon="8.7547133"><ele>581.0</ele><time>2026-05-03T07:41:54.834Z</time></trkpt><trkpt lat="45.8954133" lon="8.75482"><ele>581.0</ele><time>2026-05-03T07:41:56.835Z</time></trkpt><trkpt lat="45.8954467" lon="8.754975"><ele>581.0</ele><time>2026-05-03T07:41:58.835Z</time></trkpt><trkpt lat="45.8954483" lon="8.755135"><ele>581.0</ele><time>2026-05-03T07:42:00.835Z</time></trkpt><trkpt lat="45.8954883" lon="8.7553617"><ele>581.0</ele><time>2026-05-03T07:42:02.834Z</time></trkpt><trkpt lat="45.895495" lon="8.75546"><ele>582.0</ele><time>2026-05-03T07:42:04.835Z</time></trkpt><trkpt lat="45.8955383" lon="8.75555"><ele>583.0</ele><time>2026-05-03T07:42:07.835Z</time></trkpt><trkpt lat="45.895595" lon="8.75562"><ele>584.0</ele><time>2026-05-03T07:42:09.835Z</time></trkpt><trkpt lat="45.8956667" lon="8.7557033"><ele>585.0</ele><time>2026-05-03T07:42:11.834Z</time></trkpt><trkpt lat="45.8957333" lon="8.7557633"><ele>586.0</ele><time>2026-05-03T07:42:13.835Z</time></trkpt><trkpt lat="45.8958017" lon="8.75583"><ele>587.0</ele><time>2026-05-03T07:42:15.835Z</time></trkpt><trkpt lat="45.895865" lon="8.7558683"><ele>588.0</ele><time>2026-05-03T07:42:17.835Z</time></trkpt><trkpt lat="45.8959333" lon="8.756015"><ele>589.0</ele><time>2026-05-03T07:42:19.835Z</time></trkpt><trkpt lat="45.8959333" lon="8.7561583"><ele>590.0</ele><time>2026-05-03T07:42:21.835Z</time></trkpt><trkpt lat="45.8959417" lon="8.7563383"><ele>591.0</ele><time>2026-05-03T07:42:23.834Z</time></trkpt><trkpt lat="45.8959517" lon="8.756435"><ele>592.0</ele><time>2026-05-03T07:42:24.835Z</time></trkpt><trkpt lat="45.8960067" lon="8.7565617"><ele>595.6</ele><time>2026-05-03T07:42:26.835Z</time></trkpt><trkpt lat="45.8960617" lon="8.7567033"><ele>599.2</ele><time>2026-05-03T07:42:28.835Z</time></trkpt><trkpt lat="45.8961" lon="8.7567917"><ele>602.8</ele><time>2026-05-03T07:42:29.835Z</time></trkpt><trkpt lat="45.8961533" lon="8.7568983"><ele>606.4</ele><time>2026-05-03T07:42:30.835Z</time></trkpt><trkpt lat="45.8962117" lon="8.7570167"><ele>610.0</ele><time>2026-05-03T07:42:31.835Z</time></trkpt><trkpt lat="45.89627" lon="8.7571467"><ele>610.6666666666667</ele><time>2026-05-03T07:42:32.834Z</time></trkpt><trkpt lat="45.8963233" lon="8.7572617"><ele>611.3333333333334</ele><time>2026-05-03T07:42:33.835Z</time></trkpt><trkpt lat="45.8963717" lon="8.7573633"><ele>612.0</ele><time>2026-05-03T07:42:34.835Z</time></trkpt><trkpt lat="45.8964133" lon="8.7574567"><ele>612.6666666666666</ele><time>2026-05-03T07:42:35.835Z</time></trkpt><trkpt lat="45.896455" lon="8.75754"><ele>613.3333333333333</ele><time>2026-05-03T07:42:36.835Z</time></trkpt><trkpt lat="45.8964967" lon="8.7576333"><ele>614.0</ele><time>2026-05-03T07:42:37.834Z</time></trkpt><trkpt lat="45.8965483" lon="8.7577267"><ele>613.6</ele><time>2026-05-03T07:42:38.835Z</time></trkpt><trkpt lat="45.896615" lon="8.7578517"><ele>613.2</ele><time>2026-05-03T07:42:39.834Z</time></trkpt><trkpt lat="45.8966717" lon="8.7579483"><ele>612.8000000000001</ele><time>2026-05-03T07:42:40.834Z</time></trkpt><trkpt lat="45.8967267" lon="8.7580433"><ele>612.4</ele><time>2026-05-03T07:42:41.835Z</time></trkpt><trkpt lat="45.89678" lon="8.7581367"><ele>612.0</ele><time>2026-05-03T07:42:42.834Z</time></trkpt><trkpt lat="45.8968417" lon="8.7582467"><ele>612.0</ele><time>2026-05-03T07:42:43.834Z</time></trkpt><trkpt lat="45.8969183" lon="8.7583717"><ele>612.0</ele><time>2026-05-03T07:42:44.835Z</time></trkpt><trkpt lat="45.8969867" lon="8.7584767"><ele>612.0</ele><time>2026-05-03T07:42:45.834Z</time></trkpt><trkpt lat="45.8970617" lon="8.7585733"><ele>612.0</ele><time>2026-05-03T07:42:46.835Z</time></trkpt><trkpt lat="45.8971267" lon="8.7586633"><ele>612.0</ele><time>2026-05-03T07:42:47.835Z</time></trkpt><trkpt lat="45.8971817" lon="8.75876"><ele>611.6</ele><time>2026-05-03T07:42:48.835Z</time></trkpt><trkpt lat="45.897225" lon="8.7588433"><ele>611.2</ele><time>2026-05-03T07:42:49.835Z</time></trkpt><trkpt lat="45.8972983" lon="8.758965"><ele>610.8</ele><time>2026-05-03T07:42:51.835Z</time></trkpt><trkpt lat="45.8973717" lon="8.7590933"><ele>610.4</ele><time>2026-05-03T07:42:53.835Z</time></trkpt><trkpt lat="45.8974283" lon="8.7591983"><ele>610.0</ele><time>2026-05-03T07:42:54.834Z</time></trkpt><trkpt lat="45.897495" lon="8.7593083"><ele>608.8333333333334</ele><time>2026-05-03T07:42:55.835Z</time></trkpt><trkpt lat="45.8975533" lon="8.7594083"><ele>607.6666666666667</ele><time>2026-05-03T07:42:56.835Z</time></trkpt><trkpt lat="45.8976133" lon="8.759505"><ele>606.5</ele><time>2026-05-03T07:42:57.835Z</time></trkpt><trkpt lat="45.8976567" lon="8.75959"><ele>605.3333333333334</ele><time>2026-05-03T07:42:58.835Z</time></trkpt><trkpt lat="45.8977133" lon="8.7597033"><ele>604.1666666666666</ele><time>2026-05-03T07:43:00.834Z</time></trkpt><trkpt lat="45.8977683" lon="8.759785"><ele>603.0</ele><time>2026-05-03T07:43:02.835Z</time></trkpt><trkpt lat="45.8978183" lon="8.75987"><ele>601.5</ele><time>2026-05-03T07:43:04.834Z</time></trkpt><trkpt lat="45.897865" lon="8.7599633"><ele>600.0</ele><time>2026-05-03T07:43:05.834Z</time></trkpt><trkpt lat="45.89792" lon="8.76012"><ele>598.5</ele><time>2026-05-03T07:43:07.834Z</time></trkpt><trkpt lat="45.897995" lon="8.7602883"><ele>597.0</ele><time>2026-05-03T07:43:09.834Z</time></trkpt><trkpt lat="45.89807" lon="8.7604117"><ele>597.0</ele><time>2026-05-03T07:43:11.835Z</time></trkpt><trkpt lat="45.89809" lon="8.7605"><ele>597.0</ele><time>2026-05-03T07:43:12.835Z</time></trkpt><trkpt lat="45.8981083" lon="8.7605867"><ele>597.0</ele><time>2026-05-03T07:43:13.835Z</time></trkpt><trkpt lat="45.898135" lon="8.76069"><ele>597.0</ele><time>2026-05-03T07:43:15.834Z</time></trkpt><trkpt lat="45.8982083" lon="8.7609233"><ele>597.0</ele><time>2026-05-03T07:43:41.835Z</time></trkpt><trkpt lat="45.8982617" lon="8.7610067"><ele>596.3333333333334</ele><time>2026-05-03T07:43:44.835Z</time></trkpt><trkpt lat="45.8983683" lon="8.7611317"><ele>595.6666666666666</ele><time>2026-05-03T07:43:54.835Z</time></trkpt><trkpt lat="45.89844" lon="8.761165"><ele>595.0</ele><time>2026-05-03T07:43:57.835Z</time></trkpt><trkpt lat="45.8984933" lon="8.76122"><ele>594.3333333333333</ele><time>2026-05-03T07:44:00.835Z</time></trkpt><trkpt lat="45.898545" lon="8.761295"><ele>593.6666666666666</ele><time>2026-05-03T07:44:02.835Z</time></trkpt><trkpt lat="45.8986283" lon="8.7613633"><ele>593.0</ele><time>2026-05-03T07:44:04.834Z</time></trkpt><trkpt lat="45.8987017" lon="8.7614533"><ele>591.6</ele><time>2026-05-03T07:44:05.835Z</time></trkpt><trkpt lat="45.8987717" lon="8.7615117"><ele>590.1999999999999</ele><time>2026-05-03T07:44:06.834Z</time></trkpt><trkpt lat="45.8988633" lon="8.7616133"><ele>588.8</ele><time>2026-05-03T07:44:07.835Z</time></trkpt><trkpt lat="45.89893" lon="8.76169"><ele>587.4</ele><time>2026-05-03T07:44:08.835Z</time></trkpt><trkpt lat="45.8989917" lon="8.7617783"><ele>586.0</ele><time>2026-05-03T07:44:09.835Z</time></trkpt><trkpt lat="45.8990783" lon="8.76187"><ele>586.0</ele><time>2026-05-03T07:44:11.835Z</time></trkpt><trkpt lat="45.8991817" lon="8.762015"><ele>586.0</ele><time>2026-05-03T07:44:14.835Z</time></trkpt><trkpt lat="45.8992433" lon="8.7621267"><ele>586.0</ele><time>2026-05-03T07:44:17.833Z</time></trkpt><trkpt lat="45.8993033" lon="8.7622133"><ele>586.0</ele><time>2026-05-03T07:44:19.833Z</time></trkpt><trkpt lat="45.899375" lon="8.7622917"><ele>586.0</ele><time>2026-05-03T07:44:21.834Z</time></trkpt><trkpt lat="45.89947" lon="8.76235"><ele>585.0</ele><time>2026-05-03T07:44:23.834Z</time></trkpt><trkpt lat="45.8995933" lon="8.7624267"><ele>584.0</ele><time>2026-05-03T07:44:25.834Z</time></trkpt><trkpt lat="45.8997133" lon="8.7624817"><ele>583.0</ele><time>2026-05-03T07:44:27.834Z</time></trkpt><trkpt lat="45.89981" lon="8.7625183"><ele>582.0</ele><time>2026-05-03T07:44:29.834Z</time></trkpt><trkpt lat="45.899915" lon="8.76258"><ele>582.0</ele><time>2026-05-03T07:44:31.834Z</time></trkpt><trkpt lat="45.8999933" lon="8.7626617"><ele>582.0</ele><time>2026-05-03T07:44:33.834Z</time></trkpt><trkpt lat="45.90006" lon="8.76277"><ele>582.0</ele><time>2026-05-03T07:44:35.833Z</time></trkpt><trkpt lat="45.900125" lon="8.7628917"><ele>582.0</ele><time>2026-05-03T07:44:37.834Z</time></trkpt><trkpt lat="45.90021" lon="8.7630233"><ele>582.0</ele><time>2026-05-03T07:44:39.834Z</time></trkpt><trkpt lat="45.900295" lon="8.763135"><ele>581.6666666666666</ele><time>2026-05-03T07:44:41.834Z</time></trkpt><trkpt lat="45.900375" lon="8.7632233"><ele>581.3333333333334</ele><time>2026-05-03T07:44:43.833Z</time></trkpt><trkpt lat="45.9004517" lon="8.7633117"><ele>581.0</ele><time>2026-05-03T07:44:45.834Z</time></trkpt><trkpt lat="45.9005033" lon="8.7634183"><ele>580.6666666666667</ele><time>2026-05-03T07:44:49.834Z</time></trkpt><trkpt lat="45.9005533" lon="8.7635017"><ele>580.3333333333334</ele><time>2026-05-03T07:44:52.834Z</time></trkpt><trkpt lat="45.900615" lon="8.7635767"><ele>580.0</ele><time>2026-05-03T07:44:54.834Z</time></trkpt><trkpt lat="45.90067" lon="8.7636667"><ele>580.0</ele><time>2026-05-03T07:44:56.834Z</time></trkpt><trkpt lat="45.9007017" lon="8.763765"><ele>580.0</ele><time>2026-05-03T07:44:58.833Z</time></trkpt><trkpt lat="45.90074" lon="8.763845"><ele>580.0</ele><time>2026-05-03T07:45:00.834Z</time></trkpt><trkpt lat="45.9008033" lon="8.7639383"><ele>580.0</ele><time>2026-05-03T07:45:02.834Z</time></trkpt><trkpt lat="45.9008783" lon="8.7640033"><ele>580.0</ele><time>2026-05-03T07:45:04.834Z</time></trkpt><trkpt lat="45.900955" lon="8.7640717"><ele>580.0</ele><time>2026-05-03T07:45:06.834Z</time></trkpt><trkpt lat="45.9010133" lon="8.7641517"><ele>577.6666666666667</ele><time>2026-05-03T07:45:08.833Z</time></trkpt><trkpt lat="45.9010533" lon="8.76425"><ele>575.3333333333334</ele><time>2026-05-03T07:45:09.834Z</time></trkpt><trkpt lat="45.9010883" lon="8.7643633"><ele>573.0</ele><time>2026-05-03T07:45:11.834Z</time></trkpt><trkpt lat="45.9011367" lon="8.7644983"><ele>570.6666666666666</ele><time>2026-05-03T07:45:13.833Z</time></trkpt><trkpt lat="45.9011733" lon="8.764595"><ele>568.3333333333333</ele><time>2026-05-03T07:45:15.834Z</time></trkpt><trkpt lat="45.90121" lon="8.7646917"><ele>566.0</ele><time>2026-05-03T07:45:18.834Z</time></trkpt><trkpt lat="45.901275" lon="8.7648117"><ele>566.0</ele><time>2026-05-03T07:45:26.834Z</time></trkpt><trkpt lat="45.9013283" lon="8.764915"><ele>566.0</ele><time>2026-05-03T07:45:30.834Z</time></trkpt><trkpt lat="45.901355" lon="8.765005"><ele>566.0</ele><time>2026-05-03T07:45:33.834Z</time></trkpt><trkpt lat="45.901385" lon="8.765115"><ele>566.0</ele><time>2026-05-03T07:45:37.834Z</time></trkpt><trkpt lat="45.9014633" lon="8.7652983"><ele>566.0</ele><time>2026-05-03T07:45:46.833Z</time></trkpt><trkpt lat="45.9015433" lon="8.7653733"><ele>566.1666666666666</ele><time>2026-05-03T07:45:52.834Z</time></trkpt><trkpt lat="45.9015767" lon="8.76545"><ele>566.3333333333333</ele><time>2026-05-03T07:45:54.833Z</time></trkpt><trkpt lat="45.901615" lon="8.7655483"><ele>566.5</ele><time>2026-05-03T07:45:57.834Z</time></trkpt><trkpt lat="45.9016567" lon="8.7656267"><ele>566.6666666666666</ele><time>2026-05-03T07:46:00.834Z</time></trkpt><trkpt lat="45.901705" lon="8.7657483"><ele>566.8333333333334</ele><time>2026-05-03T07:46:03.833Z</time></trkpt><trkpt lat="45.9017483" lon="8.765825"><ele>567.0</ele><time>2026-05-03T07:46:05.834Z</time></trkpt><trkpt lat="45.90182" lon="8.7658717"><ele>565.3333333333334</ele><time>2026-05-03T07:46:07.833Z</time></trkpt><trkpt lat="45.90189" lon="8.7659217"><ele>563.6666666666666</ele><time>2026-05-03T07:46:09.833Z</time></trkpt><trkpt lat="45.901965" lon="8.76597"><ele>562.0</ele><time>2026-05-03T07:46:12.834Z</time></trkpt><trkpt lat="45.90203" lon="8.7660567"><ele>560.3333333333333</ele><time>2026-05-03T07:46:16.834Z</time></trkpt><trkpt lat="45.9020783" lon="8.7661617"><ele>558.6666666666666</ele><time>2026-05-03T07:46:19.834Z</time></trkpt><trkpt lat="45.9021317" lon="8.7662967"><ele>557.0</ele><time>2026-05-03T07:46:32.834Z</time></trkpt><trkpt lat="45.9021583" lon="8.7664217"><ele>557.0</ele><time>2026-05-03T07:46:36.833Z</time></trkpt><trkpt lat="45.90217" lon="8.7665183"><ele>557.0</ele><time>2026-05-03T07:46:38.834Z</time></trkpt><trkpt lat="45.9021967" lon="8.7666183"><ele>557.0</ele><time>2026-05-03T07:46:40.834Z</time></trkpt><trkpt lat="45.9021983" lon="8.76673"><ele>557.0</ele><time>2026-05-03T07:46:43.834Z</time></trkpt><trkpt lat="45.9021433" lon="8.76682"><ele>557.0</ele><time>2026-05-03T07:46:47.834Z</time></trkpt><trkpt lat="45.9021167" lon="8.7669283"><ele>557.0</ele><time>2026-05-03T07:46:50.834Z</time></trkpt><trkpt lat="45.90207" lon="8.7670333"><ele>556.0</ele><time>2026-05-03T07:46:53.834Z</time></trkpt><trkpt lat="45.9020267" lon="8.7671317"><ele>555.0</ele><time>2026-05-03T07:46:56.834Z</time></trkpt><trkpt lat="45.9019667" lon="8.7671933"><ele>554.0</ele><time>2026-05-03T07:46:58.834Z</time></trkpt><trkpt lat="45.90189" lon="8.7672483"><ele>553.0</ele><time>2026-05-03T07:47:00.834Z</time></trkpt><trkpt lat="45.9017983" lon="8.7672967"><ele>552.0</ele><time>2026-05-03T07:47:03.834Z</time></trkpt><trkpt lat="45.9017867" lon="8.7674"><ele>551.0</ele><time>2026-05-03T07:47:38.833Z</time></trkpt><trkpt lat="45.901815" lon="8.7674917"><ele>551.0</ele><time>2026-05-03T07:47:40.834Z</time></trkpt><trkpt lat="45.9018517" lon="8.76758"><ele>551.0</ele><time>2026-05-03T07:47:42.833Z</time></trkpt><trkpt lat="45.90189" lon="8.76767"><ele>551.0</ele><time>2026-05-03T07:47:44.834Z</time></trkpt><trkpt lat="45.9019333" lon="8.7677467"><ele>551.0</ele><time>2026-05-03T07:47:46.834Z</time></trkpt><trkpt lat="45.90202" lon="8.7678717"><ele>551.0</ele><time>2026-05-03T07:47:48.834Z</time></trkpt><trkpt lat="45.9020667" lon="8.7679483"><ele>551.0</ele><time>2026-05-03T07:47:50.834Z</time></trkpt><trkpt lat="45.902135" lon="8.7680433"><ele>548.4</ele><time>2026-05-03T07:47:52.834Z</time></trkpt><trkpt lat="45.9021983" lon="8.768125"><ele>545.8</ele><time>2026-05-03T07:47:54.834Z</time></trkpt><trkpt lat="45.9022533" lon="8.7682133"><ele>543.1999999999999</ele><time>2026-05-03T07:47:56.833Z</time></trkpt><trkpt lat="45.9023233" lon="8.7683533"><ele>540.6</ele><time>2026-05-03T07:47:58.834Z</time></trkpt><trkpt lat="45.9023717" lon="8.76844"><ele>538.0</ele><time>2026-05-03T07:47:59.834Z</time></trkpt><trkpt lat="45.9024367" lon="8.7685967"><ele>536.1999999999999</ele><time>2026-05-03T07:48:01.834Z</time></trkpt><trkpt lat="45.902495" lon="8.76875"><ele>534.4</ele><time>2026-05-03T07:48:03.833Z</time></trkpt><trkpt lat="45.9025233" lon="8.7688533"><ele>532.5999999999999</ele><time>2026-05-03T07:48:05.833Z</time></trkpt><trkpt lat="45.9025533" lon="8.7689333"><ele>530.8</ele><time>2026-05-03T07:48:07.834Z</time></trkpt><trkpt lat="45.9026" lon="8.7690567"><ele>529.0</ele><time>2026-05-03T07:48:09.833Z</time></trkpt><trkpt lat="45.90266" lon="8.76919"><ele>529.0</ele><time>2026-05-03T07:48:11.833Z</time></trkpt><trkpt lat="45.902735" lon="8.7693317"><ele>529.0</ele><time>2026-05-03T07:48:13.833Z</time></trkpt><trkpt lat="45.90282" lon="8.76948"><ele>529.0</ele><time>2026-05-03T07:48:15.834Z</time></trkpt><trkpt lat="45.9029067" lon="8.7696"><ele>529.0</ele><time>2026-05-03T07:48:17.834Z</time></trkpt><trkpt lat="45.90296" lon="8.7696567"><ele>529.0</ele><time>2026-05-03T07:48:18.834Z</time></trkpt><trkpt lat="45.9030517" lon="8.7697517"><ele>526.6</ele><time>2026-05-03T07:48:20.834Z</time></trkpt><trkpt lat="45.90314" lon="8.76985"><ele>524.2</ele><time>2026-05-03T07:48:22.834Z</time></trkpt><trkpt lat="45.9031933" lon="8.7699433"><ele>521.8000000000001</ele><time>2026-05-03T07:48:23.834Z</time></trkpt><trkpt lat="45.903265" lon="8.7700567"><ele>519.4</ele><time>2026-05-03T07:48:24.834Z</time></trkpt><trkpt lat="45.9033267" lon="8.77014"><ele>517.0</ele><time>2026-05-03T07:48:25.834Z</time></trkpt><trkpt lat="45.9033933" lon="8.7702217"><ele>517.3333333333334</ele><time>2026-05-03T07:48:26.833Z</time></trkpt><trkpt lat="45.9034467" lon="8.7703083"><ele>517.6666666666667</ele><time>2026-05-03T07:48:27.834Z</time></trkpt><trkpt lat="45.9034983" lon="8.7703967"><ele>518.0</ele><time>2026-05-03T07:48:28.834Z</time></trkpt><trkpt lat="45.903545" lon="8.77049"><ele>518.3333333333334</ele><time>2026-05-03T07:48:29.834Z</time></trkpt><trkpt lat="45.9036083" lon="8.77056"><ele>518.6666666666666</ele><time>2026-05-03T07:48:30.833Z</time></trkpt><trkpt lat="45.903665" lon="8.770625"><ele>519.0</ele><time>2026-05-03T07:48:31.834Z</time></trkpt><trkpt lat="45.903745" lon="8.7707583"><ele>519.0</ele><time>2026-05-03T07:48:33.834Z</time></trkpt><trkpt lat="45.90381" lon="8.7708867"><ele>519.0</ele><time>2026-05-03T07:48:35.834Z</time></trkpt><trkpt lat="45.9039167" lon="8.7710033"><ele>519.0</ele><time>2026-05-03T07:48:37.834Z</time></trkpt><trkpt lat="45.90399" lon="8.771055"><ele>519.0</ele><time>2026-05-03T07:48:38.833Z</time></trkpt><trkpt lat="45.904055" lon="8.7710917"><ele>519.0</ele><time>2026-05-03T07:48:39.834Z</time></trkpt><trkpt lat="45.904125" lon="8.7711333"><ele>517.3333333333334</ele><time>2026-05-03T07:48:40.834Z</time></trkpt><trkpt lat="45.90422" lon="8.7711967"><ele>515.6666666666666</ele><time>2026-05-03T07:48:42.834Z</time></trkpt><trkpt lat="45.9043" lon="8.7712683"><ele>514.0</ele><time>2026-05-03T07:48:44.833Z</time></trkpt><trkpt lat="45.90436" lon="8.7713"><ele>512.3333333333333</ele><time>2026-05-03T07:48:45.834Z</time></trkpt><trkpt lat="45.904425" lon="8.7713417"><ele>510.66666666666663</ele><time>2026-05-03T07:48:46.834Z</time></trkpt><trkpt lat="45.9044917" lon="8.77138"><ele>509.0</ele><time>2026-05-03T07:48:47.834Z</time></trkpt><trkpt lat="45.9046033" lon="8.7714333"><ele>509.0</ele><time>2026-05-03T07:48:49.833Z</time></trkpt><trkpt lat="45.9046867" lon="8.7715017"><ele>509.0</ele><time>2026-05-03T07:48:51.834Z</time></trkpt><trkpt lat="45.9047433" lon="8.7716467"><ele>509.0</ele><time>2026-05-03T07:48:53.834Z</time></trkpt><trkpt lat="45.90476" lon="8.771745"><ele>509.0</ele><time>2026-05-03T07:48:54.834Z</time></trkpt><trkpt lat="45.9047983" lon="8.7718367"><ele>509.0</ele><time>2026-05-03T07:48:55.834Z</time></trkpt><trkpt lat="45.9048667" lon="8.771965"><ele>506.6</ele><time>2026-05-03T07:48:57.834Z</time></trkpt><trkpt lat="45.9049433" lon="8.7720417"><ele>504.2</ele><time>2026-05-03T07:48:59.834Z</time></trkpt><trkpt lat="45.9050167" lon="8.77212"><ele>501.80000000000007</ele><time>2026-05-03T07:49:01.834Z</time></trkpt><trkpt lat="45.9050817" lon="8.77218"><ele>499.40000000000003</ele><time>2026-05-03T07:49:03.833Z</time></trkpt><trkpt lat="45.9051567" lon="8.7722683"><ele>497.0</ele><time>2026-05-03T07:49:06.834Z</time></trkpt><trkpt lat="45.9052417" lon="8.7723367"><ele>496.99999999999994</ele><time>2026-05-03T07:49:08.834Z</time></trkpt><trkpt lat="45.9052983" lon="8.7723967"><ele>497.0</ele><time>2026-05-03T07:49:09.834Z</time></trkpt><trkpt lat="45.905365" lon="8.7724633"><ele>497.0</ele><time>2026-05-03T07:49:10.834Z</time></trkpt><trkpt lat="45.9054217" lon="8.7725167"><ele>497.0</ele><time>2026-05-03T07:49:11.833Z</time></trkpt><trkpt lat="45.9054783" lon="8.7725833"><ele>496.99999999999994</ele><time>2026-05-03T07:49:12.833Z</time></trkpt><trkpt lat="45.9055317" lon="8.7726433"><ele>497.0</ele><time>2026-05-03T07:49:13.833Z</time></trkpt><trkpt lat="45.9056383" lon="8.77272"><ele>495.99999999999994</ele><time>2026-05-03T07:49:15.834Z</time></trkpt><trkpt lat="45.9057617" lon="8.772765"><ele>495.0</ele><time>2026-05-03T07:49:17.833Z</time></trkpt><trkpt lat="45.9058417" lon="8.7727783"><ele>494.0</ele><time>2026-05-03T07:49:18.834Z</time></trkpt><trkpt lat="45.9059217" lon="8.7727967"><ele>493.0</ele><time>2026-05-03T07:49:19.834Z</time></trkpt><trkpt lat="45.906" lon="8.77281"><ele>491.99999999999994</ele><time>2026-05-03T07:49:20.834Z</time></trkpt><trkpt lat="45.906075" lon="8.7728433"><ele>491.0</ele><time>2026-05-03T07:49:21.834Z</time></trkpt><trkpt lat="45.90614" lon="8.7728717"><ele>490.66666666666663</ele><time>2026-05-03T07:49:22.833Z</time></trkpt><trkpt lat="45.9062467" lon="8.772925"><ele>490.3333333333333</ele><time>2026-05-03T07:49:24.834Z</time></trkpt><trkpt lat="45.9063083" lon="8.772945"><ele>490.0</ele><time>2026-05-03T07:49:26.834Z</time></trkpt><trkpt lat="45.9064033" lon="8.77297"><ele>489.66666666666663</ele><time>2026-05-03T07:49:29.834Z</time></trkpt><trkpt lat="45.9064717" lon="8.77296"><ele>489.3333333333333</ele><time>2026-05-03T07:49:32.834Z</time></trkpt><trkpt lat="45.9065383" lon="8.77291"><ele>489.0</ele><time>2026-05-03T07:49:34.834Z</time></trkpt><trkpt lat="45.9066183" lon="8.7728583"><ele>489.0</ele><time>2026-05-03T07:49:36.834Z</time></trkpt><trkpt lat="45.9066817" lon="8.7728333"><ele>489.0</ele><time>2026-05-03T07:49:38.834Z</time></trkpt><trkpt lat="45.9067417" lon="8.7727783"><ele>489.0</ele><time>2026-05-03T07:49:40.834Z</time></trkpt><trkpt lat="45.9068117" lon="8.7727283"><ele>489.0</ele><time>2026-05-03T07:49:42.834Z</time></trkpt><trkpt lat="45.906885" lon="8.7727033"><ele>489.0</ele><time>2026-05-03T07:49:44.834Z</time></trkpt><trkpt lat="45.9069683" lon="8.7726867"><ele>489.0</ele><time>2026-05-03T07:49:46.833Z</time></trkpt><trkpt lat="45.907055" lon="8.77265"><ele>484.3333333333333</ele><time>2026-05-03T07:49:48.834Z</time></trkpt><trkpt lat="45.907135" lon="8.7726033"><ele>479.66666666666663</ele><time>2026-05-03T07:49:50.834Z</time></trkpt><trkpt lat="45.907215" lon="8.772555"><ele>475.0</ele><time>2026-05-03T07:49:52.834Z</time></trkpt><trkpt lat="45.9072883" lon="8.7724933"><ele>470.3333333333333</ele><time>2026-05-03T07:49:54.834Z</time></trkpt><trkpt lat="45.9073517" lon="8.7724383"><ele>465.66666666666663</ele><time>2026-05-03T07:49:56.834Z</time></trkpt><trkpt lat="45.9074133" lon="8.7723883"><ele>461.0</ele><time>2026-05-03T07:49:59.834Z</time></trkpt><trkpt lat="45.9075317" lon="8.7723867"><ele>459.99999999999994</ele><time>2026-05-03T07:50:45.834Z</time></trkpt><trkpt lat="45.90758" lon="8.7722867"><ele>459.0</ele><time>2026-05-03T07:50:48.834Z</time></trkpt><trkpt lat="45.9075933" lon="8.7721833"><ele>458.0</ele><time>2026-05-03T07:50:51.834Z</time></trkpt><trkpt lat="45.9075883" lon="8.77206"><ele>457.0</ele><time>2026-05-03T07:50:54.834Z</time></trkpt><trkpt lat="45.9075833" lon="8.7719283"><ele>455.99999999999994</ele><time>2026-05-03T07:50:57.834Z</time></trkpt><trkpt lat="45.9075733" lon="8.7718183"><ele>455.0</ele><time>2026-05-03T07:50:59.834Z</time></trkpt><trkpt lat="45.9075617" lon="8.7717133"><ele>454.99999999999994</ele><time>2026-05-03T07:51:01.834Z</time></trkpt><trkpt lat="45.90756" lon="8.7716067"><ele>455.0</ele><time>2026-05-03T07:51:03.834Z</time></trkpt><trkpt lat="45.9075633" lon="8.771495"><ele>455.0</ele><time>2026-05-03T07:51:05.834Z</time></trkpt><trkpt lat="45.907565" lon="8.7713867"><ele>455.0</ele><time>2026-05-03T07:51:07.833Z</time></trkpt><trkpt lat="45.907545" lon="8.7712433"><ele>454.99999999999994</ele><time>2026-05-03T07:51:09.834Z</time></trkpt><trkpt lat="45.9075317" lon="8.7711083"><ele>455.0</ele><time>2026-05-03T07:51:12.833Z</time></trkpt><trkpt lat="45.90751" lon="8.7710033"><ele>452.8333333333333</ele><time>2026-05-03T07:51:14.834Z</time></trkpt><trkpt lat="45.907475" lon="8.770895"><ele>450.66666666666663</ele><time>2026-05-03T07:51:16.834Z</time></trkpt><trkpt lat="45.907445" lon="8.7708017"><ele>448.5</ele><time>2026-05-03T07:51:18.833Z</time></trkpt><trkpt lat="45.907415" lon="8.770695"><ele>446.33333333333337</ele><time>2026-05-03T07:51:20.834Z</time></trkpt><trkpt lat="45.9074033" lon="8.770605"><ele>444.1666666666667</ele><time>2026-05-03T07:51:21.834Z</time></trkpt><trkpt lat="45.907375" lon="8.7704317"><ele>442.0</ele><time>2026-05-03T07:51:23.833Z</time></trkpt><trkpt lat="45.9073533" lon="8.770335"><ele>442.0</ele><time>2026-05-03T07:51:24.833Z</time></trkpt><trkpt lat="45.9073317" lon="8.770245"><ele>442.00000000000006</ele><time>2026-05-03T07:51:25.834Z</time></trkpt><trkpt lat="45.907285" lon="8.7701233"><ele>442.00000000000006</ele><time>2026-05-03T07:51:27.834Z</time></trkpt><trkpt lat="45.9072083" lon="8.7700317"><ele>442.0</ele><time>2026-05-03T07:51:29.834Z</time></trkpt><trkpt lat="45.907115" lon="8.7699317"><ele>442.0</ele><time>2026-05-03T07:51:31.834Z</time></trkpt><trkpt lat="45.90703" lon="8.769815"><ele>445.8</ele><time>2026-05-03T07:51:33.833Z</time></trkpt><trkpt lat="45.9069883" lon="8.7697433"><ele>449.6</ele><time>2026-05-03T07:51:34.834Z</time></trkpt><trkpt lat="45.9068983" lon="8.7696483"><ele>453.40000000000003</ele><time>2026-05-03T07:51:36.833Z</time></trkpt><trkpt lat="45.9068417" lon="8.7696067"><ele>457.20000000000005</ele><time>2026-05-03T07:51:37.833Z</time></trkpt><trkpt lat="45.9067617" lon="8.7695183"><ele>461.0</ele><time>2026-05-03T07:51:39.834Z</time></trkpt><trkpt lat="45.9066717" lon="8.7694117"><ele>455.0</ele><time>2026-05-03T07:51:41.834Z</time></trkpt><trkpt lat="45.90659" lon="8.7692883"><ele>449.0</ele><time>2026-05-03T07:51:43.834Z</time></trkpt><trkpt lat="45.906535" lon="8.769145"><ele>443.0</ele><time>2026-05-03T07:51:45.834Z</time></trkpt><trkpt lat="45.9065167" lon="8.7689967"><ele>437.0</ele><time>2026-05-03T07:51:47.834Z</time></trkpt><trkpt lat="45.9064967" lon="8.7688583"><ele>431.0</ele><time>2026-05-03T07:51:49.834Z</time></trkpt><trkpt lat="45.90647" lon="8.7687"><ele>431.0</ele><time>2026-05-03T07:51:51.834Z</time></trkpt><trkpt lat="45.90644" lon="8.7685633"><ele>431.0</ele><time>2026-05-03T07:51:53.834Z</time></trkpt><trkpt lat="45.9063967" lon="8.768445"><ele>431.0</ele><time>2026-05-03T07:51:55.834Z</time></trkpt><trkpt lat="45.9063467" lon="8.7683317"><ele>431.0</ele><time>2026-05-03T07:51:57.834Z</time></trkpt><trkpt lat="45.9063117" lon="8.76824"><ele>431.0</ele><time>2026-05-03T07:51:59.834Z</time></trkpt><trkpt lat="45.9062467" lon="8.76812"><ele>426.6</ele><time>2026-05-03T07:52:01.834Z</time></trkpt><trkpt lat="45.9061717" lon="8.7679617"><ele>422.20000000000005</ele><time>2026-05-03T07:52:03.834Z</time></trkpt><trkpt lat="45.90613" lon="8.76788"><ele>417.79999999999995</ele><time>2026-05-03T07:52:04.833Z</time></trkpt><trkpt lat="45.906055" lon="8.7677117"><ele>413.4</ele><time>2026-05-03T07:52:06.833Z</time></trkpt><trkpt lat="45.9060217" lon="8.7676333"><ele>409.0</ele><time>2026-05-03T07:52:07.834Z</time></trkpt><trkpt lat="45.905985" lon="8.767555"><ele>410.00000000000006</ele><time>2026-05-03T07:52:08.834Z</time></trkpt><trkpt lat="45.905915" lon="8.7674133"><ele>411.0</ele><time>2026-05-03T07:52:10.833Z</time></trkpt><trkpt lat="45.90588" lon="8.7673317"><ele>412.0</ele><time>2026-05-03T07:52:11.833Z</time></trkpt><trkpt lat="45.9058467" lon="8.7672383"><ele>413.0</ele><time>2026-05-03T07:52:12.834Z</time></trkpt><trkpt lat="45.9058167" lon="8.7671433"><ele>414.00000000000006</ele><time>2026-05-03T07:52:13.834Z</time></trkpt><trkpt lat="45.9057917" lon="8.7670417"><ele>415.0</ele><time>2026-05-03T07:52:14.834Z</time></trkpt><trkpt lat="45.9057717" lon="8.766935"><ele>410.6</ele><time>2026-05-03T07:52:15.834Z</time></trkpt><trkpt lat="45.9057533" lon="8.7668333"><ele>406.2</ele><time>2026-05-03T07:52:16.834Z</time></trkpt><trkpt lat="45.9057317" lon="8.7667317"><ele>401.79999999999995</ele><time>2026-05-03T07:52:17.834Z</time></trkpt><trkpt lat="45.9057067" lon="8.7665683"><ele>397.4</ele><time>2026-05-03T07:52:19.834Z</time></trkpt><trkpt lat="45.9056667" lon="8.76643"><ele>393.0</ele><time>2026-05-03T07:52:21.833Z</time></trkpt><trkpt lat="45.9056117" lon="8.7663167"><ele>393.0</ele><time>2026-05-03T07:52:23.834Z</time></trkpt><trkpt lat="45.9055467" lon="8.766235"><ele>393.0</ele><time>2026-05-03T07:52:25.834Z</time></trkpt><trkpt lat="45.90549" lon="8.766165"><ele>393.0</ele><time>2026-05-03T07:52:27.834Z</time></trkpt><trkpt lat="45.9054367" lon="8.7660833"><ele>393.0</ele><time>2026-05-03T07:52:29.834Z</time></trkpt><trkpt lat="45.9053967" lon="8.766005"><ele>393.0</ele><time>2026-05-03T07:52:31.833Z</time></trkpt><trkpt lat="45.905355" lon="8.7658783"><ele>393.0</ele><time>2026-05-03T07:52:34.834Z</time></trkpt><trkpt lat="45.9053083" lon="8.76578"><ele>394.1666666666667</ele><time>2026-05-03T07:52:36.834Z</time></trkpt><trkpt lat="45.9052483" lon="8.7657133"><ele>395.33333333333337</ele><time>2026-05-03T07:52:38.833Z</time></trkpt><trkpt lat="45.9051933" lon="8.7656633"><ele>396.5</ele><time>2026-05-03T07:52:40.834Z</time></trkpt><trkpt lat="45.90512" lon="8.7655517"><ele>397.6666666666667</ele><time>2026-05-03T07:52:43.834Z</time></trkpt><trkpt lat="45.905065" lon="8.7654133"><ele>398.83333333333337</ele><time>2026-05-03T07:52:46.834Z</time></trkpt><trkpt lat="45.9050233" lon="8.7653267"><ele>400.0</ele><time>2026-05-03T07:52:47.834Z</time></trkpt><trkpt lat="45.9049833" lon="8.76523"><ele>394.0</ele><time>2026-05-03T07:52:48.834Z</time></trkpt><trkpt lat="45.9049367" lon="8.7651"><ele>388.0</ele><time>2026-05-03T07:52:50.834Z</time></trkpt><trkpt lat="45.9048917" lon="8.7649717"><ele>382.0</ele><time>2026-05-03T07:52:52.833Z</time></trkpt><trkpt lat="45.9048483" lon="8.7648283"><ele>376.0</ele><time>2026-05-03T07:52:54.833Z</time></trkpt><trkpt lat="45.90478" lon="8.7646517"><ele>376.0</ele><time>2026-05-03T07:52:56.833Z</time></trkpt><trkpt lat="45.904725" lon="8.764515"><ele>376.0</ele><time>2026-05-03T07:52:58.833Z</time></trkpt><trkpt lat="45.9046733" lon="8.76439"><ele>376.0</ele><time>2026-05-03T07:53:00.833Z</time></trkpt><trkpt lat="45.9046533" lon="8.7642783"><ele>376.0</ele><time>2026-05-03T07:53:02.833Z</time></trkpt><trkpt lat="45.9046317" lon="8.7641867"><ele>376.0</ele><time>2026-05-03T07:53:04.834Z</time></trkpt><trkpt lat="45.9046233" lon="8.7640917"><ele>376.0</ele><time>2026-05-03T07:53:06.834Z</time></trkpt><trkpt lat="45.9046167" lon="8.763945"><ele>372.0</ele><time>2026-05-03T07:53:08.834Z</time></trkpt><trkpt lat="45.9046167" lon="8.7638233"><ele>368.0</ele><time>2026-05-03T07:53:10.833Z</time></trkpt><trkpt lat="45.9046133" lon="8.76366"><ele>364.0</ele><time>2026-05-03T07:53:12.834Z</time></trkpt><trkpt lat="45.9046083" lon="8.7635333"><ele>360.0</ele><time>2026-05-03T07:53:14.834Z</time></trkpt><trkpt lat="45.9046083" lon="8.7634017"><ele>356.0</ele><time>2026-05-03T07:53:16.834Z</time></trkpt><trkpt lat="45.9046" lon="8.76327"><ele>353.5</ele><time>2026-05-03T07:53:18.834Z</time></trkpt><trkpt lat="45.9045733" lon="8.7631417"><ele>351.0</ele><time>2026-05-03T07:53:20.834Z</time></trkpt><trkpt lat="45.9045383" lon="8.76303"><ele>348.5</ele><time>2026-05-03T07:53:22.833Z</time></trkpt><trkpt lat="45.90451" lon="8.7629217"><ele>346.0</ele><time>2026-05-03T07:53:24.834Z</time></trkpt><trkpt lat="45.9045017" lon="8.76281"><ele>343.5</ele><time>2026-05-03T07:53:27.834Z</time></trkpt><trkpt lat="45.9045517" lon="8.762755"><ele>341.0</ele><time>2026-05-03T07:53:30.834Z</time></trkpt><trkpt lat="45.9046117" lon="8.7627183"><ele>341.0</ele><time>2026-05-03T07:53:32.834Z</time></trkpt><trkpt lat="45.9046833" lon="8.7627"><ele>341.0</ele><time>2026-05-03T07:53:34.833Z</time></trkpt><trkpt lat="45.9047533" lon="8.76268"><ele>341.0</ele><time>2026-05-03T07:53:36.834Z</time></trkpt><trkpt lat="45.9048433" lon="8.7626683"><ele>341.0</ele><time>2026-05-03T07:53:38.834Z</time></trkpt><trkpt lat="45.9049233" lon="8.762675"><ele>341.0</ele><time>2026-05-03T07:53:40.834Z</time></trkpt><trkpt lat="45.9049833" lon="8.7627083"><ele>341.0</ele><time>2026-05-03T07:53:42.834Z</time></trkpt><trkpt lat="45.9050517" lon="8.7627517"><ele>338.85714285714283</ele><time>2026-05-03T07:53:44.834Z</time></trkpt><trkpt lat="45.905115" lon="8.7627467"><ele>336.7142857142857</ele><time>2026-05-03T07:53:47.834Z</time></trkpt><trkpt lat="45.9051" lon="8.7626383"><ele>334.57142857142856</ele><time>2026-05-03T07:53:49.834Z</time></trkpt><trkpt lat="45.9050667" lon="8.7625333"><ele>332.42857142857144</ele><time>2026-05-03T07:53:51.834Z</time></trkpt><trkpt lat="45.9050217" lon="8.76243"><ele>330.2857142857143</ele><time>2026-05-03T07:53:53.834Z</time></trkpt><trkpt lat="45.90499" lon="8.7623433"><ele>328.14285714285717</ele><time>2026-05-03T07:53:54.834Z</time></trkpt><trkpt lat="45.9049567" lon="8.762265"><ele>326.0</ele><time>2026-05-03T07:53:55.834Z</time></trkpt><trkpt lat="45.9049233" lon="8.762185"><ele>326.0</ele><time>2026-05-03T07:53:56.833Z</time></trkpt><trkpt lat="45.9048533" lon="8.7620233"><ele>326.0</ele><time>2026-05-03T07:53:58.834Z</time></trkpt><trkpt lat="45.9048" lon="8.7619133"><ele>326.0</ele><time>2026-05-03T07:53:59.834Z</time></trkpt><trkpt lat="45.90475" lon="8.76182"><ele>326.0</ele><time>2026-05-03T07:54:00.834Z</time></trkpt><trkpt lat="45.9046783" lon="8.7617083"><ele>326.0</ele><time>2026-05-03T07:54:02.834Z</time></trkpt><trkpt lat="45.9046533" lon="8.761625"><ele>322.8</ele><time>2026-05-03T07:54:04.833Z</time></trkpt><trkpt lat="45.90465" lon="8.7614917"><ele>319.6</ele><time>2026-05-03T07:54:07.834Z</time></trkpt><trkpt lat="45.90468" lon="8.76132"><ele>316.4</ele><time>2026-05-03T07:54:09.834Z</time></trkpt><trkpt lat="45.90469" lon="8.7612133"><ele>313.2</ele><time>2026-05-03T07:54:10.833Z</time></trkpt><trkpt lat="45.9046633" lon="8.7610667"><ele>310.0</ele><time>2026-05-03T07:54:12.834Z</time></trkpt><trkpt lat="45.9046467" lon="8.7609683"><ele>307.75</ele><time>2026-05-03T07:54:14.833Z</time></trkpt><trkpt lat="45.9047017" lon="8.7608217"><ele>305.5</ele><time>2026-05-03T07:54:17.833Z</time></trkpt><trkpt lat="45.9047533" lon="8.7607167"><ele>303.25</ele><time>2026-05-03T07:54:18.834Z</time></trkpt><trkpt lat="45.904835" lon="8.760565"><ele>301.0</ele><time>2026-05-03T07:54:19.833Z</time></trkpt><trkpt lat="45.9049117" lon="8.7604233"><ele>301.0</ele><time>2026-05-03T07:54:20.834Z</time></trkpt><trkpt lat="45.9049783" lon="8.7603033"><ele>301.0</ele><time>2026-05-03T07:54:21.833Z</time></trkpt><trkpt lat="45.9050417" lon="8.7602233"><ele>301.0</ele><time>2026-05-03T07:54:22.834Z</time></trkpt><trkpt lat="45.9051083" lon="8.7601633"><ele>301.0</ele><time>2026-05-03T07:54:23.834Z</time></trkpt><trkpt lat="45.9051733" lon="8.7601067"><ele>301.0</ele><time>2026-05-03T07:54:24.834Z</time></trkpt><trkpt lat="45.90523" lon="8.7600633"><ele>301.0</ele><time>2026-05-03T07:54:25.834Z</time></trkpt><trkpt lat="45.9053367" lon="8.7599867"><ele>301.0</ele><time>2026-05-03T07:54:27.834Z</time></trkpt><trkpt lat="45.9053967" lon="8.7599533"><ele>301.0</ele><time>2026-05-03T07:54:28.834Z</time></trkpt><trkpt lat="45.90546" lon="8.7599333"><ele>301.0</ele><time>2026-05-03T07:54:29.834Z</time></trkpt><trkpt lat="45.90553" lon="8.7598983"><ele>301.0</ele><time>2026-05-03T07:54:30.833Z</time></trkpt><trkpt lat="45.905605" lon="8.7598633"><ele>301.0</ele><time>2026-05-03T07:54:31.834Z</time></trkpt><trkpt lat="45.90568" lon="8.7598367"><ele>301.0</ele><time>2026-05-03T07:54:32.833Z</time></trkpt><trkpt lat="45.90576" lon="8.7598033"><ele>301.0</ele><time>2026-05-03T07:54:33.834Z</time></trkpt><trkpt lat="45.90583" lon="8.759775"><ele>301.0</ele><time>2026-05-03T07:54:34.834Z</time></trkpt><trkpt lat="45.9058967" lon="8.7597467"><ele>301.0</ele><time>2026-05-03T07:54:35.833Z</time></trkpt><trkpt lat="45.9059967" lon="8.7597133"><ele>301.0</ele><time>2026-05-03T07:54:37.834Z</time></trkpt><trkpt lat="45.9060617" lon="8.75968"><ele>301.0</ele><time>2026-05-03T07:54:39.834Z</time></trkpt><trkpt lat="45.9061433" lon="8.7596433"><ele>301.0</ele><time>2026-05-03T07:55:29.834Z</time></trkpt><trkpt lat="45.9061933" lon="8.7597283"><ele>301.0</ele><time>2026-05-03T07:55:31.833Z</time></trkpt><trkpt lat="45.9062717" lon="8.759895"><ele>302.16666666666663</ele><time>2026-05-03T07:55:33.833Z</time></trkpt><trkpt lat="45.9063167" lon="8.7599967"><ele>303.3333333333333</ele><time>2026-05-03T07:55:34.834Z</time></trkpt><trkpt lat="45.9063583" lon="8.760115"><ele>304.5</ele><time>2026-05-03T07:55:35.833Z</time></trkpt><trkpt lat="45.9064" lon="8.7602317"><ele>305.6666666666667</ele><time>2026-05-03T07:55:36.834Z</time></trkpt><trkpt lat="45.9064333" lon="8.7603283"><ele>306.83333333333337</ele><time>2026-05-03T07:55:37.833Z</time></trkpt><trkpt lat="45.906465" lon="8.760435"><ele>308.0</ele><time>2026-05-03T07:55:38.833Z</time></trkpt><trkpt lat="45.9064917" lon="8.760535"><ele>308.0</ele><time>2026-05-03T07:55:39.833Z</time></trkpt><trkpt lat="45.9065183" lon="8.7606233"><ele>308.0</ele><time>2026-05-03T07:55:40.833Z</time></trkpt><trkpt lat="45.9065667" lon="8.7607733"><ele>308.0</ele><time>2026-05-03T07:55:42.834Z</time></trkpt><trkpt lat="45.9066117" lon="8.7608717"><ele>308.0</ele><time>2026-05-03T07:55:44.834Z</time></trkpt><trkpt lat="45.906645" lon="8.7609833"><ele>308.0</ele><time>2026-05-03T07:55:47.834Z</time></trkpt><trkpt lat="45.9066767" lon="8.76107"><ele>308.0</ele><time>2026-05-03T07:55:49.833Z</time></trkpt><trkpt lat="45.9067183" lon="8.7611633"><ele>309.7142857142857</ele><time>2026-05-03T07:55:52.834Z</time></trkpt><trkpt lat="45.9067517" lon="8.76124"><ele>311.42857142857144</ele><time>2026-05-03T07:55:54.834Z</time></trkpt><trkpt lat="45.906805" lon="8.761315"><ele>313.1428571428571</ele><time>2026-05-03T07:56:00.834Z</time></trkpt><trkpt lat="45.9068467" lon="8.7614"><ele>314.8571428571429</ele><time>2026-05-03T07:56:06.833Z</time></trkpt><trkpt lat="45.9068533" lon="8.7614917"><ele>316.57142857142856</ele><time>2026-05-03T07:56:13.833Z</time></trkpt><trkpt lat="45.90688" lon="8.7615833"><ele>318.2857142857143</ele><time>2026-05-03T07:56:20.834Z</time></trkpt><trkpt lat="45.9068967" lon="8.76169"><ele>320.0</ele><time>2026-05-03T07:56:24.833Z</time></trkpt><trkpt lat="45.90694" lon="8.76182"><ele>319.0</ele><time>2026-05-03T07:56:27.834Z</time></trkpt><trkpt lat="45.9069917" lon="8.761895"><ele>318.0</ele><time>2026-05-03T07:56:28.834Z</time></trkpt><trkpt lat="45.90704" lon="8.7619683"><ele>317.0</ele><time>2026-05-03T07:56:29.834Z</time></trkpt><trkpt lat="45.907115" lon="8.762075"><ele>316.0</ele><time>2026-05-03T07:56:30.834Z</time></trkpt><trkpt lat="45.9071733" lon="8.7621783"><ele>315.0</ele><time>2026-05-03T07:56:31.834Z</time></trkpt><trkpt lat="45.9072183" lon="8.7622667"><ele>314.0</ele><time>2026-05-03T07:56:32.834Z</time></trkpt><trkpt lat="45.9072517" lon="8.7623483"><ele>314.0</ele><time>2026-05-03T07:56:33.834Z</time></trkpt><trkpt lat="45.9073183" lon="8.7624483"><ele>314.0</ele><time>2026-05-03T07:56:35.834Z</time></trkpt><trkpt lat="45.9074167" lon="8.7625017"><ele>314.0</ele><time>2026-05-03T07:56:37.834Z</time></trkpt><trkpt lat="45.9075233" lon="8.7625567"><ele>314.0</ele><time>2026-05-03T07:56:39.834Z</time></trkpt><trkpt lat="45.9076183" lon="8.7625617"><ele>314.0</ele><time>2026-05-03T07:56:41.834Z</time></trkpt><trkpt lat="45.9076867" lon="8.7625567"><ele>315.71428571428567</ele><time>2026-05-03T07:56:42.834Z</time></trkpt><trkpt lat="45.9077617" lon="8.762565"><ele>317.42857142857144</ele><time>2026-05-03T07:56:43.834Z</time></trkpt><trkpt lat="45.907835" lon="8.7625633"><ele>319.1428571428571</ele><time>2026-05-03T07:56:44.833Z</time></trkpt><trkpt lat="45.907915" lon="8.7625583"><ele>320.85714285714283</ele><time>2026-05-03T07:56:45.834Z</time></trkpt><trkpt lat="45.907985" lon="8.7625483"><ele>322.57142857142856</ele><time>2026-05-03T07:56:46.833Z</time></trkpt><trkpt lat="45.908055" lon="8.7625267"><ele>324.2857142857143</ele><time>2026-05-03T07:56:47.833Z</time></trkpt><trkpt lat="45.9081167" lon="8.7624933"><ele>326.0</ele><time>2026-05-03T07:56:48.833Z</time></trkpt><trkpt lat="45.9081983" lon="8.7624117"><ele>326.0</ele><time>2026-05-03T07:56:50.834Z</time></trkpt><trkpt lat="45.9081917" lon="8.7623217"><ele>326.0</ele><time>2026-05-03T07:56:52.834Z</time></trkpt><trkpt lat="45.9081817" lon="8.7622133"><ele>326.0</ele><time>2026-05-03T07:56:55.834Z</time></trkpt><trkpt lat="45.908235" lon="8.762125"><ele>326.0</ele><time>2026-05-03T07:56:57.834Z</time></trkpt><trkpt lat="45.9082883" lon="8.7620617"><ele>326.0</ele><time>2026-05-03T07:56:58.834Z</time></trkpt><trkpt lat="45.9083567" lon="8.7620017"><ele>326.0</ele><time>2026-05-03T07:56:59.834Z</time></trkpt><trkpt lat="45.908425" lon="8.76195"><ele>326.0</ele><time>2026-05-03T07:57:00.834Z</time></trkpt><trkpt lat="45.9084817" lon="8.7619"><ele>327.83333333333337</ele><time>2026-05-03T07:57:01.833Z</time></trkpt><trkpt lat="45.90856" lon="8.7617967"><ele>329.6666666666667</ele><time>2026-05-03T07:57:03.834Z</time></trkpt><trkpt lat="45.9086333" lon="8.76167"><ele>331.5</ele><time>2026-05-03T07:57:05.834Z</time></trkpt><trkpt lat="45.9086783" lon="8.7616"><ele>333.3333333333333</ele><time>2026-05-03T07:57:06.834Z</time></trkpt><trkpt lat="45.908725" lon="8.761535"><ele>335.16666666666663</ele><time>2026-05-03T07:57:07.833Z</time></trkpt><trkpt lat="45.9087783" lon="8.76148"><ele>337.0</ele><time>2026-05-03T07:57:08.834Z</time></trkpt><trkpt lat="45.90888" lon="8.761425"><ele>337.0</ele><time>2026-05-03T07:57:10.834Z</time></trkpt><trkpt lat="45.9089633" lon="8.7614283"><ele>337.0</ele><time>2026-05-03T07:57:12.834Z</time></trkpt><trkpt lat="45.90904" lon="8.7614533"><ele>337.0</ele><time>2026-05-03T07:57:14.834Z</time></trkpt><trkpt lat="45.90912" lon="8.761485"><ele>337.0</ele><time>2026-05-03T07:57:16.834Z</time></trkpt><trkpt lat="45.9091867" lon="8.761465"><ele>337.0</ele><time>2026-05-03T07:57:19.833Z</time></trkpt><trkpt lat="45.90926" lon="8.7614033"><ele>337.0</ele><time>2026-05-03T07:57:21.833Z</time></trkpt><trkpt lat="45.9093633" lon="8.76136"><ele>337.16666666666663</ele><time>2026-05-03T07:57:23.833Z</time></trkpt><trkpt lat="45.90945" lon="8.7613683"><ele>337.3333333333333</ele><time>2026-05-03T07:57:25.834Z</time></trkpt><trkpt lat="45.9095333" lon="8.7614617"><ele>337.5</ele><time>2026-05-03T07:57:27.833Z</time></trkpt><trkpt lat="45.9095817" lon="8.76152"><ele>337.6666666666667</ele><time>2026-05-03T07:57:28.834Z</time></trkpt><trkpt lat="45.90966" lon="8.7616417"><ele>337.83333333333337</ele><time>2026-05-03T07:57:30.834Z</time></trkpt><trkpt lat="45.9097017" lon="8.76171"><ele>338.0</ele><time>2026-05-03T07:57:31.834Z</time></trkpt><trkpt lat="45.9097467" lon="8.7617883"><ele>338.6666666666667</ele><time>2026-05-03T07:57:32.833Z</time></trkpt><trkpt lat="45.9097917" lon="8.7618683"><ele>339.33333333333337</ele><time>2026-05-03T07:57:33.834Z</time></trkpt><trkpt lat="45.9098367" lon="8.76196"><ele>340.0</ele><time>2026-05-03T07:57:34.834Z</time></trkpt><trkpt lat="45.909875" lon="8.762045"><ele>340.6666666666667</ele><time>2026-05-03T07:57:35.834Z</time></trkpt><trkpt lat="45.9099167" lon="8.76212"><ele>341.3333333333333</ele><time>2026-05-03T07:57:36.833Z</time></trkpt><trkpt lat="45.9100033" lon="8.76225"><ele>342.0</ele><time>2026-05-03T07:57:38.833Z</time></trkpt><trkpt lat="45.9100817" lon="8.7623667"><ele>341.0</ele><time>2026-05-03T07:57:40.833Z</time></trkpt><trkpt lat="45.91017" lon="8.7624633"><ele>340.0</ele><time>2026-05-03T07:57:42.834Z</time></trkpt><trkpt lat="45.9102217" lon="8.762525"><ele>339.0</ele><time>2026-05-03T07:57:43.834Z</time></trkpt><trkpt lat="45.91027" lon="8.7625867"><ele>338.0</ele><time>2026-05-03T07:57:44.833Z</time></trkpt><trkpt lat="45.91032" lon="8.762655"><ele>337.0</ele><time>2026-05-03T07:57:45.834Z</time></trkpt><trkpt lat="45.9103683" lon="8.7627317"><ele>336.0</ele><time>2026-05-03T07:57:46.834Z</time></trkpt><trkpt lat="45.9104267" lon="8.7628017"><ele>336.0</ele><time>2026-05-03T07:57:47.833Z</time></trkpt><trkpt lat="45.9104967" lon="8.7628683"><ele>336.0</ele><time>2026-05-03T07:57:48.834Z</time></trkpt><trkpt lat="45.9105583" lon="8.7629433"><ele>336.0</ele><time>2026-05-03T07:57:49.834Z</time></trkpt><trkpt lat="45.9106133" lon="8.763015"><ele>336.0</ele><time>2026-05-03T07:57:50.834Z</time></trkpt><trkpt lat="45.9106717" lon="8.7630933"><ele>336.0</ele><time>2026-05-03T07:57:51.834Z</time></trkpt><trkpt lat="45.9107267" lon="8.7632133"><ele>336.0</ele><time>2026-05-03T07:57:52.833Z</time></trkpt><trkpt lat="45.9107933" lon="8.763335"><ele>336.0</ele><time>2026-05-03T07:57:53.834Z</time></trkpt><trkpt lat="45.91087" lon="8.7634883"><ele>336.0</ele><time>2026-05-03T07:57:54.834Z</time></trkpt><trkpt lat="45.9109483" lon="8.7636383"><ele>336.0</ele><time>2026-05-03T07:57:55.833Z</time></trkpt><trkpt lat="45.9110233" lon="8.7637767"><ele>336.0</ele><time>2026-05-03T07:57:56.833Z</time></trkpt><trkpt lat="45.9111067" lon="8.7639117"><ele>335.5</ele><time>2026-05-03T07:57:57.834Z</time></trkpt><trkpt lat="45.9111183" lon="8.7640967"><ele>335.0</ele><time>2026-05-03T07:57:59.834Z</time></trkpt><trkpt lat="45.9111183" lon="8.7642033"><ele>334.5</ele><time>2026-05-03T07:58:00.833Z</time></trkpt><trkpt lat="45.91112" lon="8.7643033"><ele>334.0</ele><time>2026-05-03T07:58:01.834Z</time></trkpt><trkpt lat="45.911125" lon="8.764405"><ele>333.5</ele><time>2026-05-03T07:58:02.834Z</time></trkpt><trkpt lat="45.9111433" lon="8.7645283"><ele>333.0</ele><time>2026-05-03T07:58:04.833Z</time></trkpt><trkpt lat="45.9111817" lon="8.764685"><ele>335.4</ele><time>2026-05-03T07:58:06.833Z</time></trkpt><trkpt lat="45.911215" lon="8.7647883"><ele>337.79999999999995</ele><time>2026-05-03T07:58:07.833Z</time></trkpt><trkpt lat="45.9112467" lon="8.764875"><ele>340.2</ele><time>2026-05-03T07:58:08.834Z</time></trkpt><trkpt lat="45.91128" lon="8.7649667"><ele>342.6</ele><time>2026-05-03T07:58:09.833Z</time></trkpt><trkpt lat="45.9113633" lon="8.7650933"><ele>345.0</ele><time>2026-05-03T07:58:11.834Z</time></trkpt><trkpt lat="45.9114517" lon="8.76522"><ele>345.5</ele><time>2026-05-03T07:58:13.834Z</time></trkpt><trkpt lat="45.9115267" lon="8.7652783"><ele>346.0</ele><time>2026-05-03T07:58:14.834Z</time></trkpt><trkpt lat="45.9116033" lon="8.7653317"><ele>346.5</ele><time>2026-05-03T07:58:15.833Z</time></trkpt><trkpt lat="45.9116783" lon="8.76538"><ele>347.0</ele><time>2026-05-03T07:58:16.834Z</time></trkpt><trkpt lat="45.9117483" lon="8.765425"><ele>347.5</ele><time>2026-05-03T07:58:17.834Z</time></trkpt><trkpt lat="45.9118083" lon="8.7654783"><ele>348.0</ele><time>2026-05-03T07:58:18.833Z</time></trkpt><trkpt lat="45.9118617" lon="8.7655433"><ele>346.5</ele><time>2026-05-03T07:58:19.834Z</time></trkpt><trkpt lat="45.911905" lon="8.7656183"><ele>345.0</ele><time>2026-05-03T07:58:20.834Z</time></trkpt><trkpt lat="45.9119433" lon="8.7656917"><ele>343.5</ele><time>2026-05-03T07:58:21.834Z</time></trkpt><trkpt lat="45.9119733" lon="8.7657717"><ele>342.0</ele><time>2026-05-03T07:58:22.834Z</time></trkpt><trkpt lat="45.9120317" lon="8.7659017"><ele>340.5</ele><time>2026-05-03T07:58:24.833Z</time></trkpt><trkpt lat="45.9120933" lon="8.7660083"><ele>339.0</ele><time>2026-05-03T07:58:26.834Z</time></trkpt><trkpt lat="45.9121533" lon="8.7661417"><ele>339.0</ele><time>2026-05-03T07:58:28.834Z</time></trkpt><trkpt lat="45.912215" lon="8.766245"><ele>339.0</ele><time>2026-05-03T07:58:30.833Z</time></trkpt><trkpt lat="45.91229" lon="8.7663467"><ele>339.0</ele><time>2026-05-03T07:58:32.834Z</time></trkpt><trkpt lat="45.9123267" lon="8.766435"><ele>339.0</ele><time>2026-05-03T07:58:33.834Z</time></trkpt><trkpt lat="45.9123517" lon="8.76652"><ele>339.0</ele><time>2026-05-03T07:58:34.834Z</time></trkpt><trkpt lat="45.9123783" lon="8.7666083"><ele>339.0</ele><time>2026-05-03T07:58:35.833Z</time></trkpt><trkpt lat="45.9124017" lon="8.7666967"><ele>339.0</ele><time>2026-05-03T07:58:36.834Z</time></trkpt><trkpt lat="45.9124333" lon="8.7667883"><ele>339.0</ele><time>2026-05-03T07:58:37.834Z</time></trkpt><trkpt lat="45.9124633" lon="8.766875"><ele>339.0</ele><time>2026-05-03T07:58:38.834Z</time></trkpt><trkpt lat="45.9124983" lon="8.7669567"><ele>339.0</ele><time>2026-05-03T07:58:39.834Z</time></trkpt><trkpt lat="45.9125417" lon="8.7670317"><ele>339.0</ele><time>2026-05-03T07:58:40.834Z</time></trkpt><trkpt lat="45.9125883" lon="8.76711"><ele>339.0</ele><time>2026-05-03T07:58:41.833Z</time></trkpt><trkpt lat="45.912635" lon="8.7671833"><ele>339.0</ele><time>2026-05-03T07:58:42.834Z</time></trkpt><trkpt lat="45.9126733" lon="8.7672567"><ele>337.6666666666667</ele><time>2026-05-03T07:58:43.834Z</time></trkpt><trkpt lat="45.91271" lon="8.7673317"><ele>336.3333333333333</ele><time>2026-05-03T07:58:44.834Z</time></trkpt><trkpt lat="45.9127833" lon="8.767465"><ele>335.0</ele><time>2026-05-03T07:58:46.834Z</time></trkpt><trkpt lat="45.9128133" lon="8.767545"><ele>333.66666666666663</ele><time>2026-05-03T07:58:47.834Z</time></trkpt><trkpt lat="45.912875" lon="8.767685"><ele>332.3333333333333</ele><time>2026-05-03T07:58:49.834Z</time></trkpt><trkpt lat="45.9129233" lon="8.76775"><ele>331.0</ele><time>2026-05-03T07:58:51.834Z</time></trkpt><trkpt lat="45.912995" lon="8.7678567"><ele>331.0</ele><time>2026-05-03T07:59:32.834Z</time></trkpt><trkpt lat="45.9130633" lon="8.7677733"><ele>331.0</ele><time>2026-05-03T07:59:34.834Z</time></trkpt><trkpt lat="45.9131017" lon="8.767695"><ele>331.0</ele><time>2026-05-03T07:59:35.834Z</time></trkpt><trkpt lat="45.9131717" lon="8.7675833"><ele>331.0</ele><time>2026-05-03T07:59:37.834Z</time></trkpt><trkpt lat="45.913265" lon="8.76748"><ele>331.0</ele><time>2026-05-03T07:59:39.834Z</time></trkpt><trkpt lat="45.9133283" lon="8.7674"><ele>331.0</ele><time>2026-05-03T07:59:41.833Z</time></trkpt><trkpt lat="45.9133567" lon="8.7673"><ele>331.0</ele><time>2026-05-03T07:59:43.834Z</time></trkpt><trkpt lat="45.91338" lon="8.7671417"><ele>331.0</ele><time>2026-05-03T07:59:45.833Z</time></trkpt><trkpt lat="45.9134133" lon="8.76701"><ele>331.0</ele><time>2026-05-03T07:59:47.833Z</time></trkpt><trkpt lat="45.9134583" lon="8.7669033"><ele>331.0</ele><time>2026-05-03T07:59:49.834Z</time></trkpt><trkpt lat="45.91353" lon="8.7669"><ele>331.0</ele><time>2026-05-03T07:59:52.834Z</time></trkpt><trkpt lat="45.9135833" lon="8.7670383"><ele>327.16666666666663</ele><time>2026-05-03T07:59:54.833Z</time></trkpt><trkpt lat="45.9136133" lon="8.7671217"><ele>323.3333333333333</ele><time>2026-05-03T07:59:55.834Z</time></trkpt><trkpt lat="45.91368" lon="8.76726"><ele>319.5</ele><time>2026-05-03T07:59:57.834Z</time></trkpt><trkpt lat="45.913735" lon="8.767365"><ele>315.6666666666667</ele><time>2026-05-03T07:59:59.833Z</time></trkpt><trkpt lat="45.9137633" lon="8.7674483"><ele>311.83333333333337</ele><time>2026-05-03T08:00:01.834Z</time></trkpt><trkpt lat="45.913795" lon="8.7675467"><ele>308.0</ele><time>2026-05-03T08:00:03.834Z</time></trkpt><trkpt lat="45.9138633" lon="8.7676"><ele>308.0</ele><time>2026-05-03T08:00:06.834Z</time></trkpt><trkpt lat="45.9139433" lon="8.76761"><ele>308.0</ele><time>2026-05-03T08:00:08.833Z</time></trkpt><trkpt lat="45.9140183" lon="8.7676317"><ele>308.0</ele><time>2026-05-03T08:00:10.834Z</time></trkpt><trkpt lat="45.914085" lon="8.76767"><ele>308.0</ele><time>2026-05-03T08:00:12.834Z</time></trkpt><trkpt lat="45.9141583" lon="8.7677517"><ele>308.0</ele><time>2026-05-03T08:00:14.834Z</time></trkpt><trkpt lat="45.9142433" lon="8.7678333"><ele>308.0</ele><time>2026-05-03T08:00:15.834Z</time></trkpt><trkpt lat="45.9143383" lon="8.7679667"><ele>304.75</ele><time>2026-05-03T08:00:16.834Z</time></trkpt><trkpt lat="45.914495" lon="8.76815"><ele>301.5</ele><time>2026-05-03T08:00:17.834Z</time></trkpt><trkpt lat="45.9145967" lon="8.7682383"><ele>298.25</ele><time>2026-05-03T08:00:18.834Z</time></trkpt><trkpt lat="45.9146733" lon="8.7683083"><ele>295.0</ele><time>2026-05-03T08:00:19.834Z</time></trkpt><trkpt lat="45.9147783" lon="8.76838"><ele>295.0</ele><time>2026-05-03T08:00:21.834Z</time></trkpt><trkpt lat="45.9148717" lon="8.7684133"><ele>295.0</ele><time>2026-05-03T08:00:23.833Z</time></trkpt><trkpt lat="45.91495" lon="8.7684883"><ele>295.0</ele><time>2026-05-03T08:00:25.834Z</time></trkpt><trkpt lat="45.914975" lon="8.7685817"><ele>295.0</ele><time>2026-05-03T08:00:27.834Z</time></trkpt><trkpt lat="45.9149683" lon="8.768675"><ele>295.0</ele><time>2026-05-03T08:00:29.834Z</time></trkpt><trkpt lat="45.9149983" lon="8.768825"><ele>295.0</ele><time>2026-05-03T08:00:32.834Z</time></trkpt><trkpt lat="45.91503" lon="8.7689267"><ele>294.42857142857144</ele><time>2026-05-03T08:00:54.834Z</time></trkpt><trkpt lat="45.915105" lon="8.768995"><ele>293.8571428571429</ele><time>2026-05-03T08:00:56.834Z</time></trkpt><trkpt lat="45.915175" lon="8.7690433"><ele>293.2857142857143</ele><time>2026-05-03T08:00:58.834Z</time></trkpt><trkpt lat="45.9152217" lon="8.7691083"><ele>292.7142857142857</ele><time>2026-05-03T08:00:59.834Z</time></trkpt><trkpt lat="45.9152567" lon="8.7691867"><ele>292.1428571428571</ele><time>2026-05-03T08:01:00.834Z</time></trkpt><trkpt lat="45.915295" lon="8.7692667"><ele>291.57142857142856</ele><time>2026-05-03T08:01:01.834Z</time></trkpt><trkpt lat="45.9153333" lon="8.7693417"><ele>291.0</ele><time>2026-05-03T08:01:02.834Z</time></trkpt><trkpt lat="45.9153833" lon="8.76941"><ele>291.0</ele><time>2026-05-03T08:01:03.834Z</time></trkpt><trkpt lat="45.9154567" lon="8.76947"><ele>291.0</ele><time>2026-05-03T08:01:04.834Z</time></trkpt><trkpt lat="45.915545" lon="8.769525"><ele>291.0</ele><time>2026-05-03T08:01:05.834Z</time></trkpt><trkpt lat="45.9156283" lon="8.769575"><ele>291.0</ele><time>2026-05-03T08:01:06.834Z</time></trkpt><trkpt lat="45.9157117" lon="8.7696617"><ele>291.0</ele><time>2026-05-03T08:01:07.834Z</time></trkpt><trkpt lat="45.9157817" lon="8.7697667"><ele>291.0</ele><time>2026-05-03T08:01:08.833Z</time></trkpt><trkpt lat="45.9158483" lon="8.7698917"><ele>291.0</ele><time>2026-05-03T08:01:09.833Z</time></trkpt><trkpt lat="45.9159067" lon="8.770015"><ele>291.0</ele><time>2026-05-03T08:01:10.834Z</time></trkpt><trkpt lat="45.915955" lon="8.770125"><ele>291.0</ele><time>2026-05-03T08:01:11.834Z</time></trkpt><trkpt lat="45.915995" lon="8.77021"><ele>291.0</ele><time>2026-05-03T08:01:12.834Z</time></trkpt><trkpt lat="45.9160733" lon="8.7702717"><ele>291.25</ele><time>2026-05-03T08:01:14.833Z</time></trkpt><trkpt lat="45.916145" lon="8.7702133"><ele>291.5</ele><time>2026-05-03T08:01:15.834Z</time></trkpt><trkpt lat="45.9162417" lon="8.7701217"><ele>291.75</ele><time>2026-05-03T08:01:16.834Z</time></trkpt><trkpt lat="45.91637" lon="8.7699933"><ele>292.0</ele><time>2026-05-03T08:01:17.833Z</time></trkpt><trkpt lat="45.9165133" lon="8.7698683"><ele>290.3333333333333</ele><time>2026-05-03T08:01:18.834Z</time></trkpt><trkpt lat="45.91665" lon="8.7697567"><ele>288.6666666666667</ele><time>2026-05-03T08:01:19.834Z</time></trkpt><trkpt lat="45.9167817" lon="8.76965"><ele>287.0</ele><time>2026-05-03T08:01:20.834Z</time></trkpt><trkpt lat="45.9169133" lon="8.7695483"><ele>286.0</ele><time>2026-05-03T08:01:21.834Z</time></trkpt><trkpt lat="45.9170417" lon="8.7694433"><ele>285.0</ele><time>2026-05-03T08:01:22.834Z</time></trkpt><trkpt lat="45.9171583" lon="8.76934"><ele>284.0</ele><time>2026-05-03T08:01:23.834Z</time></trkpt><trkpt lat="45.9172767" lon="8.76924"><ele>283.0</ele><time>2026-05-03T08:01:24.834Z</time></trkpt><trkpt lat="45.91739" lon="8.7691533"><ele>282.8</ele><time>2026-05-03T08:01:25.834Z</time></trkpt><trkpt lat="45.9175033" lon="8.7690783"><ele>282.6</ele><time>2026-05-03T08:01:26.834Z</time></trkpt><trkpt lat="45.9176117" lon="8.7690183"><ele>282.4</ele><time>2026-05-03T08:01:27.834Z</time></trkpt><trkpt lat="45.9177133" lon="8.7689733"><ele>282.2</ele><time>2026-05-03T08:01:28.834Z</time></trkpt><trkpt lat="45.9178067" lon="8.76894"><ele>282.0</ele><time>2026-05-03T08:01:29.834Z</time></trkpt><trkpt lat="45.9178833" lon="8.7689333"><ele>280.2</ele><time>2026-05-03T08:01:30.834Z</time></trkpt><trkpt lat="45.917955" lon="8.7689683"><ele>278.4</ele><time>2026-05-03T08:01:31.834Z</time></trkpt><trkpt lat="45.9180333" lon="8.7690467"><ele>276.6</ele><time>2026-05-03T08:01:32.834Z</time></trkpt><trkpt lat="45.9181267" lon="8.76916"><ele>274.8</ele><time>2026-05-03T08:01:33.833Z</time></trkpt><trkpt lat="45.91822" lon="8.7692867"><ele>273.0</ele><time>2026-05-03T08:01:34.833Z</time></trkpt><trkpt lat="45.9182917" lon="8.7694067"><ele>273.0</ele><time>2026-05-03T08:01:35.833Z</time></trkpt><trkpt lat="45.91834" lon="8.7695183"><ele>273.0</ele><time>2026-05-03T08:01:36.834Z</time></trkpt><trkpt lat="45.9183717" lon="8.76962"><ele>273.0</ele><time>2026-05-03T08:01:37.834Z</time></trkpt><trkpt lat="45.91841" lon="8.7697"><ele>273.0</ele><time>2026-05-03T08:01:38.833Z</time></trkpt><trkpt lat="45.9184733" lon="8.769755"><ele>273.0</ele><time>2026-05-03T08:01:39.833Z</time></trkpt><trkpt lat="45.9185717" lon="8.769795"><ele>273.0</ele><time>2026-05-03T08:01:40.833Z</time></trkpt><trkpt lat="45.918685" lon="8.7698367"><ele>271.25</ele><time>2026-05-03T08:01:41.833Z</time></trkpt><trkpt lat="45.918805" lon="8.7698833"><ele>269.5</ele><time>2026-05-03T08:01:42.833Z</time></trkpt><trkpt lat="45.9189233" lon="8.7699267"><ele>267.75</ele><time>2026-05-03T08:01:43.833Z</time></trkpt><trkpt lat="45.9190333" lon="8.7699683"><ele>266.0</ele><time>2026-05-03T08:01:44.834Z</time></trkpt><trkpt lat="45.9191433" lon="8.7700067"><ele>264.75</ele><time>2026-05-03T08:01:45.834Z</time></trkpt><trkpt lat="45.9192517" lon="8.7700383"><ele>263.5</ele><time>2026-05-03T08:01:46.834Z</time></trkpt><trkpt lat="45.9193733" lon="8.7700667"><ele>262.25</ele><time>2026-05-03T08:01:47.834Z</time></trkpt><trkpt lat="45.919495" lon="8.7700983"><ele>261.0</ele><time>2026-05-03T08:01:48.834Z</time></trkpt><trkpt lat="45.9196117" lon="8.7701267"><ele>261.0</ele><time>2026-05-03T08:01:49.833Z</time></trkpt><trkpt lat="45.9197367" lon="8.770155"><ele>261.0</ele><time>2026-05-03T08:01:50.834Z</time></trkpt><trkpt lat="45.9198533" lon="8.7701733"><ele>261.0</ele><time>2026-05-03T08:01:51.834Z</time></trkpt><trkpt lat="45.9199617" lon="8.770195"><ele>261.0</ele><time>2026-05-03T08:01:52.834Z</time></trkpt><trkpt lat="45.920065" lon="8.7702067"><ele>260.6</ele><time>2026-05-03T08:01:53.834Z</time></trkpt><trkpt lat="45.920165" lon="8.770215"><ele>260.20000000000005</ele><time>2026-05-03T08:01:54.834Z</time></trkpt><trkpt lat="45.92025" lon="8.7702283"><ele>259.79999999999995</ele><time>2026-05-03T08:01:55.834Z</time></trkpt><trkpt lat="45.92032" lon="8.77024"><ele>259.4</ele><time>2026-05-03T08:01:56.834Z</time></trkpt><trkpt lat="45.920405" lon="8.7702533"><ele>259.0</ele><time>2026-05-03T08:01:58.834Z</time></trkpt><trkpt lat="45.92055" lon="8.7702433"><ele>259.0</ele><time>2026-05-03T08:02:11.833Z</time></trkpt><trkpt lat="45.9206333" lon="8.7702417"><ele>259.0</ele><time>2026-05-03T08:02:12.833Z</time></trkpt><trkpt lat="45.92072" lon="8.7702533"><ele>259.0</ele><time>2026-05-03T08:02:13.834Z</time></trkpt><trkpt lat="45.9207917" lon="8.7702667"><ele>259.0</ele><time>2026-05-03T08:02:14.834Z</time></trkpt><trkpt lat="45.9208583" lon="8.770275"><ele>259.0</ele><time>2026-05-03T08:02:15.833Z</time></trkpt><trkpt lat="45.9209217" lon="8.770285"><ele>259.0</ele><time>2026-05-03T08:02:16.834Z</time></trkpt><trkpt lat="45.9209967" lon="8.770305"><ele>258.66666666666663</ele><time>2026-05-03T08:02:17.833Z</time></trkpt><trkpt lat="45.9210767" lon="8.7703233"><ele>258.3333333333333</ele><time>2026-05-03T08:02:18.833Z</time></trkpt><trkpt lat="45.92115" lon="8.7703383"><ele>258.0</ele><time>2026-05-03T08:02:19.834Z</time></trkpt><trkpt lat="45.9212333" lon="8.770365"><ele>257.6666666666667</ele><time>2026-05-03T08:02:20.833Z</time></trkpt><trkpt lat="45.9213233" lon="8.7703983"><ele>257.33333333333337</ele><time>2026-05-03T08:02:21.834Z</time></trkpt><trkpt lat="45.9214083" lon="8.7704317"><ele>257.0</ele><time>2026-05-03T08:02:22.834Z</time></trkpt><trkpt lat="45.9214833" lon="8.7704583"><ele>257.0</ele><time>2026-05-03T08:02:23.833Z</time></trkpt><trkpt lat="45.921555" lon="8.77048"><ele>257.0</ele><time>2026-05-03T08:02:24.834Z</time></trkpt><trkpt lat="45.9216267" lon="8.770485"><ele>257.0</ele><time>2026-05-03T08:02:25.834Z</time></trkpt><trkpt lat="45.9216933" lon="8.7704733"><ele>257.0</ele><time>2026-05-03T08:02:26.834Z</time></trkpt><trkpt lat="45.9217567" lon="8.7704617"><ele>257.0</ele><time>2026-05-03T08:02:27.834Z</time></trkpt><trkpt lat="45.921825" lon="8.77044"><ele>257.0</ele><time>2026-05-03T08:02:28.834Z</time></trkpt><trkpt lat="45.9218867" lon="8.770415"><ele>257.0</ele><time>2026-05-03T08:02:29.834Z</time></trkpt><trkpt lat="45.921985" lon="8.77034"><ele>256.8</ele><time>2026-05-03T08:02:31.834Z</time></trkpt><trkpt lat="45.9220833" lon="8.7702717"><ele>256.6</ele><time>2026-05-03T08:02:33.833Z</time></trkpt><trkpt lat="45.922185" lon="8.770215"><ele>256.40000000000003</ele><time>2026-05-03T08:02:35.833Z</time></trkpt><trkpt lat="45.9222633" lon="8.770185"><ele>256.2</ele><time>2026-05-03T08:02:37.833Z</time></trkpt><trkpt lat="45.9223417" lon="8.7701617"><ele>256.0</ele><time>2026-05-03T08:02:39.834Z</time></trkpt><trkpt lat="45.9224417" lon="8.7701433"><ele>256.0</ele><time>2026-05-03T08:02:41.834Z</time></trkpt><trkpt lat="45.9225317" lon="8.77013"><ele>256.0</ele><time>2026-05-03T08:02:43.834Z</time></trkpt><trkpt lat="45.922615" lon="8.7701217"><ele>256.0</ele><time>2026-05-03T08:02:45.834Z</time></trkpt><trkpt lat="45.9226933" lon="8.770125"><ele>256.0</ele><time>2026-05-03T08:02:47.834Z</time></trkpt><trkpt lat="45.9227883" lon="8.7701283"><ele>256.0</ele><time>2026-05-03T08:02:49.834Z</time></trkpt><trkpt lat="45.922895" lon="8.7701283"><ele>255.99999999999997</ele><time>2026-05-03T08:02:51.834Z</time></trkpt><trkpt lat="45.9229583" lon="8.7701267"><ele>256.0</ele><time>2026-05-03T08:02:52.834Z</time></trkpt><trkpt lat="45.9230317" lon="8.770125"><ele>256.0</ele><time>2026-05-03T08:02:53.834Z</time></trkpt><trkpt lat="45.9231117" lon="8.7701183"><ele>256.0</ele><time>2026-05-03T08:02:54.834Z</time></trkpt><trkpt lat="45.92319" lon="8.7701217"><ele>255.99999999999997</ele><time>2026-05-03T08:02:55.834Z</time></trkpt><trkpt lat="45.9232733" lon="8.77011"><ele>256.0</ele><time>2026-05-03T08:02:56.834Z</time></trkpt><trkpt lat="45.9233517" lon="8.7700933"><ele>256.42857142857144</ele><time>2026-05-03T08:02:57.833Z</time></trkpt><trkpt lat="45.9234217" lon="8.7700783"><ele>256.85714285714283</ele><time>2026-05-03T08:02:58.834Z</time></trkpt><trkpt lat="45.9234933" lon="8.770065"><ele>257.2857142857143</ele><time>2026-05-03T08:02:59.834Z</time></trkpt><trkpt lat="45.9235717" lon="8.77005"><ele>257.7142857142857</ele><time>2026-05-03T08:03:00.834Z</time></trkpt><trkpt lat="45.92365" lon="8.77003"><ele>258.1428571428571</ele><time>2026-05-03T08:03:01.833Z</time></trkpt><trkpt lat="45.92372" lon="8.7700033"><ele>258.57142857142856</ele><time>2026-05-03T08:03:02.833Z</time></trkpt><trkpt lat="45.923775" lon="8.7699583"><ele>259.0</ele><time>2026-05-03T08:03:03.834Z</time></trkpt><trkpt lat="45.923835" lon="8.7699067"><ele>259.0</ele><time>2026-05-03T08:03:04.833Z</time></trkpt><trkpt lat="45.9238883" lon="8.7698533"><ele>259.0</ele><time>2026-05-03T08:03:05.834Z</time></trkpt><trkpt lat="45.923975" lon="8.769735"><ele>259.0</ele><time>2026-05-03T08:03:07.834Z</time></trkpt><trkpt lat="45.9240667" lon="8.7696533"><ele>259.0</ele><time>2026-05-03T08:03:09.834Z</time></trkpt><trkpt lat="45.924135" lon="8.7696183"><ele>259.0</ele><time>2026-05-03T08:03:10.834Z</time></trkpt><trkpt lat="45.9242133" lon="8.769585"><ele>259.0</ele><time>2026-05-03T08:03:11.834Z</time></trkpt><trkpt lat="45.92429" lon="8.7695467"><ele>260.16666666666663</ele><time>2026-05-03T08:03:12.833Z</time></trkpt><trkpt lat="45.9243617" lon="8.7694983"><ele>261.3333333333333</ele><time>2026-05-03T08:03:13.834Z</time></trkpt><trkpt lat="45.9244317" lon="8.7694583"><ele>262.5</ele><time>2026-05-03T08:03:14.834Z</time></trkpt><trkpt lat="45.924495" lon="8.76942"><ele>263.6666666666667</ele><time>2026-05-03T08:03:15.834Z</time></trkpt><trkpt lat="45.92461" lon="8.7693483"><ele>264.83333333333337</ele><time>2026-05-03T08:03:17.833Z</time></trkpt><trkpt lat="45.9246683" lon="8.7693033"><ele>266.0</ele><time>2026-05-03T08:03:18.834Z</time></trkpt><trkpt lat="45.9247267" lon="8.7692633"><ele>266.5</ele><time>2026-05-03T08:03:19.834Z</time></trkpt><trkpt lat="45.9248317" lon="8.769225"><ele>267.0</ele><time>2026-05-03T08:03:21.833Z</time></trkpt><trkpt lat="45.9249033" lon="8.7692217"><ele>267.5</ele><time>2026-05-03T08:03:22.833Z</time></trkpt><trkpt lat="45.9249767" lon="8.769225"><ele>268.0</ele><time>2026-05-03T08:03:23.834Z</time></trkpt><trkpt lat="45.9250583" lon="8.7692267"><ele>268.5</ele><time>2026-05-03T08:03:24.834Z</time></trkpt><trkpt lat="45.9251333" lon="8.76923"><ele>269.0</ele><time>2026-05-03T08:03:25.834Z</time></trkpt><trkpt lat="45.9252033" lon="8.76921"><ele>270.1666666666667</ele><time>2026-05-03T08:03:26.834Z</time></trkpt><trkpt lat="45.9252783" lon="8.7692"><ele>271.33333333333337</ele><time>2026-05-03T08:03:27.834Z</time></trkpt><trkpt lat="45.9253567" lon="8.769195"><ele>272.5</ele><time>2026-05-03T08:03:28.834Z</time></trkpt><trkpt lat="45.925435" lon="8.76919"><ele>273.6666666666667</ele><time>2026-05-03T08:03:29.834Z</time></trkpt><trkpt lat="45.92551" lon="8.769185"><ele>274.8333333333333</ele><time>2026-05-03T08:03:30.834Z</time></trkpt><trkpt lat="45.9255883" lon="8.7691983"><ele>276.0</ele><time>2026-05-03T08:03:31.834Z</time></trkpt><trkpt lat="45.9256633" lon="8.769235"><ele>276.0</ele><time>2026-05-03T08:03:32.834Z</time></trkpt><trkpt lat="45.92575" lon="8.769275"><ele>276.0</ele><time>2026-05-03T08:03:33.833Z</time></trkpt><trkpt lat="45.9258417" lon="8.7693233"><ele>276.0</ele><time>2026-05-03T08:03:34.834Z</time></trkpt><trkpt lat="45.9259383" lon="8.76937"><ele>276.0</ele><time>2026-05-03T08:03:35.833Z</time></trkpt><trkpt lat="45.926035" lon="8.7694017"><ele>276.0</ele><time>2026-05-03T08:03:36.833Z</time></trkpt><trkpt lat="45.9261517" lon="8.7694167"><ele>277.5</ele><time>2026-05-03T08:03:37.834Z</time></trkpt><trkpt lat="45.9262733" lon="8.7694417"><ele>279.0</ele><time>2026-05-03T08:03:38.834Z</time></trkpt><trkpt lat="45.92641" lon="8.7694533"><ele>280.5</ele><time>2026-05-03T08:03:39.834Z</time></trkpt><trkpt lat="45.9265367" lon="8.7694633"><ele>282.0</ele><time>2026-05-03T08:03:40.834Z</time></trkpt><trkpt lat="45.926665" lon="8.7694683"><ele>282.0</ele><time>2026-05-03T08:03:41.834Z</time></trkpt><trkpt lat="45.9267933" lon="8.769445"><ele>282.0</ele><time>2026-05-03T08:03:42.834Z</time></trkpt><trkpt lat="45.9269167" lon="8.7694267"><ele>282.0</ele><time>2026-05-03T08:03:43.833Z</time></trkpt><trkpt lat="45.92703" lon="8.769405"><ele>282.0</ele><time>2026-05-03T08:03:44.834Z</time></trkpt><trkpt lat="45.9271333" lon="8.7693783"><ele>281.6</ele><time>2026-05-03T08:03:45.834Z</time></trkpt><trkpt lat="45.92723" lon="8.7693583"><ele>281.2</ele><time>2026-05-03T08:03:46.833Z</time></trkpt><trkpt lat="45.92734" lon="8.76935"><ele>280.8</ele><time>2026-05-03T08:03:47.834Z</time></trkpt><trkpt lat="45.927445" lon="8.7693517"><ele>280.4</ele><time>2026-05-03T08:03:48.834Z</time></trkpt><trkpt lat="45.927545" lon="8.769345"><ele>280.0</ele><time>2026-05-03T08:03:49.834Z</time></trkpt><trkpt lat="45.9276517" lon="8.7693317"><ele>280.0</ele><time>2026-05-03T08:03:50.834Z</time></trkpt><trkpt lat="45.9277633" lon="8.76929"><ele>280.0</ele><time>2026-05-03T08:03:51.833Z</time></trkpt><trkpt lat="45.927875" lon="8.7692667"><ele>280.0</ele><time>2026-05-03T08:03:52.833Z</time></trkpt><trkpt lat="45.9279933" lon="8.7692517"><ele>280.0</ele><time>2026-05-03T08:03:53.834Z</time></trkpt><trkpt lat="45.9281233" lon="8.7692333"><ele>280.0</ele><time>2026-05-03T08:03:54.834Z</time></trkpt><trkpt lat="45.92824" lon="8.7692133"><ele>280.0</ele><time>2026-05-03T08:03:55.834Z</time></trkpt><trkpt lat="45.9283367" lon="8.76919"><ele>280.0</ele><time>2026-05-03T08:03:56.834Z</time></trkpt><trkpt lat="45.9284217" lon="8.76917"><ele>280.0</ele><time>2026-05-03T08:03:57.834Z</time></trkpt><trkpt lat="45.9285033" lon="8.769165"><ele>280.0</ele><time>2026-05-03T08:03:58.834Z</time></trkpt><trkpt lat="45.9285983" lon="8.7691767"><ele>280.6</ele><time>2026-05-03T08:03:59.834Z</time></trkpt><trkpt lat="45.9287083" lon="8.76921"><ele>281.2</ele><time>2026-05-03T08:04:00.834Z</time></trkpt><trkpt lat="45.9288267" lon="8.7692417"><ele>281.8</ele><time>2026-05-03T08:04:01.834Z</time></trkpt><trkpt lat="45.9289317" lon="8.7692633"><ele>282.4</ele><time>2026-05-03T08:04:02.834Z</time></trkpt><trkpt lat="45.92903" lon="8.7692783"><ele>283.0</ele><time>2026-05-03T08:04:03.834Z</time></trkpt><trkpt lat="45.9291283" lon="8.7692867"><ele>284.2</ele><time>2026-05-03T08:04:04.834Z</time></trkpt><trkpt lat="45.9292283" lon="8.76927"><ele>285.4</ele><time>2026-05-03T08:04:05.834Z</time></trkpt><trkpt lat="45.9293383" lon="8.7692433"><ele>286.59999999999997</ele><time>2026-05-03T08:04:06.834Z</time></trkpt><trkpt lat="45.929435" lon="8.76921"><ele>287.8</ele><time>2026-05-03T08:04:07.833Z</time></trkpt><trkpt lat="45.9295183" lon="8.76917"><ele>289.0</ele><time>2026-05-03T08:04:08.833Z</time></trkpt><trkpt lat="45.9295917" lon="8.769125"><ele>289.0</ele><time>2026-05-03T08:04:09.834Z</time></trkpt><trkpt lat="45.9296683" lon="8.7690917"><ele>289.0</ele><time>2026-05-03T08:04:10.834Z</time></trkpt><trkpt lat="45.9297517" lon="8.7690583"><ele>289.0</ele><time>2026-05-03T08:04:11.834Z</time></trkpt><trkpt lat="45.9298433" lon="8.769035"><ele>289.0</ele><time>2026-05-03T08:04:12.834Z</time></trkpt><trkpt lat="45.9299283" lon="8.7690117"><ele>289.0</ele><time>2026-05-03T08:04:13.834Z</time></trkpt><trkpt lat="45.93" lon="8.7690033"><ele>289.0</ele><time>2026-05-03T08:04:14.834Z</time></trkpt><trkpt lat="45.9300717" lon="8.768995"><ele>290.0</ele><time>2026-05-03T08:04:15.834Z</time></trkpt><trkpt lat="45.93015" lon="8.768985"><ele>291.0</ele><time>2026-05-03T08:04:16.833Z</time></trkpt><trkpt lat="45.93024" lon="8.7689683"><ele>292.0</ele><time>2026-05-03T08:04:17.834Z</time></trkpt><trkpt lat="45.930325" lon="8.7689483"><ele>293.0</ele><time>2026-05-03T08:04:18.834Z</time></trkpt><trkpt lat="45.930395" lon="8.7689217"><ele>294.0</ele><time>2026-05-03T08:04:19.834Z</time></trkpt><trkpt lat="45.9304717" lon="8.7688867"><ele>295.0</ele><time>2026-05-03T08:04:20.834Z</time></trkpt><trkpt lat="45.9305567" lon="8.7688567"><ele>295.0</ele><time>2026-05-03T08:04:21.833Z</time></trkpt><trkpt lat="45.93066" lon="8.76883"><ele>295.0</ele><time>2026-05-03T08:04:22.833Z</time></trkpt><trkpt lat="45.9307617" lon="8.7688167"><ele>295.0</ele><time>2026-05-03T08:04:23.834Z</time></trkpt><trkpt lat="45.930855" lon="8.7688233"><ele>295.0</ele><time>2026-05-03T08:04:24.834Z</time></trkpt><trkpt lat="45.930945" lon="8.7688183"><ele>295.0</ele><time>2026-05-03T08:04:25.834Z</time></trkpt><trkpt lat="45.9310333" lon="8.768815"><ele>296.2</ele><time>2026-05-03T08:04:26.833Z</time></trkpt><trkpt lat="45.9311217" lon="8.76882"><ele>297.4</ele><time>2026-05-03T08:04:27.834Z</time></trkpt><trkpt lat="45.9312133" lon="8.7688517"><ele>298.6</ele><time>2026-05-03T08:04:28.833Z</time></trkpt><trkpt lat="45.9313133" lon="8.7688833"><ele>299.8</ele><time>2026-05-03T08:04:29.834Z</time></trkpt><trkpt lat="45.9314117" lon="8.76892"><ele>301.0</ele><time>2026-05-03T08:04:30.834Z</time></trkpt><trkpt lat="45.9315017" lon="8.7689417"><ele>301.0</ele><time>2026-05-03T08:04:31.834Z</time></trkpt><trkpt lat="45.9315783" lon="8.7689583"><ele>301.0</ele><time>2026-05-03T08:04:32.834Z</time></trkpt><trkpt lat="45.9316567" lon="8.768965"><ele>301.0</ele><time>2026-05-03T08:04:33.834Z</time></trkpt><trkpt lat="45.9317283" lon="8.768955"><ele>301.0</ele><time>2026-05-03T08:04:34.834Z</time></trkpt><trkpt lat="45.9318067" lon="8.7689417"><ele>301.0</ele><time>2026-05-03T08:04:35.833Z</time></trkpt><trkpt lat="45.9318833" lon="8.768965"><ele>301.0</ele><time>2026-05-03T08:04:36.834Z</time></trkpt><trkpt lat="45.9319533" lon="8.7690083"><ele>301.3333333333333</ele><time>2026-05-03T08:04:37.834Z</time></trkpt><trkpt lat="45.9320167" lon="8.7690767"><ele>301.66666666666663</ele><time>2026-05-03T08:04:38.834Z</time></trkpt><trkpt lat="45.9320833" lon="8.7691383"><ele>302.0</ele><time>2026-05-03T08:04:39.833Z</time></trkpt><trkpt lat="45.9321417" lon="8.7691967"><ele>302.3333333333333</ele><time>2026-05-03T08:04:40.834Z</time></trkpt><trkpt lat="45.9322033" lon="8.76925"><ele>302.6666666666667</ele><time>2026-05-03T08:04:41.834Z</time></trkpt><trkpt lat="45.9322583" lon="8.7692983"><ele>303.0</ele><time>2026-05-03T08:04:42.834Z</time></trkpt><trkpt lat="45.9323583" lon="8.7693633"><ele>302.2857142857143</ele><time>2026-05-03T08:04:44.834Z</time></trkpt><trkpt lat="45.9324233" lon="8.76933"><ele>301.57142857142856</ele><time>2026-05-03T08:04:46.834Z</time></trkpt><trkpt lat="45.9324417" lon="8.769235"><ele>300.85714285714283</ele><time>2026-05-03T08:04:47.834Z</time></trkpt><trkpt lat="45.93246" lon="8.7691383"><ele>300.1428571428571</ele><time>2026-05-03T08:04:48.833Z</time></trkpt><trkpt lat="45.9324783" lon="8.7690433"><ele>299.4285714285714</ele><time>2026-05-03T08:04:49.833Z</time></trkpt><trkpt lat="45.932495" lon="8.7689467"><ele>298.7142857142857</ele><time>2026-05-03T08:04:50.833Z</time></trkpt><trkpt lat="45.932515" lon="8.768845"><ele>298.0</ele><time>2026-05-03T08:04:51.834Z</time></trkpt><trkpt lat="45.9325317" lon="8.76874"><ele>298.0</ele><time>2026-05-03T08:04:52.834Z</time></trkpt><trkpt lat="45.9325533" lon="8.7686433"><ele>298.0</ele><time>2026-05-03T08:04:53.834Z</time></trkpt><trkpt lat="45.9326333" lon="8.7685167"><ele>298.0</ele><time>2026-05-03T08:04:55.834Z</time></trkpt><trkpt lat="45.9326933" lon="8.768375"><ele>298.0</ele><time>2026-05-03T08:04:57.834Z</time></trkpt><trkpt lat="45.9326983" lon="8.7682583"><ele>298.0</ele><time>2026-05-03T08:04:58.833Z</time></trkpt><trkpt lat="45.932715" lon="8.7681533"><ele>300.2</ele><time>2026-05-03T08:04:59.834Z</time></trkpt><trkpt lat="45.9327583" lon="8.768075"><ele>302.4</ele><time>2026-05-03T08:05:00.834Z</time></trkpt><trkpt lat="45.9328767" lon="8.7680667"><ele>304.59999999999997</ele><time>2026-05-03T08:05:02.834Z</time></trkpt><trkpt lat="45.9329583" lon="8.768125"><ele>306.8</ele><time>2026-05-03T08:05:03.833Z</time></trkpt><trkpt lat="45.9330333" lon="8.7681917"><ele>309.0</ele><time>2026-05-03T08:05:04.833Z</time></trkpt><trkpt lat="45.9331033" lon="8.7682683"><ele>309.0</ele><time>2026-05-03T08:05:05.834Z</time></trkpt><trkpt lat="45.9331717" lon="8.7683483"><ele>309.0</ele><time>2026-05-03T08:05:06.834Z</time></trkpt><trkpt lat="45.933245" lon="8.76842"><ele>309.0</ele><time>2026-05-03T08:05:07.834Z</time></trkpt><trkpt lat="45.9333167" lon="8.7684783"><ele>309.0</ele><time>2026-05-03T08:05:08.834Z</time></trkpt><trkpt lat="45.933385" lon="8.7685167"><ele>309.0</ele><time>2026-05-03T08:05:09.833Z</time></trkpt><trkpt lat="45.9334783" lon="8.768515"><ele>309.0</ele><time>2026-05-03T08:05:10.834Z</time></trkpt><trkpt lat="45.933575" lon="8.76848"><ele>311.6</ele><time>2026-05-03T08:05:11.834Z</time></trkpt><trkpt lat="45.9336833" lon="8.7684267"><ele>314.2</ele><time>2026-05-03T08:05:12.834Z</time></trkpt><trkpt lat="45.9337767" lon="8.7683533"><ele>316.8</ele><time>2026-05-03T08:05:13.834Z</time></trkpt><trkpt lat="45.9338717" lon="8.7682683"><ele>319.40000000000003</ele><time>2026-05-03T08:05:14.833Z</time></trkpt><trkpt lat="45.9339617" lon="8.7681817"><ele>322.0</ele><time>2026-05-03T08:05:15.834Z</time></trkpt><trkpt lat="45.93404" lon="8.768125"><ele>322.0</ele><time>2026-05-03T08:05:16.833Z</time></trkpt><trkpt lat="45.93412" lon="8.7680983"><ele>322.0</ele><time>2026-05-03T08:05:17.834Z</time></trkpt><trkpt lat="45.9341983" lon="8.7680783"><ele>322.0</ele><time>2026-05-03T08:05:18.834Z</time></trkpt><trkpt lat="45.93429" lon="8.7680383"><ele>322.0</ele><time>2026-05-03T08:05:19.834Z</time></trkpt><trkpt lat="45.934385" lon="8.76798"><ele>322.0</ele><time>2026-05-03T08:05:20.834Z</time></trkpt><trkpt lat="45.9344733" lon="8.7679067"><ele>322.5</ele><time>2026-05-03T08:05:21.834Z</time></trkpt><trkpt lat="45.9345633" lon="8.7678117"><ele>323.0</ele><time>2026-05-03T08:05:22.834Z</time></trkpt><trkpt lat="45.93465" lon="8.7676967"><ele>323.5</ele><time>2026-05-03T08:05:23.833Z</time></trkpt><trkpt lat="45.9347267" lon="8.7675617"><ele>324.0</ele><time>2026-05-03T08:05:24.833Z</time></trkpt><trkpt lat="45.9347883" lon="8.7674317"><ele>325.4</ele><time>2026-05-03T08:05:25.833Z</time></trkpt><trkpt lat="45.9348517" lon="8.7673283"><ele>326.79999999999995</ele><time>2026-05-03T08:05:26.834Z</time></trkpt><trkpt lat="45.9349233" lon="8.7672383"><ele>328.20000000000005</ele><time>2026-05-03T08:05:27.833Z</time></trkpt><trkpt lat="45.9350083" lon="8.767145"><ele>329.6</ele><time>2026-05-03T08:05:28.834Z</time></trkpt><trkpt lat="45.9350917" lon="8.7670683"><ele>331.0</ele><time>2026-05-03T08:05:29.834Z</time></trkpt><trkpt lat="45.93516" lon="8.7669883"><ele>331.0</ele><time>2026-05-03T08:05:30.834Z</time></trkpt><trkpt lat="45.9352117" lon="8.7668967"><ele>331.0</ele><time>2026-05-03T08:05:31.834Z</time></trkpt><trkpt lat="45.935255" lon="8.7667817"><ele>331.0</ele><time>2026-05-03T08:05:32.834Z</time></trkpt><trkpt lat="45.9352783" lon="8.7666417"><ele>331.0</ele><time>2026-05-03T08:05:33.834Z</time></trkpt><trkpt lat="45.9352867" lon="8.766495"><ele>331.0</ele><time>2026-05-03T08:05:34.834Z</time></trkpt><trkpt lat="45.9352883" lon="8.7663533"><ele>333.3333333333333</ele><time>2026-05-03T08:05:35.834Z</time></trkpt><trkpt lat="45.93529" lon="8.7662383"><ele>335.66666666666663</ele><time>2026-05-03T08:05:36.834Z</time></trkpt><trkpt lat="45.93531" lon="8.7661433"><ele>338.0</ele><time>2026-05-03T08:05:37.833Z</time></trkpt><trkpt lat="45.935335" lon="8.7660533"><ele>340.3333333333333</ele><time>2026-05-03T08:05:38.833Z</time></trkpt><trkpt lat="45.9353783" lon="8.7659617"><ele>342.6666666666667</ele><time>2026-05-03T08:05:39.834Z</time></trkpt><trkpt lat="45.93543" lon="8.765845"><ele>345.0</ele><time>2026-05-03T08:05:40.834Z</time></trkpt><trkpt lat="45.9354783" lon="8.76573"><ele>347.5</ele><time>2026-05-03T08:05:41.834Z</time></trkpt><trkpt lat="45.9355417" lon="8.7656233"><ele>350.0</ele><time>2026-05-03T08:05:42.833Z</time></trkpt><trkpt lat="45.9356317" lon="8.7655067"><ele>352.5</ele><time>2026-05-03T08:05:43.834Z</time></trkpt><trkpt lat="45.9357283" lon="8.7653967"><ele>355.0</ele><time>2026-05-03T08:05:44.834Z</time></trkpt><trkpt lat="45.9358217" lon="8.7652883"><ele>352.8</ele><time>2026-05-03T08:05:45.834Z</time></trkpt><trkpt lat="45.9358967" lon="8.7651833"><ele>350.6</ele><time>2026-05-03T08:05:46.834Z</time></trkpt><trkpt lat="45.9359767" lon="8.7650833"><ele>348.4</ele><time>2026-05-03T08:05:47.834Z</time></trkpt><trkpt lat="45.93606" lon="8.76496"><ele>346.2</ele><time>2026-05-03T08:05:48.834Z</time></trkpt><trkpt lat="45.936135" lon="8.7648267"><ele>344.0</ele><time>2026-05-03T08:05:49.834Z</time></trkpt><trkpt lat="45.9361983" lon="8.7646967"><ele>344.0</ele><time>2026-05-03T08:05:50.834Z</time></trkpt><trkpt lat="45.936255" lon="8.764585"><ele>344.0</ele><time>2026-05-03T08:05:51.834Z</time></trkpt><trkpt lat="45.9362933" lon="8.764485"><ele>344.0</ele><time>2026-05-03T08:05:52.833Z</time></trkpt><trkpt lat="45.9363217" lon="8.76439"><ele>344.0</ele><time>2026-05-03T08:05:53.833Z</time></trkpt><trkpt lat="45.936335" lon="8.76429"><ele>344.0</ele><time>2026-05-03T08:05:54.834Z</time></trkpt><trkpt lat="45.93635" lon="8.7641833"><ele>344.0</ele><time>2026-05-03T08:05:55.834Z</time></trkpt><trkpt lat="45.9363667" lon="8.7640667"><ele>345.33333333333337</ele><time>2026-05-03T08:05:56.834Z</time></trkpt><trkpt lat="45.9363883" lon="8.7639517"><ele>346.6666666666667</ele><time>2026-05-03T08:05:57.834Z</time></trkpt><trkpt lat="45.9364267" lon="8.7638383"><ele>348.0</ele><time>2026-05-03T08:05:58.834Z</time></trkpt><trkpt lat="45.9364667" lon="8.7637283"><ele>349.3333333333333</ele><time>2026-05-03T08:05:59.834Z</time></trkpt><trkpt lat="45.9364933" lon="8.763615"><ele>350.66666666666663</ele><time>2026-05-03T08:06:00.834Z</time></trkpt><trkpt lat="45.9364933" lon="8.7634967"><ele>352.0</ele><time>2026-05-03T08:06:01.833Z</time></trkpt><trkpt lat="45.93649" lon="8.76338"><ele>353.8</ele><time>2026-05-03T08:06:02.834Z</time></trkpt><trkpt lat="45.9364767" lon="8.763265"><ele>355.6</ele><time>2026-05-03T08:06:03.833Z</time></trkpt><trkpt lat="45.93645" lon="8.7630967"><ele>357.40000000000003</ele><time>2026-05-03T08:06:05.833Z</time></trkpt><trkpt lat="45.9364383" lon="8.762945"><ele>359.20000000000005</ele><time>2026-05-03T08:06:07.834Z</time></trkpt><trkpt lat="45.93645" lon="8.762835"><ele>361.0</ele><time>2026-05-03T08:06:10.833Z</time></trkpt><trkpt lat="45.93647" lon="8.76274"><ele>361.0</ele><time>2026-05-03T08:06:14.834Z</time></trkpt><trkpt lat="45.9365167" lon="8.7626633"><ele>361.0</ele><time>2026-05-03T08:06:17.834Z</time></trkpt><trkpt lat="45.9365867" lon="8.7625967"><ele>361.0</ele><time>2026-05-03T08:06:20.834Z</time></trkpt><trkpt lat="45.93666" lon="8.7626217"><ele>361.0</ele><time>2026-05-03T08:06:24.833Z</time></trkpt><trkpt lat="45.9366917" lon="8.7627017"><ele>361.0</ele><time>2026-05-03T08:06:26.833Z</time></trkpt><trkpt lat="45.9367333" lon="8.7628033"><ele>361.0</ele><time>2026-05-03T08:06:28.834Z</time></trkpt><trkpt lat="45.9367683" lon="8.7629"><ele>362.0</ele><time>2026-05-03T08:06:30.834Z</time></trkpt><trkpt lat="45.9368667" lon="8.762975"><ele>363.0</ele><time>2026-05-03T08:06:33.833Z</time></trkpt><trkpt lat="45.9369383" lon="8.7631117"><ele>364.0</ele><time>2026-05-03T08:06:35.833Z</time></trkpt><trkpt lat="45.9370383" lon="8.7632483"><ele>365.0</ele><time>2026-05-03T08:06:37.834Z</time></trkpt><trkpt lat="45.9371183" lon="8.7633717"><ele>365.0</ele><time>2026-05-03T08:06:38.834Z</time></trkpt><trkpt lat="45.9371833" lon="8.7634633"><ele>365.0</ele><time>2026-05-03T08:06:39.834Z</time></trkpt><trkpt lat="45.93725" lon="8.7635483"><ele>365.0</ele><time>2026-05-03T08:06:40.834Z</time></trkpt><trkpt lat="45.9373217" lon="8.7636083"><ele>365.0</ele><time>2026-05-03T08:06:41.833Z</time></trkpt><trkpt lat="45.9373833" lon="8.7636433"><ele>365.0</ele><time>2026-05-03T08:06:42.833Z</time></trkpt><trkpt lat="45.937445" lon="8.7636817"><ele>365.0</ele><time>2026-05-03T08:06:43.834Z</time></trkpt><trkpt lat="45.9375583" lon="8.7637033"><ele>362.8</ele><time>2026-05-03T08:06:45.833Z</time></trkpt><trkpt lat="45.9376733" lon="8.7637017"><ele>360.6</ele><time>2026-05-03T08:06:47.834Z</time></trkpt><trkpt lat="45.9377567" lon="8.763685"><ele>358.4</ele><time>2026-05-03T08:06:49.834Z</time></trkpt><trkpt lat="45.9378233" lon="8.76362"><ele>356.2</ele><time>2026-05-03T08:06:51.834Z</time></trkpt><trkpt lat="45.9379117" lon="8.7635483"><ele>354.0</ele><time>2026-05-03T08:06:53.833Z</time></trkpt><trkpt lat="45.9379833" lon="8.76355"><ele>354.0</ele><time>2026-05-03T08:06:55.834Z</time></trkpt><trkpt lat="45.9380383" lon="8.763595"><ele>354.0</ele><time>2026-05-03T08:06:57.834Z</time></trkpt><trkpt lat="45.9380733" lon="8.76375"><ele>354.0</ele><time>2026-05-03T08:06:59.834Z</time></trkpt><trkpt lat="45.938105" lon="8.7638967"><ele>354.0</ele><time>2026-05-03T08:07:01.833Z</time></trkpt><trkpt lat="45.9381383" lon="8.7640267"><ele>354.0</ele><time>2026-05-03T08:07:03.834Z</time></trkpt><trkpt lat="45.938165" lon="8.7641417"><ele>354.0</ele><time>2026-05-03T08:07:06.834Z</time></trkpt><trkpt lat="45.9381933" lon="8.764245"><ele>354.0</ele><time>2026-05-03T08:07:10.834Z</time></trkpt><trkpt lat="45.9382583" lon="8.7642883"><ele>354.0</ele><time>2026-05-03T08:07:15.834Z</time></trkpt><trkpt lat="45.9383733" lon="8.7643267"><ele>354.0</ele><time>2026-05-03T08:07:21.834Z</time></trkpt><trkpt lat="45.938425" lon="8.7644117"><ele>354.0</ele><time>2026-05-03T08:07:26.834Z</time></trkpt><trkpt lat="45.93847" lon="8.7645"><ele>354.0</ele><time>2026-05-03T08:07:30.834Z</time></trkpt><trkpt lat="45.93855" lon="8.764515"><ele>352.42857142857144</ele><time>2026-05-03T08:07:32.834Z</time></trkpt><trkpt lat="45.9386317" lon="8.764505"><ele>350.85714285714283</ele><time>2026-05-03T08:07:35.834Z</time></trkpt><trkpt lat="45.938695" lon="8.7645317"><ele>349.2857142857143</ele><time>2026-05-03T08:07:38.834Z</time></trkpt><trkpt lat="45.9387467" lon="8.7644767"><ele>347.7142857142857</ele><time>2026-05-03T08:07:45.833Z</time></trkpt><trkpt lat="45.938785" lon="8.764375"><ele>346.1428571428571</ele><time>2026-05-03T08:07:48.833Z</time></trkpt><trkpt lat="45.93884" lon="8.7643133"><ele>344.57142857142856</ele><time>2026-05-03T08:07:50.833Z</time></trkpt><trkpt lat="45.93891" lon="8.76425"><ele>343.0</ele><time>2026-05-03T08:07:53.834Z</time></trkpt><trkpt lat="45.9389783" lon="8.7642033"><ele>343.0</ele><time>2026-05-03T08:07:58.833Z</time></trkpt><trkpt lat="45.93906" lon="8.7642117"><ele>343.0</ele><time>2026-05-03T08:08:02.834Z</time></trkpt><trkpt lat="45.9391233" lon="8.76428"><ele>343.0</ele><time>2026-05-03T08:08:05.834Z</time></trkpt><trkpt lat="45.9391667" lon="8.7643617"><ele>343.0</ele><time>2026-05-03T08:08:08.833Z</time></trkpt><trkpt lat="45.9391983" lon="8.764485"><ele>343.0</ele><time>2026-05-03T08:08:11.834Z</time></trkpt><trkpt lat="45.9391967" lon="8.7645817"><ele>343.0</ele><time>2026-05-03T08:08:13.834Z</time></trkpt><trkpt lat="45.9391833" lon="8.7646767"><ele>341.42857142857144</ele><time>2026-05-03T08:08:15.834Z</time></trkpt><trkpt lat="45.939145" lon="8.7647817"><ele>339.8571428571429</ele><time>2026-05-03T08:08:17.833Z</time></trkpt><trkpt lat="45.939085" lon="8.76487"><ele>338.2857142857143</ele><time>2026-05-03T08:08:19.833Z</time></trkpt><trkpt lat="45.9390467" lon="8.7649433"><ele>336.7142857142857</ele><time>2026-05-03T08:08:21.834Z</time></trkpt><trkpt lat="45.9390133" lon="8.7650267"><ele>335.14285714285717</ele><time>2026-05-03T08:08:23.834Z</time></trkpt><trkpt lat="45.9389983" lon="8.7651183"><ele>333.57142857142856</ele><time>2026-05-03T08:08:25.834Z</time></trkpt><trkpt lat="45.9390033" lon="8.7652367"><ele>332.0</ele><time>2026-05-03T08:08:28.834Z</time></trkpt><trkpt lat="45.9390083" lon="8.7653383"><ele>330.2857142857143</ele><time>2026-05-03T08:08:31.834Z</time></trkpt><trkpt lat="45.9390417" lon="8.7654167"><ele>328.5714285714286</ele><time>2026-05-03T08:08:36.833Z</time></trkpt><trkpt lat="45.9390933" lon="8.7654933"><ele>326.8571428571429</ele><time>2026-05-03T08:08:40.834Z</time></trkpt><trkpt lat="45.9391233" lon="8.7656183"><ele>325.1428571428571</ele><time>2026-05-03T08:08:44.834Z</time></trkpt><trkpt lat="45.93912" lon="8.7657183"><ele>323.42857142857144</ele><time>2026-05-03T08:08:47.834Z</time></trkpt><trkpt lat="45.93918" lon="8.7657667"><ele>321.7142857142857</ele><time>2026-05-03T08:08:52.834Z</time></trkpt><trkpt lat="45.9392533" lon="8.7657183"><ele>320.0</ele><time>2026-05-03T08:08:55.834Z</time></trkpt><trkpt lat="45.939345" lon="8.7656967"><ele>319.6666666666667</ele><time>2026-05-03T08:08:58.834Z</time></trkpt><trkpt lat="45.9394083" lon="8.76569"><ele>319.33333333333337</ele><time>2026-05-03T08:09:00.833Z</time></trkpt><trkpt lat="45.9394733" lon="8.7657133"><ele>319.0</ele><time>2026-05-03T08:09:02.833Z</time></trkpt><trkpt lat="45.9395333" lon="8.76576"><ele>318.6666666666667</ele><time>2026-05-03T08:09:04.834Z</time></trkpt><trkpt lat="45.93959" lon="8.76585"><ele>318.3333333333333</ele><time>2026-05-03T08:09:06.834Z</time></trkpt><trkpt lat="45.9396383" lon="8.765945"><ele>318.0</ele><time>2026-05-03T08:09:08.834Z</time></trkpt><trkpt lat="45.939715" lon="8.7660517"><ele>318.0</ele><time>2026-05-03T08:09:10.834Z</time></trkpt><trkpt lat="45.939795" lon="8.766035"><ele>318.0</ele><time>2026-05-03T08:09:12.834Z</time></trkpt><trkpt lat="45.9398733" lon="8.765985"><ele>318.0</ele><time>2026-05-03T08:09:14.833Z</time></trkpt><trkpt lat="45.9399283" lon="8.765905"><ele>318.0</ele><time>2026-05-03T08:09:16.834Z</time></trkpt><trkpt lat="45.9399633" lon="8.7657933"><ele>318.0</ele><time>2026-05-03T08:09:18.834Z</time></trkpt><trkpt lat="45.9399983" lon="8.7656567"><ele>318.0</ele><time>2026-05-03T08:09:20.834Z</time></trkpt><trkpt lat="45.940025" lon="8.7655283"><ele>318.6</ele><time>2026-05-03T08:09:22.834Z</time></trkpt><trkpt lat="45.9400617" lon="8.7654083"><ele>319.20000000000005</ele><time>2026-05-03T08:09:24.834Z</time></trkpt><trkpt lat="45.94014" lon="8.7652517"><ele>319.8</ele><time>2026-05-03T08:09:26.834Z</time></trkpt><trkpt lat="45.94019" lon="8.7651817"><ele>320.40000000000003</ele><time>2026-05-03T08:09:27.834Z</time></trkpt><trkpt lat="45.940235" lon="8.7651183"><ele>321.0</ele><time>2026-05-03T08:09:28.834Z</time></trkpt><trkpt lat="45.9403417" lon="8.76505"><ele>322.20000000000005</ele><time>2026-05-03T08:09:30.834Z</time></trkpt><trkpt lat="45.940405" lon="8.7650333"><ele>323.40000000000003</ele><time>2026-05-03T08:09:31.834Z</time></trkpt><trkpt lat="45.9405283" lon="8.7649833"><ele>324.6</ele><time>2026-05-03T08:09:33.834Z</time></trkpt><trkpt lat="45.9406317" lon="8.764915"><ele>325.8</ele><time>2026-05-03T08:09:35.833Z</time></trkpt><trkpt lat="45.940735" lon="8.7649317"><ele>327.0</ele><time>2026-05-03T08:09:37.833Z</time></trkpt><trkpt lat="45.940845" lon="8.7649767"><ele>326.6666666666667</ele><time>2026-05-03T08:09:39.834Z</time></trkpt><trkpt lat="45.9409517" lon="8.7650083"><ele>326.3333333333333</ele><time>2026-05-03T08:09:41.833Z</time></trkpt><trkpt lat="45.9410433" lon="8.765005"><ele>326.0</ele><time>2026-05-03T08:09:43.834Z</time></trkpt><trkpt lat="45.9411167" lon="8.7649467"><ele>325.66666666666663</ele><time>2026-05-03T08:09:46.834Z</time></trkpt><trkpt lat="45.941165" lon="8.7648467"><ele>325.3333333333333</ele><time>2026-05-03T08:09:48.833Z</time></trkpt><trkpt lat="45.94119" lon="8.7647633"><ele>325.0</ele><time>2026-05-03T08:09:49.833Z</time></trkpt><trkpt lat="45.9412217" lon="8.7646467"><ele>325.0</ele><time>2026-05-03T08:09:51.833Z</time></trkpt><trkpt lat="45.94127" lon="8.7645517"><ele>325.0</ele><time>2026-05-03T08:09:53.833Z</time></trkpt><trkpt lat="45.941315" lon="8.764485"><ele>325.0</ele><time>2026-05-03T08:09:55.832Z</time></trkpt><trkpt lat="45.94139" lon="8.7644217"><ele>325.0</ele><time>2026-05-03T08:09:58.833Z</time></trkpt><trkpt lat="45.9414517" lon="8.7643683"><ele>325.0</ele><time>2026-05-03T08:10:00.833Z</time></trkpt><trkpt lat="45.9415166" lon="8.7642716"><ele>325.0</ele><time>2026-05-03T08:10:03.775Z</time></trkpt><trkpt lat="45.9415901" lon="8.7641878"><ele>326.16666666666663</ele><time>2026-05-03T08:10:05.888Z</time></trkpt><trkpt lat="45.9416483" lon="8.7641"><ele>327.3333333333333</ele><time>2026-05-03T08:10:06.833Z</time></trkpt><trkpt lat="45.9417217" lon="8.7640183"><ele>328.5</ele><time>2026-05-03T08:10:09.832Z</time></trkpt><trkpt lat="45.9417333" lon="8.763915"><ele>329.6666666666667</ele><time>2026-05-03T08:10:14.832Z</time></trkpt><trkpt lat="45.9416833" lon="8.7638317"><ele>330.83333333333337</ele><time>2026-05-03T08:10:17.833Z</time></trkpt><trkpt lat="45.9416183" lon="8.7637783"><ele>332.0</ele><time>2026-05-03T08:10:19.833Z</time></trkpt><trkpt lat="45.9415467" lon="8.763735"><ele>332.0</ele><time>2026-05-03T08:10:21.833Z</time></trkpt><trkpt lat="45.9414567" lon="8.76371"><ele>332.0</ele><time>2026-05-03T08:10:23.833Z</time></trkpt><trkpt lat="45.9413767" lon="8.7636567"><ele>332.0</ele><time>2026-05-03T08:10:26.833Z</time></trkpt><trkpt lat="45.9413267" lon="8.7635683"><ele>332.0</ele><time>2026-05-03T08:10:28.832Z</time></trkpt><trkpt lat="45.94126" lon="8.76346"><ele>332.0</ele><time>2026-05-03T08:10:30.833Z</time></trkpt><trkpt lat="45.94121" lon="8.7633533"><ele>332.0</ele><time>2026-05-03T08:10:32.833Z</time></trkpt><trkpt lat="45.9411333" lon="8.7632383"><ele>333.8</ele><time>2026-05-03T08:10:34.832Z</time></trkpt><trkpt lat="45.941035" lon="8.763105"><ele>335.6</ele><time>2026-05-03T08:10:36.833Z</time></trkpt><trkpt lat="45.9409567" lon="8.7629883"><ele>337.40000000000003</ele><time>2026-05-03T08:10:38.833Z</time></trkpt><trkpt lat="45.9409183" lon="8.7629017"><ele>339.20000000000005</ele><time>2026-05-03T08:10:39.833Z</time></trkpt><trkpt lat="45.940895" lon="8.7627967"><ele>341.0</ele><time>2026-05-03T08:10:40.833Z</time></trkpt><trkpt lat="45.9408783" lon="8.7626883"><ele>343.0</ele><time>2026-05-03T08:10:41.833Z</time></trkpt><trkpt lat="45.9408617" lon="8.7625967"><ele>345.0</ele><time>2026-05-03T08:10:42.833Z</time></trkpt><trkpt lat="45.9408383" lon="8.7624467"><ele>347.0</ele><time>2026-05-03T08:10:44.833Z</time></trkpt><trkpt lat="45.94085" lon="8.76234"><ele>349.0</ele><time>2026-05-03T08:10:46.832Z</time></trkpt><trkpt lat="45.94092" lon="8.7622217"><ele>351.0</ele><time>2026-05-03T08:10:48.832Z</time></trkpt><trkpt lat="45.9410267" lon="8.7621367"><ele>351.0</ele><time>2026-05-03T08:10:50.833Z</time></trkpt><trkpt lat="45.9411333" lon="8.7620433"><ele>351.0</ele><time>2026-05-03T08:10:52.833Z</time></trkpt><trkpt lat="45.9411967" lon="8.76199"><ele>351.0</ele><time>2026-05-03T08:10:54.833Z</time></trkpt><trkpt lat="45.9412533" lon="8.7620833"><ele>351.0</ele><time>2026-05-03T08:11:53.833Z</time></trkpt><trkpt lat="45.941305" lon="8.7621467"><ele>351.0</ele><time>2026-05-03T08:11:55.833Z</time></trkpt><trkpt lat="45.941395" lon="8.7621883"><ele>351.0</ele><time>2026-05-03T08:11:57.833Z</time></trkpt><trkpt lat="45.9414733" lon="8.762195"><ele>351.0</ele><time>2026-05-03T08:11:59.833Z</time></trkpt><trkpt lat="45.9415617" lon="8.7621533"><ele>351.0</ele><time>2026-05-03T08:12:01.833Z</time></trkpt><trkpt lat="45.9416083" lon="8.7620767"><ele>351.0</ele><time>2026-05-03T08:12:03.833Z</time></trkpt><trkpt lat="45.9416533" lon="8.76198"><ele>351.0</ele><time>2026-05-03T08:12:05.833Z</time></trkpt><trkpt lat="45.9416883" lon="8.7618867"><ele>351.0</ele><time>2026-05-03T08:12:07.833Z</time></trkpt><trkpt lat="45.9417133" lon="8.7617"><ele>349.75</ele><time>2026-05-03T08:12:09.832Z</time></trkpt><trkpt lat="45.9417417" lon="8.7615367"><ele>348.5</ele><time>2026-05-03T08:12:10.833Z</time></trkpt><trkpt lat="45.94175" lon="8.7613767"><ele>347.25</ele><time>2026-05-03T08:12:11.833Z</time></trkpt><trkpt lat="45.94175" lon="8.7612217"><ele>346.0</ele><time>2026-05-03T08:12:12.833Z</time></trkpt><trkpt lat="45.9417667" lon="8.7610317"><ele>346.0</ele><time>2026-05-03T08:12:13.833Z</time></trkpt><trkpt lat="45.9417683" lon="8.76089"><ele>346.0</ele><time>2026-05-03T08:12:14.832Z</time></trkpt><trkpt lat="45.9417817" lon="8.76077"><ele>346.0</ele><time>2026-05-03T08:12:15.833Z</time></trkpt><trkpt lat="45.9417967" lon="8.7606583"><ele>346.0</ele><time>2026-05-03T08:12:16.833Z</time></trkpt><trkpt lat="45.9418167" lon="8.7605333"><ele>346.0</ele><time>2026-05-03T08:12:17.833Z</time></trkpt><trkpt lat="45.9418283" lon="8.76042"><ele>346.0</ele><time>2026-05-03T08:12:18.833Z</time></trkpt><trkpt lat="45.9418533" lon="8.76032"><ele>346.0</ele><time>2026-05-03T08:12:19.833Z</time></trkpt><trkpt lat="45.94188" lon="8.7602133"><ele>346.0</ele><time>2026-05-03T08:12:20.833Z</time></trkpt><trkpt lat="45.94191" lon="8.7601117"><ele>346.0</ele><time>2026-05-03T08:12:21.832Z</time></trkpt><trkpt lat="45.941935" lon="8.760015"><ele>346.0</ele><time>2026-05-03T08:12:22.833Z</time></trkpt><trkpt lat="45.94196" lon="8.7599217"><ele>346.0</ele><time>2026-05-03T08:12:23.832Z</time></trkpt><trkpt lat="45.94198" lon="8.7597517"><ele>346.0</ele><time>2026-05-03T08:12:25.833Z</time></trkpt><trkpt lat="45.941985" lon="8.7595917"><ele>346.8333333333333</ele><time>2026-05-03T08:12:27.833Z</time></trkpt><trkpt lat="45.941985" lon="8.7594483"><ele>347.66666666666663</ele><time>2026-05-03T08:12:29.832Z</time></trkpt><trkpt lat="45.9419733" lon="8.7593517"><ele>348.5</ele><time>2026-05-03T08:12:31.832Z</time></trkpt><trkpt lat="45.9419667" lon="8.7592567"><ele>349.3333333333333</ele><time>2026-05-03T08:12:34.833Z</time></trkpt><trkpt lat="45.9420317" lon="8.75923"><ele>350.1666666666667</ele><time>2026-05-03T08:12:38.832Z</time></trkpt><trkpt lat="45.9421267" lon="8.75923"><ele>351.0</ele><time>2026-05-03T08:12:40.833Z</time></trkpt><trkpt lat="45.9422417" lon="8.7592367"><ele>351.0</ele><time>2026-05-03T08:12:42.833Z</time></trkpt><trkpt lat="45.9423133" lon="8.7592617"><ele>351.0</ele><time>2026-05-03T08:12:43.832Z</time></trkpt><trkpt lat="45.942385" lon="8.7593083"><ele>351.0</ele><time>2026-05-03T08:12:44.832Z</time></trkpt><trkpt lat="45.94247" lon="8.7593733"><ele>351.0</ele><time>2026-05-03T08:12:45.833Z</time></trkpt><trkpt lat="45.942545" lon="8.7594567"><ele>351.0</ele><time>2026-05-03T08:12:46.833Z</time></trkpt><trkpt lat="45.9426133" lon="8.7595767"><ele>351.5</ele><time>2026-05-03T08:12:47.833Z</time></trkpt><trkpt lat="45.9426583" lon="8.7596933"><ele>352.0</ele><time>2026-05-03T08:12:48.832Z</time></trkpt><trkpt lat="45.942685" lon="8.7598067"><ele>352.5</ele><time>2026-05-03T08:12:49.832Z</time></trkpt><trkpt lat="45.9426967" lon="8.7599283"><ele>353.0</ele><time>2026-05-03T08:12:50.833Z</time></trkpt><trkpt lat="45.9426983" lon="8.7600583"><ele>353.5</ele><time>2026-05-03T08:12:51.833Z</time></trkpt><trkpt lat="45.9426833" lon="8.7601883"><ele>354.0</ele><time>2026-05-03T08:12:52.833Z</time></trkpt><trkpt lat="45.9426633" lon="8.7603267"><ele>353.0</ele><time>2026-05-03T08:12:53.833Z</time></trkpt><trkpt lat="45.9426467" lon="8.76045"><ele>352.0</ele><time>2026-05-03T08:12:54.832Z</time></trkpt><trkpt lat="45.9426483" lon="8.760565"><ele>351.0</ele><time>2026-05-03T08:12:55.833Z</time></trkpt><trkpt lat="45.9426733" lon="8.7606667"><ele>350.0</ele><time>2026-05-03T08:12:56.833Z</time></trkpt><trkpt lat="45.942725" lon="8.7607567"><ele>349.0</ele><time>2026-05-03T08:12:57.833Z</time></trkpt><trkpt lat="45.9428033" lon="8.7608233"><ele>348.0</ele><time>2026-05-03T08:12:58.832Z</time></trkpt><trkpt lat="45.9428917" lon="8.76089"><ele>348.0</ele><time>2026-05-03T08:12:59.833Z</time></trkpt><trkpt lat="45.9429733" lon="8.7609567"><ele>348.0</ele><time>2026-05-03T08:13:00.833Z</time></trkpt><trkpt lat="45.9430417" lon="8.7610333"><ele>348.0</ele><time>2026-05-03T08:13:01.833Z</time></trkpt><trkpt lat="45.9430983" lon="8.761145"><ele>348.0</ele><time>2026-05-03T08:13:02.833Z</time></trkpt><trkpt lat="45.9431483" lon="8.7612717"><ele>348.0</ele><time>2026-05-03T08:13:03.833Z</time></trkpt><trkpt lat="45.94319" lon="8.761395"><ele>346.6666666666667</ele><time>2026-05-03T08:13:04.833Z</time></trkpt><trkpt lat="45.94323" lon="8.761515"><ele>345.3333333333333</ele><time>2026-05-03T08:13:05.833Z</time></trkpt><trkpt lat="45.9432783" lon="8.76162"><ele>344.0</ele><time>2026-05-03T08:13:06.833Z</time></trkpt><trkpt lat="45.94333" lon="8.7617033"><ele>342.66666666666663</ele><time>2026-05-03T08:13:07.833Z</time></trkpt><trkpt lat="45.9433967" lon="8.7617583"><ele>341.3333333333333</ele><time>2026-05-03T08:13:08.833Z</time></trkpt><trkpt lat="45.943475" lon="8.7617883"><ele>340.0</ele><time>2026-05-03T08:13:09.832Z</time></trkpt><trkpt lat="45.94357" lon="8.7617917"><ele>337.3333333333333</ele><time>2026-05-03T08:13:10.833Z</time></trkpt><trkpt lat="45.9436717" lon="8.7617867"><ele>334.66666666666663</ele><time>2026-05-03T08:13:11.832Z</time></trkpt><trkpt lat="45.9437733" lon="8.7617833"><ele>332.0</ele><time>2026-05-03T08:13:12.833Z</time></trkpt><trkpt lat="45.9438567" lon="8.7617667"><ele>329.3333333333333</ele><time>2026-05-03T08:13:13.832Z</time></trkpt><trkpt lat="45.9439233" lon="8.7617217"><ele>326.6666666666667</ele><time>2026-05-03T08:13:14.833Z</time></trkpt><trkpt lat="45.9439817" lon="8.7616467"><ele>324.0</ele><time>2026-05-03T08:13:15.833Z</time></trkpt><trkpt lat="45.944035" lon="8.7615483"><ele>324.0</ele><time>2026-05-03T08:13:16.833Z</time></trkpt><trkpt lat="45.9440867" lon="8.761405"><ele>324.0</ele><time>2026-05-03T08:13:17.833Z</time></trkpt><trkpt lat="45.9441317" lon="8.7612567"><ele>324.0</ele><time>2026-05-03T08:13:18.832Z</time></trkpt><trkpt lat="45.9441783" lon="8.7611117"><ele>324.0</ele><time>2026-05-03T08:13:19.833Z</time></trkpt><trkpt lat="45.94423" lon="8.7609833"><ele>324.0</ele><time>2026-05-03T08:13:20.833Z</time></trkpt><trkpt lat="45.9442883" lon="8.7608833"><ele>319.1666666666667</ele><time>2026-05-03T08:13:21.833Z</time></trkpt><trkpt lat="45.9443533" lon="8.7608033"><ele>314.3333333333333</ele><time>2026-05-03T08:13:22.833Z</time></trkpt><trkpt lat="45.9444117" lon="8.7607417"><ele>309.5</ele><time>2026-05-03T08:13:23.833Z</time></trkpt><trkpt lat="45.9444583" lon="8.760655"><ele>304.66666666666663</ele><time>2026-05-03T08:13:24.833Z</time></trkpt><trkpt lat="45.9445017" lon="8.76055"><ele>299.8333333333333</ele><time>2026-05-03T08:13:25.832Z</time></trkpt><trkpt lat="45.944545" lon="8.7604133"><ele>295.0</ele><time>2026-05-03T08:13:26.833Z</time></trkpt><trkpt lat="45.9445833" lon="8.7602733"><ele>296.4</ele><time>2026-05-03T08:13:27.833Z</time></trkpt><trkpt lat="45.9446017" lon="8.7601267"><ele>297.8</ele><time>2026-05-03T08:13:28.833Z</time></trkpt><trkpt lat="45.944615" lon="8.7599733"><ele>299.2</ele><time>2026-05-03T08:13:29.833Z</time></trkpt><trkpt lat="45.944645" lon="8.7598317"><ele>300.6</ele><time>2026-05-03T08:13:30.833Z</time></trkpt><trkpt lat="45.9446833" lon="8.7596883"><ele>302.0</ele><time>2026-05-03T08:13:31.832Z</time></trkpt><trkpt lat="45.9447217" lon="8.7595467"><ele>302.0</ele><time>2026-05-03T08:13:32.833Z</time></trkpt><trkpt lat="45.944765" lon="8.7594033"><ele>302.0</ele><time>2026-05-03T08:13:33.832Z</time></trkpt><trkpt lat="45.9448117" lon="8.7592433"><ele>302.0</ele><time>2026-05-03T08:13:34.833Z</time></trkpt><trkpt lat="45.94484" lon="8.7590767"><ele>302.0</ele><time>2026-05-03T08:13:35.833Z</time></trkpt><trkpt lat="45.9448583" lon="8.758905"><ele>302.0</ele><time>2026-05-03T08:13:36.833Z</time></trkpt><trkpt lat="45.9448683" lon="8.7587483"><ele>302.0</ele><time>2026-05-03T08:13:37.833Z</time></trkpt><trkpt lat="45.9448867" lon="8.7586117"><ele>302.0</ele><time>2026-05-03T08:13:38.833Z</time></trkpt><trkpt lat="45.944905" lon="8.7585117"><ele>302.0</ele><time>2026-05-03T08:13:39.833Z</time></trkpt><trkpt lat="45.9449683" lon="8.7584333"><ele>302.0</ele><time>2026-05-03T08:13:41.833Z</time></trkpt><trkpt lat="45.9450867" lon="8.75852"><ele>300.6666666666667</ele><time>2026-05-03T08:13:43.832Z</time></trkpt><trkpt lat="45.9451467" lon="8.7586217"><ele>299.33333333333337</ele><time>2026-05-03T08:13:44.833Z</time></trkpt><trkpt lat="45.9452233" lon="8.75872"><ele>298.0</ele><time>2026-05-03T08:13:45.833Z</time></trkpt><trkpt lat="45.9452967" lon="8.758795"><ele>296.6666666666667</ele><time>2026-05-03T08:13:46.833Z</time></trkpt><trkpt lat="45.9453617" lon="8.7588533"><ele>295.3333333333333</ele><time>2026-05-03T08:13:47.832Z</time></trkpt><trkpt lat="45.9454233" lon="8.758895"><ele>294.0</ele><time>2026-05-03T08:13:48.833Z</time></trkpt><trkpt lat="45.9455417" lon="8.7589267"><ele>294.0</ele><time>2026-05-03T08:13:50.833Z</time></trkpt><trkpt lat="45.945605" lon="8.758935"><ele>294.0</ele><time>2026-05-03T08:13:51.833Z</time></trkpt><trkpt lat="45.9457183" lon="8.7589467"><ele>294.0</ele><time>2026-05-03T08:13:53.833Z</time></trkpt><trkpt lat="45.9458" lon="8.7589483"><ele>294.0</ele><time>2026-05-03T08:13:55.832Z</time></trkpt><trkpt lat="45.9459083" lon="8.758925"><ele>294.0</ele><time>2026-05-03T08:13:57.832Z</time></trkpt><trkpt lat="45.9460267" lon="8.7588417"><ele>290.8</ele><time>2026-05-03T08:13:59.833Z</time></trkpt><trkpt lat="45.9460933" lon="8.7587783"><ele>287.59999999999997</ele><time>2026-05-03T08:14:00.832Z</time></trkpt><trkpt lat="45.94615" lon="8.7587133"><ele>284.4</ele><time>2026-05-03T08:14:01.833Z</time></trkpt><trkpt lat="45.9462283" lon="8.7585933"><ele>281.2</ele><time>2026-05-03T08:14:03.833Z</time></trkpt><trkpt lat="45.9462833" lon="8.75845"><ele>278.0</ele><time>2026-05-03T08:14:05.833Z</time></trkpt><trkpt lat="45.9463717" lon="8.7583367"><ele>278.0</ele><time>2026-05-03T08:14:07.833Z</time></trkpt><trkpt lat="45.9464467" lon="8.7583167"><ele>278.0</ele><time>2026-05-03T08:14:08.833Z</time></trkpt><trkpt lat="45.94653" lon="8.758305"><ele>278.0</ele><time>2026-05-03T08:14:09.833Z</time></trkpt><trkpt lat="45.9466217" lon="8.758285"><ele>278.0</ele><time>2026-05-03T08:14:10.833Z</time></trkpt><trkpt lat="45.94671" lon="8.7582517"><ele>278.0</ele><time>2026-05-03T08:14:11.833Z</time></trkpt><trkpt lat="45.946805" lon="8.7582017"><ele>278.0</ele><time>2026-05-03T08:14:12.833Z</time></trkpt><trkpt lat="45.9468883" lon="8.75818"><ele>276.8</ele><time>2026-05-03T08:14:13.833Z</time></trkpt><trkpt lat="45.9469967" lon="8.7581933"><ele>275.6</ele><time>2026-05-03T08:14:15.833Z</time></trkpt><trkpt lat="45.9470433" lon="8.7582633"><ele>274.4</ele><time>2026-05-03T08:14:16.833Z</time></trkpt><trkpt lat="45.9470967" lon="8.75837"><ele>273.2</ele><time>2026-05-03T08:14:17.833Z</time></trkpt><trkpt lat="45.9471483" lon="8.7584783"><ele>272.0</ele><time>2026-05-03T08:14:18.833Z</time></trkpt><trkpt lat="45.9472133" lon="8.7585883"><ele>271.6666666666667</ele><time>2026-05-03T08:14:19.833Z</time></trkpt><trkpt lat="45.9472733" lon="8.7587017"><ele>271.33333333333337</ele><time>2026-05-03T08:14:20.833Z</time></trkpt><trkpt lat="45.9473233" lon="8.758805"><ele>271.0</ele><time>2026-05-03T08:14:21.833Z</time></trkpt><trkpt lat="45.94737" lon="8.7588883"><ele>270.6666666666667</ele><time>2026-05-03T08:14:22.832Z</time></trkpt><trkpt lat="45.9474183" lon="8.7589483"><ele>270.3333333333333</ele><time>2026-05-03T08:14:23.833Z</time></trkpt><trkpt lat="45.9474883" lon="8.7589617"><ele>270.0</ele><time>2026-05-03T08:14:24.833Z</time></trkpt><trkpt lat="45.9475633" lon="8.75894"><ele>270.0</ele><time>2026-05-03T08:14:25.833Z</time></trkpt><trkpt lat="45.9476267" lon="8.7589067"><ele>270.0</ele><time>2026-05-03T08:14:26.833Z</time></trkpt><trkpt lat="45.9477033" lon="8.7588283"><ele>270.0</ele><time>2026-05-03T08:14:28.833Z</time></trkpt><trkpt lat="45.9477383" lon="8.7587433"><ele>270.0</ele><time>2026-05-03T08:14:31.833Z</time></trkpt><trkpt lat="45.947725" lon="8.75864"><ele>270.0</ele><time>2026-05-03T08:14:33.833Z</time></trkpt><trkpt lat="45.9477" lon="8.7585083"><ele>270.0</ele><time>2026-05-03T08:14:35.833Z</time></trkpt><trkpt lat="45.9477717" lon="8.758625"><ele>270.0</ele><time>2026-05-03T08:16:01.833Z</time></trkpt><trkpt lat="45.947781" lon="8.7587158"><ele>270.0</ele><time>2026-05-03T08:16:23.854Z</time></trkpt><trkpt lat="45.9477616" lon="8.758807"><ele>270.0</ele><time>2026-05-03T08:16:38.862Z</time></trkpt><trkpt lat="45.9478043" lon="8.7587166"><ele>270.0</ele><time>2026-05-03T08:30:51.9Z</time></trkpt><trkpt lat="45.9477951" lon="8.7586251"><ele>270.0</ele><time>2026-05-03T08:30:57.882Z</time></trkpt><trkpt lat="45.9477367" lon="8.7586833"><ele>270.0</ele><time>2026-05-03T08:32:58.832Z</time></trkpt><trkpt lat="45.9476733" lon="8.758775"><ele>270.0</ele><time>2026-05-03T08:33:00.832Z</time></trkpt><trkpt lat="45.9476167" lon="8.7588383"><ele>270.0</ele><time>2026-05-03T08:33:02.832Z</time></trkpt><trkpt lat="45.94756" lon="8.7589017"><ele>270.0</ele><time>2026-05-03T08:33:04.831Z</time></trkpt><trkpt lat="45.9475033" lon="8.758975"><ele>270.0</ele><time>2026-05-03T08:33:06.831Z</time></trkpt><trkpt lat="45.9474767" lon="8.7591017"><ele>270.0</ele><time>2026-05-03T08:33:08.832Z</time></trkpt><trkpt lat="45.9474783" lon="8.7592933"><ele>270.0</ele><time>2026-05-03T08:33:10.832Z</time></trkpt><trkpt lat="45.9474883" lon="8.7594083"><ele>269.0</ele><time>2026-05-03T08:33:11.832Z</time></trkpt><trkpt lat="45.947505" lon="8.75966"><ele>268.0</ele><time>2026-05-03T08:33:13.832Z</time></trkpt><trkpt lat="45.947515" lon="8.7598067"><ele>267.0</ele><time>2026-05-03T08:33:14.832Z</time></trkpt><trkpt lat="45.9475183" lon="8.7599767"><ele>266.0</ele><time>2026-05-03T08:33:15.832Z</time></trkpt><trkpt lat="45.9475183" lon="8.760145"><ele>265.6</ele><time>2026-05-03T08:33:16.832Z</time></trkpt><trkpt lat="45.9475117" lon="8.7602983"><ele>265.20000000000005</ele><time>2026-05-03T08:33:17.832Z</time></trkpt><trkpt lat="45.9474933" lon="8.7604483"><ele>264.79999999999995</ele><time>2026-05-03T08:33:18.832Z</time></trkpt><trkpt lat="45.947455" lon="8.7605917"><ele>264.4</ele><time>2026-05-03T08:33:19.832Z</time></trkpt><trkpt lat="45.9474" lon="8.76075"><ele>264.0</ele><time>2026-05-03T08:33:20.832Z</time></trkpt><trkpt lat="45.947325" lon="8.76091"><ele>263.0</ele><time>2026-05-03T08:33:21.832Z</time></trkpt><trkpt lat="45.9472533" lon="8.7610733"><ele>262.0</ele><time>2026-05-03T08:33:22.831Z</time></trkpt><trkpt lat="45.9471817" lon="8.7612233"><ele>261.0</ele><time>2026-05-03T08:33:23.832Z</time></trkpt><trkpt lat="45.947125" lon="8.76136"><ele>260.0</ele><time>2026-05-03T08:33:24.832Z</time></trkpt><trkpt lat="45.9470583" lon="8.7614717"><ele>260.0</ele><time>2026-05-03T08:33:25.832Z</time></trkpt><trkpt lat="45.9469883" lon="8.761585"><ele>260.0</ele><time>2026-05-03T08:33:26.832Z</time></trkpt><trkpt lat="45.9469267" lon="8.761695"><ele>260.0</ele><time>2026-05-03T08:33:27.832Z</time></trkpt><trkpt lat="45.9468817" lon="8.7618117"><ele>260.0</ele><time>2026-05-03T08:33:28.831Z</time></trkpt><trkpt lat="45.946855" lon="8.761925"><ele>260.0</ele><time>2026-05-03T08:33:29.831Z</time></trkpt><trkpt lat="45.9468567" lon="8.7620567"><ele>259.5</ele><time>2026-05-03T08:33:30.832Z</time></trkpt><trkpt lat="45.9468817" lon="8.762215"><ele>259.0</ele><time>2026-05-03T08:33:31.831Z</time></trkpt><trkpt lat="45.946915" lon="8.7623917"><ele>258.5</ele><time>2026-05-03T08:33:32.831Z</time></trkpt><trkpt lat="45.9469517" lon="8.7625767"><ele>258.0</ele><time>2026-05-03T08:33:33.832Z</time></trkpt><trkpt lat="45.9469883" lon="8.7627767"><ele>257.5</ele><time>2026-05-03T08:33:34.832Z</time></trkpt><trkpt lat="45.9470233" lon="8.7629817"><ele>257.0</ele><time>2026-05-03T08:33:35.832Z</time></trkpt><trkpt lat="45.947065" lon="8.7631817"><ele>256.5</ele><time>2026-05-03T08:33:36.832Z</time></trkpt><trkpt lat="45.9470933" lon="8.76337"><ele>256.0</ele><time>2026-05-03T08:33:37.832Z</time></trkpt><trkpt lat="45.9471267" lon="8.7635717"><ele>254.66666666666666</ele><time>2026-05-03T08:33:38.832Z</time></trkpt><trkpt lat="45.9471567" lon="8.76378"><ele>253.33333333333331</ele><time>2026-05-03T08:33:39.832Z</time></trkpt><trkpt lat="45.9471933" lon="8.763995"><ele>252.0</ele><time>2026-05-03T08:33:40.832Z</time></trkpt><trkpt lat="45.9472233" lon="8.7642083"><ele>251.25</ele><time>2026-05-03T08:33:41.832Z</time></trkpt><trkpt lat="45.9472617" lon="8.7644"><ele>250.5</ele><time>2026-05-03T08:33:42.831Z</time></trkpt><trkpt lat="45.947295" lon="8.7645967"><ele>249.75</ele><time>2026-05-03T08:33:43.832Z</time></trkpt><trkpt lat="45.9473283" lon="8.7647983"><ele>249.0</ele><time>2026-05-03T08:33:44.832Z</time></trkpt><trkpt lat="45.947365" lon="8.7649833"><ele>249.0</ele><time>2026-05-03T08:33:45.831Z</time></trkpt><trkpt lat="45.9474067" lon="8.7651667"><ele>249.0</ele><time>2026-05-03T08:33:46.832Z</time></trkpt><trkpt lat="45.9474333" lon="8.7653383"><ele>249.0</ele><time>2026-05-03T08:33:47.832Z</time></trkpt><trkpt lat="45.947455" lon="8.7654933"><ele>249.0</ele><time>2026-05-03T08:33:48.831Z</time></trkpt><trkpt lat="45.9474817" lon="8.7656467"><ele>249.0</ele><time>2026-05-03T08:33:49.831Z</time></trkpt><trkpt lat="45.9475133" lon="8.7658"><ele>249.0</ele><time>2026-05-03T08:33:50.832Z</time></trkpt><trkpt lat="45.9475483" lon="8.765965"><ele>249.0</ele><time>2026-05-03T08:33:51.832Z</time></trkpt><trkpt lat="45.9475783" lon="8.7661367"><ele>249.0</ele><time>2026-05-03T08:33:52.832Z</time></trkpt><trkpt lat="45.9476067" lon="8.7662933"><ele>247.79999999999998</ele><time>2026-05-03T08:33:53.832Z</time></trkpt><trkpt lat="45.9476383" lon="8.7664367"><ele>246.59999999999997</ele><time>2026-05-03T08:33:54.832Z</time></trkpt><trkpt lat="45.9476717" lon="8.7665733"><ele>245.4</ele><time>2026-05-03T08:33:55.832Z</time></trkpt><trkpt lat="45.947705" lon="8.7666983"><ele>244.2</ele><time>2026-05-03T08:33:56.831Z</time></trkpt><trkpt lat="45.947735" lon="8.7668333"><ele>243.0</ele><time>2026-05-03T08:33:57.832Z</time></trkpt><trkpt lat="45.9477517" lon="8.7669567"><ele>242.71428571428572</ele><time>2026-05-03T08:33:58.832Z</time></trkpt><trkpt lat="45.9477717" lon="8.767075"><ele>242.42857142857144</ele><time>2026-05-03T08:33:59.831Z</time></trkpt><trkpt lat="45.9477917" lon="8.7671883"><ele>242.14285714285717</ele><time>2026-05-03T08:34:00.832Z</time></trkpt><trkpt lat="45.9478033" lon="8.767295"><ele>241.85714285714286</ele><time>2026-05-03T08:34:01.832Z</time></trkpt><trkpt lat="45.9478133" lon="8.7673917"><ele>241.5714285714286</ele><time>2026-05-03T08:34:02.832Z</time></trkpt><trkpt lat="45.9478383" lon="8.7674817"><ele>241.2857142857143</ele><time>2026-05-03T08:34:03.832Z</time></trkpt><trkpt lat="45.94789" lon="8.7675433"><ele>241.0</ele><time>2026-05-03T08:34:04.831Z</time></trkpt><trkpt lat="45.9479533" lon="8.7675733"><ele>240.99999999999997</ele><time>2026-05-03T08:34:05.832Z</time></trkpt><trkpt lat="45.94802" lon="8.7675933"><ele>241.0</ele><time>2026-05-03T08:34:06.832Z</time></trkpt><trkpt lat="45.9480817" lon="8.7676233"><ele>241.0</ele><time>2026-05-03T08:34:07.831Z</time></trkpt><trkpt lat="45.9481367" lon="8.7676883"><ele>241.0</ele><time>2026-05-03T08:34:08.832Z</time></trkpt><trkpt lat="45.9481717" lon="8.767795"><ele>240.99999999999997</ele><time>2026-05-03T08:34:09.832Z</time></trkpt><trkpt lat="45.9481933" lon="8.76792"><ele>241.0</ele><time>2026-05-03T08:34:10.832Z</time></trkpt><trkpt lat="45.9482083" lon="8.7680517"><ele>240.20000000000002</ele><time>2026-05-03T08:34:11.832Z</time></trkpt><trkpt lat="45.9482167" lon="8.7681933"><ele>239.40000000000003</ele><time>2026-05-03T08:34:12.832Z</time></trkpt><trkpt lat="45.9482233" lon="8.768345"><ele>238.6</ele><time>2026-05-03T08:34:13.832Z</time></trkpt><trkpt lat="45.948225" lon="8.7685017"><ele>237.8</ele><time>2026-05-03T08:34:14.832Z</time></trkpt><trkpt lat="45.94823" lon="8.76865"><ele>237.0</ele><time>2026-05-03T08:34:15.832Z</time></trkpt><trkpt lat="45.9482433" lon="8.7688133"><ele>236.5</ele><time>2026-05-03T08:34:16.832Z</time></trkpt><trkpt lat="45.9482533" lon="8.7689917"><ele>236.0</ele><time>2026-05-03T08:34:17.832Z</time></trkpt><trkpt lat="45.948265" lon="8.7691583"><ele>235.5</ele><time>2026-05-03T08:34:18.831Z</time></trkpt><trkpt lat="45.9482767" lon="8.76933"><ele>235.0</ele><time>2026-05-03T08:34:19.832Z</time></trkpt><trkpt lat="45.9482767" lon="8.7695017"><ele>235.0</ele><time>2026-05-03T08:34:20.831Z</time></trkpt><trkpt lat="45.9482833" lon="8.7696733"><ele>235.0</ele><time>2026-05-03T08:34:21.832Z</time></trkpt><trkpt lat="45.9482917" lon="8.7698333"><ele>235.0</ele><time>2026-05-03T08:34:22.832Z</time></trkpt><trkpt lat="45.9482967" lon="8.7699783"><ele>235.0</ele><time>2026-05-03T08:34:23.832Z</time></trkpt><trkpt lat="45.9483067" lon="8.77012"><ele>235.0</ele><time>2026-05-03T08:34:24.832Z</time></trkpt><trkpt lat="45.9483133" lon="8.7702533"><ele>235.6</ele><time>2026-05-03T08:34:25.831Z</time></trkpt><trkpt lat="45.9483283" lon="8.77039"><ele>236.2</ele><time>2026-05-03T08:34:26.832Z</time></trkpt><trkpt lat="45.94834" lon="8.7705467"><ele>236.8</ele><time>2026-05-03T08:34:27.832Z</time></trkpt><trkpt lat="45.9483517" lon="8.7707067"><ele>237.4</ele><time>2026-05-03T08:34:28.832Z</time></trkpt><trkpt lat="45.9483567" lon="8.77086"><ele>238.0</ele><time>2026-05-03T08:34:29.832Z</time></trkpt><trkpt lat="45.9483633" lon="8.7710233"><ele>238.75</ele><time>2026-05-03T08:34:30.832Z</time></trkpt><trkpt lat="45.9483733" lon="8.7711833"><ele>239.5</ele><time>2026-05-03T08:34:31.832Z</time></trkpt><trkpt lat="45.94838" lon="8.7713533"><ele>240.25</ele><time>2026-05-03T08:34:32.831Z</time></trkpt><trkpt lat="45.9483883" lon="8.771535"><ele>241.0</ele><time>2026-05-03T08:34:33.831Z</time></trkpt><trkpt lat="45.9484" lon="8.7717217"><ele>241.25</ele><time>2026-05-03T08:34:34.832Z</time></trkpt><trkpt lat="45.948415" lon="8.7718967"><ele>241.5</ele><time>2026-05-03T08:34:35.832Z</time></trkpt><trkpt lat="45.9484283" lon="8.7720817"><ele>241.75</ele><time>2026-05-03T08:34:36.832Z</time></trkpt><trkpt lat="45.9484333" lon="8.7722583"><ele>242.0</ele><time>2026-05-03T08:34:37.832Z</time></trkpt><trkpt lat="45.94844" lon="8.7724517"><ele>242.0</ele><time>2026-05-03T08:34:38.832Z</time></trkpt><trkpt lat="45.94845" lon="8.7726483"><ele>242.0</ele><time>2026-05-03T08:34:39.831Z</time></trkpt><trkpt lat="45.94846" lon="8.7728417"><ele>242.0</ele><time>2026-05-03T08:34:40.831Z</time></trkpt><trkpt lat="45.94847" lon="8.7730283"><ele>242.0</ele><time>2026-05-03T08:34:41.832Z</time></trkpt><trkpt lat="45.9484733" lon="8.7732067"><ele>243.0</ele><time>2026-05-03T08:34:42.832Z</time></trkpt><trkpt lat="45.9484867" lon="8.77339"><ele>244.0</ele><time>2026-05-03T08:34:43.832Z</time></trkpt><trkpt lat="45.948495" lon="8.7735717"><ele>245.0</ele><time>2026-05-03T08:34:44.832Z</time></trkpt><trkpt lat="45.948505" lon="8.773765"><ele>246.0</ele><time>2026-05-03T08:34:45.831Z</time></trkpt><trkpt lat="45.94851" lon="8.7739583"><ele>246.75</ele><time>2026-05-03T08:34:46.832Z</time></trkpt><trkpt lat="45.94852" lon="8.7741517"><ele>247.5</ele><time>2026-05-03T08:34:47.832Z</time></trkpt><trkpt lat="45.9485267" lon="8.7743433"><ele>248.25</ele><time>2026-05-03T08:34:48.831Z</time></trkpt><trkpt lat="45.9485417" lon="8.7745283"><ele>249.0</ele><time>2026-05-03T08:34:49.832Z</time></trkpt><trkpt lat="45.94856" lon="8.7746867"><ele>249.39999999999998</ele><time>2026-05-03T08:34:50.832Z</time></trkpt><trkpt lat="45.9485733" lon="8.77485"><ele>249.79999999999998</ele><time>2026-05-03T08:34:51.832Z</time></trkpt><trkpt lat="45.9485817" lon="8.7750033"><ele>250.20000000000002</ele><time>2026-05-03T08:34:52.832Z</time></trkpt><trkpt lat="45.948595" lon="8.77516"><ele>250.60000000000002</ele><time>2026-05-03T08:34:53.831Z</time></trkpt><trkpt lat="45.9486217" lon="8.775325"><ele>251.0</ele><time>2026-05-03T08:34:54.831Z</time></trkpt><trkpt lat="45.9486583" lon="8.7754883"><ele>251.20000000000002</ele><time>2026-05-03T08:34:55.832Z</time></trkpt><trkpt lat="45.9487" lon="8.775635"><ele>251.40000000000003</ele><time>2026-05-03T08:34:56.832Z</time></trkpt><trkpt lat="45.9487333" lon="8.7757567"><ele>251.6</ele><time>2026-05-03T08:34:57.832Z</time></trkpt><trkpt lat="45.9487783" lon="8.7758783"><ele>251.8</ele><time>2026-05-03T08:34:58.832Z</time></trkpt><trkpt lat="45.9488333" lon="8.77599"><ele>252.0</ele><time>2026-05-03T08:34:59.832Z</time></trkpt><trkpt lat="45.9489" lon="8.7760783"><ele>252.66666666666666</ele><time>2026-05-03T08:35:00.832Z</time></trkpt><trkpt lat="45.94896" lon="8.77617"><ele>253.33333333333331</ele><time>2026-05-03T08:35:01.832Z</time></trkpt><trkpt lat="45.9490133" lon="8.77627"><ele>254.0</ele><time>2026-05-03T08:35:02.832Z</time></trkpt><trkpt lat="45.9490533" lon="8.776375"><ele>254.66666666666666</ele><time>2026-05-03T08:35:03.832Z</time></trkpt><trkpt lat="45.94907" lon="8.776475"><ele>255.33333333333331</ele><time>2026-05-03T08:35:04.832Z</time></trkpt><trkpt lat="45.949055" lon="8.776595"><ele>256.0</ele><time>2026-05-03T08:35:05.832Z</time></trkpt><trkpt lat="45.9490133" lon="8.7767317"><ele>259.75</ele><time>2026-05-03T08:35:06.832Z</time></trkpt><trkpt lat="45.9489483" lon="8.7768817"><ele>263.5</ele><time>2026-05-03T08:35:07.832Z</time></trkpt><trkpt lat="45.9488567" lon="8.7770417"><ele>267.25</ele><time>2026-05-03T08:35:08.832Z</time></trkpt><trkpt lat="45.9487733" lon="8.7772"><ele>271.0</ele><time>2026-05-03T08:35:09.832Z</time></trkpt><trkpt lat="45.9486883" lon="8.77735"><ele>271.0</ele><time>2026-05-03T08:35:10.832Z</time></trkpt><trkpt lat="45.9486133" lon="8.777475"><ele>271.0</ele><time>2026-05-03T08:35:11.831Z</time></trkpt><trkpt lat="45.9485383" lon="8.7776033"><ele>271.0</ele><time>2026-05-03T08:35:12.832Z</time></trkpt><trkpt lat="45.9484633" lon="8.777725"><ele>271.0</ele><time>2026-05-03T08:35:13.831Z</time></trkpt><trkpt lat="45.9483967" lon="8.7778417"><ele>271.0</ele><time>2026-05-03T08:35:14.831Z</time></trkpt><trkpt lat="45.9483333" lon="8.7779483"><ele>270.2</ele><time>2026-05-03T08:35:15.832Z</time></trkpt><trkpt lat="45.94827" lon="8.7780533"><ele>269.40000000000003</ele><time>2026-05-03T08:35:16.832Z</time></trkpt><trkpt lat="45.948205" lon="8.7781517"><ele>268.6</ele><time>2026-05-03T08:35:17.832Z</time></trkpt><trkpt lat="45.9481283" lon="8.7782383"><ele>267.8</ele><time>2026-05-03T08:35:18.832Z</time></trkpt><trkpt lat="45.9480417" lon="8.778315"><ele>267.0</ele><time>2026-05-03T08:35:19.832Z</time></trkpt><trkpt lat="45.94794" lon="8.7783817"><ele>267.0</ele><time>2026-05-03T08:35:20.832Z</time></trkpt><trkpt lat="45.94782" lon="8.778445"><ele>267.0</ele><time>2026-05-03T08:35:21.832Z</time></trkpt><trkpt lat="45.9476833" lon="8.7784917"><ele>267.0</ele><time>2026-05-03T08:35:22.832Z</time></trkpt><trkpt lat="45.9475233" lon="8.77853"><ele>267.0</ele><time>2026-05-03T08:35:23.832Z</time></trkpt><trkpt lat="45.9473583" lon="8.778555"><ele>272.0</ele><time>2026-05-03T08:35:24.832Z</time></trkpt><trkpt lat="45.9471917" lon="8.7786"><ele>277.0</ele><time>2026-05-03T08:35:25.832Z</time></trkpt><trkpt lat="45.9470233" lon="8.7786317"><ele>282.0</ele><time>2026-05-03T08:35:26.832Z</time></trkpt><trkpt lat="45.9468317" lon="8.7786567"><ele>283.0</ele><time>2026-05-03T08:35:27.832Z</time></trkpt><trkpt lat="45.9466517" lon="8.7787117"><ele>284.0</ele><time>2026-05-03T08:35:28.832Z</time></trkpt><trkpt lat="45.9464633" lon="8.7787883"><ele>285.0</ele><time>2026-05-03T08:35:29.832Z</time></trkpt><trkpt lat="45.9462767" lon="8.7788833"><ele>285.0</ele><time>2026-05-03T08:35:30.832Z</time></trkpt><trkpt lat="45.9461" lon="8.77898"><ele>285.0</ele><time>2026-05-03T08:35:31.832Z</time></trkpt><trkpt lat="45.9459417" lon="8.779065"><ele>285.0</ele><time>2026-05-03T08:35:32.832Z</time></trkpt><trkpt lat="45.9458267" lon="8.779135"><ele>284.6666666666667</ele><time>2026-05-03T08:35:33.832Z</time></trkpt><trkpt lat="45.9457267" lon="8.7791967"><ele>284.3333333333333</ele><time>2026-05-03T08:35:34.831Z</time></trkpt><trkpt lat="45.9456433" lon="8.7792217"><ele>284.0</ele><time>2026-05-03T08:35:35.831Z</time></trkpt><trkpt lat="45.9455733" lon="8.779255"><ele>283.66666666666663</ele><time>2026-05-03T08:35:36.831Z</time></trkpt><trkpt lat="45.9455267" lon="8.7793367"><ele>283.3333333333333</ele><time>2026-05-03T08:35:38.832Z</time></trkpt><trkpt lat="45.945595" lon="8.7793917"><ele>283.0</ele><time>2026-05-03T08:35:39.832Z</time></trkpt><trkpt lat="45.94569" lon="8.7794067"><ele>283.5</ele><time>2026-05-03T08:35:40.832Z</time></trkpt><trkpt lat="45.9458033" lon="8.779385"><ele>284.0</ele><time>2026-05-03T08:35:41.832Z</time></trkpt><trkpt lat="45.9459417" lon="8.7793233"><ele>284.5</ele><time>2026-05-03T08:35:42.832Z</time></trkpt><trkpt lat="45.946095" lon="8.7792717"><ele>285.0</ele><time>2026-05-03T08:35:43.832Z</time></trkpt><trkpt lat="45.946265" lon="8.7792517"><ele>285.0</ele><time>2026-05-03T08:35:44.832Z</time></trkpt><trkpt lat="45.9464283" lon="8.7792617"><ele>285.0</ele><time>2026-05-03T08:35:45.832Z</time></trkpt><trkpt lat="45.9465917" lon="8.7792967"><ele>285.0</ele><time>2026-05-03T08:35:46.831Z</time></trkpt><trkpt lat="45.94676" lon="8.77934"><ele>292.6666666666667</ele><time>2026-05-03T08:35:47.831Z</time></trkpt><trkpt lat="45.9469333" lon="8.779375"><ele>300.33333333333337</ele><time>2026-05-03T08:35:48.832Z</time></trkpt><trkpt lat="45.947095" lon="8.7794283"><ele>308.0</ele><time>2026-05-03T08:35:49.831Z</time></trkpt><trkpt lat="45.9472583" lon="8.77951"><ele>308.0</ele><time>2026-05-03T08:35:50.832Z</time></trkpt><trkpt lat="45.9474167" lon="8.7796033"><ele>308.0</ele><time>2026-05-03T08:35:51.831Z</time></trkpt><trkpt lat="45.9475767" lon="8.7796767"><ele>308.0</ele><time>2026-05-03T08:35:52.832Z</time></trkpt><trkpt lat="45.9477383" lon="8.7797517"><ele>306.75</ele><time>2026-05-03T08:35:53.832Z</time></trkpt><trkpt lat="45.9478817" lon="8.7798167"><ele>305.5</ele><time>2026-05-03T08:35:54.831Z</time></trkpt><trkpt lat="45.948015" lon="8.7798667"><ele>304.25</ele><time>2026-05-03T08:35:55.832Z</time></trkpt><trkpt lat="45.9481167" lon="8.779885"><ele>303.0</ele><time>2026-05-03T08:35:56.832Z</time></trkpt><trkpt lat="45.9481917" lon="8.7798917"><ele>303.0</ele><time>2026-05-03T08:35:57.831Z</time></trkpt><trkpt lat="45.948255" lon="8.7799583"><ele>303.0</ele><time>2026-05-03T08:35:59.831Z</time></trkpt><trkpt lat="45.9481" lon="8.780015"><ele>303.0</ele><time>2026-05-03T08:36:02.832Z</time></trkpt><trkpt lat="45.9479667" lon="8.7800033"><ele>303.0</ele><time>2026-05-03T08:36:03.832Z</time></trkpt><trkpt lat="45.94782" lon="8.7799867"><ele>303.0</ele><time>2026-05-03T08:36:04.832Z</time></trkpt><trkpt lat="45.947695" lon="8.7799767"><ele>303.0</ele><time>2026-05-03T08:36:05.832Z</time></trkpt><trkpt lat="45.94759" lon="8.7799517"><ele>303.0</ele><time>2026-05-03T08:36:06.832Z</time></trkpt><trkpt lat="45.9475017" lon="8.7799167"><ele>303.0</ele><time>2026-05-03T08:36:07.832Z</time></trkpt><trkpt lat="45.9474167" lon="8.7798867"><ele>303.0</ele><time>2026-05-03T08:36:08.832Z</time></trkpt><trkpt lat="45.9473433" lon="8.7798533"><ele>303.8333333333333</ele><time>2026-05-03T08:36:09.831Z</time></trkpt><trkpt lat="45.947275" lon="8.7798167"><ele>304.6666666666667</ele><time>2026-05-03T08:36:10.831Z</time></trkpt><trkpt lat="45.947195" lon="8.77978"><ele>305.5</ele><time>2026-05-03T08:36:11.832Z</time></trkpt><trkpt lat="45.9471167" lon="8.7797467"><ele>306.33333333333337</ele><time>2026-05-03T08:36:12.832Z</time></trkpt><trkpt lat="45.947025" lon="8.7797317"><ele>307.1666666666667</ele><time>2026-05-03T08:36:13.832Z</time></trkpt><trkpt lat="45.94693" lon="8.7797367"><ele>308.0</ele><time>2026-05-03T08:36:14.832Z</time></trkpt><trkpt lat="45.946835" lon="8.77975"><ele>308.0</ele><time>2026-05-03T08:36:15.832Z</time></trkpt><trkpt lat="45.94674" lon="8.77977"><ele>308.0</ele><time>2026-05-03T08:36:16.832Z</time></trkpt><trkpt lat="45.9466433" lon="8.7798083"><ele>308.0</ele><time>2026-05-03T08:36:17.831Z</time></trkpt><trkpt lat="45.9465533" lon="8.7798483"><ele>308.0</ele><time>2026-05-03T08:36:18.832Z</time></trkpt><trkpt lat="45.9464583" lon="8.7798967"><ele>308.0</ele><time>2026-05-03T08:36:19.831Z</time></trkpt><trkpt lat="45.94636" lon="8.7799183"><ele>309.6</ele><time>2026-05-03T08:36:20.832Z</time></trkpt><trkpt lat="45.946265" lon="8.7799267"><ele>311.20000000000005</ele><time>2026-05-03T08:36:21.832Z</time></trkpt><trkpt lat="45.9461917" lon="8.7799417"><ele>312.8</ele><time>2026-05-03T08:36:22.832Z</time></trkpt><trkpt lat="45.946095" lon="8.780015"><ele>314.40000000000003</ele><time>2026-05-03T08:36:24.832Z</time></trkpt><trkpt lat="45.9460617" lon="8.7801417"><ele>316.0</ele><time>2026-05-03T08:36:26.831Z</time></trkpt><trkpt lat="45.9461583" lon="8.7801717"><ele>316.0</ele><time>2026-05-03T08:36:28.832Z</time></trkpt><trkpt lat="45.9462817" lon="8.7801017"><ele>316.0</ele><time>2026-05-03T08:36:30.831Z</time></trkpt><trkpt lat="45.9463567" lon="8.780065"><ele>316.0</ele><time>2026-05-03T08:36:31.832Z</time></trkpt><trkpt lat="45.9464383" lon="8.7800333"><ele>316.0</ele><time>2026-05-03T08:36:32.832Z</time></trkpt><trkpt lat="45.94653" lon="8.780015"><ele>316.0</ele><time>2026-05-03T08:36:33.832Z</time></trkpt><trkpt lat="45.9466283" lon="8.7800167"><ele>314.40000000000003</ele><time>2026-05-03T08:36:34.832Z</time></trkpt><trkpt lat="45.94672" lon="8.7800217"><ele>312.8</ele><time>2026-05-03T08:36:35.832Z</time></trkpt><trkpt lat="45.946815" lon="8.7800483"><ele>311.20000000000005</ele><time>2026-05-03T08:36:36.832Z</time></trkpt><trkpt lat="45.9469017" lon="8.7800967"><ele>309.6</ele><time>2026-05-03T08:36:37.832Z</time></trkpt><trkpt lat="45.9469833" lon="8.7801667"><ele>308.0</ele><time>2026-05-03T08:36:38.832Z</time></trkpt><trkpt lat="45.9470633" lon="8.7802667"><ele>313.5</ele><time>2026-05-03T08:36:39.832Z</time></trkpt><trkpt lat="45.94715" lon="8.7803783"><ele>319.0</ele><time>2026-05-03T08:36:40.832Z</time></trkpt><trkpt lat="45.9472417" lon="8.7804917"><ele>324.5</ele><time>2026-05-03T08:36:41.831Z</time></trkpt><trkpt lat="45.9473417" lon="8.7805933"><ele>330.0</ele><time>2026-05-03T08:36:42.832Z</time></trkpt><trkpt lat="45.947425" lon="8.7806783"><ele>330.0</ele><time>2026-05-03T08:36:43.831Z</time></trkpt><trkpt lat="45.9474967" lon="8.7807483"><ele>330.0</ele><time>2026-05-03T08:36:44.831Z</time></trkpt><trkpt lat="45.9475633" lon="8.7808017"><ele>330.0</ele><time>2026-05-03T08:36:45.832Z</time></trkpt><trkpt lat="45.9476817" lon="8.7808867"><ele>330.0</ele><time>2026-05-03T08:36:47.832Z</time></trkpt><trkpt lat="45.9477417" lon="8.7809217"><ele>330.0</ele><time>2026-05-03T08:36:48.832Z</time></trkpt><trkpt lat="45.94781" lon="8.78098"><ele>330.0</ele><time>2026-05-03T08:36:49.832Z</time></trkpt><trkpt lat="45.9478733" lon="8.7810417"><ele>330.8333333333333</ele><time>2026-05-03T08:36:50.832Z</time></trkpt><trkpt lat="45.9479417" lon="8.7811033"><ele>331.6666666666667</ele><time>2026-05-03T08:36:51.832Z</time></trkpt><trkpt lat="45.9480083" lon="8.7811583"><ele>332.5</ele><time>2026-05-03T08:36:52.831Z</time></trkpt><trkpt lat="45.9480667" lon="8.7811933"><ele>333.33333333333337</ele><time>2026-05-03T08:36:53.832Z</time></trkpt><trkpt lat="45.9481417" lon="8.78123"><ele>334.1666666666667</ele><time>2026-05-03T08:36:55.832Z</time></trkpt><trkpt lat="45.9482217" lon="8.7812717"><ele>335.0</ele><time>2026-05-03T08:36:58.832Z</time></trkpt><trkpt lat="45.9482517" lon="8.7814033"><ele>335.0</ele><time>2026-05-03T08:37:01.832Z</time></trkpt><trkpt lat="45.948225" lon="8.7815233"><ele>335.0</ele><time>2026-05-03T08:37:03.831Z</time></trkpt><trkpt lat="45.9481717" lon="8.7814667"><ele>335.0</ele><time>2026-05-03T08:37:04.832Z</time></trkpt><trkpt lat="45.94807" lon="8.781365"><ele>335.0</ele><time>2026-05-03T08:37:05.831Z</time></trkpt><trkpt lat="45.947965" lon="8.7812833"><ele>335.0</ele><time>2026-05-03T08:37:06.832Z</time></trkpt><trkpt lat="45.9478667" lon="8.7812233"><ele>335.0</ele><time>2026-05-03T08:37:07.832Z</time></trkpt><trkpt lat="45.94778" lon="8.7811867"><ele>335.0</ele><time>2026-05-03T08:37:08.832Z</time></trkpt><trkpt lat="45.94771" lon="8.7811633"><ele>335.0</ele><time>2026-05-03T08:37:09.832Z</time></trkpt><trkpt lat="45.947635" lon="8.7811517"><ele>335.0</ele><time>2026-05-03T08:37:10.831Z</time></trkpt><trkpt lat="45.94755" lon="8.7811483"><ele>335.0</ele><time>2026-05-03T08:37:11.832Z</time></trkpt><trkpt lat="45.947465" lon="8.7811467"><ele>335.0</ele><time>2026-05-03T08:37:12.832Z</time></trkpt><trkpt lat="45.947375" lon="8.7811467"><ele>338.4</ele><time>2026-05-03T08:37:13.832Z</time></trkpt><trkpt lat="45.9472917" lon="8.7811433"><ele>341.8</ele><time>2026-05-03T08:37:14.832Z</time></trkpt><trkpt lat="45.9471917" lon="8.7811433"><ele>345.20000000000005</ele><time>2026-05-03T08:37:15.832Z</time></trkpt><trkpt lat="45.9470967" lon="8.7811433"><ele>348.6</ele><time>2026-05-03T08:37:16.832Z</time></trkpt><trkpt lat="45.9470117" lon="8.7811633"><ele>352.0</ele><time>2026-05-03T08:37:17.832Z</time></trkpt><trkpt lat="45.946915" lon="8.7812033"><ele>352.0</ele><time>2026-05-03T08:37:18.832Z</time></trkpt><trkpt lat="45.9468" lon="8.781265"><ele>352.0</ele><time>2026-05-03T08:37:19.832Z</time></trkpt><trkpt lat="45.9467083" lon="8.78138"><ele>352.0</ele><time>2026-05-03T08:37:20.831Z</time></trkpt><trkpt lat="45.9466067" lon="8.7815217"><ele>352.0</ele><time>2026-05-03T08:37:21.832Z</time></trkpt><trkpt lat="45.9464967" lon="8.7816817"><ele>351.5</ele><time>2026-05-03T08:37:22.831Z</time></trkpt><trkpt lat="45.94639" lon="8.7818333"><ele>351.0</ele><time>2026-05-03T08:37:23.832Z</time></trkpt><trkpt lat="45.9463067" lon="8.7819817"><ele>350.5</ele><time>2026-05-03T08:37:24.832Z</time></trkpt><trkpt lat="45.9462517" lon="8.7821367"><ele>350.0</ele><time>2026-05-03T08:37:25.832Z</time></trkpt><trkpt lat="45.9462367" lon="8.7823033"><ele>352.5</ele><time>2026-05-03T08:37:26.832Z</time></trkpt><trkpt lat="45.94625" lon="8.7824917"><ele>355.0</ele><time>2026-05-03T08:37:27.832Z</time></trkpt><trkpt lat="45.9462783" lon="8.782675"><ele>357.5</ele><time>2026-05-03T08:37:28.831Z</time></trkpt><trkpt lat="45.9463083" lon="8.7828433"><ele>360.0</ele><time>2026-05-03T08:37:29.832Z</time></trkpt><trkpt lat="45.9463167" lon="8.7829833"><ele>360.3333333333333</ele><time>2026-05-03T08:37:30.832Z</time></trkpt><trkpt lat="45.9463" lon="8.7831017"><ele>360.6666666666667</ele><time>2026-05-03T08:37:31.832Z</time></trkpt><trkpt lat="45.9462783" lon="8.7832133"><ele>361.0</ele><time>2026-05-03T08:37:32.832Z</time></trkpt><trkpt lat="45.9462617" lon="8.7833033"><ele>361.33333333333337</ele><time>2026-05-03T08:37:33.831Z</time></trkpt><trkpt lat="45.9461717" lon="8.783425"><ele>361.6666666666667</ele><time>2026-05-03T08:37:35.832Z</time></trkpt><trkpt lat="45.946095" lon="8.7834633"><ele>362.0</ele><time>2026-05-03T08:37:36.832Z</time></trkpt><trkpt lat="45.946" lon="8.7834933"><ele>364.6</ele><time>2026-05-03T08:37:37.832Z</time></trkpt><trkpt lat="45.945895" lon="8.783535"><ele>367.20000000000005</ele><time>2026-05-03T08:37:38.832Z</time></trkpt><trkpt lat="45.94579" lon="8.7835967"><ele>369.8</ele><time>2026-05-03T08:37:39.832Z</time></trkpt><trkpt lat="45.9456933" lon="8.783675"><ele>372.4</ele><time>2026-05-03T08:37:40.832Z</time></trkpt><trkpt lat="45.94561" lon="8.78377"><ele>375.0</ele><time>2026-05-03T08:37:41.832Z</time></trkpt><trkpt lat="45.9455267" lon="8.7838483"><ele>375.0</ele><time>2026-05-03T08:37:42.831Z</time></trkpt><trkpt lat="45.9454433" lon="8.7839067"><ele>375.0</ele><time>2026-05-03T08:37:43.831Z</time></trkpt><trkpt lat="45.9453583" lon="8.7839333"><ele>375.0</ele><time>2026-05-03T08:37:44.832Z</time></trkpt><trkpt lat="45.9452683" lon="8.78393"><ele>375.0</ele><time>2026-05-03T08:37:45.832Z</time></trkpt><trkpt lat="45.9451733" lon="8.7839133"><ele>375.0</ele><time>2026-05-03T08:37:46.831Z</time></trkpt><trkpt lat="45.9450633" lon="8.7838983"><ele>374.0</ele><time>2026-05-03T08:37:47.832Z</time></trkpt><trkpt lat="45.9449517" lon="8.783895"><ele>373.0</ele><time>2026-05-03T08:37:48.832Z</time></trkpt><trkpt lat="45.944845" lon="8.7839"><ele>372.0</ele><time>2026-05-03T08:37:49.831Z</time></trkpt><trkpt lat="45.94475" lon="8.7839267"><ele>371.0</ele><time>2026-05-03T08:37:50.832Z</time></trkpt><trkpt lat="45.944665" lon="8.783975"><ele>370.0</ele><time>2026-05-03T08:37:51.832Z</time></trkpt><trkpt lat="45.94458" lon="8.7840517"><ele>370.0</ele><time>2026-05-03T08:37:52.831Z</time></trkpt><trkpt lat="45.9444967" lon="8.7841433"><ele>370.0</ele><time>2026-05-03T08:37:53.831Z</time></trkpt><trkpt lat="45.9444067" lon="8.78424"><ele>370.0</ele><time>2026-05-03T08:37:54.832Z</time></trkpt><trkpt lat="45.94432" lon="8.784335"><ele>370.0</ele><time>2026-05-03T08:37:55.832Z</time></trkpt><trkpt lat="45.94424" lon="8.78443"><ele>370.0</ele><time>2026-05-03T08:37:56.832Z</time></trkpt><trkpt lat="45.9441717" lon="8.7845283"><ele>371.6</ele><time>2026-05-03T08:37:57.831Z</time></trkpt><trkpt lat="45.9441167" lon="8.7846417"><ele>373.2</ele><time>2026-05-03T08:37:58.831Z</time></trkpt><trkpt lat="45.9440733" lon="8.7847683"><ele>374.79999999999995</ele><time>2026-05-03T08:37:59.831Z</time></trkpt><trkpt lat="45.9440417" lon="8.784885"><ele>376.4</ele><time>2026-05-03T08:38:00.831Z</time></trkpt><trkpt lat="45.9440283" lon="8.7850083"><ele>378.0</ele><time>2026-05-03T08:38:01.83Z</time></trkpt><trkpt lat="45.9440183" lon="8.7851517"><ele>378.79999999999995</ele><time>2026-05-03T08:38:02.83Z</time></trkpt><trkpt lat="45.9440217" lon="8.785295"><ele>379.6</ele><time>2026-05-03T08:38:03.831Z</time></trkpt><trkpt lat="45.944035" lon="8.7854367"><ele>380.4</ele><time>2026-05-03T08:38:04.831Z</time></trkpt><trkpt lat="45.9440483" lon="8.78558"><ele>381.20000000000005</ele><time>2026-05-03T08:38:05.831Z</time></trkpt><trkpt lat="45.944065" lon="8.7857483"><ele>382.0</ele><time>2026-05-03T08:38:06.831Z</time></trkpt><trkpt lat="45.9440833" lon="8.7859117"><ele>382.6</ele><time>2026-05-03T08:38:07.831Z</time></trkpt><trkpt lat="45.9440917" lon="8.786055"><ele>383.20000000000005</ele><time>2026-05-03T08:38:08.83Z</time></trkpt><trkpt lat="45.9440817" lon="8.7861983"><ele>383.8</ele><time>2026-05-03T08:38:09.831Z</time></trkpt><trkpt lat="45.94407" lon="8.7863483"><ele>384.4</ele><time>2026-05-03T08:38:10.831Z</time></trkpt><trkpt lat="45.94405" lon="8.786495"><ele>385.0</ele><time>2026-05-03T08:38:11.83Z</time></trkpt><trkpt lat="45.9440383" lon="8.7866383"><ele>385.0</ele><time>2026-05-03T08:38:12.831Z</time></trkpt><trkpt lat="45.9440267" lon="8.7867867"><ele>385.0</ele><time>2026-05-03T08:38:13.83Z</time></trkpt><trkpt lat="45.9440067" lon="8.7869317"><ele>385.0</ele><time>2026-05-03T08:38:14.831Z</time></trkpt><trkpt lat="45.9439883" lon="8.7870817"><ele>385.0</ele><time>2026-05-03T08:38:15.83Z</time></trkpt><trkpt lat="45.943975" lon="8.7872367"><ele>385.0</ele><time>2026-05-03T08:38:16.831Z</time></trkpt><trkpt lat="45.9439567" lon="8.7873833"><ele>386.8</ele><time>2026-05-03T08:38:17.831Z</time></trkpt><trkpt lat="45.9439483" lon="8.7875233"><ele>388.6</ele><time>2026-05-03T08:38:18.831Z</time></trkpt><trkpt lat="45.9439433" lon="8.78767"><ele>390.4</ele><time>2026-05-03T08:38:19.83Z</time></trkpt><trkpt lat="45.9439467" lon="8.7878333"><ele>392.2</ele><time>2026-05-03T08:38:20.831Z</time></trkpt><trkpt lat="45.9439533" lon="8.7879983"><ele>394.0</ele><time>2026-05-03T08:38:21.831Z</time></trkpt><trkpt lat="45.9439683" lon="8.7881633"><ele>395.0</ele><time>2026-05-03T08:38:22.831Z</time></trkpt><trkpt lat="45.9439817" lon="8.7883317"><ele>396.0</ele><time>2026-05-03T08:38:23.83Z</time></trkpt><trkpt lat="45.9439917" lon="8.7884967"><ele>397.0</ele><time>2026-05-03T08:38:24.831Z</time></trkpt><trkpt lat="45.9439883" lon="8.78867"><ele>398.0</ele><time>2026-05-03T08:38:25.831Z</time></trkpt><trkpt lat="45.94398" lon="8.788845"><ele>398.25</ele><time>2026-05-03T08:38:26.831Z</time></trkpt><trkpt lat="45.943965" lon="8.789025"><ele>398.5</ele><time>2026-05-03T08:38:27.831Z</time></trkpt><trkpt lat="45.9439433" lon="8.789215"><ele>398.75</ele><time>2026-05-03T08:38:28.83Z</time></trkpt><trkpt lat="45.9439267" lon="8.789415"><ele>399.0</ele><time>2026-05-03T08:38:29.831Z</time></trkpt><trkpt lat="45.9439033" lon="8.7895983"><ele>400.5</ele><time>2026-05-03T08:38:30.831Z</time></trkpt><trkpt lat="45.9438817" lon="8.78979"><ele>402.0</ele><time>2026-05-03T08:38:31.831Z</time></trkpt><trkpt lat="45.9438483" lon="8.789985"><ele>403.5</ele><time>2026-05-03T08:38:32.831Z</time></trkpt><trkpt lat="45.943815" lon="8.790185"><ele>405.0</ele><time>2026-05-03T08:38:33.83Z</time></trkpt><trkpt lat="45.943775" lon="8.7903767"><ele>406.75</ele><time>2026-05-03T08:38:34.831Z</time></trkpt><trkpt lat="45.9437167" lon="8.7905533"><ele>408.5</ele><time>2026-05-03T08:38:35.831Z</time></trkpt><trkpt lat="45.9436467" lon="8.7907117"><ele>410.25</ele><time>2026-05-03T08:38:36.831Z</time></trkpt><trkpt lat="45.9435583" lon="8.7908467"><ele>412.0</ele><time>2026-05-03T08:38:37.831Z</time></trkpt><trkpt lat="45.94346" lon="8.790985"><ele>411.25</ele><time>2026-05-03T08:38:38.831Z</time></trkpt><trkpt lat="45.9433633" lon="8.7911083"><ele>410.5</ele><time>2026-05-03T08:38:39.831Z</time></trkpt><trkpt lat="45.9432667" lon="8.7912217"><ele>409.75</ele><time>2026-05-03T08:38:40.831Z</time></trkpt><trkpt lat="45.9431733" lon="8.7913317"><ele>409.0</ele><time>2026-05-03T08:38:41.831Z</time></trkpt><trkpt lat="45.943085" lon="8.7914217"><ele>409.0</ele><time>2026-05-03T08:38:42.83Z</time></trkpt><trkpt lat="45.9429933" lon="8.7914933"><ele>409.0</ele><time>2026-05-03T08:38:43.831Z</time></trkpt><trkpt lat="45.94292" lon="8.7915567"><ele>409.0</ele><time>2026-05-03T08:38:44.831Z</time></trkpt><trkpt lat="45.9428667" lon="8.7916117"><ele>409.0</ele><time>2026-05-03T08:38:45.831Z</time></trkpt><trkpt lat="45.9427983" lon="8.7916867"><ele>409.0</ele><time>2026-05-03T08:38:47.831Z</time></trkpt><trkpt lat="45.942895" lon="8.7916167"><ele>409.0</ele><time>2026-05-03T08:39:08.83Z</time></trkpt><trkpt lat="45.9429717" lon="8.791515"><ele>409.0</ele><time>2026-05-03T08:39:09.83Z</time></trkpt><trkpt lat="45.9430633" lon="8.7914"><ele>409.0</ele><time>2026-05-03T08:39:10.83Z</time></trkpt><trkpt lat="45.9431633" lon="8.7912767"><ele>409.0</ele><time>2026-05-03T08:39:11.831Z</time></trkpt><trkpt lat="45.9432667" lon="8.79116"><ele>409.0</ele><time>2026-05-03T08:39:12.83Z</time></trkpt><trkpt lat="45.94337" lon="8.7910483"><ele>409.0</ele><time>2026-05-03T08:39:13.831Z</time></trkpt><trkpt lat="45.9434733" lon="8.790935"><ele>409.0</ele><time>2026-05-03T08:39:14.831Z</time></trkpt><trkpt lat="45.943565" lon="8.790835"><ele>409.0</ele><time>2026-05-03T08:39:15.831Z</time></trkpt><trkpt lat="45.94366" lon="8.79071"><ele>409.75</ele><time>2026-05-03T08:39:16.83Z</time></trkpt><trkpt lat="45.943735" lon="8.790565"><ele>410.5</ele><time>2026-05-03T08:39:17.83Z</time></trkpt><trkpt lat="45.9437933" lon="8.79038"><ele>411.25</ele><time>2026-05-03T08:39:18.831Z</time></trkpt><trkpt lat="45.9438383" lon="8.7901767"><ele>412.0</ele><time>2026-05-03T08:39:19.831Z</time></trkpt><trkpt lat="45.94387" lon="8.7899667"><ele>409.6666666666667</ele><time>2026-05-03T08:39:20.831Z</time></trkpt><trkpt lat="45.9439033" lon="8.7897483"><ele>407.33333333333337</ele><time>2026-05-03T08:39:21.831Z</time></trkpt><trkpt lat="45.9439317" lon="8.7895283"><ele>405.0</ele><time>2026-05-03T08:39:22.831Z</time></trkpt><trkpt lat="45.94396" lon="8.7893033"><ele>403.0</ele><time>2026-05-03T08:39:23.83Z</time></trkpt><trkpt lat="45.94399" lon="8.789075"><ele>401.0</ele><time>2026-05-03T08:39:24.831Z</time></trkpt><trkpt lat="45.9440083" lon="8.78884"><ele>399.0</ele><time>2026-05-03T08:39:25.831Z</time></trkpt><trkpt lat="45.9440217" lon="8.7886267"><ele>398.75</ele><time>2026-05-03T08:39:26.831Z</time></trkpt><trkpt lat="45.9440217" lon="8.78841"><ele>398.5</ele><time>2026-05-03T08:39:27.831Z</time></trkpt><trkpt lat="45.944015" lon="8.7882"><ele>398.25</ele><time>2026-05-03T08:39:28.831Z</time></trkpt><trkpt lat="45.9439967" lon="8.78802"><ele>398.0</ele><time>2026-05-03T08:39:29.831Z</time></trkpt><trkpt lat="45.9439783" lon="8.7878683"><ele>398.0</ele><time>2026-05-03T08:39:30.831Z</time></trkpt><trkpt lat="45.94398" lon="8.78768"><ele>398.0</ele><time>2026-05-03T08:39:31.831Z</time></trkpt><trkpt lat="45.9439933" lon="8.7874867"><ele>398.0</ele><time>2026-05-03T08:39:32.831Z</time></trkpt><trkpt lat="45.9440083" lon="8.7872933"><ele>398.0</ele><time>2026-05-03T08:39:33.831Z</time></trkpt><trkpt lat="45.9440317" lon="8.787085"><ele>396.66666666666663</ele><time>2026-05-03T08:39:34.831Z</time></trkpt><trkpt lat="45.9440567" lon="8.7868583"><ele>395.33333333333337</ele><time>2026-05-03T08:39:35.831Z</time></trkpt><trkpt lat="45.9440783" lon="8.78664"><ele>394.0</ele><time>2026-05-03T08:39:36.831Z</time></trkpt><trkpt lat="45.9440967" lon="8.7864267"><ele>391.75</ele><time>2026-05-03T08:39:37.831Z</time></trkpt><trkpt lat="45.9441017" lon="8.7862217"><ele>389.5</ele><time>2026-05-03T08:39:38.831Z</time></trkpt><trkpt lat="45.9441017" lon="8.7860133"><ele>387.25</ele><time>2026-05-03T08:39:39.831Z</time></trkpt><trkpt lat="45.9440817" lon="8.78582"><ele>385.0</ele><time>2026-05-03T08:39:40.831Z</time></trkpt><trkpt lat="45.94405" lon="8.785625"><ele>384.25</ele><time>2026-05-03T08:39:41.831Z</time></trkpt><trkpt lat="45.9440167" lon="8.7854333"><ele>383.5</ele><time>2026-05-03T08:39:42.83Z</time></trkpt><trkpt lat="45.9440067" lon="8.7852433"><ele>382.75</ele><time>2026-05-03T08:39:43.83Z</time></trkpt><trkpt lat="45.94401" lon="8.7850683"><ele>382.0</ele><time>2026-05-03T08:39:44.831Z</time></trkpt><trkpt lat="45.9440217" lon="8.78493"><ele>381.0</ele><time>2026-05-03T08:39:45.831Z</time></trkpt><trkpt lat="45.94406" lon="8.7847783"><ele>380.0</ele><time>2026-05-03T08:39:46.83Z</time></trkpt><trkpt lat="45.9441233" lon="8.7846217"><ele>379.0</ele><time>2026-05-03T08:39:47.831Z</time></trkpt><trkpt lat="45.9442133" lon="8.7844717"><ele>378.0</ele><time>2026-05-03T08:39:48.83Z</time></trkpt><trkpt lat="45.94432" lon="8.7843133"><ele>376.0</ele><time>2026-05-03T08:39:49.831Z</time></trkpt><trkpt lat="45.9444283" lon="8.7841783"><ele>374.0</ele><time>2026-05-03T08:39:50.831Z</time></trkpt><trkpt lat="45.9445367" lon="8.7840533"><ele>372.0</ele><time>2026-05-03T08:39:51.831Z</time></trkpt><trkpt lat="45.9446433" lon="8.7839533"><ele>370.0</ele><time>2026-05-03T08:39:52.831Z</time></trkpt><trkpt lat="45.9447567" lon="8.7839"><ele>370.0</ele><time>2026-05-03T08:39:53.831Z</time></trkpt><trkpt lat="45.9448867" lon="8.7838867"><ele>370.0</ele><time>2026-05-03T08:39:54.831Z</time></trkpt><trkpt lat="45.945025" lon="8.7839017"><ele>370.0</ele><time>2026-05-03T08:39:55.831Z</time></trkpt><trkpt lat="45.94518" lon="8.78394"><ele>370.0</ele><time>2026-05-03T08:39:56.831Z</time></trkpt><trkpt lat="45.9453267" lon="8.7839533"><ele>371.25</ele><time>2026-05-03T08:39:57.831Z</time></trkpt><trkpt lat="45.94545" lon="8.7839317"><ele>372.5</ele><time>2026-05-03T08:39:58.831Z</time></trkpt><trkpt lat="45.9455667" lon="8.7838633"><ele>373.75</ele><time>2026-05-03T08:39:59.831Z</time></trkpt><trkpt lat="45.9456617" lon="8.7837533"><ele>375.0</ele><time>2026-05-03T08:40:00.831Z</time></trkpt><trkpt lat="45.9457583" lon="8.7836583"><ele>375.0</ele><time>2026-05-03T08:40:01.831Z</time></trkpt><trkpt lat="45.945865" lon="8.78358"><ele>375.0</ele><time>2026-05-03T08:40:02.831Z</time></trkpt><trkpt lat="45.945975" lon="8.78353"><ele>375.0</ele><time>2026-05-03T08:40:03.83Z</time></trkpt><trkpt lat="45.9460683" lon="8.783485"><ele>375.0</ele><time>2026-05-03T08:40:04.831Z</time></trkpt><trkpt lat="45.9461433" lon="8.783445"><ele>375.0</ele><time>2026-05-03T08:40:05.831Z</time></trkpt><trkpt lat="45.9462033" lon="8.7834"><ele>375.0</ele><time>2026-05-03T08:40:06.831Z</time></trkpt><trkpt lat="45.9462517" lon="8.78333"><ele>375.0</ele><time>2026-05-03T08:40:08.831Z</time></trkpt><trkpt lat="45.9463067" lon="8.78327"><ele>375.0</ele><time>2026-05-03T08:40:14.831Z</time></trkpt><trkpt lat="45.9463667" lon="8.7833233"><ele>375.0</ele><time>2026-05-03T08:40:16.831Z</time></trkpt><trkpt lat="45.94643" lon="8.7834"><ele>375.0</ele><time>2026-05-03T08:40:18.831Z</time></trkpt><trkpt lat="45.9464883" lon="8.7835067"><ele>375.0</ele><time>2026-05-03T08:40:20.83Z</time></trkpt><trkpt lat="45.9465483" lon="8.7836433"><ele>375.0</ele><time>2026-05-03T08:40:22.83Z</time></trkpt><trkpt lat="45.946625" lon="8.7837817"><ele>375.0</ele><time>2026-05-03T08:40:24.831Z</time></trkpt><trkpt lat="45.946695" lon="8.7838867"><ele>375.0</ele><time>2026-05-03T08:40:26.831Z</time></trkpt><trkpt lat="45.946765" lon="8.7839417"><ele>375.0</ele><time>2026-05-03T08:40:28.831Z</time></trkpt><trkpt lat="45.9468683" lon="8.7839533"><ele>375.0</ele><time>2026-05-03T08:40:30.831Z</time></trkpt><trkpt lat="45.9469833" lon="8.78392"><ele>376.0</ele><time>2026-05-03T08:40:32.83Z</time></trkpt><trkpt lat="45.9470517" lon="8.783855"><ele>377.0</ele><time>2026-05-03T08:40:33.831Z</time></trkpt><trkpt lat="45.9471117" lon="8.7837833"><ele>378.0</ele><time>2026-05-03T08:40:34.831Z</time></trkpt><trkpt lat="45.9471667" lon="8.7836583"><ele>379.0</ele><time>2026-05-03T08:40:35.831Z</time></trkpt><trkpt lat="45.947235" lon="8.7835833"><ele>380.0</ele><time>2026-05-03T08:40:36.831Z</time></trkpt><trkpt lat="45.9473117" lon="8.7835117"><ele>381.0</ele><time>2026-05-03T08:40:37.831Z</time></trkpt><trkpt lat="45.9474017" lon="8.78343"><ele>378.6</ele><time>2026-05-03T08:40:38.831Z</time></trkpt><trkpt lat="45.9475033" lon="8.7833617"><ele>376.20000000000005</ele><time>2026-05-03T08:40:39.831Z</time></trkpt><trkpt lat="45.9476083" lon="8.7833033"><ele>373.79999999999995</ele><time>2026-05-03T08:40:40.83Z</time></trkpt><trkpt lat="45.9477167" lon="8.7832667"><ele>371.4</ele><time>2026-05-03T08:40:41.831Z</time></trkpt><trkpt lat="45.9478167" lon="8.783245"><ele>369.0</ele><time>2026-05-03T08:40:42.831Z</time></trkpt><trkpt lat="45.94791" lon="8.7832383"><ele>368.6666666666667</ele><time>2026-05-03T08:40:43.831Z</time></trkpt><trkpt lat="45.9479883" lon="8.7832567"><ele>368.3333333333333</ele><time>2026-05-03T08:40:44.831Z</time></trkpt><trkpt lat="45.9480783" lon="8.7832833"><ele>368.0</ele><time>2026-05-03T08:40:45.831Z</time></trkpt><trkpt lat="45.9481583" lon="8.7833233"><ele>367.66666666666663</ele><time>2026-05-03T08:40:46.83Z</time></trkpt><trkpt lat="45.9482383" lon="8.7833767"><ele>367.3333333333333</ele><time>2026-05-03T08:40:47.83Z</time></trkpt><trkpt lat="45.9483217" lon="8.7834467"><ele>367.0</ele><time>2026-05-03T08:40:48.831Z</time></trkpt><trkpt lat="45.948415" lon="8.7835383"><ele>367.0</ele><time>2026-05-03T08:40:49.83Z</time></trkpt><trkpt lat="45.9485083" lon="8.7836683"><ele>367.0</ele><time>2026-05-03T08:40:50.831Z</time></trkpt><trkpt lat="45.94859" lon="8.7837967"><ele>367.0</ele><time>2026-05-03T08:40:51.831Z</time></trkpt><trkpt lat="45.9486583" lon="8.7839117"><ele>367.0</ele><time>2026-05-03T08:40:52.831Z</time></trkpt><trkpt lat="45.94871" lon="8.7840033"><ele>367.0</ele><time>2026-05-03T08:40:53.831Z</time></trkpt><trkpt lat="45.9487567" lon="8.7841033"><ele>367.0</ele><time>2026-05-03T08:40:54.83Z</time></trkpt><trkpt lat="45.9487933" lon="8.7841967"><ele>367.0</ele><time>2026-05-03T08:40:55.83Z</time></trkpt><trkpt lat="45.9488233" lon="8.7842883"><ele>367.0</ele><time>2026-05-03T08:40:56.831Z</time></trkpt><trkpt lat="45.9488517" lon="8.7843717"><ele>367.0</ele><time>2026-05-03T08:40:57.831Z</time></trkpt><trkpt lat="45.948915" lon="8.7844967"><ele>367.0</ele><time>2026-05-03T08:40:59.831Z</time></trkpt><trkpt lat="45.948975" lon="8.7845567"><ele>367.0</ele><time>2026-05-03T08:41:00.83Z</time></trkpt><trkpt lat="45.9490367" lon="8.7846133"><ele>368.5</ele><time>2026-05-03T08:41:01.831Z</time></trkpt><trkpt lat="45.949095" lon="8.784655"><ele>370.0</ele><time>2026-05-03T08:41:02.831Z</time></trkpt><trkpt lat="45.9491783" lon="8.7846533"><ele>371.5</ele><time>2026-05-03T08:41:04.831Z</time></trkpt><trkpt lat="45.94925" lon="8.7846317"><ele>373.0</ele><time>2026-05-03T08:41:05.831Z</time></trkpt><trkpt lat="45.9493317" lon="8.784605"><ele>374.5</ele><time>2026-05-03T08:41:06.831Z</time></trkpt><trkpt lat="45.94945" lon="8.7845533"><ele>376.0</ele><time>2026-05-03T08:41:07.831Z</time></trkpt><trkpt lat="45.949605" lon="8.784485"><ele>376.0</ele><time>2026-05-03T08:41:08.831Z</time></trkpt><trkpt lat="45.9497617" lon="8.7844233"><ele>376.0</ele><time>2026-05-03T08:41:09.83Z</time></trkpt><trkpt lat="45.9499183" lon="8.784365"><ele>376.0</ele><time>2026-05-03T08:41:10.831Z</time></trkpt><trkpt lat="45.95007" lon="8.784305"><ele>374.3333333333333</ele><time>2026-05-03T08:41:11.831Z</time></trkpt><trkpt lat="45.9501933" lon="8.784265"><ele>372.66666666666663</ele><time>2026-05-03T08:41:12.83Z</time></trkpt><trkpt lat="45.9502917" lon="8.7842283"><ele>371.0</ele><time>2026-05-03T08:41:13.831Z</time></trkpt><trkpt lat="45.9503483" lon="8.7841833"><ele>369.3333333333333</ele><time>2026-05-03T08:41:14.831Z</time></trkpt><trkpt lat="45.9503983" lon="8.7841233"><ele>367.6666666666667</ele><time>2026-05-03T08:41:16.831Z</time></trkpt><trkpt lat="45.9504617" lon="8.7841"><ele>366.0</ele><time>2026-05-03T08:41:18.831Z</time></trkpt><trkpt lat="45.95052" lon="8.7841767"><ele>367.6</ele><time>2026-05-03T08:41:34.831Z</time></trkpt><trkpt lat="45.9505067" lon="8.7843833"><ele>369.20000000000005</ele><time>2026-05-03T08:41:37.83Z</time></trkpt><trkpt lat="45.9505033" lon="8.784475"><ele>370.79999999999995</ele><time>2026-05-03T08:41:38.83Z</time></trkpt><trkpt lat="45.950475" lon="8.78468"><ele>372.4</ele><time>2026-05-03T08:41:40.83Z</time></trkpt><trkpt lat="45.9504567" lon="8.7847783"><ele>374.0</ele><time>2026-05-03T08:41:41.83Z</time></trkpt><trkpt lat="45.9504367" lon="8.7848717"><ele>374.0</ele><time>2026-05-03T08:41:42.831Z</time></trkpt><trkpt lat="45.9504133" lon="8.7849583"><ele>374.0</ele><time>2026-05-03T08:41:43.831Z</time></trkpt><trkpt lat="45.9503983" lon="8.78505"><ele>374.0</ele><time>2026-05-03T08:41:44.831Z</time></trkpt><trkpt lat="45.9503817" lon="8.7851467"><ele>374.0</ele><time>2026-05-03T08:41:45.831Z</time></trkpt><trkpt lat="45.950355" lon="8.7853183"><ele>374.0</ele><time>2026-05-03T08:41:47.831Z</time></trkpt><trkpt lat="45.9503367" lon="8.78541"><ele>374.0</ele><time>2026-05-03T08:41:48.831Z</time></trkpt><trkpt lat="45.9503233" lon="8.7855033"><ele>375.4</ele><time>2026-05-03T08:41:49.831Z</time></trkpt><trkpt lat="45.950315" lon="8.7855933"><ele>376.79999999999995</ele><time>2026-05-03T08:41:50.831Z</time></trkpt><trkpt lat="45.9503083" lon="8.78569"><ele>378.20000000000005</ele><time>2026-05-03T08:41:51.831Z</time></trkpt><trkpt lat="45.950305" lon="8.7858467"><ele>379.6</ele><time>2026-05-03T08:41:53.831Z</time></trkpt><trkpt lat="45.9503483" lon="8.785985"><ele>381.0</ele><time>2026-05-03T08:41:55.831Z</time></trkpt><trkpt lat="45.9504067" lon="8.7861117"><ele>382.8</ele><time>2026-05-03T08:41:57.83Z</time></trkpt><trkpt lat="45.950465" lon="8.7862017"><ele>384.6</ele><time>2026-05-03T08:41:59.83Z</time></trkpt><trkpt lat="45.9505183" lon="8.7863267"><ele>386.4</ele><time>2026-05-03T08:42:01.831Z</time></trkpt><trkpt lat="45.950595" lon="8.786455"><ele>388.2</ele><time>2026-05-03T08:42:03.831Z</time></trkpt><trkpt lat="45.9506533" lon="8.7865583"><ele>390.0</ele><time>2026-05-03T08:42:05.83Z</time></trkpt><trkpt lat="45.9506917" lon="8.7866917"><ele>391.4</ele><time>2026-05-03T08:42:07.83Z</time></trkpt><trkpt lat="45.9507233" lon="8.7869017"><ele>392.8</ele><time>2026-05-03T08:42:09.831Z</time></trkpt><trkpt lat="45.9507383" lon="8.7870067"><ele>394.20000000000005</ele><time>2026-05-03T08:42:10.831Z</time></trkpt><trkpt lat="45.95075" lon="8.78711"><ele>395.6</ele><time>2026-05-03T08:42:11.831Z</time></trkpt><trkpt lat="45.950755" lon="8.7872167"><ele>397.0</ele><time>2026-05-03T08:42:12.831Z</time></trkpt><trkpt lat="45.9507667" lon="8.78734"><ele>397.00000000000006</ele><time>2026-05-03T08:42:13.831Z</time></trkpt><trkpt lat="45.9507667" lon="8.7874683"><ele>397.0</ele><time>2026-05-03T08:42:14.831Z</time></trkpt><trkpt lat="45.9507683" lon="8.787585"><ele>397.0</ele><time>2026-05-03T08:42:15.83Z</time></trkpt><trkpt lat="45.9507733" lon="8.7876983"><ele>397.0</ele><time>2026-05-03T08:42:16.83Z</time></trkpt><trkpt lat="45.9507833" lon="8.7878317"><ele>397.00000000000006</ele><time>2026-05-03T08:42:17.831Z</time></trkpt><trkpt lat="45.9507867" lon="8.7879567"><ele>397.0</ele><time>2026-05-03T08:42:18.831Z</time></trkpt><trkpt lat="45.9507683" lon="8.7880633"><ele>396.50000000000006</ele><time>2026-05-03T08:42:19.831Z</time></trkpt><trkpt lat="45.9507383" lon="8.788215"><ele>396.0</ele><time>2026-05-03T08:42:21.831Z</time></trkpt><trkpt lat="45.9507183" lon="8.7883267"><ele>395.5</ele><time>2026-05-03T08:42:23.831Z</time></trkpt><trkpt lat="45.9507783" lon="8.7883767"><ele>395.0</ele><time>2026-05-03T08:42:30.831Z</time></trkpt><trkpt lat="45.9508433" lon="8.7883883"><ele>394.50000000000006</ele><time>2026-05-03T08:42:33.831Z</time></trkpt><trkpt lat="45.9509233" lon="8.78844"><ele>394.0</ele><time>2026-05-03T08:42:35.831Z</time></trkpt><trkpt lat="45.9510117" lon="8.7884933"><ele>395.50000000000006</ele><time>2026-05-03T08:42:37.831Z</time></trkpt><trkpt lat="45.9510783" lon="8.7885483"><ele>397.0</ele><time>2026-05-03T08:42:39.83Z</time></trkpt><trkpt lat="45.9511417" lon="8.7886167"><ele>398.5</ele><time>2026-05-03T08:42:41.831Z</time></trkpt><trkpt lat="45.9511767" lon="8.7887117"><ele>400.0</ele><time>2026-05-03T08:42:43.83Z</time></trkpt><trkpt lat="45.9512017" lon="8.788815"><ele>401.50000000000006</ele><time>2026-05-03T08:42:45.831Z</time></trkpt><trkpt lat="45.9512167" lon="8.788945"><ele>403.0</ele><time>2026-05-03T08:42:48.831Z</time></trkpt><trkpt lat="45.9512017" lon="8.7890517"><ele>403.00000000000006</ele><time>2026-05-03T08:42:51.831Z</time></trkpt><trkpt lat="45.9511683" lon="8.7891383"><ele>403.0</ele><time>2026-05-03T08:42:53.83Z</time></trkpt><trkpt lat="45.9511167" lon="8.7893033"><ele>403.0</ele><time>2026-05-03T08:42:55.831Z</time></trkpt><trkpt lat="45.9510767" lon="8.789385"><ele>403.0</ele><time>2026-05-03T08:42:56.831Z</time></trkpt><trkpt lat="45.9510417" lon="8.7894717"><ele>403.00000000000006</ele><time>2026-05-03T08:42:57.831Z</time></trkpt><trkpt lat="45.9509933" lon="8.789615"><ele>403.0</ele><time>2026-05-03T08:42:59.831Z</time></trkpt><trkpt lat="45.950965" lon="8.78976"><ele>404.83333333333337</ele><time>2026-05-03T08:43:01.83Z</time></trkpt><trkpt lat="45.9509667" lon="8.7898683"><ele>406.6666666666667</ele><time>2026-05-03T08:43:03.831Z</time></trkpt><trkpt lat="45.9510033" lon="8.7899633"><ele>408.5</ele><time>2026-05-03T08:43:06.831Z</time></trkpt><trkpt lat="45.9510067" lon="8.7901"><ele>410.33333333333337</ele><time>2026-05-03T08:43:26.831Z</time></trkpt><trkpt lat="45.950985" lon="8.7902333"><ele>412.1666666666667</ele><time>2026-05-03T08:43:43.83Z</time></trkpt><trkpt lat="45.95096" lon="8.7903417"><ele>414.0</ele><time>2026-05-03T08:43:48.831Z</time></trkpt><trkpt lat="45.9509667" lon="8.7904417"><ele>416.00000000000006</ele><time>2026-05-03T08:43:51.83Z</time></trkpt><trkpt lat="45.9509933" lon="8.7905383"><ele>418.0</ele><time>2026-05-03T08:43:55.831Z</time></trkpt><trkpt lat="45.9509933" lon="8.7906317"><ele>420.0</ele><time>2026-05-03T08:44:01.831Z</time></trkpt><trkpt lat="45.9509983" lon="8.7907283"><ele>422.0</ele><time>2026-05-03T08:44:04.831Z</time></trkpt><trkpt lat="45.9510183" lon="8.7908233"><ele>424.0</ele><time>2026-05-03T08:44:08.831Z</time></trkpt><trkpt lat="45.9510367" lon="8.7909317"><ele>426.00000000000006</ele><time>2026-05-03T08:44:12.831Z</time></trkpt><trkpt lat="45.9510583" lon="8.791025"><ele>428.0</ele><time>2026-05-03T08:44:19.831Z</time></trkpt><trkpt lat="45.951085" lon="8.7911183"><ele>430.49999999999994</ele><time>2026-05-03T08:44:29.831Z</time></trkpt><trkpt lat="45.9510683" lon="8.791215"><ele>433.0</ele><time>2026-05-03T08:44:41.831Z</time></trkpt><trkpt lat="45.951045" lon="8.7913883"><ele>435.5</ele><time>2026-05-03T08:46:01.831Z</time></trkpt><trkpt lat="45.9509622" lon="8.7915103"><ele>438.0</ele><time>2026-05-03T08:46:40.905Z</time></trkpt><trkpt lat="45.9509059" lon="8.7915627"><ele>440.49999999999994</ele><time>2026-05-03T08:46:45.836Z</time></trkpt><trkpt lat="45.9508574" lon="8.7916205"><ele>443.0</ele><time>2026-05-03T08:46:58.851Z</time></trkpt><trkpt lat="45.9507867" lon="8.7915983"><ele>443.0</ele><time>2026-05-03T08:51:24.83Z</time></trkpt><trkpt lat="45.9508067" lon="8.791505"><ele>443.0</ele><time>2026-05-03T08:53:37.83Z</time></trkpt><trkpt lat="45.9508717" lon="8.7914733"><ele>443.0</ele><time>2026-05-03T08:53:45.83Z</time></trkpt><trkpt lat="45.950935" lon="8.7914433"><ele>443.0</ele><time>2026-05-03T08:53:51.83Z</time></trkpt><trkpt lat="45.9509933" lon="8.7913917"><ele>443.0</ele><time>2026-05-03T08:54:03.83Z</time></trkpt><trkpt lat="45.9510367" lon="8.7912967"><ele>443.0</ele><time>2026-05-03T08:54:10.83Z</time></trkpt><trkpt lat="45.951055" lon="8.7911967"><ele>443.0</ele><time>2026-05-03T08:54:18.829Z</time></trkpt><trkpt lat="45.9510333" lon="8.7910883"><ele>440.49999999999994</ele><time>2026-05-03T08:54:22.83Z</time></trkpt><trkpt lat="45.9510183" lon="8.790995"><ele>438.0</ele><time>2026-05-03T08:54:25.83Z</time></trkpt><trkpt lat="45.951015" lon="8.7909017"><ele>435.5</ele><time>2026-05-03T08:54:28.829Z</time></trkpt><trkpt lat="45.9510067" lon="8.7907933"><ele>433.0</ele><time>2026-05-03T08:54:31.83Z</time></trkpt><trkpt lat="45.951025" lon="8.79066"><ele>430.49999999999994</ele><time>2026-05-03T08:54:34.83Z</time></trkpt><trkpt lat="45.9510533" lon="8.7905567"><ele>428.0</ele><time>2026-05-03T08:54:37.83Z</time></trkpt><trkpt lat="45.9510633" lon="8.790455"><ele>427.99999999999994</ele><time>2026-05-03T08:54:46.829Z</time></trkpt><trkpt lat="45.95112" lon="8.7903133"><ele>428.0</ele><time>2026-05-03T08:55:17.83Z</time></trkpt><trkpt lat="45.9511933" lon="8.79034"><ele>428.0</ele><time>2026-05-03T08:55:20.829Z</time></trkpt><trkpt lat="45.951265" lon="8.7903533"><ele>428.0</ele><time>2026-05-03T08:55:23.83Z</time></trkpt><trkpt lat="45.9513283" lon="8.7903733"><ele>427.99999999999994</ele><time>2026-05-03T08:55:35.83Z</time></trkpt><trkpt lat="45.9514133" lon="8.7903433"><ele>428.0</ele><time>2026-05-03T08:55:38.83Z</time></trkpt><trkpt lat="45.9515017" lon="8.7903533"><ele>428.0</ele><time>2026-05-03T08:55:40.829Z</time></trkpt><trkpt lat="45.9515733" lon="8.7903617"><ele>427.99999999999994</ele><time>2026-05-03T08:55:42.829Z</time></trkpt><trkpt lat="45.9516133" lon="8.790455"><ele>427.99999999999994</ele><time>2026-05-03T08:55:44.83Z</time></trkpt><trkpt lat="45.9516867" lon="8.790555"><ele>428.0</ele><time>2026-05-03T08:55:46.83Z</time></trkpt><trkpt lat="45.95181" lon="8.7906483"><ele>428.0</ele><time>2026-05-03T08:55:48.829Z</time></trkpt><trkpt lat="45.9519417" lon="8.7906833"><ele>427.49999999999994</ele><time>2026-05-03T08:55:50.83Z</time></trkpt><trkpt lat="45.9520083" lon="8.7906967"><ele>427.0</ele><time>2026-05-03T08:55:51.83Z</time></trkpt><trkpt lat="45.95212" lon="8.79073"><ele>426.5</ele><time>2026-05-03T08:55:53.829Z</time></trkpt><trkpt lat="45.952215" lon="8.79081"><ele>426.0</ele><time>2026-05-03T08:55:55.83Z</time></trkpt><trkpt lat="45.9522733" lon="8.79086"><ele>425.49999999999994</ele><time>2026-05-03T08:55:56.83Z</time></trkpt><trkpt lat="45.9523317" lon="8.7909067"><ele>425.0</ele><time>2026-05-03T08:55:57.83Z</time></trkpt><trkpt lat="45.95239" lon="8.7909817"><ele>425.7142857142857</ele><time>2026-05-03T08:55:59.83Z</time></trkpt><trkpt lat="45.9524517" lon="8.7910567"><ele>426.42857142857144</ele><time>2026-05-03T08:56:01.83Z</time></trkpt><trkpt lat="45.9525083" lon="8.791105"><ele>427.1428571428571</ele><time>2026-05-03T08:56:03.83Z</time></trkpt><trkpt lat="45.952565" lon="8.7911567"><ele>427.8571428571429</ele><time>2026-05-03T08:56:06.83Z</time></trkpt><trkpt lat="45.9526167" lon="8.7912117"><ele>428.5714285714286</ele><time>2026-05-03T08:56:10.83Z</time></trkpt><trkpt lat="45.9526483" lon="8.7913033"><ele>429.2857142857143</ele><time>2026-05-03T08:56:14.83Z</time></trkpt><trkpt lat="45.9526733" lon="8.7914083"><ele>430.0</ele><time>2026-05-03T08:56:18.83Z</time></trkpt><trkpt lat="45.952705" lon="8.7915033"><ele>430.00000000000006</ele><time>2026-05-03T08:56:21.83Z</time></trkpt><trkpt lat="45.952765" lon="8.7915533"><ele>430.0</ele><time>2026-05-03T08:56:23.83Z</time></trkpt><trkpt lat="45.95281" lon="8.7916417"><ele>430.0</ele><time>2026-05-03T08:56:24.83Z</time></trkpt><trkpt lat="45.9528633" lon="8.7917567"><ele>430.0</ele><time>2026-05-03T08:56:26.83Z</time></trkpt><trkpt lat="45.952905" lon="8.791865"><ele>430.00000000000006</ele><time>2026-05-03T08:56:28.829Z</time></trkpt><trkpt lat="45.9529133" lon="8.7919983"><ele>430.0</ele><time>2026-05-03T08:56:30.83Z</time></trkpt><trkpt lat="45.9528633" lon="8.79212"><ele>431.4</ele><time>2026-05-03T08:56:33.83Z</time></trkpt><trkpt lat="45.9528117" lon="8.7922117"><ele>432.8</ele><time>2026-05-03T08:56:35.829Z</time></trkpt><trkpt lat="45.9527367" lon="8.7923317"><ele>434.20000000000005</ele><time>2026-05-03T08:56:37.83Z</time></trkpt><trkpt lat="45.952675" lon="8.7924417"><ele>435.6</ele><time>2026-05-03T08:56:39.83Z</time></trkpt><trkpt lat="45.9525967" lon="8.79255"><ele>437.0</ele><time>2026-05-03T08:56:41.829Z</time></trkpt><trkpt lat="45.9525417" lon="8.792605"><ele>438.6</ele><time>2026-05-03T08:56:42.83Z</time></trkpt><trkpt lat="45.952435" lon="8.7926567"><ele>440.20000000000005</ele><time>2026-05-03T08:56:44.829Z</time></trkpt><trkpt lat="45.9523733" lon="8.79268"><ele>441.8</ele><time>2026-05-03T08:56:45.829Z</time></trkpt><trkpt lat="45.9523067" lon="8.7927133"><ele>443.4</ele><time>2026-05-03T08:56:46.83Z</time></trkpt><trkpt lat="45.9522067" lon="8.7927867"><ele>445.0</ele><time>2026-05-03T08:56:48.83Z</time></trkpt><trkpt lat="45.9521033" lon="8.7928583"><ele>448.2</ele><time>2026-05-03T08:56:50.829Z</time></trkpt><trkpt lat="45.9520183" lon="8.7928583"><ele>451.4</ele><time>2026-05-03T08:56:53.83Z</time></trkpt><trkpt lat="45.951945" lon="8.7928467"><ele>454.6</ele><time>2026-05-03T08:56:55.83Z</time></trkpt><trkpt lat="45.95186" lon="8.7928217"><ele>457.8</ele><time>2026-05-03T08:56:58.829Z</time></trkpt><trkpt lat="45.951775" lon="8.7927967"><ele>461.0</ele><time>2026-05-03T08:57:00.83Z</time></trkpt><trkpt lat="45.95164" lon="8.79278"><ele>462.16666666666663</ele><time>2026-05-03T08:57:06.83Z</time></trkpt><trkpt lat="45.9515633" lon="8.7928883"><ele>463.3333333333333</ele><time>2026-05-03T08:57:08.83Z</time></trkpt><trkpt lat="45.95151" lon="8.7929717"><ele>464.5</ele><time>2026-05-03T08:57:10.829Z</time></trkpt><trkpt lat="45.951465" lon="8.7930917"><ele>465.66666666666663</ele><time>2026-05-03T08:57:13.83Z</time></trkpt><trkpt lat="45.95147" lon="8.7931833"><ele>466.8333333333333</ele><time>2026-05-03T08:57:16.829Z</time></trkpt><trkpt lat="45.9515267" lon="8.79326"><ele>468.0</ele><time>2026-05-03T08:57:19.83Z</time></trkpt><trkpt lat="45.951595" lon="8.7933033"><ele>468.0</ele><time>2026-05-03T08:57:27.83Z</time></trkpt><trkpt lat="45.9516117" lon="8.7933917"><ele>468.00000000000006</ele><time>2026-05-03T08:57:31.83Z</time></trkpt><trkpt lat="45.9516033" lon="8.793505"><ele>468.0</ele><time>2026-05-03T08:57:35.83Z</time></trkpt><trkpt lat="45.9516167" lon="8.7935983"><ele>468.0</ele><time>2026-05-03T08:57:39.83Z</time></trkpt><trkpt lat="45.95169" lon="8.7936633"><ele>468.00000000000006</ele><time>2026-05-03T08:57:58.829Z</time></trkpt><trkpt lat="45.951755" lon="8.79362"><ele>468.0</ele><time>2026-05-03T08:58:03.83Z</time></trkpt><trkpt lat="45.9518217" lon="8.7936317"><ele>468.0</ele><time>2026-05-03T08:58:10.83Z</time></trkpt><trkpt lat="45.95188" lon="8.7937133"><ele>471.5</ele><time>2026-05-03T08:58:17.83Z</time></trkpt><trkpt lat="45.9519383" lon="8.79378"><ele>475.0</ele><time>2026-05-03T08:58:19.83Z</time></trkpt><trkpt lat="45.9520233" lon="8.7937933"><ele>478.5</ele><time>2026-05-03T08:58:22.83Z</time></trkpt><trkpt lat="45.952105" lon="8.7938283"><ele>482.0</ele><time>2026-05-03T08:58:24.829Z</time></trkpt><trkpt lat="45.9521717" lon="8.7938417"><ele>485.5</ele><time>2026-05-03T08:58:27.83Z</time></trkpt><trkpt lat="45.95224" lon="8.7938367"><ele>489.0</ele><time>2026-05-03T08:58:30.83Z</time></trkpt><trkpt lat="45.9523283" lon="8.7938483"><ele>489.0</ele><time>2026-05-03T08:58:33.83Z</time></trkpt><trkpt lat="45.952405" lon="8.7938467"><ele>489.00000000000006</ele><time>2026-05-03T08:58:35.83Z</time></trkpt><trkpt lat="45.952475" lon="8.7938583"><ele>489.0</ele><time>2026-05-03T08:58:37.829Z</time></trkpt><trkpt lat="45.95257" lon="8.7938617"><ele>489.0</ele><time>2026-05-03T08:58:39.83Z</time></trkpt><trkpt lat="45.9526361" lon="8.7938771"><ele>489.00000000000006</ele><time>2026-05-03T08:58:42.882Z</time></trkpt><trkpt lat="45.9527082" lon="8.7938806"><ele>489.0</ele><time>2026-05-03T08:58:44.926Z</time></trkpt><trkpt lat="45.9527749" lon="8.7938948"><ele>489.0</ele><time>2026-05-03T08:58:48.914Z</time></trkpt><trkpt lat="45.9528916" lon="8.793945"><ele>488.0</ele><time>2026-05-03T08:59:29.842Z</time></trkpt></trkseg><trkseg><trkpt lat="45.9552431" lon="8.7978917"><ele>559.3</ele><time>2026-05-03T09:22:21.357Z</time></trkpt></trkseg></trk></gpx>